<?xml version="1.0" encoding="UTF-8" standalone="no" ?>
<gpx xmlns="http://www.topografix.com/GPX/1/1" xmlns:xsi="http://www.w3.org/2001/XMLSchema-instance" xsi:schemaLocation="http://www.topografix.com/GPX/1/1 http://www.topografix.com/GPX/1/1/gpx.xsd" version="1.1" creator="VisuGPX - https://www.visugpx.com">
  <metadata>
    <name>Crançot-Ermitage.</name>
  </metadata>
  <trk>
    <name><![CDATA[Crançot-Ermitage._1]]></name>
    <extensions>
      <line xmlns="http://www.topografix.com/GPX/gpx_style/0/2">
        <color>0000FF</color>
        <width>4</width>
      </line>
    </extensions>
    <trkseg>
      <trkpt lat="46.68844" lon="5.65898">
        <ele>495.2</ele>
        <time>2022-05-12T07:39:10Z</time>
      </trkpt>
      <trkpt lat="46.68843" lon="5.65877">
        <ele>496.7</ele>
        <time>2022-05-12T07:39:12Z</time>
      </trkpt>
      <trkpt lat="46.68842" lon="5.65869">
        <ele>499.1</ele>
        <time>2022-05-12T07:39:14Z</time>
      </trkpt>
      <trkpt lat="46.68841" lon="5.65862">
        <ele>501.4</ele>
        <time>2022-05-12T07:39:16Z</time>
      </trkpt>
      <trkpt lat="46.68841" lon="5.65855">
        <ele>505.6</ele>
        <time>2022-05-12T07:39:20Z</time>
      </trkpt>
      <trkpt lat="46.68842" lon="5.65862">
        <ele>512.3</ele>
        <time>2022-05-12T07:39:39Z</time>
      </trkpt>
      <trkpt lat="46.68844" lon="5.65869">
        <ele>508.2</ele>
        <time>2022-05-12T07:47:29Z</time>
      </trkpt>
      <trkpt lat="46.68844" lon="5.65876">
        <ele>507.8</ele>
        <time>2022-05-12T07:47:34Z</time>
      </trkpt>
      <trkpt lat="46.68843" lon="5.65883">
        <ele>507.5</ele>
        <time>2022-05-12T07:47:39Z</time>
      </trkpt>
      <trkpt lat="46.68844" lon="5.65891">
        <ele>507</ele>
        <time>2022-05-12T07:47:45Z</time>
      </trkpt>
      <trkpt lat="46.68846" lon="5.65898">
        <ele>506.5</ele>
        <time>2022-05-12T07:47:52Z</time>
      </trkpt>
      <trkpt lat="46.68851" lon="5.659">
        <ele>505.9</ele>
        <time>2022-05-12T07:47:58Z</time>
      </trkpt>
      <trkpt lat="46.68855" lon="5.659">
        <ele>505.7</ele>
        <time>2022-05-12T07:48:03Z</time>
      </trkpt>
      <trkpt lat="46.68861" lon="5.65902">
        <ele>505.3</ele>
        <time>2022-05-12T07:48:08Z</time>
      </trkpt>
      <trkpt lat="46.68866" lon="5.65904">
        <ele>505.2</ele>
        <time>2022-05-12T07:48:12Z</time>
      </trkpt>
      <trkpt lat="46.68871" lon="5.65903">
        <ele>505.1</ele>
        <time>2022-05-12T07:48:17Z</time>
      </trkpt>
      <trkpt lat="46.68873" lon="5.65897">
        <ele>504.9</ele>
        <time>2022-05-12T07:48:21Z</time>
      </trkpt>
      <trkpt lat="46.68876" lon="5.65891">
        <ele>504.8</ele>
        <time>2022-05-12T07:48:25Z</time>
      </trkpt>
      <trkpt lat="46.68879" lon="5.65886">
        <ele>503.9</ele>
        <time>2022-05-12T07:48:30Z</time>
      </trkpt>
      <trkpt lat="46.68883" lon="5.65881">
        <ele>503.3</ele>
        <time>2022-05-12T07:48:35Z</time>
      </trkpt>
      <trkpt lat="46.68887" lon="5.65877">
        <ele>503.1</ele>
        <time>2022-05-12T07:48:39Z</time>
      </trkpt>
      <trkpt lat="46.6889" lon="5.6587">
        <ele>503.4</ele>
        <time>2022-05-12T07:48:44Z</time>
      </trkpt>
      <trkpt lat="46.68891" lon="5.65864">
        <ele>503.7</ele>
        <time>2022-05-12T07:48:50Z</time>
      </trkpt>
      <trkpt lat="46.68895" lon="5.65859">
        <ele>503.9</ele>
        <time>2022-05-12T07:48:55Z</time>
      </trkpt>
      <trkpt lat="46.68899" lon="5.65854">
        <ele>503.9</ele>
        <time>2022-05-12T07:48:59Z</time>
      </trkpt>
      <trkpt lat="46.68902" lon="5.65848">
        <ele>504.2</ele>
        <time>2022-05-12T07:49:03Z</time>
      </trkpt>
      <trkpt lat="46.68903" lon="5.65841">
        <ele>504.6</ele>
        <time>2022-05-12T07:49:07Z</time>
      </trkpt>
      <trkpt lat="46.68904" lon="5.65833">
        <ele>505.2</ele>
        <time>2022-05-12T07:49:12Z</time>
      </trkpt>
      <trkpt lat="46.68906" lon="5.65827">
        <ele>505.7</ele>
        <time>2022-05-12T07:49:17Z</time>
      </trkpt>
      <trkpt lat="46.68908" lon="5.65821">
        <ele>506.4</ele>
        <time>2022-05-12T07:49:22Z</time>
      </trkpt>
      <trkpt lat="46.68909" lon="5.65813">
        <ele>507.2</ele>
        <time>2022-05-12T07:49:28Z</time>
      </trkpt>
      <trkpt lat="46.68907" lon="5.65807">
        <ele>506.9</ele>
        <time>2022-05-12T07:49:31Z</time>
      </trkpt>
      <trkpt lat="46.68906" lon="5.658">
        <ele>506.6</ele>
        <time>2022-05-12T07:49:34Z</time>
      </trkpt>
      <trkpt lat="46.68908" lon="5.65792">
        <ele>506.5</ele>
        <time>2022-05-12T07:49:39Z</time>
      </trkpt>
      <trkpt lat="46.6891" lon="5.65785">
        <ele>506.4</ele>
        <time>2022-05-12T07:49:43Z</time>
      </trkpt>
      <trkpt lat="46.68914" lon="5.65779">
        <ele>506.6</ele>
        <time>2022-05-12T07:49:47Z</time>
      </trkpt>
      <trkpt lat="46.68916" lon="5.65772">
        <ele>506.7</ele>
        <time>2022-05-12T07:49:52Z</time>
      </trkpt>
      <trkpt lat="46.68918" lon="5.65766">
        <ele>506.6</ele>
        <time>2022-05-12T07:49:56Z</time>
      </trkpt>
      <trkpt lat="46.6892" lon="5.6576">
        <ele>506.2</ele>
        <time>2022-05-12T07:50:00Z</time>
      </trkpt>
      <trkpt lat="46.68924" lon="5.65753">
        <ele>506.1</ele>
        <time>2022-05-12T07:50:05Z</time>
      </trkpt>
      <trkpt lat="46.68926" lon="5.65747">
        <ele>505.9</ele>
        <time>2022-05-12T07:50:10Z</time>
      </trkpt>
      <trkpt lat="46.68929" lon="5.6574">
        <ele>506.4</ele>
        <time>2022-05-12T07:50:15Z</time>
      </trkpt>
      <trkpt lat="46.68931" lon="5.65735">
        <ele>506.6</ele>
        <time>2022-05-12T07:50:19Z</time>
      </trkpt>
      <trkpt lat="46.68934" lon="5.65728">
        <ele>507</ele>
        <time>2022-05-12T07:50:23Z</time>
      </trkpt>
      <trkpt lat="46.68937" lon="5.65721">
        <ele>507.3</ele>
        <time>2022-05-12T07:50:28Z</time>
      </trkpt>
      <trkpt lat="46.6894" lon="5.65716">
        <ele>507.6</ele>
        <time>2022-05-12T07:50:33Z</time>
      </trkpt>
      <trkpt lat="46.68942" lon="5.65709">
        <ele>507.7</ele>
        <time>2022-05-12T07:50:38Z</time>
      </trkpt>
      <trkpt lat="46.68944" lon="5.65703">
        <ele>507.7</ele>
        <time>2022-05-12T07:50:42Z</time>
      </trkpt>
      <trkpt lat="46.68947" lon="5.65697">
        <ele>507.5</ele>
        <time>2022-05-12T07:50:46Z</time>
      </trkpt>
      <trkpt lat="46.68949" lon="5.65691">
        <ele>507.2</ele>
        <time>2022-05-12T07:50:50Z</time>
      </trkpt>
      <trkpt lat="46.68949" lon="5.65683">
        <ele>506.3</ele>
        <time>2022-05-12T07:50:55Z</time>
      </trkpt>
      <trkpt lat="46.6895" lon="5.65677">
        <ele>505.2</ele>
        <time>2022-05-12T07:50:59Z</time>
      </trkpt>
      <trkpt lat="46.68952" lon="5.65671">
        <ele>504.4</ele>
        <time>2022-05-12T07:51:03Z</time>
      </trkpt>
      <trkpt lat="46.68954" lon="5.65663">
        <ele>504</ele>
        <time>2022-05-12T07:51:08Z</time>
      </trkpt>
      <trkpt lat="46.68956" lon="5.65657">
        <ele>503.6</ele>
        <time>2022-05-12T07:51:12Z</time>
      </trkpt>
      <trkpt lat="46.68959" lon="5.65651">
        <ele>502.6</ele>
        <time>2022-05-12T07:51:17Z</time>
      </trkpt>
      <trkpt lat="46.68962" lon="5.65645">
        <ele>501.4</ele>
        <time>2022-05-12T07:51:23Z</time>
      </trkpt>
      <trkpt lat="46.68966" lon="5.65639">
        <ele>501</ele>
        <time>2022-05-12T07:51:28Z</time>
      </trkpt>
      <trkpt lat="46.6897" lon="5.65635">
        <ele>501.3</ele>
        <time>2022-05-12T07:51:34Z</time>
      </trkpt>
      <trkpt lat="46.68974" lon="5.6563">
        <ele>500.8</ele>
        <time>2022-05-12T07:51:39Z</time>
      </trkpt>
      <trkpt lat="46.68978" lon="5.65627">
        <ele>500.4</ele>
        <time>2022-05-12T07:51:43Z</time>
      </trkpt>
      <trkpt lat="46.68982" lon="5.65624">
        <ele>500.4</ele>
        <time>2022-05-12T07:51:49Z</time>
      </trkpt>
      <trkpt lat="46.68987" lon="5.65625">
        <ele>501.2</ele>
        <time>2022-05-12T07:51:54Z</time>
      </trkpt>
      <trkpt lat="46.68992" lon="5.65629">
        <ele>501.6</ele>
        <time>2022-05-12T07:51:58Z</time>
      </trkpt>
      <trkpt lat="46.68997" lon="5.65631">
        <ele>501.7</ele>
        <time>2022-05-12T07:52:02Z</time>
      </trkpt>
      <trkpt lat="46.69002" lon="5.6563">
        <ele>501.7</ele>
        <time>2022-05-12T07:52:07Z</time>
      </trkpt>
      <trkpt lat="46.69007" lon="5.6563">
        <ele>502</ele>
        <time>2022-05-12T07:52:13Z</time>
      </trkpt>
      <trkpt lat="46.69011" lon="5.65626">
        <ele>502.9</ele>
        <time>2022-05-12T07:52:21Z</time>
      </trkpt>
      <trkpt lat="46.69016" lon="5.65629">
        <ele>503.4</ele>
        <time>2022-05-12T07:52:27Z</time>
      </trkpt>
      <trkpt lat="46.69022" lon="5.6563">
        <ele>504</ele>
        <time>2022-05-12T07:52:31Z</time>
      </trkpt>
      <trkpt lat="46.69027" lon="5.65632">
        <ele>504.3</ele>
        <time>2022-05-12T07:52:34Z</time>
      </trkpt>
      <trkpt lat="46.69032" lon="5.65634">
        <ele>504.6</ele>
        <time>2022-05-12T07:52:38Z</time>
      </trkpt>
      <trkpt lat="46.69036" lon="5.65637">
        <ele>504.8</ele>
        <time>2022-05-12T07:52:44Z</time>
      </trkpt>
      <trkpt lat="46.69042" lon="5.65636">
        <ele>504.9</ele>
        <time>2022-05-12T07:52:50Z</time>
      </trkpt>
      <trkpt lat="46.69047" lon="5.65632">
        <ele>504.8</ele>
        <time>2022-05-12T07:52:54Z</time>
      </trkpt>
      <trkpt lat="46.69052" lon="5.65629">
        <ele>504.4</ele>
        <time>2022-05-12T07:52:57Z</time>
      </trkpt>
      <trkpt lat="46.69056" lon="5.65625">
        <ele>504</ele>
        <time>2022-05-12T07:53:00Z</time>
      </trkpt>
      <trkpt lat="46.6906" lon="5.65621">
        <ele>503.7</ele>
        <time>2022-05-12T07:53:03Z</time>
      </trkpt>
      <trkpt lat="46.69065" lon="5.65616">
        <ele>503.4</ele>
        <time>2022-05-12T07:53:07Z</time>
      </trkpt>
      <trkpt lat="46.69068" lon="5.6561">
        <ele>503.1</ele>
        <time>2022-05-12T07:53:11Z</time>
      </trkpt>
      <trkpt lat="46.6907" lon="5.65603">
        <ele>502.8</ele>
        <time>2022-05-12T07:53:15Z</time>
      </trkpt>
      <trkpt lat="46.69072" lon="5.65597">
        <ele>502.3</ele>
        <time>2022-05-12T07:53:19Z</time>
      </trkpt>
      <trkpt lat="46.69075" lon="5.6559">
        <ele>501.9</ele>
        <time>2022-05-12T07:53:25Z</time>
      </trkpt>
      <trkpt lat="46.69075" lon="5.65582">
        <ele>501.7</ele>
        <time>2022-05-12T07:53:29Z</time>
      </trkpt>
      <trkpt lat="46.69076" lon="5.65575">
        <ele>500.7</ele>
        <time>2022-05-12T07:53:34Z</time>
      </trkpt>
      <trkpt lat="46.69079" lon="5.65569">
        <ele>499.6</ele>
        <time>2022-05-12T07:53:39Z</time>
      </trkpt>
      <trkpt lat="46.69081" lon="5.65562">
        <ele>498.5</ele>
        <time>2022-05-12T07:53:44Z</time>
      </trkpt>
      <trkpt lat="46.69083" lon="5.65554">
        <ele>498.1</ele>
        <time>2022-05-12T07:53:48Z</time>
      </trkpt>
      <trkpt lat="46.69084" lon="5.65547">
        <ele>497.7</ele>
        <time>2022-05-12T07:53:52Z</time>
      </trkpt>
      <trkpt lat="46.69086" lon="5.65541">
        <ele>497.6</ele>
        <time>2022-05-12T07:53:56Z</time>
      </trkpt>
      <trkpt lat="46.69089" lon="5.65537">
        <ele>497.9</ele>
        <time>2022-05-12T07:54:00Z</time>
      </trkpt>
      <trkpt lat="46.69094" lon="5.65535">
        <ele>498.2</ele>
        <time>2022-05-12T07:54:05Z</time>
      </trkpt>
      <trkpt lat="46.69099" lon="5.65535">
        <ele>498.3</ele>
        <time>2022-05-12T07:54:10Z</time>
      </trkpt>
      <trkpt lat="46.69104" lon="5.65534">
        <ele>498.1</ele>
        <time>2022-05-12T07:54:14Z</time>
      </trkpt>
      <trkpt lat="46.69109" lon="5.65533">
        <ele>497.8</ele>
        <time>2022-05-12T07:54:18Z</time>
      </trkpt>
      <trkpt lat="46.69113" lon="5.65534">
        <ele>497.5</ele>
        <time>2022-05-12T07:54:22Z</time>
      </trkpt>
      <trkpt lat="46.69119" lon="5.65534">
        <ele>497.7</ele>
        <time>2022-05-12T07:54:27Z</time>
      </trkpt>
      <trkpt lat="46.69124" lon="5.65536">
        <ele>498</ele>
        <time>2022-05-12T07:54:32Z</time>
      </trkpt>
      <trkpt lat="46.69129" lon="5.65535">
        <ele>498.2</ele>
        <time>2022-05-12T07:54:36Z</time>
      </trkpt>
      <trkpt lat="46.69134" lon="5.65536">
        <ele>498.4</ele>
        <time>2022-05-12T07:54:41Z</time>
      </trkpt>
      <trkpt lat="46.69139" lon="5.65536">
        <ele>498.9</ele>
        <time>2022-05-12T07:54:46Z</time>
      </trkpt>
      <trkpt lat="46.69144" lon="5.65537">
        <ele>499.7</ele>
        <time>2022-05-12T07:54:51Z</time>
      </trkpt>
      <trkpt lat="46.69149" lon="5.65535">
        <ele>500</ele>
        <time>2022-05-12T07:54:57Z</time>
      </trkpt>
      <trkpt lat="46.69154" lon="5.65532">
        <ele>499.8</ele>
        <time>2022-05-12T07:55:03Z</time>
      </trkpt>
      <trkpt lat="46.69159" lon="5.6553">
        <ele>500.1</ele>
        <time>2022-05-12T07:55:08Z</time>
      </trkpt>
      <trkpt lat="46.69164" lon="5.65529">
        <ele>500.5</ele>
        <time>2022-05-12T07:55:12Z</time>
      </trkpt>
      <trkpt lat="46.6917" lon="5.65527">
        <ele>501</ele>
        <time>2022-05-12T07:55:16Z</time>
      </trkpt>
      <trkpt lat="46.69175" lon="5.65526">
        <ele>501.6</ele>
        <time>2022-05-12T07:55:20Z</time>
      </trkpt>
      <trkpt lat="46.69179" lon="5.65525">
        <ele>502.3</ele>
        <time>2022-05-12T07:55:24Z</time>
      </trkpt>
      <trkpt lat="46.69184" lon="5.65522">
        <ele>502.7</ele>
        <time>2022-05-12T07:55:28Z</time>
      </trkpt>
      <trkpt lat="46.69188" lon="5.65518">
        <ele>503</ele>
        <time>2022-05-12T07:55:32Z</time>
      </trkpt>
      <trkpt lat="46.69193" lon="5.65514">
        <ele>503.1</ele>
        <time>2022-05-12T07:55:37Z</time>
      </trkpt>
      <trkpt lat="46.69198" lon="5.65512">
        <ele>503.2</ele>
        <time>2022-05-12T07:55:41Z</time>
      </trkpt>
      <trkpt lat="46.69203" lon="5.65511">
        <ele>503.2</ele>
        <time>2022-05-12T07:55:46Z</time>
      </trkpt>
      <trkpt lat="46.69207" lon="5.65508">
        <ele>503.2</ele>
        <time>2022-05-12T07:55:51Z</time>
      </trkpt>
      <trkpt lat="46.69211" lon="5.65503">
        <ele>503.1</ele>
        <time>2022-05-12T07:55:56Z</time>
      </trkpt>
      <trkpt lat="46.69216" lon="5.655">
        <ele>502.8</ele>
        <time>2022-05-12T07:56:01Z</time>
      </trkpt>
      <trkpt lat="46.69221" lon="5.65498">
        <ele>502.7</ele>
        <time>2022-05-12T07:56:05Z</time>
      </trkpt>
      <trkpt lat="46.69225" lon="5.65495">
        <ele>502.7</ele>
        <time>2022-05-12T07:56:09Z</time>
      </trkpt>
      <trkpt lat="46.6923" lon="5.65491">
        <ele>502.8</ele>
        <time>2022-05-12T07:56:13Z</time>
      </trkpt>
      <trkpt lat="46.69235" lon="5.65489">
        <ele>502.7</ele>
        <time>2022-05-12T07:56:17Z</time>
      </trkpt>
      <trkpt lat="46.6924" lon="5.65487">
        <ele>502.4</ele>
        <time>2022-05-12T07:56:22Z</time>
      </trkpt>
      <trkpt lat="46.69245" lon="5.65486">
        <ele>502</ele>
        <time>2022-05-12T07:56:26Z</time>
      </trkpt>
      <trkpt lat="46.6925" lon="5.65485">
        <ele>502.1</ele>
        <time>2022-05-12T07:56:33Z</time>
      </trkpt>
      <trkpt lat="46.69255" lon="5.65482">
        <ele>502.4</ele>
        <time>2022-05-12T07:56:38Z</time>
      </trkpt>
      <trkpt lat="46.6926" lon="5.6548">
        <ele>502.4</ele>
        <time>2022-05-12T07:56:42Z</time>
      </trkpt>
      <trkpt lat="46.69265" lon="5.65477">
        <ele>502.6</ele>
        <time>2022-05-12T07:56:47Z</time>
      </trkpt>
      <trkpt lat="46.69269" lon="5.65473">
        <ele>502.6</ele>
        <time>2022-05-12T07:56:51Z</time>
      </trkpt>
      <trkpt lat="46.69274" lon="5.65471">
        <ele>502.7</ele>
        <time>2022-05-12T07:56:55Z</time>
      </trkpt>
      <trkpt lat="46.69278" lon="5.65468">
        <ele>503.2</ele>
        <time>2022-05-12T07:56:59Z</time>
      </trkpt>
      <trkpt lat="46.69282" lon="5.65463">
        <ele>504.5</ele>
        <time>2022-05-12T07:57:05Z</time>
      </trkpt>
      <trkpt lat="46.69287" lon="5.65459">
        <ele>505.3</ele>
        <time>2022-05-12T07:57:10Z</time>
      </trkpt>
      <trkpt lat="46.69291" lon="5.65457">
        <ele>505.6</ele>
        <time>2022-05-12T07:57:13Z</time>
      </trkpt>
      <trkpt lat="46.69296" lon="5.65453">
        <ele>505.5</ele>
        <time>2022-05-12T07:57:17Z</time>
      </trkpt>
      <trkpt lat="46.69301" lon="5.65451">
        <ele>505.1</ele>
        <time>2022-05-12T07:57:21Z</time>
      </trkpt>
      <trkpt lat="46.69306" lon="5.65448">
        <ele>504.6</ele>
        <time>2022-05-12T07:57:25Z</time>
      </trkpt>
      <trkpt lat="46.6931" lon="5.65445">
        <ele>504.3</ele>
        <time>2022-05-12T07:57:29Z</time>
      </trkpt>
      <trkpt lat="46.69316" lon="5.65444">
        <ele>504.1</ele>
        <time>2022-05-12T07:57:33Z</time>
      </trkpt>
      <trkpt lat="46.69321" lon="5.65442">
        <ele>503.9</ele>
        <time>2022-05-12T07:57:37Z</time>
      </trkpt>
      <trkpt lat="46.69326" lon="5.65441">
        <ele>503.4</ele>
        <time>2022-05-12T07:57:41Z</time>
      </trkpt>
      <trkpt lat="46.6933" lon="5.65438">
        <ele>503.3</ele>
        <time>2022-05-12T07:57:45Z</time>
      </trkpt>
      <trkpt lat="46.69334" lon="5.65435">
        <ele>503.5</ele>
        <time>2022-05-12T07:57:49Z</time>
      </trkpt>
      <trkpt lat="46.6934" lon="5.65434">
        <ele>503.6</ele>
        <time>2022-05-12T07:57:53Z</time>
      </trkpt>
      <trkpt lat="46.69345" lon="5.65431">
        <ele>503.8</ele>
        <time>2022-05-12T07:57:58Z</time>
      </trkpt>
      <trkpt lat="46.69349" lon="5.65428">
        <ele>504.1</ele>
        <time>2022-05-12T07:58:02Z</time>
      </trkpt>
      <trkpt lat="46.69353" lon="5.65426">
        <ele>504.1</ele>
        <time>2022-05-12T07:58:06Z</time>
      </trkpt>
      <trkpt lat="46.69358" lon="5.65424">
        <ele>504.5</ele>
        <time>2022-05-12T07:58:11Z</time>
      </trkpt>
      <trkpt lat="46.69362" lon="5.6542">
        <ele>505.2</ele>
        <time>2022-05-12T07:58:16Z</time>
      </trkpt>
      <trkpt lat="46.69368" lon="5.65416">
        <ele>505.4</ele>
        <time>2022-05-12T07:58:20Z</time>
      </trkpt>
      <trkpt lat="46.69373" lon="5.65414">
        <ele>505.4</ele>
        <time>2022-05-12T07:58:24Z</time>
      </trkpt>
      <trkpt lat="46.69379" lon="5.65412">
        <ele>505.4</ele>
        <time>2022-05-12T07:58:28Z</time>
      </trkpt>
      <trkpt lat="46.69384" lon="5.65408">
        <ele>505.4</ele>
        <time>2022-05-12T07:58:32Z</time>
      </trkpt>
      <trkpt lat="46.69387" lon="5.65403">
        <ele>505.6</ele>
        <time>2022-05-12T07:58:36Z</time>
      </trkpt>
      <trkpt lat="46.69389" lon="5.65395">
        <ele>505.6</ele>
        <time>2022-05-12T07:58:41Z</time>
      </trkpt>
      <trkpt lat="46.69392" lon="5.65389">
        <ele>505.1</ele>
        <time>2022-05-12T07:58:46Z</time>
      </trkpt>
      <trkpt lat="46.69392" lon="5.65382">
        <ele>505.1</ele>
        <time>2022-05-12T07:58:51Z</time>
      </trkpt>
      <trkpt lat="46.69393" lon="5.65374">
        <ele>505.8</ele>
        <time>2022-05-12T07:58:56Z</time>
      </trkpt>
      <trkpt lat="46.69395" lon="5.65368">
        <ele>506.6</ele>
        <time>2022-05-12T07:59:00Z</time>
      </trkpt>
      <trkpt lat="46.69397" lon="5.65361">
        <ele>507.2</ele>
        <time>2022-05-12T07:59:05Z</time>
      </trkpt>
      <trkpt lat="46.69399" lon="5.65354">
        <ele>507.6</ele>
        <time>2022-05-12T07:59:09Z</time>
      </trkpt>
      <trkpt lat="46.69402" lon="5.65348">
        <ele>507.2</ele>
        <time>2022-05-12T07:59:14Z</time>
      </trkpt>
      <trkpt lat="46.69405" lon="5.65342">
        <ele>506.5</ele>
        <time>2022-05-12T07:59:19Z</time>
      </trkpt>
      <trkpt lat="46.69408" lon="5.65335">
        <ele>505.6</ele>
        <time>2022-05-12T07:59:24Z</time>
      </trkpt>
      <trkpt lat="46.69413" lon="5.65332">
        <ele>504.3</ele>
        <time>2022-05-12T07:59:29Z</time>
      </trkpt>
      <trkpt lat="46.69416" lon="5.65325">
        <ele>502.6</ele>
        <time>2022-05-12T07:59:35Z</time>
      </trkpt>
      <trkpt lat="46.69419" lon="5.65319">
        <ele>501.8</ele>
        <time>2022-05-12T07:59:39Z</time>
      </trkpt>
      <trkpt lat="46.69423" lon="5.65313">
        <ele>501</ele>
        <time>2022-05-12T07:59:43Z</time>
      </trkpt>
      <trkpt lat="46.69426" lon="5.65306">
        <ele>500.6</ele>
        <time>2022-05-12T07:59:47Z</time>
      </trkpt>
      <trkpt lat="46.69429" lon="5.653">
        <ele>500.5</ele>
        <time>2022-05-12T07:59:51Z</time>
      </trkpt>
      <trkpt lat="46.69431" lon="5.65293">
        <ele>500.6</ele>
        <time>2022-05-12T07:59:56Z</time>
      </trkpt>
      <trkpt lat="46.69434" lon="5.65288">
        <ele>500.9</ele>
        <time>2022-05-12T08:00:02Z</time>
      </trkpt>
      <trkpt lat="46.69439" lon="5.65285">
        <ele>501.2</ele>
        <time>2022-05-12T08:00:07Z</time>
      </trkpt>
      <trkpt lat="46.69443" lon="5.65283">
        <ele>501.1</ele>
        <time>2022-05-12T08:00:11Z</time>
      </trkpt>
      <trkpt lat="46.69448" lon="5.65279">
        <ele>500.7</ele>
        <time>2022-05-12T08:00:15Z</time>
      </trkpt>
      <trkpt lat="46.69452" lon="5.65274">
        <ele>500.5</ele>
        <time>2022-05-12T08:00:20Z</time>
      </trkpt>
      <trkpt lat="46.69455" lon="5.65269">
        <ele>500.4</ele>
        <time>2022-05-12T08:00:25Z</time>
      </trkpt>
      <trkpt lat="46.69459" lon="5.65265">
        <ele>500.7</ele>
        <time>2022-05-12T08:00:29Z</time>
      </trkpt>
      <trkpt lat="46.69463" lon="5.65261">
        <ele>501.5</ele>
        <time>2022-05-12T08:00:33Z</time>
      </trkpt>
      <trkpt lat="46.69468" lon="5.65257">
        <ele>502.4</ele>
        <time>2022-05-12T08:00:38Z</time>
      </trkpt>
      <trkpt lat="46.69472" lon="5.65252">
        <ele>503.2</ele>
        <time>2022-05-12T08:00:42Z</time>
      </trkpt>
      <trkpt lat="46.69477" lon="5.6525">
        <ele>504.3</ele>
        <time>2022-05-12T08:00:47Z</time>
      </trkpt>
      <trkpt lat="46.69481" lon="5.65246">
        <ele>504.9</ele>
        <time>2022-05-12T08:00:52Z</time>
      </trkpt>
      <trkpt lat="46.69486" lon="5.65244">
        <ele>504.8</ele>
        <time>2022-05-12T08:00:56Z</time>
      </trkpt>
      <trkpt lat="46.6949" lon="5.65243">
        <ele>504.4</ele>
        <time>2022-05-12T08:01:01Z</time>
      </trkpt>
      <trkpt lat="46.69495" lon="5.65242">
        <ele>503.6</ele>
        <time>2022-05-12T08:01:07Z</time>
      </trkpt>
      <trkpt lat="46.69499" lon="5.65238">
        <ele>502.5</ele>
        <time>2022-05-12T08:01:12Z</time>
      </trkpt>
      <trkpt lat="46.69503" lon="5.65235">
        <ele>501.9</ele>
        <time>2022-05-12T08:01:17Z</time>
      </trkpt>
      <trkpt lat="46.69508" lon="5.65232">
        <ele>501.9</ele>
        <time>2022-05-12T08:01:21Z</time>
      </trkpt>
      <trkpt lat="46.69512" lon="5.65228">
        <ele>502.2</ele>
        <time>2022-05-12T08:01:25Z</time>
      </trkpt>
      <trkpt lat="46.69517" lon="5.65225">
        <ele>502.6</ele>
        <time>2022-05-12T08:01:30Z</time>
      </trkpt>
      <trkpt lat="46.69521" lon="5.65225">
        <ele>502.9</ele>
        <time>2022-05-12T08:01:34Z</time>
      </trkpt>
      <trkpt lat="46.69527" lon="5.65225">
        <ele>503.6</ele>
        <time>2022-05-12T08:01:39Z</time>
      </trkpt>
      <trkpt lat="46.69532" lon="5.65227">
        <ele>504.5</ele>
        <time>2022-05-12T08:01:44Z</time>
      </trkpt>
      <trkpt lat="46.69537" lon="5.65228">
        <ele>504.8</ele>
        <time>2022-05-12T08:01:47Z</time>
      </trkpt>
      <trkpt lat="46.69542" lon="5.65229">
        <ele>504.7</ele>
        <time>2022-05-12T08:01:50Z</time>
      </trkpt>
      <trkpt lat="46.69546" lon="5.65233">
        <ele>504.6</ele>
        <time>2022-05-12T08:01:54Z</time>
      </trkpt>
      <trkpt lat="46.6955" lon="5.65237">
        <ele>504.1</ele>
        <time>2022-05-12T08:01:59Z</time>
      </trkpt>
      <trkpt lat="46.69554" lon="5.65242">
        <ele>503.7</ele>
        <time>2022-05-12T08:02:05Z</time>
      </trkpt>
      <trkpt lat="46.69559" lon="5.65246">
        <ele>503.2</ele>
        <time>2022-05-12T08:02:10Z</time>
      </trkpt>
      <trkpt lat="46.69564" lon="5.65249">
        <ele>502.8</ele>
        <time>2022-05-12T08:02:15Z</time>
      </trkpt>
      <trkpt lat="46.69569" lon="5.65252">
        <ele>502.4</ele>
        <time>2022-05-12T08:02:21Z</time>
      </trkpt>
      <trkpt lat="46.69574" lon="5.65257">
        <ele>501.5</ele>
        <time>2022-05-12T08:02:27Z</time>
      </trkpt>
      <trkpt lat="46.69578" lon="5.6526">
        <ele>501</ele>
        <time>2022-05-12T08:02:31Z</time>
      </trkpt>
      <trkpt lat="46.69583" lon="5.65263">
        <ele>500.7</ele>
        <time>2022-05-12T08:02:34Z</time>
      </trkpt>
      <trkpt lat="46.69588" lon="5.65266">
        <ele>500.3</ele>
        <time>2022-05-12T08:02:38Z</time>
      </trkpt>
      <trkpt lat="46.69593" lon="5.65264">
        <ele>500.1</ele>
        <time>2022-05-12T08:02:43Z</time>
      </trkpt>
      <trkpt lat="46.69598" lon="5.65262">
        <ele>500</ele>
        <time>2022-05-12T08:02:47Z</time>
      </trkpt>
      <trkpt lat="46.69603" lon="5.6526">
        <ele>500</ele>
        <time>2022-05-12T08:02:53Z</time>
      </trkpt>
      <trkpt lat="46.69607" lon="5.65264">
        <ele>500.7</ele>
        <time>2022-05-12T08:03:05Z</time>
      </trkpt>
      <trkpt lat="46.69603" lon="5.65261">
        <ele>502.1</ele>
        <time>2022-05-12T08:03:28Z</time>
      </trkpt>
      <trkpt lat="46.696" lon="5.65267">
        <ele>502.5</ele>
        <time>2022-05-12T08:03:40Z</time>
      </trkpt>
      <trkpt lat="46.69599" lon="5.6526">
        <ele>501.8</ele>
        <time>2022-05-12T08:03:59Z</time>
      </trkpt>
      <trkpt lat="46.69603" lon="5.65258">
        <ele>498</ele>
        <time>2022-05-12T08:04:22Z</time>
      </trkpt>
      <trkpt lat="46.69604" lon="5.65252">
        <ele>495.8</ele>
        <time>2022-05-12T08:04:49Z</time>
      </trkpt>
      <trkpt lat="46.69604" lon="5.65245">
        <ele>497.9</ele>
        <time>2022-05-12T08:04:55Z</time>
      </trkpt>
      <trkpt lat="46.69609" lon="5.65243">
        <ele>500</ele>
        <time>2022-05-12T08:05:02Z</time>
      </trkpt>
      <trkpt lat="46.69613" lon="5.65239">
        <ele>502</ele>
        <time>2022-05-12T08:05:09Z</time>
      </trkpt>
      <trkpt lat="46.69617" lon="5.65235">
        <ele>503.3</ele>
        <time>2022-05-12T08:05:16Z</time>
      </trkpt>
      <trkpt lat="46.6962" lon="5.65228">
        <ele>503.1</ele>
        <time>2022-05-12T08:05:22Z</time>
      </trkpt>
      <trkpt lat="46.69624" lon="5.65224">
        <ele>502.7</ele>
        <time>2022-05-12T08:05:26Z</time>
      </trkpt>
      <trkpt lat="46.69628" lon="5.65219">
        <ele>501.5</ele>
        <time>2022-05-12T08:05:33Z</time>
      </trkpt>
      <trkpt lat="46.69633" lon="5.65218">
        <ele>500.5</ele>
        <time>2022-05-12T08:05:39Z</time>
      </trkpt>
      <trkpt lat="46.69638" lon="5.65217">
        <ele>500.3</ele>
        <time>2022-05-12T08:05:43Z</time>
      </trkpt>
      <trkpt lat="46.69642" lon="5.65215">
        <ele>500.8</ele>
        <time>2022-05-12T08:05:48Z</time>
      </trkpt>
      <trkpt lat="46.69647" lon="5.65211">
        <ele>500.8</ele>
        <time>2022-05-12T08:05:55Z</time>
      </trkpt>
      <trkpt lat="46.69651" lon="5.65207">
        <ele>501.2</ele>
        <time>2022-05-12T08:06:01Z</time>
      </trkpt>
      <trkpt lat="46.69655" lon="5.65203">
        <ele>501.4</ele>
        <time>2022-05-12T08:06:07Z</time>
      </trkpt>
      <trkpt lat="46.6966" lon="5.65201">
        <ele>501.8</ele>
        <time>2022-05-12T08:06:12Z</time>
      </trkpt>
      <trkpt lat="46.69664" lon="5.65198">
        <ele>502</ele>
        <time>2022-05-12T08:06:17Z</time>
      </trkpt>
      <trkpt lat="46.69669" lon="5.65195">
        <ele>501.7</ele>
        <time>2022-05-12T08:06:22Z</time>
      </trkpt>
      <trkpt lat="46.69674" lon="5.65193">
        <ele>501.6</ele>
        <time>2022-05-12T08:06:26Z</time>
      </trkpt>
      <trkpt lat="46.69678" lon="5.65193">
        <ele>502.1</ele>
        <time>2022-05-12T08:06:31Z</time>
      </trkpt>
      <trkpt lat="46.69683" lon="5.65192">
        <ele>503.2</ele>
        <time>2022-05-12T08:06:38Z</time>
      </trkpt>
      <trkpt lat="46.69689" lon="5.65189">
        <ele>503.5</ele>
        <time>2022-05-12T08:06:50Z</time>
      </trkpt>
      <trkpt lat="46.69694" lon="5.65188">
        <ele>503.3</ele>
        <time>2022-05-12T08:06:53Z</time>
      </trkpt>
      <trkpt lat="46.697" lon="5.65186">
        <ele>503.4</ele>
        <time>2022-05-12T08:06:57Z</time>
      </trkpt>
      <trkpt lat="46.69704" lon="5.65184">
        <ele>503.4</ele>
        <time>2022-05-12T08:07:01Z</time>
      </trkpt>
      <trkpt lat="46.69709" lon="5.65182">
        <ele>503.6</ele>
        <time>2022-05-12T08:07:06Z</time>
      </trkpt>
      <trkpt lat="46.69714" lon="5.65179">
        <ele>504</ele>
        <time>2022-05-12T08:07:11Z</time>
      </trkpt>
      <trkpt lat="46.6972" lon="5.65178">
        <ele>504.7</ele>
        <time>2022-05-12T08:07:15Z</time>
      </trkpt>
      <trkpt lat="46.69725" lon="5.65176">
        <ele>505.4</ele>
        <time>2022-05-12T08:07:20Z</time>
      </trkpt>
      <trkpt lat="46.69729" lon="5.65176">
        <ele>505.9</ele>
        <time>2022-05-12T08:07:24Z</time>
      </trkpt>
      <trkpt lat="46.69734" lon="5.65175">
        <ele>506.4</ele>
        <time>2022-05-12T08:07:30Z</time>
      </trkpt>
      <trkpt lat="46.69739" lon="5.65175">
        <ele>506.9</ele>
        <time>2022-05-12T08:07:37Z</time>
      </trkpt>
      <trkpt lat="46.69744" lon="5.65174">
        <ele>507.5</ele>
        <time>2022-05-12T08:07:42Z</time>
      </trkpt>
      <trkpt lat="46.69749" lon="5.65174">
        <ele>507.4</ele>
        <time>2022-05-12T08:07:48Z</time>
      </trkpt>
      <trkpt lat="46.69754" lon="5.6517">
        <ele>506.5</ele>
        <time>2022-05-12T08:07:54Z</time>
      </trkpt>
      <trkpt lat="46.69758" lon="5.65167">
        <ele>505.7</ele>
        <time>2022-05-12T08:07:59Z</time>
      </trkpt>
      <trkpt lat="46.69762" lon="5.65162">
        <ele>505</ele>
        <time>2022-05-12T08:08:05Z</time>
      </trkpt>
      <trkpt lat="46.69765" lon="5.65155">
        <ele>504.5</ele>
        <time>2022-05-12T08:08:10Z</time>
      </trkpt>
      <trkpt lat="46.69768" lon="5.6515">
        <ele>504.2</ele>
        <time>2022-05-12T08:08:15Z</time>
      </trkpt>
      <trkpt lat="46.69771" lon="5.65146">
        <ele>503.8</ele>
        <time>2022-05-12T08:08:19Z</time>
      </trkpt>
      <trkpt lat="46.69777" lon="5.65143">
        <ele>503.1</ele>
        <time>2022-05-12T08:08:23Z</time>
      </trkpt>
      <trkpt lat="46.69781" lon="5.65141">
        <ele>502.4</ele>
        <time>2022-05-12T08:08:27Z</time>
      </trkpt>
      <trkpt lat="46.69785" lon="5.65139">
        <ele>501.4</ele>
        <time>2022-05-12T08:08:33Z</time>
      </trkpt>
      <trkpt lat="46.6979" lon="5.65138">
        <ele>500.6</ele>
        <time>2022-05-12T08:08:39Z</time>
      </trkpt>
      <trkpt lat="46.69795" lon="5.65135">
        <ele>500.2</ele>
        <time>2022-05-12T08:08:45Z</time>
      </trkpt>
      <trkpt lat="46.69799" lon="5.65132">
        <ele>500.5</ele>
        <time>2022-05-12T08:08:50Z</time>
      </trkpt>
      <trkpt lat="46.69804" lon="5.65131">
        <ele>500.9</ele>
        <time>2022-05-12T08:08:57Z</time>
      </trkpt>
      <trkpt lat="46.69809" lon="5.65128">
        <ele>501.6</ele>
        <time>2022-05-12T08:09:02Z</time>
      </trkpt>
      <trkpt lat="46.69814" lon="5.65126">
        <ele>502.3</ele>
        <time>2022-05-12T08:09:05Z</time>
      </trkpt>
      <trkpt lat="46.69819" lon="5.65124">
        <ele>503.7</ele>
        <time>2022-05-12T08:09:09Z</time>
      </trkpt>
      <trkpt lat="46.69822" lon="5.6512">
        <ele>505.3</ele>
        <time>2022-05-12T08:09:15Z</time>
      </trkpt>
      <trkpt lat="46.69826" lon="5.65114">
        <ele>506.7</ele>
        <time>2022-05-12T08:09:23Z</time>
      </trkpt>
      <trkpt lat="46.6983" lon="5.6511">
        <ele>507.9</ele>
        <time>2022-05-12T08:09:29Z</time>
      </trkpt>
      <trkpt lat="46.69835" lon="5.65106">
        <ele>508.7</ele>
        <time>2022-05-12T08:09:36Z</time>
      </trkpt>
      <trkpt lat="46.69839" lon="5.65103">
        <ele>508.5</ele>
        <time>2022-05-12T08:09:39Z</time>
      </trkpt>
      <trkpt lat="46.69844" lon="5.651">
        <ele>508.3</ele>
        <time>2022-05-12T08:09:43Z</time>
      </trkpt>
      <trkpt lat="46.69848" lon="5.65097">
        <ele>508</ele>
        <time>2022-05-12T08:09:48Z</time>
      </trkpt>
      <trkpt lat="46.69853" lon="5.65097">
        <ele>507.4</ele>
        <time>2022-05-12T08:09:53Z</time>
      </trkpt>
      <trkpt lat="46.69856" lon="5.65091">
        <ele>506.5</ele>
        <time>2022-05-12T08:09:58Z</time>
      </trkpt>
      <trkpt lat="46.69859" lon="5.65085">
        <ele>505.9</ele>
        <time>2022-05-12T08:10:02Z</time>
      </trkpt>
      <trkpt lat="46.69861" lon="5.65078">
        <ele>505.4</ele>
        <time>2022-05-12T08:10:06Z</time>
      </trkpt>
      <trkpt lat="46.69864" lon="5.65073">
        <ele>505</ele>
        <time>2022-05-12T08:10:11Z</time>
      </trkpt>
      <trkpt lat="46.69869" lon="5.65068">
        <ele>504.2</ele>
        <time>2022-05-12T08:10:16Z</time>
      </trkpt>
      <trkpt lat="46.69872" lon="5.65064">
        <ele>503.4</ele>
        <time>2022-05-12T08:10:21Z</time>
      </trkpt>
      <trkpt lat="46.69876" lon="5.65058">
        <ele>502.6</ele>
        <time>2022-05-12T08:10:27Z</time>
      </trkpt>
      <trkpt lat="46.69878" lon="5.65052">
        <ele>502.1</ele>
        <time>2022-05-12T08:10:32Z</time>
      </trkpt>
      <trkpt lat="46.6988" lon="5.65046">
        <ele>501.6</ele>
        <time>2022-05-12T08:10:38Z</time>
      </trkpt>
      <trkpt lat="46.69882" lon="5.65039">
        <ele>501.5</ele>
        <time>2022-05-12T08:10:43Z</time>
      </trkpt>
      <trkpt lat="46.69884" lon="5.65032">
        <ele>501.9</ele>
        <time>2022-05-12T08:10:49Z</time>
      </trkpt>
      <trkpt lat="46.69887" lon="5.65027">
        <ele>502.1</ele>
        <time>2022-05-12T08:10:54Z</time>
      </trkpt>
      <trkpt lat="46.69891" lon="5.65023">
        <ele>501.8</ele>
        <time>2022-05-12T08:11:00Z</time>
      </trkpt>
      <trkpt lat="46.69895" lon="5.65017">
        <ele>500.9</ele>
        <time>2022-05-12T08:11:06Z</time>
      </trkpt>
      <trkpt lat="46.69897" lon="5.6501">
        <ele>500.2</ele>
        <time>2022-05-12T08:11:11Z</time>
      </trkpt>
      <trkpt lat="46.69897" lon="5.65002">
        <ele>500</ele>
        <time>2022-05-12T08:11:15Z</time>
      </trkpt>
      <trkpt lat="46.69898" lon="5.64995">
        <ele>500</ele>
        <time>2022-05-12T08:11:19Z</time>
      </trkpt>
      <trkpt lat="46.69899" lon="5.64987">
        <ele>500.2</ele>
        <time>2022-05-12T08:11:24Z</time>
      </trkpt>
      <trkpt lat="46.699" lon="5.64981">
        <ele>499.9</ele>
        <time>2022-05-12T08:11:29Z</time>
      </trkpt>
      <trkpt lat="46.69902" lon="5.64974">
        <ele>499.4</ele>
        <time>2022-05-12T08:11:35Z</time>
      </trkpt>
      <trkpt lat="46.69903" lon="5.64967">
        <ele>498.7</ele>
        <time>2022-05-12T08:11:40Z</time>
      </trkpt>
      <trkpt lat="46.69904" lon="5.6496">
        <ele>498.3</ele>
        <time>2022-05-12T08:11:45Z</time>
      </trkpt>
      <trkpt lat="46.69906" lon="5.64954">
        <ele>498.1</ele>
        <time>2022-05-12T08:11:49Z</time>
      </trkpt>
      <trkpt lat="46.69908" lon="5.64946">
        <ele>497.7</ele>
        <time>2022-05-12T08:11:54Z</time>
      </trkpt>
      <trkpt lat="46.69909" lon="5.64939">
        <ele>497.4</ele>
        <time>2022-05-12T08:11:58Z</time>
      </trkpt>
      <trkpt lat="46.69912" lon="5.64934">
        <ele>497.5</ele>
        <time>2022-05-12T08:12:09Z</time>
      </trkpt>
      <trkpt lat="46.69917" lon="5.64937">
        <ele>497.6</ele>
        <time>2022-05-12T08:12:14Z</time>
      </trkpt>
      <trkpt lat="46.69922" lon="5.64939">
        <ele>497.6</ele>
        <time>2022-05-12T08:12:18Z</time>
      </trkpt>
      <trkpt lat="46.69927" lon="5.64939">
        <ele>497.8</ele>
        <time>2022-05-12T08:12:22Z</time>
      </trkpt>
      <trkpt lat="46.69932" lon="5.64941">
        <ele>498.3</ele>
        <time>2022-05-12T08:12:26Z</time>
      </trkpt>
      <trkpt lat="46.69936" lon="5.64943">
        <ele>499.3</ele>
        <time>2022-05-12T08:12:30Z</time>
      </trkpt>
      <trkpt lat="46.69942" lon="5.64945">
        <ele>500.5</ele>
        <time>2022-05-12T08:12:35Z</time>
      </trkpt>
      <trkpt lat="46.69947" lon="5.64946">
        <ele>500.7</ele>
        <time>2022-05-12T08:12:41Z</time>
      </trkpt>
      <trkpt lat="46.69952" lon="5.64945">
        <ele>500.9</ele>
        <time>2022-05-12T08:12:45Z</time>
      </trkpt>
      <trkpt lat="46.69957" lon="5.64944">
        <ele>501.3</ele>
        <time>2022-05-12T08:12:50Z</time>
      </trkpt>
      <trkpt lat="46.69961" lon="5.64941">
        <ele>501.6</ele>
        <time>2022-05-12T08:12:57Z</time>
      </trkpt>
      <trkpt lat="46.69965" lon="5.64937">
        <ele>500.9</ele>
        <time>2022-05-12T08:13:03Z</time>
      </trkpt>
      <trkpt lat="46.69968" lon="5.64931">
        <ele>500.3</ele>
        <time>2022-05-12T08:13:09Z</time>
      </trkpt>
      <trkpt lat="46.69972" lon="5.64927">
        <ele>499.7</ele>
        <time>2022-05-12T08:13:14Z</time>
      </trkpt>
      <trkpt lat="46.69976" lon="5.64922">
        <ele>499.6</ele>
        <time>2022-05-12T08:13:21Z</time>
      </trkpt>
      <trkpt lat="46.6998" lon="5.64925">
        <ele>499.2</ele>
        <time>2022-05-12T08:13:30Z</time>
      </trkpt>
      <trkpt lat="46.69977" lon="5.64931">
        <ele>499.5</ele>
        <time>2022-05-12T08:14:14Z</time>
      </trkpt>
      <trkpt lat="46.69973" lon="5.64936">
        <ele>502.1</ele>
        <time>2022-05-12T08:14:29Z</time>
      </trkpt>
      <trkpt lat="46.69969" lon="5.64932">
        <ele>500.9</ele>
        <time>2022-05-12T08:14:46Z</time>
      </trkpt>
      <trkpt lat="46.69973" lon="5.64926">
        <ele>500</ele>
        <time>2022-05-12T08:15:33Z</time>
      </trkpt>
      <trkpt lat="46.69977" lon="5.64923">
        <ele>500.1</ele>
        <time>2022-05-12T08:15:40Z</time>
      </trkpt>
      <trkpt lat="46.69981" lon="5.64918">
        <ele>500.4</ele>
        <time>2022-05-12T08:15:44Z</time>
      </trkpt>
      <trkpt lat="46.69984" lon="5.64913">
        <ele>500.7</ele>
        <time>2022-05-12T08:15:50Z</time>
      </trkpt>
      <trkpt lat="46.69988" lon="5.6491">
        <ele>500.8</ele>
        <time>2022-05-12T08:15:54Z</time>
      </trkpt>
      <trkpt lat="46.69992" lon="5.64905">
        <ele>501.3</ele>
        <time>2022-05-12T08:15:59Z</time>
      </trkpt>
      <trkpt lat="46.69997" lon="5.64902">
        <ele>501.5</ele>
        <time>2022-05-12T08:16:03Z</time>
      </trkpt>
      <trkpt lat="46.70001" lon="5.64898">
        <ele>501.3</ele>
        <time>2022-05-12T08:16:09Z</time>
      </trkpt>
      <trkpt lat="46.70005" lon="5.64894">
        <ele>501</ele>
        <time>2022-05-12T08:16:15Z</time>
      </trkpt>
      <trkpt lat="46.70006" lon="5.64901">
        <ele>503.5</ele>
        <time>2022-05-12T08:17:00Z</time>
      </trkpt>
      <trkpt lat="46.70002" lon="5.64899">
        <ele>504.8</ele>
        <time>2022-05-12T08:17:29Z</time>
      </trkpt>
      <trkpt lat="46.70007" lon="5.64899">
        <ele>503.9</ele>
        <time>2022-05-12T08:17:45Z</time>
      </trkpt>
      <trkpt lat="46.70011" lon="5.64896">
        <ele>502.3</ele>
        <time>2022-05-12T08:17:50Z</time>
      </trkpt>
      <trkpt lat="46.70016" lon="5.64895">
        <ele>500.4</ele>
        <time>2022-05-12T08:17:58Z</time>
      </trkpt>
      <trkpt lat="46.70011" lon="5.64895">
        <ele>499.5</ele>
        <time>2022-05-12T08:18:13Z</time>
      </trkpt>
      <trkpt lat="46.70007" lon="5.64893">
        <ele>499.2</ele>
        <time>2022-05-12T08:18:32Z</time>
      </trkpt>
      <trkpt lat="46.70007" lon="5.64886">
        <ele>497.2</ele>
        <time>2022-05-12T08:18:41Z</time>
      </trkpt>
      <trkpt lat="46.70013" lon="5.64882">
        <ele>496.4</ele>
        <time>2022-05-12T08:18:45Z</time>
      </trkpt>
      <trkpt lat="46.70016" lon="5.64877">
        <ele>495.5</ele>
        <time>2022-05-12T08:18:50Z</time>
      </trkpt>
      <trkpt lat="46.7002" lon="5.64874">
        <ele>494.9</ele>
        <time>2022-05-12T08:18:54Z</time>
      </trkpt>
      <trkpt lat="46.70024" lon="5.64869">
        <ele>494.7</ele>
        <time>2022-05-12T08:18:58Z</time>
      </trkpt>
      <trkpt lat="46.70027" lon="5.64864">
        <ele>494.8</ele>
        <time>2022-05-12T08:19:02Z</time>
      </trkpt>
      <trkpt lat="46.70028" lon="5.64858">
        <ele>494.8</ele>
        <time>2022-05-12T08:19:07Z</time>
      </trkpt>
      <trkpt lat="46.70028" lon="5.6485">
        <ele>495.2</ele>
        <time>2022-05-12T08:19:13Z</time>
      </trkpt>
      <trkpt lat="46.70029" lon="5.64843">
        <ele>495.8</ele>
        <time>2022-05-12T08:19:19Z</time>
      </trkpt>
      <trkpt lat="46.70033" lon="5.64838">
        <ele>496.1</ele>
        <time>2022-05-12T08:19:24Z</time>
      </trkpt>
      <trkpt lat="46.70037" lon="5.64834">
        <ele>495.8</ele>
        <time>2022-05-12T08:19:30Z</time>
      </trkpt>
      <trkpt lat="46.70041" lon="5.6483">
        <ele>495.8</ele>
        <time>2022-05-12T08:19:34Z</time>
      </trkpt>
      <trkpt lat="46.70045" lon="5.64826">
        <ele>495.3</ele>
        <time>2022-05-12T08:19:39Z</time>
      </trkpt>
      <trkpt lat="46.70049" lon="5.64822">
        <ele>495</ele>
        <time>2022-05-12T08:19:44Z</time>
      </trkpt>
      <trkpt lat="46.70054" lon="5.64819">
        <ele>494.7</ele>
        <time>2022-05-12T08:19:49Z</time>
      </trkpt>
      <trkpt lat="46.70059" lon="5.64816">
        <ele>494.6</ele>
        <time>2022-05-12T08:19:53Z</time>
      </trkpt>
      <trkpt lat="46.70064" lon="5.64813">
        <ele>494.8</ele>
        <time>2022-05-12T08:20:00Z</time>
      </trkpt>
      <trkpt lat="46.70067" lon="5.64818">
        <ele>495.3</ele>
        <time>2022-05-12T08:20:09Z</time>
      </trkpt>
      <trkpt lat="46.70071" lon="5.64816">
        <ele>495.7</ele>
        <time>2022-05-12T08:20:17Z</time>
      </trkpt>
      <trkpt lat="46.70072" lon="5.64809">
        <ele>493.2</ele>
        <time>2022-05-12T08:21:02Z</time>
      </trkpt>
      <trkpt lat="46.70075" lon="5.64803">
        <ele>493.3</ele>
        <time>2022-05-12T08:21:14Z</time>
      </trkpt>
      <trkpt lat="46.70079" lon="5.64801">
        <ele>494.2</ele>
        <time>2022-05-12T08:22:02Z</time>
      </trkpt>
      <trkpt lat="46.70077" lon="5.64795">
        <ele>493</ele>
        <time>2022-05-12T08:22:59Z</time>
      </trkpt>
      <trkpt lat="46.7008" lon="5.648">
        <ele>489.8</ele>
        <time>2022-05-12T08:23:36Z</time>
      </trkpt>
      <trkpt lat="46.70077" lon="5.64795">
        <ele>489.1</ele>
        <time>2022-05-12T08:23:56Z</time>
      </trkpt>
      <trkpt lat="46.70072" lon="5.64791">
        <ele>489.1</ele>
        <time>2022-05-12T08:24:00Z</time>
      </trkpt>
      <trkpt lat="46.70067" lon="5.6479">
        <ele>488.7</ele>
        <time>2022-05-12T08:24:04Z</time>
      </trkpt>
      <trkpt lat="46.70062" lon="5.64789">
        <ele>487.9</ele>
        <time>2022-05-12T08:24:10Z</time>
      </trkpt>
      <trkpt lat="46.70058" lon="5.64786">
        <ele>487.3</ele>
        <time>2022-05-12T08:24:14Z</time>
      </trkpt>
      <trkpt lat="46.70053" lon="5.64785">
        <ele>486.7</ele>
        <time>2022-05-12T08:24:18Z</time>
      </trkpt>
      <trkpt lat="46.70048" lon="5.64785">
        <ele>486.1</ele>
        <time>2022-05-12T08:24:23Z</time>
      </trkpt>
      <trkpt lat="46.70043" lon="5.64784">
        <ele>484.8</ele>
        <time>2022-05-12T08:24:31Z</time>
      </trkpt>
      <trkpt lat="46.70037" lon="5.64782">
        <ele>483.6</ele>
        <time>2022-05-12T08:24:43Z</time>
      </trkpt>
      <trkpt lat="46.70032" lon="5.6478">
        <ele>483.7</ele>
        <time>2022-05-12T08:24:47Z</time>
      </trkpt>
      <trkpt lat="46.70028" lon="5.64776">
        <ele>484.1</ele>
        <time>2022-05-12T08:24:53Z</time>
      </trkpt>
      <trkpt lat="46.70026" lon="5.64769">
        <ele>485.6</ele>
        <time>2022-05-12T08:25:00Z</time>
      </trkpt>
      <trkpt lat="46.70023" lon="5.64764">
        <ele>487.3</ele>
        <time>2022-05-12T08:25:07Z</time>
      </trkpt>
      <trkpt lat="46.70019" lon="5.64758">
        <ele>488.4</ele>
        <time>2022-05-12T08:25:12Z</time>
      </trkpt>
      <trkpt lat="46.70018" lon="5.64752">
        <ele>490</ele>
        <time>2022-05-12T08:25:17Z</time>
      </trkpt>
      <trkpt lat="46.70015" lon="5.64746">
        <ele>491.7</ele>
        <time>2022-05-12T08:25:23Z</time>
      </trkpt>
      <trkpt lat="46.70015" lon="5.64739">
        <ele>495.2</ele>
        <time>2022-05-12T08:25:32Z</time>
      </trkpt>
      <trkpt lat="46.70017" lon="5.64732">
        <ele>498.7</ele>
        <time>2022-05-12T08:25:41Z</time>
      </trkpt>
      <trkpt lat="46.70016" lon="5.64726">
        <ele>500.7</ele>
        <time>2022-05-12T08:25:48Z</time>
      </trkpt>
      <trkpt lat="46.70012" lon="5.6472">
        <ele>502.1</ele>
        <time>2022-05-12T08:25:54Z</time>
      </trkpt>
      <trkpt lat="46.70008" lon="5.64715">
        <ele>502.7</ele>
        <time>2022-05-12T08:25:58Z</time>
      </trkpt>
      <trkpt lat="46.70004" lon="5.6471">
        <ele>503.6</ele>
        <time>2022-05-12T08:26:03Z</time>
      </trkpt>
      <trkpt lat="46.7" lon="5.64704">
        <ele>503.8</ele>
        <time>2022-05-12T08:26:07Z</time>
      </trkpt>
      <trkpt lat="46.69997" lon="5.647">
        <ele>503.8</ele>
        <time>2022-05-12T08:26:11Z</time>
      </trkpt>
      <trkpt lat="46.69994" lon="5.64694">
        <ele>504.3</ele>
        <time>2022-05-12T08:26:17Z</time>
      </trkpt>
      <trkpt lat="46.69989" lon="5.64686">
        <ele>505.1</ele>
        <time>2022-05-12T08:26:30Z</time>
      </trkpt>
      <trkpt lat="46.69985" lon="5.64682">
        <ele>505.1</ele>
        <time>2022-05-12T08:26:33Z</time>
      </trkpt>
      <trkpt lat="46.69981" lon="5.64676">
        <ele>505.3</ele>
        <time>2022-05-12T08:26:37Z</time>
      </trkpt>
      <trkpt lat="46.69977" lon="5.64672">
        <ele>505.7</ele>
        <time>2022-05-12T08:26:43Z</time>
      </trkpt>
      <trkpt lat="46.69972" lon="5.64669">
        <ele>505.8</ele>
        <time>2022-05-12T08:26:48Z</time>
      </trkpt>
      <trkpt lat="46.69969" lon="5.64664">
        <ele>505.7</ele>
        <time>2022-05-12T08:26:54Z</time>
      </trkpt>
      <trkpt lat="46.69967" lon="5.64658">
        <ele>503.7</ele>
        <time>2022-05-12T08:27:09Z</time>
      </trkpt>
      <trkpt lat="46.69962" lon="5.64655">
        <ele>503.1</ele>
        <time>2022-05-12T08:27:13Z</time>
      </trkpt>
      <trkpt lat="46.69959" lon="5.64649">
        <ele>502.8</ele>
        <time>2022-05-12T08:27:18Z</time>
      </trkpt>
      <trkpt lat="46.69953" lon="5.64647">
        <ele>503.5</ele>
        <time>2022-05-12T08:27:23Z</time>
      </trkpt>
      <trkpt lat="46.69948" lon="5.64647">
        <ele>502.9</ele>
        <time>2022-05-12T08:27:28Z</time>
      </trkpt>
      <trkpt lat="46.69944" lon="5.64645">
        <ele>500.9</ele>
        <time>2022-05-12T08:27:35Z</time>
      </trkpt>
      <trkpt lat="46.69939" lon="5.64643">
        <ele>499.5</ele>
        <time>2022-05-12T08:27:47Z</time>
      </trkpt>
      <trkpt lat="46.69935" lon="5.64643">
        <ele>499.7</ele>
        <time>2022-05-12T08:27:52Z</time>
      </trkpt>
      <trkpt lat="46.6993" lon="5.64644">
        <ele>499.8</ele>
        <time>2022-05-12T08:27:56Z</time>
      </trkpt>
      <trkpt lat="46.69924" lon="5.64643">
        <ele>500</ele>
        <time>2022-05-12T08:28:01Z</time>
      </trkpt>
      <trkpt lat="46.6992" lon="5.64642">
        <ele>500.3</ele>
        <time>2022-05-12T08:28:07Z</time>
      </trkpt>
      <trkpt lat="46.69915" lon="5.6464">
        <ele>500.6</ele>
        <time>2022-05-12T08:28:13Z</time>
      </trkpt>
      <trkpt lat="46.6991" lon="5.64641">
        <ele>501</ele>
        <time>2022-05-12T08:28:18Z</time>
      </trkpt>
      <trkpt lat="46.69904" lon="5.6464">
        <ele>501.2</ele>
        <time>2022-05-12T08:28:21Z</time>
      </trkpt>
      <trkpt lat="46.69899" lon="5.64638">
        <ele>501.3</ele>
        <time>2022-05-12T08:28:25Z</time>
      </trkpt>
      <trkpt lat="46.69895" lon="5.64632">
        <ele>501.3</ele>
        <time>2022-05-12T08:28:33Z</time>
      </trkpt>
      <trkpt lat="46.69891" lon="5.64628">
        <ele>501.5</ele>
        <time>2022-05-12T08:28:37Z</time>
      </trkpt>
      <trkpt lat="46.69887" lon="5.64624">
        <ele>501.6</ele>
        <time>2022-05-12T08:28:40Z</time>
      </trkpt>
      <trkpt lat="46.69882" lon="5.64621">
        <ele>501.7</ele>
        <time>2022-05-12T08:28:43Z</time>
      </trkpt>
      <trkpt lat="46.69878" lon="5.64619">
        <ele>501.9</ele>
        <time>2022-05-12T08:28:47Z</time>
      </trkpt>
      <trkpt lat="46.69873" lon="5.64616">
        <ele>502</ele>
        <time>2022-05-12T08:28:52Z</time>
      </trkpt>
      <trkpt lat="46.69868" lon="5.64615">
        <ele>502.2</ele>
        <time>2022-05-12T08:28:58Z</time>
      </trkpt>
      <trkpt lat="46.69863" lon="5.64615">
        <ele>502.7</ele>
        <time>2022-05-12T08:29:05Z</time>
      </trkpt>
      <trkpt lat="46.69858" lon="5.64616">
        <ele>503.2</ele>
        <time>2022-05-12T08:29:12Z</time>
      </trkpt>
      <trkpt lat="46.69853" lon="5.64616">
        <ele>504.6</ele>
        <time>2022-05-12T08:29:24Z</time>
      </trkpt>
      <trkpt lat="46.69848" lon="5.64618">
        <ele>504.8</ele>
        <time>2022-05-12T08:29:29Z</time>
      </trkpt>
      <trkpt lat="46.69843" lon="5.64619">
        <ele>505</ele>
        <time>2022-05-12T08:29:35Z</time>
      </trkpt>
      <trkpt lat="46.69838" lon="5.64621">
        <ele>504.9</ele>
        <time>2022-05-12T08:29:40Z</time>
      </trkpt>
      <trkpt lat="46.69834" lon="5.64626">
        <ele>505</ele>
        <time>2022-05-12T08:29:46Z</time>
      </trkpt>
      <trkpt lat="46.6983" lon="5.64628">
        <ele>506</ele>
        <time>2022-05-12T08:29:53Z</time>
      </trkpt>
      <trkpt lat="46.69826" lon="5.64624">
        <ele>506.5</ele>
        <time>2022-05-12T08:29:57Z</time>
      </trkpt>
      <trkpt lat="46.69821" lon="5.64622">
        <ele>506.7</ele>
        <time>2022-05-12T08:30:01Z</time>
      </trkpt>
      <trkpt lat="46.69816" lon="5.6462">
        <ele>506.9</ele>
        <time>2022-05-12T08:30:05Z</time>
      </trkpt>
      <trkpt lat="46.69812" lon="5.64617">
        <ele>507.2</ele>
        <time>2022-05-12T08:30:10Z</time>
      </trkpt>
      <trkpt lat="46.69808" lon="5.64613">
        <ele>507.9</ele>
        <time>2022-05-12T08:30:17Z</time>
      </trkpt>
      <trkpt lat="46.69803" lon="5.64611">
        <ele>509.2</ele>
        <time>2022-05-12T08:30:24Z</time>
      </trkpt>
      <trkpt lat="46.69798" lon="5.64612">
        <ele>509.5</ele>
        <time>2022-05-12T08:30:28Z</time>
      </trkpt>
      <trkpt lat="46.69793" lon="5.64612">
        <ele>510</ele>
        <time>2022-05-12T08:30:34Z</time>
      </trkpt>
      <trkpt lat="46.69788" lon="5.6461">
        <ele>511</ele>
        <time>2022-05-12T08:30:46Z</time>
      </trkpt>
      <trkpt lat="46.69783" lon="5.64608">
        <ele>510.7</ele>
        <time>2022-05-12T08:30:51Z</time>
      </trkpt>
      <trkpt lat="46.69778" lon="5.64609">
        <ele>510.3</ele>
        <time>2022-05-12T08:30:56Z</time>
      </trkpt>
      <trkpt lat="46.69773" lon="5.6461">
        <ele>509.9</ele>
        <time>2022-05-12T08:31:01Z</time>
      </trkpt>
      <trkpt lat="46.69768" lon="5.6461">
        <ele>509.6</ele>
        <time>2022-05-12T08:31:05Z</time>
      </trkpt>
      <trkpt lat="46.69764" lon="5.64608">
        <ele>509.2</ele>
        <time>2022-05-12T08:31:11Z</time>
      </trkpt>
      <trkpt lat="46.6976" lon="5.64605">
        <ele>509.4</ele>
        <time>2022-05-12T08:31:16Z</time>
      </trkpt>
      <trkpt lat="46.69755" lon="5.64604">
        <ele>509.4</ele>
        <time>2022-05-12T08:31:22Z</time>
      </trkpt>
      <trkpt lat="46.6975" lon="5.64604">
        <ele>509.6</ele>
        <time>2022-05-12T08:31:27Z</time>
      </trkpt>
      <trkpt lat="46.69742" lon="5.64605">
        <ele>510.1</ele>
        <time>2022-05-12T08:31:35Z</time>
      </trkpt>
      <trkpt lat="46.69736" lon="5.64605">
        <ele>510.3</ele>
        <time>2022-05-12T08:31:38Z</time>
      </trkpt>
      <trkpt lat="46.6973" lon="5.64604">
        <ele>510.8</ele>
        <time>2022-05-12T08:31:41Z</time>
      </trkpt>
      <trkpt lat="46.69726" lon="5.64601">
        <ele>511.4</ele>
        <time>2022-05-12T08:31:45Z</time>
      </trkpt>
      <trkpt lat="46.69722" lon="5.64596">
        <ele>512.3</ele>
        <time>2022-05-12T08:31:50Z</time>
      </trkpt>
      <trkpt lat="46.69718" lon="5.64594">
        <ele>513.1</ele>
        <time>2022-05-12T08:31:56Z</time>
      </trkpt>
      <trkpt lat="46.69713" lon="5.64595">
        <ele>512.8</ele>
        <time>2022-05-12T08:32:01Z</time>
      </trkpt>
      <trkpt lat="46.69708" lon="5.64595">
        <ele>511.5</ele>
        <time>2022-05-12T08:32:04Z</time>
      </trkpt>
      <trkpt lat="46.69703" lon="5.64593">
        <ele>509.6</ele>
        <time>2022-05-12T08:32:09Z</time>
      </trkpt>
      <trkpt lat="46.69698" lon="5.64591">
        <ele>508.4</ele>
        <time>2022-05-12T08:32:15Z</time>
      </trkpt>
      <trkpt lat="46.69694" lon="5.64586">
        <ele>508.4</ele>
        <time>2022-05-12T08:32:20Z</time>
      </trkpt>
      <trkpt lat="46.6969" lon="5.64581">
        <ele>508.6</ele>
        <time>2022-05-12T08:32:25Z</time>
      </trkpt>
      <trkpt lat="46.69686" lon="5.64577">
        <ele>509.1</ele>
        <time>2022-05-12T08:32:30Z</time>
      </trkpt>
      <trkpt lat="46.69681" lon="5.64575">
        <ele>509.1</ele>
        <time>2022-05-12T08:32:36Z</time>
      </trkpt>
      <trkpt lat="46.69675" lon="5.64574">
        <ele>509.2</ele>
        <time>2022-05-12T08:32:42Z</time>
      </trkpt>
      <trkpt lat="46.6967" lon="5.64571">
        <ele>509.3</ele>
        <time>2022-05-12T08:32:47Z</time>
      </trkpt>
      <trkpt lat="46.69666" lon="5.64571">
        <ele>509.1</ele>
        <time>2022-05-12T08:32:53Z</time>
      </trkpt>
      <trkpt lat="46.69661" lon="5.64573">
        <ele>510.2</ele>
        <time>2022-05-12T08:33:03Z</time>
      </trkpt>
      <trkpt lat="46.69656" lon="5.64574">
        <ele>510.6</ele>
        <time>2022-05-12T08:33:07Z</time>
      </trkpt>
      <trkpt lat="46.69651" lon="5.64575">
        <ele>510.8</ele>
        <time>2022-05-12T08:33:11Z</time>
      </trkpt>
      <trkpt lat="46.69647" lon="5.64577">
        <ele>511.8</ele>
        <time>2022-05-12T08:33:18Z</time>
      </trkpt>
      <trkpt lat="46.69641" lon="5.64578">
        <ele>512.9</ele>
        <time>2022-05-12T08:33:24Z</time>
      </trkpt>
      <trkpt lat="46.69637" lon="5.6458">
        <ele>513.6</ele>
        <time>2022-05-12T08:33:31Z</time>
      </trkpt>
      <trkpt lat="46.69631" lon="5.6458">
        <ele>513.8</ele>
        <time>2022-05-12T08:33:35Z</time>
      </trkpt>
      <trkpt lat="46.69626" lon="5.6458">
        <ele>513.9</ele>
        <time>2022-05-12T08:33:38Z</time>
      </trkpt>
      <trkpt lat="46.69622" lon="5.64579">
        <ele>514.1</ele>
        <time>2022-05-12T08:33:41Z</time>
      </trkpt>
      <trkpt lat="46.69617" lon="5.64577">
        <ele>514.7</ele>
        <time>2022-05-12T08:33:46Z</time>
      </trkpt>
      <trkpt lat="46.69612" lon="5.64573">
        <ele>515.6</ele>
        <time>2022-05-12T08:33:51Z</time>
      </trkpt>
      <trkpt lat="46.69607" lon="5.64571">
        <ele>516</ele>
        <time>2022-05-12T08:33:56Z</time>
      </trkpt>
      <trkpt lat="46.69602" lon="5.6457">
        <ele>516</ele>
        <time>2022-05-12T08:34:00Z</time>
      </trkpt>
      <trkpt lat="46.69597" lon="5.64569">
        <ele>515.6</ele>
        <time>2022-05-12T08:34:04Z</time>
      </trkpt>
      <trkpt lat="46.69592" lon="5.64566">
        <ele>514.4</ele>
        <time>2022-05-12T08:34:10Z</time>
      </trkpt>
      <trkpt lat="46.69587" lon="5.64564">
        <ele>512.9</ele>
        <time>2022-05-12T08:34:16Z</time>
      </trkpt>
      <trkpt lat="46.69583" lon="5.64562">
        <ele>512.2</ele>
        <time>2022-05-12T08:34:20Z</time>
      </trkpt>
      <trkpt lat="46.69577" lon="5.64561">
        <ele>511.8</ele>
        <time>2022-05-12T08:34:24Z</time>
      </trkpt>
      <trkpt lat="46.69572" lon="5.64561">
        <ele>511.4</ele>
        <time>2022-05-12T08:34:28Z</time>
      </trkpt>
      <trkpt lat="46.69567" lon="5.6456">
        <ele>511.3</ele>
        <time>2022-05-12T08:34:35Z</time>
      </trkpt>
      <trkpt lat="46.69562" lon="5.64557">
        <ele>511.8</ele>
        <time>2022-05-12T08:34:40Z</time>
      </trkpt>
      <trkpt lat="46.69558" lon="5.64555">
        <ele>512.1</ele>
        <time>2022-05-12T08:34:44Z</time>
      </trkpt>
      <trkpt lat="46.69553" lon="5.64551">
        <ele>512</ele>
        <time>2022-05-12T08:34:50Z</time>
      </trkpt>
      <trkpt lat="46.69548" lon="5.64548">
        <ele>511.4</ele>
        <time>2022-05-12T08:34:56Z</time>
      </trkpt>
      <trkpt lat="46.69543" lon="5.64545">
        <ele>510.6</ele>
        <time>2022-05-12T08:35:02Z</time>
      </trkpt>
      <trkpt lat="46.69537" lon="5.64543">
        <ele>509.7</ele>
        <time>2022-05-12T08:35:12Z</time>
      </trkpt>
      <trkpt lat="46.69531" lon="5.64544">
        <ele>509.5</ele>
        <time>2022-05-12T08:35:16Z</time>
      </trkpt>
      <trkpt lat="46.69526" lon="5.64544">
        <ele>509.5</ele>
        <time>2022-05-12T08:35:21Z</time>
      </trkpt>
      <trkpt lat="46.69521" lon="5.64542">
        <ele>509.6</ele>
        <time>2022-05-12T08:35:27Z</time>
      </trkpt>
      <trkpt lat="46.69516" lon="5.6454">
        <ele>509.9</ele>
        <time>2022-05-12T08:35:32Z</time>
      </trkpt>
      <trkpt lat="46.69512" lon="5.64538">
        <ele>510.2</ele>
        <time>2022-05-12T08:35:36Z</time>
      </trkpt>
      <trkpt lat="46.69507" lon="5.64537">
        <ele>510.8</ele>
        <time>2022-05-12T08:35:40Z</time>
      </trkpt>
      <trkpt lat="46.69502" lon="5.64536">
        <ele>511.1</ele>
        <time>2022-05-12T08:35:45Z</time>
      </trkpt>
      <trkpt lat="46.69497" lon="5.64535">
        <ele>511.1</ele>
        <time>2022-05-12T08:35:50Z</time>
      </trkpt>
      <trkpt lat="46.69491" lon="5.64534">
        <ele>511</ele>
        <time>2022-05-12T08:35:54Z</time>
      </trkpt>
      <trkpt lat="46.69487" lon="5.64534">
        <ele>510.8</ele>
        <time>2022-05-12T08:35:58Z</time>
      </trkpt>
      <trkpt lat="46.69482" lon="5.64536">
        <ele>511.1</ele>
        <time>2022-05-12T08:36:05Z</time>
      </trkpt>
      <trkpt lat="46.6948" lon="5.6453">
        <ele>511.1</ele>
        <time>2022-05-12T08:36:10Z</time>
      </trkpt>
      <trkpt lat="46.69476" lon="5.64525">
        <ele>511.8</ele>
        <time>2022-05-12T08:36:13Z</time>
      </trkpt>
      <trkpt lat="46.69473" lon="5.6452">
        <ele>513</ele>
        <time>2022-05-12T08:36:17Z</time>
      </trkpt>
      <trkpt lat="46.69472" lon="5.64513">
        <ele>514.2</ele>
        <time>2022-05-12T08:36:22Z</time>
      </trkpt>
      <trkpt lat="46.69471" lon="5.64506">
        <ele>514.9</ele>
        <time>2022-05-12T08:36:27Z</time>
      </trkpt>
      <trkpt lat="46.69469" lon="5.64499">
        <ele>515</ele>
        <time>2022-05-12T08:36:32Z</time>
      </trkpt>
      <trkpt lat="46.6947" lon="5.64492">
        <ele>515.1</ele>
        <time>2022-05-12T08:36:37Z</time>
      </trkpt>
      <trkpt lat="46.69467" lon="5.64486">
        <ele>515.6</ele>
        <time>2022-05-12T08:36:44Z</time>
      </trkpt>
      <trkpt lat="46.69466" lon="5.6448">
        <ele>516.5</ele>
        <time>2022-05-12T08:36:50Z</time>
      </trkpt>
      <trkpt lat="46.69467" lon="5.64472">
        <ele>517.1</ele>
        <time>2022-05-12T08:36:58Z</time>
      </trkpt>
      <trkpt lat="46.69466" lon="5.64465">
        <ele>517.3</ele>
        <time>2022-05-12T08:37:05Z</time>
      </trkpt>
      <trkpt lat="46.69464" lon="5.64459">
        <ele>517.1</ele>
        <time>2022-05-12T08:37:10Z</time>
      </trkpt>
      <trkpt lat="46.69461" lon="5.64454">
        <ele>517.1</ele>
        <time>2022-05-12T08:37:14Z</time>
      </trkpt>
      <trkpt lat="46.69457" lon="5.64448">
        <ele>517.5</ele>
        <time>2022-05-12T08:37:18Z</time>
      </trkpt>
      <trkpt lat="46.69453" lon="5.64443">
        <ele>518.4</ele>
        <time>2022-05-12T08:37:23Z</time>
      </trkpt>
      <trkpt lat="46.69451" lon="5.64438">
        <ele>519.7</ele>
        <time>2022-05-12T08:37:28Z</time>
      </trkpt>
      <trkpt lat="46.69446" lon="5.64436">
        <ele>521.1</ele>
        <time>2022-05-12T08:37:33Z</time>
      </trkpt>
      <trkpt lat="46.69441" lon="5.64433">
        <ele>521.5</ele>
        <time>2022-05-12T08:37:46Z</time>
      </trkpt>
      <trkpt lat="46.6944" lon="5.64427">
        <ele>521.6</ele>
        <time>2022-05-12T08:37:52Z</time>
      </trkpt>
      <trkpt lat="46.69436" lon="5.6442">
        <ele>521.7</ele>
        <time>2022-05-12T08:37:57Z</time>
      </trkpt>
      <trkpt lat="46.69433" lon="5.64414">
        <ele>522.2</ele>
        <time>2022-05-12T08:38:02Z</time>
      </trkpt>
      <trkpt lat="46.6943" lon="5.64407">
        <ele>523.1</ele>
        <time>2022-05-12T08:38:07Z</time>
      </trkpt>
      <trkpt lat="46.69426" lon="5.64403">
        <ele>524.1</ele>
        <time>2022-05-12T08:38:12Z</time>
      </trkpt>
      <trkpt lat="46.69422" lon="5.64399">
        <ele>524.3</ele>
        <time>2022-05-12T08:38:18Z</time>
      </trkpt>
      <trkpt lat="46.6942" lon="5.64393">
        <ele>524.4</ele>
        <time>2022-05-12T08:38:25Z</time>
      </trkpt>
      <trkpt lat="46.69418" lon="5.64386">
        <ele>524.5</ele>
        <time>2022-05-12T08:38:31Z</time>
      </trkpt>
      <trkpt lat="46.69417" lon="5.6438">
        <ele>524.1</ele>
        <time>2022-05-12T08:38:50Z</time>
      </trkpt>
      <trkpt lat="46.69415" lon="5.64374">
        <ele>523.1</ele>
        <time>2022-05-12T08:39:09Z</time>
      </trkpt>
      <trkpt lat="46.69411" lon="5.64369">
        <ele>523.5</ele>
        <time>2022-05-12T08:39:25Z</time>
      </trkpt>
      <trkpt lat="46.69407" lon="5.64364">
        <ele>524</ele>
        <time>2022-05-12T08:39:29Z</time>
      </trkpt>
      <trkpt lat="46.69403" lon="5.6436">
        <ele>524</ele>
        <time>2022-05-12T08:39:33Z</time>
      </trkpt>
      <trkpt lat="46.694" lon="5.64355">
        <ele>523.8</ele>
        <time>2022-05-12T08:39:37Z</time>
      </trkpt>
      <trkpt lat="46.69396" lon="5.6435">
        <ele>523.7</ele>
        <time>2022-05-12T08:39:41Z</time>
      </trkpt>
      <trkpt lat="46.69392" lon="5.64345">
        <ele>524</ele>
        <time>2022-05-12T08:39:45Z</time>
      </trkpt>
      <trkpt lat="46.69388" lon="5.6434">
        <ele>524.3</ele>
        <time>2022-05-12T08:39:49Z</time>
      </trkpt>
      <trkpt lat="46.69384" lon="5.64336">
        <ele>524.7</ele>
        <time>2022-05-12T08:39:53Z</time>
      </trkpt>
      <trkpt lat="46.6938" lon="5.64332">
        <ele>524.5</ele>
        <time>2022-05-12T08:39:58Z</time>
      </trkpt>
      <trkpt lat="46.69376" lon="5.64328">
        <ele>523.8</ele>
        <time>2022-05-12T08:40:02Z</time>
      </trkpt>
      <trkpt lat="46.69371" lon="5.64325">
        <ele>522.8</ele>
        <time>2022-05-12T08:40:07Z</time>
      </trkpt>
      <trkpt lat="46.69366" lon="5.64322">
        <ele>522.3</ele>
        <time>2022-05-12T08:40:11Z</time>
      </trkpt>
      <trkpt lat="46.69362" lon="5.64319">
        <ele>521.8</ele>
        <time>2022-05-12T08:40:15Z</time>
      </trkpt>
      <trkpt lat="46.69356" lon="5.64317">
        <ele>521.7</ele>
        <time>2022-05-12T08:40:20Z</time>
      </trkpt>
      <trkpt lat="46.69352" lon="5.64316">
        <ele>521.4</ele>
        <time>2022-05-12T08:40:23Z</time>
      </trkpt>
      <trkpt lat="46.69346" lon="5.64316">
        <ele>521.1</ele>
        <time>2022-05-12T08:40:27Z</time>
      </trkpt>
      <trkpt lat="46.69341" lon="5.64317">
        <ele>520.9</ele>
        <time>2022-05-12T08:40:31Z</time>
      </trkpt>
      <trkpt lat="46.69336" lon="5.64316">
        <ele>520.4</ele>
        <time>2022-05-12T08:40:37Z</time>
      </trkpt>
      <trkpt lat="46.69332" lon="5.64314">
        <ele>520</ele>
        <time>2022-05-12T08:40:40Z</time>
      </trkpt>
      <trkpt lat="46.69328" lon="5.6431">
        <ele>519.4</ele>
        <time>2022-05-12T08:40:43Z</time>
      </trkpt>
      <trkpt lat="46.69323" lon="5.64306">
        <ele>518.8</ele>
        <time>2022-05-12T08:40:47Z</time>
      </trkpt>
      <trkpt lat="46.69319" lon="5.64302">
        <ele>518.5</ele>
        <time>2022-05-12T08:40:53Z</time>
      </trkpt>
      <trkpt lat="46.69315" lon="5.64297">
        <ele>518.2</ele>
        <time>2022-05-12T08:40:58Z</time>
      </trkpt>
      <trkpt lat="46.69311" lon="5.64294">
        <ele>517.3</ele>
        <time>2022-05-12T08:41:03Z</time>
      </trkpt>
      <trkpt lat="46.69308" lon="5.64287">
        <ele>516.7</ele>
        <time>2022-05-12T08:41:09Z</time>
      </trkpt>
      <trkpt lat="46.69306" lon="5.64282">
        <ele>516.7</ele>
        <time>2022-05-12T08:41:14Z</time>
      </trkpt>
      <trkpt lat="46.69301" lon="5.64279">
        <ele>517</ele>
        <time>2022-05-12T08:41:22Z</time>
      </trkpt>
      <trkpt lat="46.69296" lon="5.64278">
        <ele>517.3</ele>
        <time>2022-05-12T08:41:28Z</time>
      </trkpt>
      <trkpt lat="46.69291" lon="5.64275">
        <ele>517.8</ele>
        <time>2022-05-12T08:41:33Z</time>
      </trkpt>
      <trkpt lat="46.69286" lon="5.64273">
        <ele>518.3</ele>
        <time>2022-05-12T08:41:39Z</time>
      </trkpt>
      <trkpt lat="46.69283" lon="5.64268">
        <ele>518.4</ele>
        <time>2022-05-12T08:41:48Z</time>
      </trkpt>
      <trkpt lat="46.69279" lon="5.64264">
        <ele>517.9</ele>
        <time>2022-05-12T08:41:54Z</time>
      </trkpt>
      <trkpt lat="46.69274" lon="5.64261">
        <ele>517.6</ele>
        <time>2022-05-12T08:41:59Z</time>
      </trkpt>
      <trkpt lat="46.6927" lon="5.64257">
        <ele>517.5</ele>
        <time>2022-05-12T08:42:04Z</time>
      </trkpt>
      <trkpt lat="46.69266" lon="5.64253">
        <ele>517.3</ele>
        <time>2022-05-12T08:42:08Z</time>
      </trkpt>
      <trkpt lat="46.69263" lon="5.64247">
        <ele>517.3</ele>
        <time>2022-05-12T08:42:12Z</time>
      </trkpt>
      <trkpt lat="46.69261" lon="5.64241">
        <ele>517.6</ele>
        <time>2022-05-12T08:42:16Z</time>
      </trkpt>
      <trkpt lat="46.69259" lon="5.64235">
        <ele>517.8</ele>
        <time>2022-05-12T08:42:22Z</time>
      </trkpt>
      <trkpt lat="46.69255" lon="5.64231">
        <ele>517.7</ele>
        <time>2022-05-12T08:42:32Z</time>
      </trkpt>
      <trkpt lat="46.6925" lon="5.64228">
        <ele>516.9</ele>
        <time>2022-05-12T08:42:36Z</time>
      </trkpt>
      <trkpt lat="46.69245" lon="5.64225">
        <ele>516</ele>
        <time>2022-05-12T08:42:41Z</time>
      </trkpt>
      <trkpt lat="46.69241" lon="5.64223">
        <ele>515.6</ele>
        <time>2022-05-12T08:42:46Z</time>
      </trkpt>
      <trkpt lat="46.69236" lon="5.64224">
        <ele>515.3</ele>
        <time>2022-05-12T08:42:50Z</time>
      </trkpt>
      <trkpt lat="46.69231" lon="5.64223">
        <ele>515.3</ele>
        <time>2022-05-12T08:43:02Z</time>
      </trkpt>
      <trkpt lat="46.69227" lon="5.64219">
        <ele>515.4</ele>
        <time>2022-05-12T08:43:09Z</time>
      </trkpt>
      <trkpt lat="46.69225" lon="5.64213">
        <ele>516</ele>
        <time>2022-05-12T08:43:26Z</time>
      </trkpt>
      <trkpt lat="46.6922" lon="5.6421">
        <ele>517.4</ele>
        <time>2022-05-12T08:43:34Z</time>
      </trkpt>
      <trkpt lat="46.69216" lon="5.64208">
        <ele>517.6</ele>
        <time>2022-05-12T08:43:41Z</time>
      </trkpt>
      <trkpt lat="46.69212" lon="5.64204">
        <ele>517.7</ele>
        <time>2022-05-12T08:43:45Z</time>
      </trkpt>
      <trkpt lat="46.69207" lon="5.64201">
        <ele>517.8</ele>
        <time>2022-05-12T08:43:51Z</time>
      </trkpt>
      <trkpt lat="46.69204" lon="5.64196">
        <ele>518.7</ele>
        <time>2022-05-12T08:44:00Z</time>
      </trkpt>
      <trkpt lat="46.692" lon="5.64192">
        <ele>519.5</ele>
        <time>2022-05-12T08:44:08Z</time>
      </trkpt>
      <trkpt lat="46.69196" lon="5.64193">
        <ele>520.4</ele>
        <time>2022-05-12T08:44:17Z</time>
      </trkpt>
      <trkpt lat="46.69193" lon="5.64188">
        <ele>521.6</ele>
        <time>2022-05-12T08:44:25Z</time>
      </trkpt>
      <trkpt lat="46.69189" lon="5.64183">
        <ele>522.5</ele>
        <time>2022-05-12T08:44:29Z</time>
      </trkpt>
      <trkpt lat="46.69184" lon="5.6418">
        <ele>522.9</ele>
        <time>2022-05-12T08:44:33Z</time>
      </trkpt>
      <trkpt lat="46.6918" lon="5.64178">
        <ele>522.9</ele>
        <time>2022-05-12T08:44:38Z</time>
      </trkpt>
      <trkpt lat="46.69174" lon="5.64176">
        <ele>522.8</ele>
        <time>2022-05-12T08:44:42Z</time>
      </trkpt>
      <trkpt lat="46.6917" lon="5.64173">
        <ele>523</ele>
        <time>2022-05-12T08:44:47Z</time>
      </trkpt>
      <trkpt lat="46.69165" lon="5.64173">
        <ele>524</ele>
        <time>2022-05-12T08:45:03Z</time>
      </trkpt>
      <trkpt lat="46.69159" lon="5.64172">
        <ele>524.1</ele>
        <time>2022-05-12T08:45:07Z</time>
      </trkpt>
      <trkpt lat="46.69154" lon="5.64171">
        <ele>524.2</ele>
        <time>2022-05-12T08:45:11Z</time>
      </trkpt>
      <trkpt lat="46.6915" lon="5.64171">
        <ele>524.2</ele>
        <time>2022-05-12T08:45:16Z</time>
      </trkpt>
      <trkpt lat="46.69145" lon="5.64169">
        <ele>524.1</ele>
        <time>2022-05-12T08:45:21Z</time>
      </trkpt>
      <trkpt lat="46.6914" lon="5.64165">
        <ele>523.5</ele>
        <time>2022-05-12T08:45:27Z</time>
      </trkpt>
      <trkpt lat="46.69136" lon="5.6416">
        <ele>523.2</ele>
        <time>2022-05-12T08:45:31Z</time>
      </trkpt>
      <trkpt lat="46.69132" lon="5.64159">
        <ele>522.9</ele>
        <time>2022-05-12T08:45:36Z</time>
      </trkpt>
      <trkpt lat="46.69127" lon="5.64157">
        <ele>522.2</ele>
        <time>2022-05-12T08:45:42Z</time>
      </trkpt>
      <trkpt lat="46.69122" lon="5.64158">
        <ele>521.7</ele>
        <time>2022-05-12T08:45:48Z</time>
      </trkpt>
      <trkpt lat="46.69117" lon="5.64158">
        <ele>521.5</ele>
        <time>2022-05-12T08:45:57Z</time>
      </trkpt>
      <trkpt lat="46.69112" lon="5.64156">
        <ele>520.8</ele>
        <time>2022-05-12T08:46:02Z</time>
      </trkpt>
      <trkpt lat="46.69107" lon="5.64154">
        <ele>520.4</ele>
        <time>2022-05-12T08:46:09Z</time>
      </trkpt>
      <trkpt lat="46.69101" lon="5.64154">
        <ele>520.1</ele>
        <time>2022-05-12T08:46:15Z</time>
      </trkpt>
      <trkpt lat="46.69097" lon="5.64154">
        <ele>519.9</ele>
        <time>2022-05-12T08:46:19Z</time>
      </trkpt>
      <trkpt lat="46.69092" lon="5.64154">
        <ele>519.5</ele>
        <time>2022-05-12T08:46:23Z</time>
      </trkpt>
      <trkpt lat="46.69087" lon="5.64153">
        <ele>517.9</ele>
        <time>2022-05-12T08:46:30Z</time>
      </trkpt>
      <trkpt lat="46.69082" lon="5.64152">
        <ele>517</ele>
        <time>2022-05-12T08:46:35Z</time>
      </trkpt>
      <trkpt lat="46.69081" lon="5.64145">
        <ele>517.5</ele>
        <time>2022-05-12T08:46:42Z</time>
      </trkpt>
      <trkpt lat="46.69077" lon="5.64141">
        <ele>517.8</ele>
        <time>2022-05-12T08:46:46Z</time>
      </trkpt>
      <trkpt lat="46.69072" lon="5.64139">
        <ele>517.5</ele>
        <time>2022-05-12T08:46:51Z</time>
      </trkpt>
      <trkpt lat="46.69068" lon="5.64136">
        <ele>516.8</ele>
        <time>2022-05-12T08:46:57Z</time>
      </trkpt>
      <trkpt lat="46.69063" lon="5.64132">
        <ele>516.9</ele>
        <time>2022-05-12T08:47:03Z</time>
      </trkpt>
      <trkpt lat="46.69059" lon="5.6413">
        <ele>516.7</ele>
        <time>2022-05-12T08:47:11Z</time>
      </trkpt>
      <trkpt lat="46.69054" lon="5.6413">
        <ele>516.5</ele>
        <time>2022-05-12T08:47:32Z</time>
      </trkpt>
      <trkpt lat="46.69058" lon="5.64125">
        <ele>517.2</ele>
        <time>2022-05-12T08:47:48Z</time>
      </trkpt>
      <trkpt lat="46.69061" lon="5.64132">
        <ele>518.1</ele>
        <time>2022-05-12T08:47:56Z</time>
      </trkpt>
      <trkpt lat="46.69064" lon="5.64136">
        <ele>519.1</ele>
        <time>2022-05-12T08:47:59Z</time>
      </trkpt>
      <trkpt lat="46.69059" lon="5.64135">
        <ele>519.2</ele>
        <time>2022-05-12T08:48:15Z</time>
      </trkpt>
      <trkpt lat="46.69059" lon="5.64128">
        <ele>516.5</ele>
        <time>2022-05-12T08:48:22Z</time>
      </trkpt>
      <trkpt lat="46.69054" lon="5.64132">
        <ele>513.4</ele>
        <time>2022-05-12T08:48:36Z</time>
      </trkpt>
      <trkpt lat="46.69056" lon="5.64139">
        <ele>513.7</ele>
        <time>2022-05-12T08:49:17Z</time>
      </trkpt>
      <trkpt lat="46.6906" lon="5.64134">
        <ele>511.5</ele>
        <time>2022-05-12T08:49:27Z</time>
      </trkpt>
      <trkpt lat="46.69056" lon="5.64129">
        <ele>510.1</ele>
        <time>2022-05-12T08:49:40Z</time>
      </trkpt>
      <trkpt lat="46.69062" lon="5.64128">
        <ele>510.1</ele>
        <time>2022-05-12T08:49:44Z</time>
      </trkpt>
      <trkpt lat="46.69061" lon="5.64128">
        <ele>514.2</ele>
        <time>2022-05-12T08:50:08Z</time>
      </trkpt>
      <trkpt lat="46.69056" lon="5.64128">
        <ele>515.6</ele>
        <time>2022-05-12T08:50:12Z</time>
      </trkpt>
      <trkpt lat="46.69051" lon="5.64128">
        <ele>516.1</ele>
        <time>2022-05-12T08:50:17Z</time>
      </trkpt>
      <trkpt lat="46.69046" lon="5.64126">
        <ele>515.5</ele>
        <time>2022-05-12T08:50:22Z</time>
      </trkpt>
      <trkpt lat="46.69041" lon="5.64124">
        <ele>514.5</ele>
        <time>2022-05-12T08:50:27Z</time>
      </trkpt>
      <trkpt lat="46.69036" lon="5.64125">
        <ele>513.9</ele>
        <time>2022-05-12T08:50:32Z</time>
      </trkpt>
      <trkpt lat="46.69031" lon="5.64127">
        <ele>515.1</ele>
        <time>2022-05-12T08:50:46Z</time>
      </trkpt>
      <trkpt lat="46.69027" lon="5.64128">
        <ele>516.1</ele>
        <time>2022-05-12T08:50:52Z</time>
      </trkpt>
      <trkpt lat="46.69022" lon="5.64127">
        <ele>516.3</ele>
        <time>2022-05-12T08:50:56Z</time>
      </trkpt>
      <trkpt lat="46.69018" lon="5.64125">
        <ele>516</ele>
        <time>2022-05-12T08:51:01Z</time>
      </trkpt>
      <trkpt lat="46.69014" lon="5.64121">
        <ele>516.2</ele>
        <time>2022-05-12T08:51:07Z</time>
      </trkpt>
      <trkpt lat="46.6901" lon="5.64116">
        <ele>516.6</ele>
        <time>2022-05-12T08:51:14Z</time>
      </trkpt>
      <trkpt lat="46.69006" lon="5.64113">
        <ele>516.5</ele>
        <time>2022-05-12T08:51:20Z</time>
      </trkpt>
      <trkpt lat="46.69002" lon="5.64108">
        <ele>516.1</ele>
        <time>2022-05-12T08:51:27Z</time>
      </trkpt>
      <trkpt lat="46.68999" lon="5.64104">
        <ele>514.5</ele>
        <time>2022-05-12T08:51:45Z</time>
      </trkpt>
      <trkpt lat="46.68993" lon="5.64105">
        <ele>513.3</ele>
        <time>2022-05-12T08:52:23Z</time>
      </trkpt>
      <trkpt lat="46.68997" lon="5.64109">
        <ele>511.9</ele>
        <time>2022-05-12T08:52:33Z</time>
      </trkpt>
      <trkpt lat="46.68993" lon="5.64113">
        <ele>512.7</ele>
        <time>2022-05-12T08:52:44Z</time>
      </trkpt>
      <trkpt lat="46.68988" lon="5.64114">
        <ele>513.4</ele>
        <time>2022-05-12T08:52:51Z</time>
      </trkpt>
      <trkpt lat="46.68984" lon="5.64113">
        <ele>513.4</ele>
        <time>2022-05-12T08:52:57Z</time>
      </trkpt>
      <trkpt lat="46.68979" lon="5.64113">
        <ele>512.8</ele>
        <time>2022-05-12T08:53:05Z</time>
      </trkpt>
      <trkpt lat="46.68974" lon="5.64114">
        <ele>510.8</ele>
        <time>2022-05-12T08:53:16Z</time>
      </trkpt>
      <trkpt lat="46.68969" lon="5.64111">
        <ele>509.5</ele>
        <time>2022-05-12T08:53:22Z</time>
      </trkpt>
      <trkpt lat="46.68964" lon="5.64112">
        <ele>509.4</ele>
        <time>2022-05-12T08:53:27Z</time>
      </trkpt>
      <trkpt lat="46.68958" lon="5.64113">
        <ele>509</ele>
        <time>2022-05-12T08:53:31Z</time>
      </trkpt>
      <trkpt lat="46.68953" lon="5.64114">
        <ele>508.7</ele>
        <time>2022-05-12T08:53:36Z</time>
      </trkpt>
      <trkpt lat="46.68949" lon="5.64116">
        <ele>508.4</ele>
        <time>2022-05-12T08:53:41Z</time>
      </trkpt>
      <trkpt lat="46.68943" lon="5.64115">
        <ele>508.1</ele>
        <time>2022-05-12T08:53:46Z</time>
      </trkpt>
      <trkpt lat="46.68938" lon="5.64114">
        <ele>508.2</ele>
        <time>2022-05-12T08:53:49Z</time>
      </trkpt>
      <trkpt lat="46.68934" lon="5.64111">
        <ele>509.1</ele>
        <time>2022-05-12T08:53:56Z</time>
      </trkpt>
      <trkpt lat="46.68933" lon="5.64104">
        <ele>510.4</ele>
        <time>2022-05-12T08:54:03Z</time>
      </trkpt>
      <trkpt lat="46.68934" lon="5.64097">
        <ele>510.7</ele>
        <time>2022-05-12T08:54:08Z</time>
      </trkpt>
      <trkpt lat="46.68934" lon="5.64089">
        <ele>510.7</ele>
        <time>2022-05-12T08:54:17Z</time>
      </trkpt>
      <trkpt lat="46.68931" lon="5.64085">
        <ele>510.7</ele>
        <time>2022-05-12T08:54:22Z</time>
      </trkpt>
      <trkpt lat="46.68926" lon="5.64084">
        <ele>510.2</ele>
        <time>2022-05-12T08:54:27Z</time>
      </trkpt>
      <trkpt lat="46.68921" lon="5.64082">
        <ele>508.9</ele>
        <time>2022-05-12T08:54:34Z</time>
      </trkpt>
      <trkpt lat="46.68916" lon="5.64081">
        <ele>506.9</ele>
        <time>2022-05-12T08:54:41Z</time>
      </trkpt>
      <trkpt lat="46.68911" lon="5.64082">
        <ele>504.8</ele>
        <time>2022-05-12T08:54:48Z</time>
      </trkpt>
      <trkpt lat="46.68906" lon="5.64081">
        <ele>502.4</ele>
        <time>2022-05-12T08:54:58Z</time>
      </trkpt>
      <trkpt lat="46.68903" lon="5.64077">
        <ele>500.7</ele>
        <time>2022-05-12T08:55:06Z</time>
      </trkpt>
      <trkpt lat="46.68901" lon="5.64083">
        <ele>498.9</ele>
        <time>2022-05-12T08:55:16Z</time>
      </trkpt>
      <trkpt lat="46.68899" lon="5.6409">
        <ele>498.1</ele>
        <time>2022-05-12T08:55:21Z</time>
      </trkpt>
      <trkpt lat="46.68899" lon="5.64097">
        <ele>497.2</ele>
        <time>2022-05-12T08:55:32Z</time>
      </trkpt>
      <trkpt lat="46.68896" lon="5.64103">
        <ele>496.2</ele>
        <time>2022-05-12T08:55:39Z</time>
      </trkpt>
      <trkpt lat="46.68896" lon="5.6411">
        <ele>495.4</ele>
        <time>2022-05-12T08:55:45Z</time>
      </trkpt>
      <trkpt lat="46.68898" lon="5.64117">
        <ele>493.4</ele>
        <time>2022-05-12T08:55:54Z</time>
      </trkpt>
      <trkpt lat="46.68896" lon="5.64124">
        <ele>492.6</ele>
        <time>2022-05-12T08:55:59Z</time>
      </trkpt>
      <trkpt lat="46.68895" lon="5.64131">
        <ele>491.8</ele>
        <time>2022-05-12T08:56:04Z</time>
      </trkpt>
      <trkpt lat="46.68894" lon="5.64139">
        <ele>491.3</ele>
        <time>2022-05-12T08:56:10Z</time>
      </trkpt>
      <trkpt lat="46.68894" lon="5.64146">
        <ele>491.8</ele>
        <time>2022-05-12T08:56:14Z</time>
      </trkpt>
      <trkpt lat="46.68891" lon="5.64156">
        <ele>492.5</ele>
        <time>2022-05-12T08:56:21Z</time>
      </trkpt>
      <trkpt lat="46.68889" lon="5.64163">
        <ele>492.7</ele>
        <time>2022-05-12T08:56:24Z</time>
      </trkpt>
      <trkpt lat="46.68888" lon="5.6417">
        <ele>493</ele>
        <time>2022-05-12T08:56:28Z</time>
      </trkpt>
      <trkpt lat="46.68888" lon="5.64177">
        <ele>493.3</ele>
        <time>2022-05-12T08:56:32Z</time>
      </trkpt>
      <trkpt lat="46.68889" lon="5.64184">
        <ele>494.2</ele>
        <time>2022-05-12T08:56:41Z</time>
      </trkpt>
      <trkpt lat="46.6889" lon="5.64191">
        <ele>493.7</ele>
        <time>2022-05-12T08:56:52Z</time>
      </trkpt>
      <trkpt lat="46.68891" lon="5.64198">
        <ele>493.3</ele>
        <time>2022-05-12T08:56:57Z</time>
      </trkpt>
      <trkpt lat="46.68891" lon="5.64206">
        <ele>492.9</ele>
        <time>2022-05-12T08:57:04Z</time>
      </trkpt>
      <trkpt lat="46.68891" lon="5.64214">
        <ele>492.3</ele>
        <time>2022-05-12T08:57:09Z</time>
      </trkpt>
      <trkpt lat="46.68891" lon="5.64221">
        <ele>491.9</ele>
        <time>2022-05-12T08:57:14Z</time>
      </trkpt>
      <trkpt lat="46.68892" lon="5.64228">
        <ele>490.7</ele>
        <time>2022-05-12T08:57:37Z</time>
      </trkpt>
      <trkpt lat="46.68893" lon="5.64235">
        <ele>490.7</ele>
        <time>2022-05-12T08:57:40Z</time>
      </trkpt>
      <trkpt lat="46.68894" lon="5.64243">
        <ele>490.9</ele>
        <time>2022-05-12T08:57:45Z</time>
      </trkpt>
      <trkpt lat="46.68893" lon="5.64251">
        <ele>491.4</ele>
        <time>2022-05-12T08:57:49Z</time>
      </trkpt>
      <trkpt lat="46.68892" lon="5.64257">
        <ele>492.4</ele>
        <time>2022-05-12T08:57:53Z</time>
      </trkpt>
      <trkpt lat="46.68891" lon="5.64265">
        <ele>494.3</ele>
        <time>2022-05-12T08:58:00Z</time>
      </trkpt>
      <trkpt lat="46.68894" lon="5.64271">
        <ele>496.1</ele>
        <time>2022-05-12T08:58:05Z</time>
      </trkpt>
      <trkpt lat="46.68898" lon="5.64273">
        <ele>498.2</ele>
        <time>2022-05-12T08:58:12Z</time>
      </trkpt>
      <trkpt lat="46.68894" lon="5.64276">
        <ele>499</ele>
        <time>2022-05-12T08:58:18Z</time>
      </trkpt>
      <trkpt lat="46.68889" lon="5.64275">
        <ele>498.9</ele>
        <time>2022-05-12T08:58:22Z</time>
      </trkpt>
      <trkpt lat="46.68885" lon="5.6427">
        <ele>498.6</ele>
        <time>2022-05-12T08:58:26Z</time>
      </trkpt>
      <trkpt lat="46.68882" lon="5.64265">
        <ele>498.5</ele>
        <time>2022-05-12T08:58:30Z</time>
      </trkpt>
      <trkpt lat="46.68877" lon="5.64264">
        <ele>498.4</ele>
        <time>2022-05-12T08:58:35Z</time>
      </trkpt>
      <trkpt lat="46.68873" lon="5.64261">
        <ele>498.1</ele>
        <time>2022-05-12T08:58:40Z</time>
      </trkpt>
      <trkpt lat="46.68869" lon="5.64257">
        <ele>497.3</ele>
        <time>2022-05-12T08:58:46Z</time>
      </trkpt>
      <trkpt lat="46.68866" lon="5.64251">
        <ele>496.6</ele>
        <time>2022-05-12T08:58:53Z</time>
      </trkpt>
      <trkpt lat="46.68864" lon="5.64244">
        <ele>496.1</ele>
        <time>2022-05-12T08:58:59Z</time>
      </trkpt>
      <trkpt lat="46.6886" lon="5.64241">
        <ele>495.9</ele>
        <time>2022-05-12T08:59:06Z</time>
      </trkpt>
      <trkpt lat="46.68855" lon="5.64241">
        <ele>495.9</ele>
        <time>2022-05-12T08:59:10Z</time>
      </trkpt>
      <trkpt lat="46.68849" lon="5.64241">
        <ele>495.9</ele>
        <time>2022-05-12T08:59:15Z</time>
      </trkpt>
      <trkpt lat="46.68844" lon="5.6424">
        <ele>495.9</ele>
        <time>2022-05-12T08:59:21Z</time>
      </trkpt>
      <trkpt lat="46.68838" lon="5.64239">
        <ele>495.8</ele>
        <time>2022-05-12T08:59:26Z</time>
      </trkpt>
      <trkpt lat="46.68833" lon="5.64238">
        <ele>495.8</ele>
        <time>2022-05-12T08:59:30Z</time>
      </trkpt>
      <trkpt lat="46.68829" lon="5.64236">
        <ele>495.6</ele>
        <time>2022-05-12T08:59:35Z</time>
      </trkpt>
      <trkpt lat="46.68827" lon="5.6423">
        <ele>495.4</ele>
        <time>2022-05-12T08:59:40Z</time>
      </trkpt>
      <trkpt lat="46.68829" lon="5.64223">
        <ele>495.1</ele>
        <time>2022-05-12T08:59:43Z</time>
      </trkpt>
      <trkpt lat="46.6883" lon="5.64215">
        <ele>494.9</ele>
        <time>2022-05-12T08:59:47Z</time>
      </trkpt>
      <trkpt lat="46.68831" lon="5.64208">
        <ele>494.5</ele>
        <time>2022-05-12T08:59:52Z</time>
      </trkpt>
      <trkpt lat="46.6883" lon="5.64202">
        <ele>494.4</ele>
        <time>2022-05-12T08:59:57Z</time>
      </trkpt>
      <trkpt lat="46.68828" lon="5.64195">
        <ele>494.3</ele>
        <time>2022-05-12T09:00:03Z</time>
      </trkpt>
      <trkpt lat="46.68828" lon="5.64188">
        <ele>494.5</ele>
        <time>2022-05-12T09:00:08Z</time>
      </trkpt>
      <trkpt lat="46.68829" lon="5.64181">
        <ele>494.8</ele>
        <time>2022-05-12T09:00:12Z</time>
      </trkpt>
      <trkpt lat="46.68829" lon="5.64174">
        <ele>495.4</ele>
        <time>2022-05-12T09:00:16Z</time>
      </trkpt>
      <trkpt lat="46.68827" lon="5.64167">
        <ele>495.2</ele>
        <time>2022-05-12T09:00:22Z</time>
      </trkpt>
      <trkpt lat="46.68825" lon="5.64161">
        <ele>494.6</ele>
        <time>2022-05-12T09:00:26Z</time>
      </trkpt>
      <trkpt lat="46.68823" lon="5.64155">
        <ele>494.4</ele>
        <time>2022-05-12T09:00:29Z</time>
      </trkpt>
      <trkpt lat="46.68828" lon="5.64151">
        <ele>494.9</ele>
        <time>2022-05-12T09:00:35Z</time>
      </trkpt>
      <trkpt lat="46.68834" lon="5.64149">
        <ele>495.1</ele>
        <time>2022-05-12T09:00:39Z</time>
      </trkpt>
      <trkpt lat="46.68838" lon="5.64145">
        <ele>492.7</ele>
        <time>2022-05-12T09:00:45Z</time>
      </trkpt>
      <trkpt lat="46.68838" lon="5.64139">
        <ele>490.9</ele>
        <time>2022-05-12T09:00:50Z</time>
      </trkpt>
      <trkpt lat="46.68835" lon="5.64133">
        <ele>487.5</ele>
        <time>2022-05-12T09:00:57Z</time>
      </trkpt>
      <trkpt lat="46.68831" lon="5.64127">
        <ele>487.3</ele>
        <time>2022-05-12T09:01:00Z</time>
      </trkpt>
      <trkpt lat="46.68828" lon="5.64121">
        <ele>487.2</ele>
        <time>2022-05-12T09:01:04Z</time>
      </trkpt>
      <trkpt lat="46.68823" lon="5.64118">
        <ele>487.6</ele>
        <time>2022-05-12T09:01:10Z</time>
      </trkpt>
      <trkpt lat="46.68822" lon="5.6411">
        <ele>488.6</ele>
        <time>2022-05-12T09:01:15Z</time>
      </trkpt>
      <trkpt lat="46.68819" lon="5.64104">
        <ele>488.9</ele>
        <time>2022-05-12T09:01:18Z</time>
      </trkpt>
      <trkpt lat="46.68818" lon="5.64097">
        <ele>489</ele>
        <time>2022-05-12T09:01:22Z</time>
      </trkpt>
      <trkpt lat="46.68819" lon="5.6409">
        <ele>488.7</ele>
        <time>2022-05-12T09:01:28Z</time>
      </trkpt>
      <trkpt lat="46.68818" lon="5.64083">
        <ele>488.8</ele>
        <time>2022-05-12T09:01:33Z</time>
      </trkpt>
      <trkpt lat="46.68816" lon="5.64077">
        <ele>488.3</ele>
        <time>2022-05-12T09:01:38Z</time>
      </trkpt>
      <trkpt lat="46.68813" lon="5.64071">
        <ele>487.8</ele>
        <time>2022-05-12T09:01:42Z</time>
      </trkpt>
      <trkpt lat="46.6881" lon="5.64066">
        <ele>487.1</ele>
        <time>2022-05-12T09:01:46Z</time>
      </trkpt>
      <trkpt lat="46.68807" lon="5.6406">
        <ele>486.2</ele>
        <time>2022-05-12T09:01:50Z</time>
      </trkpt>
      <trkpt lat="46.68807" lon="5.64054">
        <ele>485.4</ele>
        <time>2022-05-12T09:01:55Z</time>
      </trkpt>
      <trkpt lat="46.68807" lon="5.64047">
        <ele>484.8</ele>
        <time>2022-05-12T09:02:00Z</time>
      </trkpt>
      <trkpt lat="46.68805" lon="5.6404">
        <ele>484.3</ele>
        <time>2022-05-12T09:02:06Z</time>
      </trkpt>
      <trkpt lat="46.68802" lon="5.64034">
        <ele>484.7</ele>
        <time>2022-05-12T09:02:10Z</time>
      </trkpt>
      <trkpt lat="46.68798" lon="5.64027">
        <ele>485.7</ele>
        <time>2022-05-12T09:02:14Z</time>
      </trkpt>
      <trkpt lat="46.68796" lon="5.64021">
        <ele>487</ele>
        <time>2022-05-12T09:02:17Z</time>
      </trkpt>
      <trkpt lat="46.68794" lon="5.64015">
        <ele>488.5</ele>
        <time>2022-05-12T09:02:21Z</time>
      </trkpt>
      <trkpt lat="46.68793" lon="5.64008">
        <ele>490.4</ele>
        <time>2022-05-12T09:02:25Z</time>
      </trkpt>
      <trkpt lat="46.68791" lon="5.64001">
        <ele>492.9</ele>
        <time>2022-05-12T09:02:30Z</time>
      </trkpt>
      <trkpt lat="46.68791" lon="5.63994">
        <ele>495.5</ele>
        <time>2022-05-12T09:02:35Z</time>
      </trkpt>
      <trkpt lat="46.68792" lon="5.63987">
        <ele>497.6</ele>
        <time>2022-05-12T09:02:40Z</time>
      </trkpt>
      <trkpt lat="46.68794" lon="5.63981">
        <ele>499</ele>
        <time>2022-05-12T09:02:44Z</time>
      </trkpt>
      <trkpt lat="46.68793" lon="5.63973">
        <ele>500.3</ele>
        <time>2022-05-12T09:02:49Z</time>
      </trkpt>
      <trkpt lat="46.68792" lon="5.63967">
        <ele>500.8</ele>
        <time>2022-05-12T09:02:54Z</time>
      </trkpt>
      <trkpt lat="46.68792" lon="5.6396">
        <ele>500.8</ele>
        <time>2022-05-12T09:02:58Z</time>
      </trkpt>
      <trkpt lat="46.68794" lon="5.63953">
        <ele>501.4</ele>
        <time>2022-05-12T09:03:04Z</time>
      </trkpt>
      <trkpt lat="46.68796" lon="5.63947">
        <ele>502.9</ele>
        <time>2022-05-12T09:03:10Z</time>
      </trkpt>
      <trkpt lat="46.68798" lon="5.63941">
        <ele>504.5</ele>
        <time>2022-05-12T09:03:14Z</time>
      </trkpt>
      <trkpt lat="46.68797" lon="5.63934">
        <ele>505.9</ele>
        <time>2022-05-12T09:03:19Z</time>
      </trkpt>
      <trkpt lat="46.68799" lon="5.63928">
        <ele>506.6</ele>
        <time>2022-05-12T09:03:24Z</time>
      </trkpt>
      <trkpt lat="46.68802" lon="5.63922">
        <ele>507.4</ele>
        <time>2022-05-12T09:03:28Z</time>
      </trkpt>
      <trkpt lat="46.68805" lon="5.63916">
        <ele>508.1</ele>
        <time>2022-05-12T09:03:32Z</time>
      </trkpt>
      <trkpt lat="46.68808" lon="5.63911">
        <ele>508.4</ele>
        <time>2022-05-12T09:03:36Z</time>
      </trkpt>
      <trkpt lat="46.68809" lon="5.63904">
        <ele>507.9</ele>
        <time>2022-05-12T09:03:40Z</time>
      </trkpt>
      <trkpt lat="46.6881" lon="5.63897">
        <ele>506.9</ele>
        <time>2022-05-12T09:03:44Z</time>
      </trkpt>
      <trkpt lat="46.68809" lon="5.63889">
        <ele>505.7</ele>
        <time>2022-05-12T09:03:49Z</time>
      </trkpt>
      <trkpt lat="46.68807" lon="5.63882">
        <ele>504.3</ele>
        <time>2022-05-12T09:03:55Z</time>
      </trkpt>
      <trkpt lat="46.68807" lon="5.63876">
        <ele>503.7</ele>
        <time>2022-05-12T09:04:01Z</time>
      </trkpt>
      <trkpt lat="46.68808" lon="5.63869">
        <ele>503.5</ele>
        <time>2022-05-12T09:04:07Z</time>
      </trkpt>
      <trkpt lat="46.68807" lon="5.63862">
        <ele>503.6</ele>
        <time>2022-05-12T09:04:12Z</time>
      </trkpt>
      <trkpt lat="46.68811" lon="5.63857">
        <ele>502.6</ele>
        <time>2022-05-12T09:04:27Z</time>
      </trkpt>
      <trkpt lat="46.68816" lon="5.63856">
        <ele>498.8</ele>
        <time>2022-05-12T09:04:48Z</time>
      </trkpt>
      <trkpt lat="46.6882" lon="5.63853">
        <ele>494.8</ele>
        <time>2022-05-12T09:06:35Z</time>
      </trkpt>
      <trkpt lat="46.68816" lon="5.63851">
        <ele>495.2</ele>
        <time>2022-05-12T09:07:48Z</time>
      </trkpt>
      <trkpt lat="46.68811" lon="5.63849">
        <ele>496.1</ele>
        <time>2022-05-12T09:07:52Z</time>
      </trkpt>
      <trkpt lat="46.68809" lon="5.63842">
        <ele>498</ele>
        <time>2022-05-12T09:07:59Z</time>
      </trkpt>
      <trkpt lat="46.6881" lon="5.63835">
        <ele>498.8</ele>
        <time>2022-05-12T09:08:03Z</time>
      </trkpt>
      <trkpt lat="46.68809" lon="5.63829">
        <ele>499.1</ele>
        <time>2022-05-12T09:08:07Z</time>
      </trkpt>
      <trkpt lat="46.68808" lon="5.63822">
        <ele>498.6</ele>
        <time>2022-05-12T09:08:12Z</time>
      </trkpt>
      <trkpt lat="46.68806" lon="5.63816">
        <ele>498.1</ele>
        <time>2022-05-12T09:08:17Z</time>
      </trkpt>
      <trkpt lat="46.68802" lon="5.63811">
        <ele>498.1</ele>
        <time>2022-05-12T09:08:22Z</time>
      </trkpt>
      <trkpt lat="46.68799" lon="5.63807">
        <ele>498.2</ele>
        <time>2022-05-12T09:08:30Z</time>
      </trkpt>
      <trkpt lat="46.68794" lon="5.63804">
        <ele>496.4</ele>
        <time>2022-05-12T09:08:38Z</time>
      </trkpt>
      <trkpt lat="46.68788" lon="5.63806">
        <ele>496</ele>
        <time>2022-05-12T09:08:42Z</time>
      </trkpt>
      <trkpt lat="46.68783" lon="5.63808">
        <ele>495.9</ele>
        <time>2022-05-12T09:08:45Z</time>
      </trkpt>
      <trkpt lat="46.68778" lon="5.63812">
        <ele>495.5</ele>
        <time>2022-05-12T09:08:48Z</time>
      </trkpt>
      <trkpt lat="46.68773" lon="5.63816">
        <ele>495.1</ele>
        <time>2022-05-12T09:08:51Z</time>
      </trkpt>
      <trkpt lat="46.68768" lon="5.63819">
        <ele>494.6</ele>
        <time>2022-05-12T09:08:54Z</time>
      </trkpt>
      <trkpt lat="46.68763" lon="5.63822">
        <ele>494.1</ele>
        <time>2022-05-12T09:08:57Z</time>
      </trkpt>
      <trkpt lat="46.68759" lon="5.63823">
        <ele>493.2</ele>
        <time>2022-05-12T09:09:00Z</time>
      </trkpt>
      <trkpt lat="46.68754" lon="5.63824">
        <ele>492.6</ele>
        <time>2022-05-12T09:09:04Z</time>
      </trkpt>
      <trkpt lat="46.68749" lon="5.63826">
        <ele>493</ele>
        <time>2022-05-12T09:09:08Z</time>
      </trkpt>
      <trkpt lat="46.68744" lon="5.63827">
        <ele>493.6</ele>
        <time>2022-05-12T09:09:13Z</time>
      </trkpt>
      <trkpt lat="46.68739" lon="5.63829">
        <ele>494.7</ele>
        <time>2022-05-12T09:09:18Z</time>
      </trkpt>
      <trkpt lat="46.68734" lon="5.63831">
        <ele>495.7</ele>
        <time>2022-05-12T09:09:22Z</time>
      </trkpt>
      <trkpt lat="46.68729" lon="5.63834">
        <ele>496.4</ele>
        <time>2022-05-12T09:09:26Z</time>
      </trkpt>
      <trkpt lat="46.68724" lon="5.63838">
        <ele>496.6</ele>
        <time>2022-05-12T09:09:30Z</time>
      </trkpt>
      <trkpt lat="46.68719" lon="5.6384">
        <ele>496.5</ele>
        <time>2022-05-12T09:09:33Z</time>
      </trkpt>
      <trkpt lat="46.68714" lon="5.63841">
        <ele>496.5</ele>
        <time>2022-05-12T09:09:37Z</time>
      </trkpt>
      <trkpt lat="46.6871" lon="5.63841">
        <ele>496.5</ele>
        <time>2022-05-12T09:09:42Z</time>
      </trkpt>
      <trkpt lat="46.68705" lon="5.63841">
        <ele>496.7</ele>
        <time>2022-05-12T09:09:46Z</time>
      </trkpt>
      <trkpt lat="46.687" lon="5.63843">
        <ele>496.6</ele>
        <time>2022-05-12T09:09:50Z</time>
      </trkpt>
      <trkpt lat="46.68694" lon="5.63844">
        <ele>496.2</ele>
        <time>2022-05-12T09:09:55Z</time>
      </trkpt>
      <trkpt lat="46.68689" lon="5.63847">
        <ele>496</ele>
        <time>2022-05-12T09:09:59Z</time>
      </trkpt>
      <trkpt lat="46.68684" lon="5.63848">
        <ele>495.7</ele>
        <time>2022-05-12T09:10:04Z</time>
      </trkpt>
      <trkpt lat="46.68679" lon="5.63848">
        <ele>495.6</ele>
        <time>2022-05-12T09:10:08Z</time>
      </trkpt>
      <trkpt lat="46.68674" lon="5.63847">
        <ele>495.7</ele>
        <time>2022-05-12T09:10:14Z</time>
      </trkpt>
      <trkpt lat="46.6867" lon="5.63847">
        <ele>496</ele>
        <time>2022-05-12T09:10:22Z</time>
      </trkpt>
      <trkpt lat="46.68664" lon="5.63846">
        <ele>496.5</ele>
        <time>2022-05-12T09:10:30Z</time>
      </trkpt>
      <trkpt lat="46.68659" lon="5.63848">
        <ele>496.6</ele>
        <time>2022-05-12T09:10:35Z</time>
      </trkpt>
      <trkpt lat="46.68654" lon="5.63853">
        <ele>496.5</ele>
        <time>2022-05-12T09:10:38Z</time>
      </trkpt>
      <trkpt lat="46.6865" lon="5.63857">
        <ele>496.4</ele>
        <time>2022-05-12T09:10:41Z</time>
      </trkpt>
      <trkpt lat="46.68645" lon="5.63859">
        <ele>496.1</ele>
        <time>2022-05-12T09:10:45Z</time>
      </trkpt>
      <trkpt lat="46.68641" lon="5.63862">
        <ele>495.6</ele>
        <time>2022-05-12T09:10:50Z</time>
      </trkpt>
      <trkpt lat="46.68636" lon="5.63863">
        <ele>495.2</ele>
        <time>2022-05-12T09:10:54Z</time>
      </trkpt>
      <trkpt lat="46.68631" lon="5.63862">
        <ele>495.5</ele>
        <time>2022-05-12T09:10:59Z</time>
      </trkpt>
      <trkpt lat="46.68627" lon="5.63863">
        <ele>495.9</ele>
        <time>2022-05-12T09:11:04Z</time>
      </trkpt>
      <trkpt lat="46.68622" lon="5.63864">
        <ele>496</ele>
        <time>2022-05-12T09:11:08Z</time>
      </trkpt>
      <trkpt lat="46.68618" lon="5.63867">
        <ele>496.2</ele>
        <time>2022-05-12T09:11:12Z</time>
      </trkpt>
      <trkpt lat="46.68614" lon="5.6387">
        <ele>496.8</ele>
        <time>2022-05-12T09:11:16Z</time>
      </trkpt>
      <trkpt lat="46.68609" lon="5.63871">
        <ele>497.6</ele>
        <time>2022-05-12T09:11:21Z</time>
      </trkpt>
      <trkpt lat="46.68604" lon="5.63871">
        <ele>498.1</ele>
        <time>2022-05-12T09:11:26Z</time>
      </trkpt>
      <trkpt lat="46.686" lon="5.63873">
        <ele>498</ele>
        <time>2022-05-12T09:11:31Z</time>
      </trkpt>
      <trkpt lat="46.68595" lon="5.63873">
        <ele>497.6</ele>
        <time>2022-05-12T09:11:37Z</time>
      </trkpt>
      <trkpt lat="46.68591" lon="5.63874">
        <ele>497.7</ele>
        <time>2022-05-12T09:11:41Z</time>
      </trkpt>
      <trkpt lat="46.68586" lon="5.63873">
        <ele>498.2</ele>
        <time>2022-05-12T09:11:46Z</time>
      </trkpt>
      <trkpt lat="46.68583" lon="5.63867">
        <ele>498.9</ele>
        <time>2022-05-12T09:11:50Z</time>
      </trkpt>
      <trkpt lat="46.68581" lon="5.63861">
        <ele>500.8</ele>
        <time>2022-05-12T09:11:59Z</time>
      </trkpt>
      <trkpt lat="46.68579" lon="5.63854">
        <ele>502.5</ele>
        <time>2022-05-12T09:12:04Z</time>
      </trkpt>
      <trkpt lat="46.68577" lon="5.63848">
        <ele>504.4</ele>
        <time>2022-05-12T09:12:08Z</time>
      </trkpt>
      <trkpt lat="46.68576" lon="5.63841">
        <ele>506.6</ele>
        <time>2022-05-12T09:12:12Z</time>
      </trkpt>
      <trkpt lat="46.68574" lon="5.63836">
        <ele>508.5</ele>
        <time>2022-05-12T09:12:16Z</time>
      </trkpt>
      <trkpt lat="46.68571" lon="5.63828">
        <ele>509.5</ele>
        <time>2022-05-12T09:12:20Z</time>
      </trkpt>
      <trkpt lat="46.6857" lon="5.63822">
        <ele>510.1</ele>
        <time>2022-05-12T09:12:24Z</time>
      </trkpt>
      <trkpt lat="46.68569" lon="5.63815">
        <ele>510.8</ele>
        <time>2022-05-12T09:12:29Z</time>
      </trkpt>
      <trkpt lat="46.68568" lon="5.63807">
        <ele>511.5</ele>
        <time>2022-05-12T09:12:35Z</time>
      </trkpt>
      <trkpt lat="46.68567" lon="5.638">
        <ele>511.7</ele>
        <time>2022-05-12T09:12:40Z</time>
      </trkpt>
      <trkpt lat="46.68567" lon="5.63793">
        <ele>511.4</ele>
        <time>2022-05-12T09:12:46Z</time>
      </trkpt>
      <trkpt lat="46.68567" lon="5.63785">
        <ele>511.9</ele>
        <time>2022-05-12T09:12:52Z</time>
      </trkpt>
      <trkpt lat="46.68565" lon="5.63778">
        <ele>512.3</ele>
        <time>2022-05-12T09:12:57Z</time>
      </trkpt>
      <trkpt lat="46.68565" lon="5.6377">
        <ele>512.9</ele>
        <time>2022-05-12T09:13:02Z</time>
      </trkpt>
      <trkpt lat="46.68563" lon="5.63762">
        <ele>513</ele>
        <time>2022-05-12T09:13:06Z</time>
      </trkpt>
      <trkpt lat="46.68562" lon="5.63756">
        <ele>513.1</ele>
        <time>2022-05-12T09:13:10Z</time>
      </trkpt>
      <trkpt lat="46.68561" lon="5.63748">
        <ele>513</ele>
        <time>2022-05-12T09:13:14Z</time>
      </trkpt>
      <trkpt lat="46.6856" lon="5.63741">
        <ele>512.8</ele>
        <time>2022-05-12T09:13:19Z</time>
      </trkpt>
      <trkpt lat="46.6856" lon="5.63733">
        <ele>512.5</ele>
        <time>2022-05-12T09:13:25Z</time>
      </trkpt>
      <trkpt lat="46.68559" lon="5.63725">
        <ele>512.6</ele>
        <time>2022-05-12T09:13:30Z</time>
      </trkpt>
      <trkpt lat="46.68559" lon="5.63718">
        <ele>512.2</ele>
        <time>2022-05-12T09:13:35Z</time>
      </trkpt>
      <trkpt lat="46.68557" lon="5.6371">
        <ele>511.4</ele>
        <time>2022-05-12T09:13:39Z</time>
      </trkpt>
      <trkpt lat="46.68556" lon="5.63702">
        <ele>510.5</ele>
        <time>2022-05-12T09:13:43Z</time>
      </trkpt>
      <trkpt lat="46.68555" lon="5.63694">
        <ele>509.7</ele>
        <time>2022-05-12T09:13:48Z</time>
      </trkpt>
      <trkpt lat="46.68553" lon="5.63687">
        <ele>509.3</ele>
        <time>2022-05-12T09:13:52Z</time>
      </trkpt>
      <trkpt lat="46.68552" lon="5.63681">
        <ele>509.2</ele>
        <time>2022-05-12T09:13:56Z</time>
      </trkpt>
      <trkpt lat="46.6855" lon="5.63674">
        <ele>509.2</ele>
        <time>2022-05-12T09:14:00Z</time>
      </trkpt>
      <trkpt lat="46.68549" lon="5.63667">
        <ele>508.9</ele>
        <time>2022-05-12T09:14:04Z</time>
      </trkpt>
      <trkpt lat="46.68549" lon="5.6366">
        <ele>508.7</ele>
        <time>2022-05-12T09:14:09Z</time>
      </trkpt>
      <trkpt lat="46.68549" lon="5.63653">
        <ele>508.8</ele>
        <time>2022-05-12T09:14:14Z</time>
      </trkpt>
      <trkpt lat="46.68548" lon="5.63646">
        <ele>508.8</ele>
        <time>2022-05-12T09:14:18Z</time>
      </trkpt>
      <trkpt lat="46.68547" lon="5.63639">
        <ele>508.5</ele>
        <time>2022-05-12T09:14:22Z</time>
      </trkpt>
      <trkpt lat="46.68546" lon="5.63632">
        <ele>508.1</ele>
        <time>2022-05-12T09:14:28Z</time>
      </trkpt>
      <trkpt lat="46.68544" lon="5.63626">
        <ele>508.2</ele>
        <time>2022-05-12T09:14:32Z</time>
      </trkpt>
      <trkpt lat="46.68543" lon="5.63618">
        <ele>508.2</ele>
        <time>2022-05-12T09:14:37Z</time>
      </trkpt>
      <trkpt lat="46.68542" lon="5.63611">
        <ele>508.2</ele>
        <time>2022-05-12T09:14:42Z</time>
      </trkpt>
      <trkpt lat="46.6854" lon="5.63604">
        <ele>508.1</ele>
        <time>2022-05-12T09:14:47Z</time>
      </trkpt>
      <trkpt lat="46.68539" lon="5.63597">
        <ele>508.1</ele>
        <time>2022-05-12T09:14:51Z</time>
      </trkpt>
      <trkpt lat="46.68539" lon="5.6359">
        <ele>508.3</ele>
        <time>2022-05-12T09:14:56Z</time>
      </trkpt>
      <trkpt lat="46.6854" lon="5.63584">
        <ele>508.3</ele>
        <time>2022-05-12T09:15:00Z</time>
      </trkpt>
      <trkpt lat="46.68539" lon="5.63577">
        <ele>508.4</ele>
        <time>2022-05-12T09:15:04Z</time>
      </trkpt>
      <trkpt lat="46.68538" lon="5.6357">
        <ele>508.5</ele>
        <time>2022-05-12T09:15:08Z</time>
      </trkpt>
      <trkpt lat="46.68536" lon="5.63564">
        <ele>508.9</ele>
        <time>2022-05-12T09:15:11Z</time>
      </trkpt>
      <trkpt lat="46.68535" lon="5.63557">
        <ele>509.4</ele>
        <time>2022-05-12T09:15:15Z</time>
      </trkpt>
      <trkpt lat="46.68534" lon="5.6355">
        <ele>510</ele>
        <time>2022-05-12T09:15:22Z</time>
      </trkpt>
      <trkpt lat="46.68533" lon="5.63542">
        <ele>510.4</ele>
        <time>2022-05-12T09:15:26Z</time>
      </trkpt>
      <trkpt lat="46.68532" lon="5.63534">
        <ele>510.7</ele>
        <time>2022-05-12T09:15:31Z</time>
      </trkpt>
      <trkpt lat="46.68529" lon="5.63527">
        <ele>511.3</ele>
        <time>2022-05-12T09:15:36Z</time>
      </trkpt>
      <trkpt lat="46.68529" lon="5.63519">
        <ele>512</ele>
        <time>2022-05-12T09:15:41Z</time>
      </trkpt>
      <trkpt lat="46.6853" lon="5.63512">
        <ele>512.4</ele>
        <time>2022-05-12T09:15:45Z</time>
      </trkpt>
      <trkpt lat="46.68528" lon="5.63505">
        <ele>513</ele>
        <time>2022-05-12T09:15:49Z</time>
      </trkpt>
      <trkpt lat="46.68527" lon="5.63498">
        <ele>513.7</ele>
        <time>2022-05-12T09:15:53Z</time>
      </trkpt>
      <trkpt lat="46.68525" lon="5.63492">
        <ele>514.6</ele>
        <time>2022-05-12T09:15:57Z</time>
      </trkpt>
      <trkpt lat="46.68524" lon="5.63485">
        <ele>515.6</ele>
        <time>2022-05-12T09:16:01Z</time>
      </trkpt>
      <trkpt lat="46.68523" lon="5.63478">
        <ele>516.5</ele>
        <time>2022-05-12T09:16:05Z</time>
      </trkpt>
      <trkpt lat="46.68522" lon="5.63471">
        <ele>517.1</ele>
        <time>2022-05-12T09:16:10Z</time>
      </trkpt>
      <trkpt lat="46.68522" lon="5.63463">
        <ele>516.9</ele>
        <time>2022-05-12T09:16:16Z</time>
      </trkpt>
      <trkpt lat="46.68523" lon="5.63455">
        <ele>516.6</ele>
        <time>2022-05-12T09:16:20Z</time>
      </trkpt>
      <trkpt lat="46.68522" lon="5.63449">
        <ele>515.5</ele>
        <time>2022-05-12T09:16:25Z</time>
      </trkpt>
      <trkpt lat="46.68522" lon="5.63441">
        <ele>514.4</ele>
        <time>2022-05-12T09:16:30Z</time>
      </trkpt>
      <trkpt lat="46.68522" lon="5.63434">
        <ele>513.4</ele>
        <time>2022-05-12T09:16:35Z</time>
      </trkpt>
      <trkpt lat="46.68522" lon="5.63427">
        <ele>512</ele>
        <time>2022-05-12T09:16:41Z</time>
      </trkpt>
      <trkpt lat="46.68518" lon="5.63421">
        <ele>512</ele>
        <time>2022-05-12T09:16:46Z</time>
      </trkpt>
      <trkpt lat="46.68517" lon="5.63414">
        <ele>512.7</ele>
        <time>2022-05-12T09:16:51Z</time>
      </trkpt>
      <trkpt lat="46.68516" lon="5.63407">
        <ele>513.7</ele>
        <time>2022-05-12T09:16:56Z</time>
      </trkpt>
      <trkpt lat="46.68514" lon="5.63401">
        <ele>514.7</ele>
        <time>2022-05-12T09:17:00Z</time>
      </trkpt>
      <trkpt lat="46.68511" lon="5.63394">
        <ele>515.6</ele>
        <time>2022-05-12T09:17:04Z</time>
      </trkpt>
      <trkpt lat="46.68511" lon="5.63386">
        <ele>516.5</ele>
        <time>2022-05-12T09:17:09Z</time>
      </trkpt>
      <trkpt lat="46.6851" lon="5.63379">
        <ele>517.3</ele>
        <time>2022-05-12T09:17:13Z</time>
      </trkpt>
      <trkpt lat="46.6851" lon="5.63372">
        <ele>517.8</ele>
        <time>2022-05-12T09:17:16Z</time>
      </trkpt>
      <trkpt lat="46.6851" lon="5.63365">
        <ele>518.6</ele>
        <time>2022-05-12T09:17:20Z</time>
      </trkpt>
      <trkpt lat="46.6851" lon="5.63359">
        <ele>519.1</ele>
        <time>2022-05-12T09:17:25Z</time>
      </trkpt>
      <trkpt lat="46.68509" lon="5.63351">
        <ele>519</ele>
        <time>2022-05-12T09:17:30Z</time>
      </trkpt>
      <trkpt lat="46.68508" lon="5.63344">
        <ele>518.8</ele>
        <time>2022-05-12T09:17:35Z</time>
      </trkpt>
      <trkpt lat="46.68508" lon="5.63336">
        <ele>518.2</ele>
        <time>2022-05-12T09:17:40Z</time>
      </trkpt>
      <trkpt lat="46.68507" lon="5.63329">
        <ele>517.7</ele>
        <time>2022-05-12T09:17:45Z</time>
      </trkpt>
      <trkpt lat="46.68507" lon="5.63323">
        <ele>517.4</ele>
        <time>2022-05-12T09:17:49Z</time>
      </trkpt>
      <trkpt lat="46.68505" lon="5.63315">
        <ele>517.4</ele>
        <time>2022-05-12T09:17:55Z</time>
      </trkpt>
      <trkpt lat="46.68504" lon="5.63308">
        <ele>517.4</ele>
        <time>2022-05-12T09:18:00Z</time>
      </trkpt>
      <trkpt lat="46.68503" lon="5.633">
        <ele>517.8</ele>
        <time>2022-05-12T09:18:06Z</time>
      </trkpt>
      <trkpt lat="46.68502" lon="5.63293">
        <ele>518.2</ele>
        <time>2022-05-12T09:18:10Z</time>
      </trkpt>
      <trkpt lat="46.68502" lon="5.63286">
        <ele>518.7</ele>
        <time>2022-05-12T09:18:14Z</time>
      </trkpt>
      <trkpt lat="46.68501" lon="5.63278">
        <ele>518.9</ele>
        <time>2022-05-12T09:18:19Z</time>
      </trkpt>
      <trkpt lat="46.68501" lon="5.6327">
        <ele>519.6</ele>
        <time>2022-05-12T09:18:24Z</time>
      </trkpt>
      <trkpt lat="46.68499" lon="5.63262">
        <ele>520.2</ele>
        <time>2022-05-12T09:18:29Z</time>
      </trkpt>
      <trkpt lat="46.68498" lon="5.63255">
        <ele>520.5</ele>
        <time>2022-05-12T09:18:34Z</time>
      </trkpt>
      <trkpt lat="46.68498" lon="5.63247">
        <ele>520.1</ele>
        <time>2022-05-12T09:18:39Z</time>
      </trkpt>
      <trkpt lat="46.685" lon="5.6324">
        <ele>519.9</ele>
        <time>2022-05-12T09:18:44Z</time>
      </trkpt>
      <trkpt lat="46.68499" lon="5.63232">
        <ele>519.3</ele>
        <time>2022-05-12T09:18:49Z</time>
      </trkpt>
      <trkpt lat="46.68499" lon="5.63224">
        <ele>518.7</ele>
        <time>2022-05-12T09:18:53Z</time>
      </trkpt>
      <trkpt lat="46.68496" lon="5.63218">
        <ele>518.3</ele>
        <time>2022-05-12T09:18:57Z</time>
      </trkpt>
      <trkpt lat="46.68495" lon="5.63212">
        <ele>518.1</ele>
        <time>2022-05-12T09:19:03Z</time>
      </trkpt>
      <trkpt lat="46.68494" lon="5.63204">
        <ele>518.8</ele>
        <time>2022-05-12T09:19:10Z</time>
      </trkpt>
      <trkpt lat="46.68492" lon="5.63197">
        <ele>519.1</ele>
        <time>2022-05-12T09:19:15Z</time>
      </trkpt>
      <trkpt lat="46.68491" lon="5.6319">
        <ele>519.1</ele>
        <time>2022-05-12T09:19:21Z</time>
      </trkpt>
      <trkpt lat="46.68492" lon="5.63182">
        <ele>519.3</ele>
        <time>2022-05-12T09:19:26Z</time>
      </trkpt>
      <trkpt lat="46.68494" lon="5.63175">
        <ele>519.7</ele>
        <time>2022-05-12T09:19:29Z</time>
      </trkpt>
      <trkpt lat="46.68496" lon="5.63168">
        <ele>520.4</ele>
        <time>2022-05-12T09:19:34Z</time>
      </trkpt>
      <trkpt lat="46.68497" lon="5.6316">
        <ele>521.1</ele>
        <time>2022-05-12T09:19:39Z</time>
      </trkpt>
      <trkpt lat="46.68495" lon="5.63153">
        <ele>521.7</ele>
        <time>2022-05-12T09:19:43Z</time>
      </trkpt>
      <trkpt lat="46.68494" lon="5.63146">
        <ele>522.4</ele>
        <time>2022-05-12T09:19:47Z</time>
      </trkpt>
      <trkpt lat="46.68495" lon="5.63139">
        <ele>523.1</ele>
        <time>2022-05-12T09:19:51Z</time>
      </trkpt>
      <trkpt lat="46.68496" lon="5.63132">
        <ele>524.2</ele>
        <time>2022-05-12T09:19:55Z</time>
      </trkpt>
      <trkpt lat="46.68495" lon="5.63125">
        <ele>525.3</ele>
        <time>2022-05-12T09:20:00Z</time>
      </trkpt>
      <trkpt lat="46.68498" lon="5.63119">
        <ele>526.5</ele>
        <time>2022-05-12T09:20:06Z</time>
      </trkpt>
      <trkpt lat="46.68497" lon="5.63111">
        <ele>527.2</ele>
        <time>2022-05-12T09:20:11Z</time>
      </trkpt>
      <trkpt lat="46.68495" lon="5.63104">
        <ele>528</ele>
        <time>2022-05-12T09:20:15Z</time>
      </trkpt>
      <trkpt lat="46.68495" lon="5.63098">
        <ele>528.8</ele>
        <time>2022-05-12T09:20:19Z</time>
      </trkpt>
      <trkpt lat="46.68494" lon="5.63091">
        <ele>530.1</ele>
        <time>2022-05-12T09:20:23Z</time>
      </trkpt>
      <trkpt lat="46.68493" lon="5.63084">
        <ele>531.8</ele>
        <time>2022-05-12T09:20:27Z</time>
      </trkpt>
      <trkpt lat="46.68494" lon="5.63076">
        <ele>534</ele>
        <time>2022-05-12T09:20:34Z</time>
      </trkpt>
      <trkpt lat="46.68495" lon="5.6307">
        <ele>535.8</ele>
        <time>2022-05-12T09:20:40Z</time>
      </trkpt>
      <trkpt lat="46.68494" lon="5.63062">
        <ele>537.3</ele>
        <time>2022-05-12T09:20:45Z</time>
      </trkpt>
      <trkpt lat="46.68497" lon="5.63057">
        <ele>537.5</ele>
        <time>2022-05-12T09:20:50Z</time>
      </trkpt>
      <trkpt lat="46.68501" lon="5.63051">
        <ele>537</ele>
        <time>2022-05-12T09:20:55Z</time>
      </trkpt>
      <trkpt lat="46.68504" lon="5.63044">
        <ele>536.4</ele>
        <time>2022-05-12T09:21:00Z</time>
      </trkpt>
      <trkpt lat="46.68505" lon="5.63037">
        <ele>535.9</ele>
        <time>2022-05-12T09:21:05Z</time>
      </trkpt>
      <trkpt lat="46.68506" lon="5.63029">
        <ele>535.9</ele>
        <time>2022-05-12T09:21:11Z</time>
      </trkpt>
      <trkpt lat="46.68508" lon="5.63022">
        <ele>535.9</ele>
        <time>2022-05-12T09:21:16Z</time>
      </trkpt>
      <trkpt lat="46.6851" lon="5.63016">
        <ele>535.6</ele>
        <time>2022-05-12T09:21:22Z</time>
      </trkpt>
      <trkpt lat="46.68512" lon="5.6301">
        <ele>534.9</ele>
        <time>2022-05-12T09:21:28Z</time>
      </trkpt>
      <trkpt lat="46.68512" lon="5.63002">
        <ele>534.4</ele>
        <time>2022-05-12T09:21:34Z</time>
      </trkpt>
      <trkpt lat="46.68512" lon="5.62996">
        <ele>534.4</ele>
        <time>2022-05-12T09:21:39Z</time>
      </trkpt>
      <trkpt lat="46.68515" lon="5.62989">
        <ele>534.4</ele>
        <time>2022-05-12T09:21:44Z</time>
      </trkpt>
      <trkpt lat="46.68515" lon="5.62982">
        <ele>534.6</ele>
        <time>2022-05-12T09:21:50Z</time>
      </trkpt>
      <trkpt lat="46.68514" lon="5.62974">
        <ele>534.7</ele>
        <time>2022-05-12T09:21:55Z</time>
      </trkpt>
      <trkpt lat="46.68514" lon="5.62968">
        <ele>534.8</ele>
        <time>2022-05-12T09:21:59Z</time>
      </trkpt>
      <trkpt lat="46.68516" lon="5.62961">
        <ele>535</ele>
        <time>2022-05-12T09:22:04Z</time>
      </trkpt>
      <trkpt lat="46.68517" lon="5.62953">
        <ele>535.5</ele>
        <time>2022-05-12T09:22:09Z</time>
      </trkpt>
      <trkpt lat="46.6852" lon="5.62948">
        <ele>536.6</ele>
        <time>2022-05-12T09:22:16Z</time>
      </trkpt>
      <trkpt lat="46.68521" lon="5.62941">
        <ele>538.3</ele>
        <time>2022-05-12T09:22:24Z</time>
      </trkpt>
      <trkpt lat="46.68524" lon="5.62935">
        <ele>539.5</ele>
        <time>2022-05-12T09:22:29Z</time>
      </trkpt>
      <trkpt lat="46.68526" lon="5.62927">
        <ele>540.3</ele>
        <time>2022-05-12T09:22:33Z</time>
      </trkpt>
      <trkpt lat="46.68528" lon="5.62921">
        <ele>541</ele>
        <time>2022-05-12T09:22:37Z</time>
      </trkpt>
      <trkpt lat="46.68528" lon="5.62915">
        <ele>541.1</ele>
        <time>2022-05-12T09:22:42Z</time>
      </trkpt>
      <trkpt lat="46.68528" lon="5.62907">
        <ele>541.2</ele>
        <time>2022-05-12T09:22:47Z</time>
      </trkpt>
      <trkpt lat="46.68529" lon="5.62898">
        <ele>541.4</ele>
        <time>2022-05-12T09:22:51Z</time>
      </trkpt>
      <trkpt lat="46.68529" lon="5.62891">
        <ele>541.5</ele>
        <time>2022-05-12T09:22:54Z</time>
      </trkpt>
      <trkpt lat="46.6853" lon="5.62883">
        <ele>541.6</ele>
        <time>2022-05-12T09:22:59Z</time>
      </trkpt>
      <trkpt lat="46.68532" lon="5.62877">
        <ele>541.7</ele>
        <time>2022-05-12T09:23:04Z</time>
      </trkpt>
      <trkpt lat="46.68533" lon="5.6287">
        <ele>542.1</ele>
        <time>2022-05-12T09:23:10Z</time>
      </trkpt>
      <trkpt lat="46.68535" lon="5.62863">
        <ele>542.4</ele>
        <time>2022-05-12T09:23:15Z</time>
      </trkpt>
      <trkpt lat="46.68538" lon="5.62857">
        <ele>542.7</ele>
        <time>2022-05-12T09:23:21Z</time>
      </trkpt>
      <trkpt lat="46.68541" lon="5.62851">
        <ele>542.6</ele>
        <time>2022-05-12T09:23:25Z</time>
      </trkpt>
      <trkpt lat="46.68543" lon="5.62844">
        <ele>541.9</ele>
        <time>2022-05-12T09:23:30Z</time>
      </trkpt>
      <trkpt lat="46.68545" lon="5.62837">
        <ele>541.4</ele>
        <time>2022-05-12T09:23:37Z</time>
      </trkpt>
      <trkpt lat="46.68544" lon="5.62829">
        <ele>541.5</ele>
        <time>2022-05-12T09:23:41Z</time>
      </trkpt>
      <trkpt lat="46.68545" lon="5.62823">
        <ele>541.4</ele>
        <time>2022-05-12T09:23:45Z</time>
      </trkpt>
      <trkpt lat="46.68544" lon="5.62816">
        <ele>541.2</ele>
        <time>2022-05-12T09:23:49Z</time>
      </trkpt>
      <trkpt lat="46.68543" lon="5.62808">
        <ele>541.1</ele>
        <time>2022-05-12T09:23:53Z</time>
      </trkpt>
      <trkpt lat="46.68544" lon="5.62801">
        <ele>541.3</ele>
        <time>2022-05-12T09:23:58Z</time>
      </trkpt>
      <trkpt lat="46.68547" lon="5.62793">
        <ele>541.7</ele>
        <time>2022-05-12T09:24:03Z</time>
      </trkpt>
      <trkpt lat="46.68547" lon="5.62786">
        <ele>542</ele>
        <time>2022-05-12T09:24:07Z</time>
      </trkpt>
      <trkpt lat="46.68548" lon="5.62778">
        <ele>541.9</ele>
        <time>2022-05-12T09:24:11Z</time>
      </trkpt>
      <trkpt lat="46.68551" lon="5.62772">
        <ele>542.2</ele>
        <time>2022-05-12T09:24:15Z</time>
      </trkpt>
      <trkpt lat="46.68552" lon="5.62766">
        <ele>542.7</ele>
        <time>2022-05-12T09:24:19Z</time>
      </trkpt>
      <trkpt lat="46.68554" lon="5.62759">
        <ele>543.6</ele>
        <time>2022-05-12T09:24:23Z</time>
      </trkpt>
      <trkpt lat="46.68556" lon="5.62753">
        <ele>544.3</ele>
        <time>2022-05-12T09:24:27Z</time>
      </trkpt>
      <trkpt lat="46.68556" lon="5.62745">
        <ele>544.8</ele>
        <time>2022-05-12T09:24:31Z</time>
      </trkpt>
      <trkpt lat="46.68556" lon="5.62738">
        <ele>545.4</ele>
        <time>2022-05-12T09:24:36Z</time>
      </trkpt>
      <trkpt lat="46.68557" lon="5.6273">
        <ele>546.2</ele>
        <time>2022-05-12T09:24:41Z</time>
      </trkpt>
      <trkpt lat="46.68559" lon="5.62724">
        <ele>546.8</ele>
        <time>2022-05-12T09:24:46Z</time>
      </trkpt>
      <trkpt lat="46.68561" lon="5.62717">
        <ele>547.3</ele>
        <time>2022-05-12T09:24:51Z</time>
      </trkpt>
      <trkpt lat="46.68557" lon="5.62713">
        <ele>548.1</ele>
        <time>2022-05-12T09:24:56Z</time>
      </trkpt>
      <trkpt lat="46.68555" lon="5.62708">
        <ele>549.3</ele>
        <time>2022-05-12T09:25:07Z</time>
      </trkpt>
      <trkpt lat="46.68551" lon="5.62704">
        <ele>549.2</ele>
        <time>2022-05-12T09:25:16Z</time>
      </trkpt>
      <trkpt lat="46.68546" lon="5.62701">
        <ele>549.1</ele>
        <time>2022-05-12T09:25:21Z</time>
      </trkpt>
      <trkpt lat="46.68542" lon="5.62699">
        <ele>548.7</ele>
        <time>2022-05-12T09:25:27Z</time>
      </trkpt>
      <trkpt lat="46.68537" lon="5.62697">
        <ele>548.3</ele>
        <time>2022-05-12T09:25:33Z</time>
      </trkpt>
      <trkpt lat="46.68532" lon="5.62699">
        <ele>547.6</ele>
        <time>2022-05-12T09:25:39Z</time>
      </trkpt>
      <trkpt lat="46.68527" lon="5.62698">
        <ele>547</ele>
        <time>2022-05-12T09:25:42Z</time>
      </trkpt>
      <trkpt lat="46.68522" lon="5.62695">
        <ele>546.3</ele>
        <time>2022-05-12T09:25:45Z</time>
      </trkpt>
      <trkpt lat="46.68517" lon="5.62693">
        <ele>545.4</ele>
        <time>2022-05-12T09:25:51Z</time>
      </trkpt>
      <trkpt lat="46.68511" lon="5.62693">
        <ele>544.7</ele>
        <time>2022-05-12T09:25:56Z</time>
      </trkpt>
      <trkpt lat="46.68506" lon="5.62692">
        <ele>544.1</ele>
        <time>2022-05-12T09:26:00Z</time>
      </trkpt>
      <trkpt lat="46.68501" lon="5.62692">
        <ele>543.3</ele>
        <time>2022-05-12T09:26:04Z</time>
      </trkpt>
      <trkpt lat="46.68496" lon="5.62691">
        <ele>542.6</ele>
        <time>2022-05-12T09:26:08Z</time>
      </trkpt>
      <trkpt lat="46.6849" lon="5.62691">
        <ele>542.4</ele>
        <time>2022-05-12T09:26:12Z</time>
      </trkpt>
      <trkpt lat="46.68483" lon="5.62688">
        <ele>542.6</ele>
        <time>2022-05-12T09:26:15Z</time>
      </trkpt>
      <trkpt lat="46.68478" lon="5.62687">
        <ele>542.9</ele>
        <time>2022-05-12T09:26:18Z</time>
      </trkpt>
      <trkpt lat="46.68473" lon="5.62687">
        <ele>543</ele>
        <time>2022-05-12T09:26:23Z</time>
      </trkpt>
      <trkpt lat="46.68469" lon="5.62687">
        <ele>543</ele>
        <time>2022-05-12T09:26:27Z</time>
      </trkpt>
      <trkpt lat="46.68464" lon="5.62687">
        <ele>542.8</ele>
        <time>2022-05-12T09:26:33Z</time>
      </trkpt>
      <trkpt lat="46.68459" lon="5.62687">
        <ele>542.5</ele>
        <time>2022-05-12T09:26:38Z</time>
      </trkpt>
      <trkpt lat="46.68454" lon="5.62689">
        <ele>541.8</ele>
        <time>2022-05-12T09:26:43Z</time>
      </trkpt>
      <trkpt lat="46.68449" lon="5.62687">
        <ele>539.6</ele>
        <time>2022-05-12T09:26:50Z</time>
      </trkpt>
      <trkpt lat="46.68444" lon="5.62687">
        <ele>538</ele>
        <time>2022-05-12T09:26:55Z</time>
      </trkpt>
      <trkpt lat="46.68439" lon="5.6269">
        <ele>536.2</ele>
        <time>2022-05-12T09:27:00Z</time>
      </trkpt>
      <trkpt lat="46.68434" lon="5.62692">
        <ele>534.2</ele>
        <time>2022-05-12T09:27:05Z</time>
      </trkpt>
      <trkpt lat="46.68429" lon="5.62693">
        <ele>532.4</ele>
        <time>2022-05-12T09:27:10Z</time>
      </trkpt>
      <trkpt lat="46.68424" lon="5.62694">
        <ele>530.7</ele>
        <time>2022-05-12T09:27:15Z</time>
      </trkpt>
      <trkpt lat="46.68419" lon="5.62692">
        <ele>529.1</ele>
        <time>2022-05-12T09:27:20Z</time>
      </trkpt>
      <trkpt lat="46.68415" lon="5.62689">
        <ele>527.3</ele>
        <time>2022-05-12T09:27:25Z</time>
      </trkpt>
      <trkpt lat="46.68411" lon="5.62691">
        <ele>526</ele>
        <time>2022-05-12T09:27:29Z</time>
      </trkpt>
      <trkpt lat="46.68405" lon="5.62693">
        <ele>524.5</ele>
        <time>2022-05-12T09:27:34Z</time>
      </trkpt>
      <trkpt lat="46.684" lon="5.62697">
        <ele>523.5</ele>
        <time>2022-05-12T09:27:38Z</time>
      </trkpt>
      <trkpt lat="46.68396" lon="5.62699">
        <ele>522.3</ele>
        <time>2022-05-12T09:27:42Z</time>
      </trkpt>
      <trkpt lat="46.68391" lon="5.627">
        <ele>520.7</ele>
        <time>2022-05-12T09:27:47Z</time>
      </trkpt>
      <trkpt lat="46.68387" lon="5.62698">
        <ele>519.1</ele>
        <time>2022-05-12T09:27:52Z</time>
      </trkpt>
      <trkpt lat="46.68382" lon="5.62694">
        <ele>517</ele>
        <time>2022-05-12T09:27:57Z</time>
      </trkpt>
      <trkpt lat="46.68378" lon="5.62694">
        <ele>515.5</ele>
        <time>2022-05-12T09:28:01Z</time>
      </trkpt>
      <trkpt lat="46.68372" lon="5.62693">
        <ele>513.1</ele>
        <time>2022-05-12T09:28:08Z</time>
      </trkpt>
      <trkpt lat="46.68368" lon="5.6269">
        <ele>511.9</ele>
        <time>2022-05-12T09:28:13Z</time>
      </trkpt>
      <trkpt lat="46.68364" lon="5.62687">
        <ele>510.9</ele>
        <time>2022-05-12T09:28:17Z</time>
      </trkpt>
      <trkpt lat="46.6836" lon="5.62682">
        <ele>509.6</ele>
        <time>2022-05-12T09:28:22Z</time>
      </trkpt>
      <trkpt lat="46.68355" lon="5.6268">
        <ele>508.3</ele>
        <time>2022-05-12T09:28:27Z</time>
      </trkpt>
      <trkpt lat="46.6835" lon="5.62677">
        <ele>507.5</ele>
        <time>2022-05-12T09:28:33Z</time>
      </trkpt>
      <trkpt lat="46.68346" lon="5.62675">
        <ele>507</ele>
        <time>2022-05-12T09:28:37Z</time>
      </trkpt>
      <trkpt lat="46.68341" lon="5.62673">
        <ele>506.3</ele>
        <time>2022-05-12T09:28:42Z</time>
      </trkpt>
      <trkpt lat="46.68336" lon="5.62671">
        <ele>505.5</ele>
        <time>2022-05-12T09:28:46Z</time>
      </trkpt>
      <trkpt lat="46.68331" lon="5.62669">
        <ele>504.4</ele>
        <time>2022-05-12T09:28:51Z</time>
      </trkpt>
      <trkpt lat="46.68326" lon="5.62672">
        <ele>503.5</ele>
        <time>2022-05-12T09:28:56Z</time>
      </trkpt>
      <trkpt lat="46.68321" lon="5.62672">
        <ele>503.4</ele>
        <time>2022-05-12T09:29:01Z</time>
      </trkpt>
      <trkpt lat="46.68315" lon="5.62672">
        <ele>503.9</ele>
        <time>2022-05-12T09:29:05Z</time>
      </trkpt>
      <trkpt lat="46.68311" lon="5.62668">
        <ele>505</ele>
        <time>2022-05-12T09:29:09Z</time>
      </trkpt>
      <trkpt lat="46.68307" lon="5.62663">
        <ele>505.8</ele>
        <time>2022-05-12T09:29:13Z</time>
      </trkpt>
      <trkpt lat="46.68303" lon="5.62661">
        <ele>507</ele>
        <time>2022-05-12T09:29:18Z</time>
      </trkpt>
      <trkpt lat="46.68298" lon="5.62658">
        <ele>507.7</ele>
        <time>2022-05-12T09:29:22Z</time>
      </trkpt>
      <trkpt lat="46.68294" lon="5.62655">
        <ele>508.2</ele>
        <time>2022-05-12T09:29:26Z</time>
      </trkpt>
      <trkpt lat="46.68289" lon="5.62651">
        <ele>508.4</ele>
        <time>2022-05-12T09:29:31Z</time>
      </trkpt>
      <trkpt lat="46.68285" lon="5.62647">
        <ele>509.1</ele>
        <time>2022-05-12T09:29:37Z</time>
      </trkpt>
      <trkpt lat="46.68281" lon="5.62644">
        <ele>509.9</ele>
        <time>2022-05-12T09:29:41Z</time>
      </trkpt>
      <trkpt lat="46.68276" lon="5.6264">
        <ele>510.5</ele>
        <time>2022-05-12T09:29:45Z</time>
      </trkpt>
      <trkpt lat="46.68272" lon="5.62636">
        <ele>510.8</ele>
        <time>2022-05-12T09:29:49Z</time>
      </trkpt>
      <trkpt lat="46.68267" lon="5.62636">
        <ele>510.7</ele>
        <time>2022-05-12T09:29:54Z</time>
      </trkpt>
      <trkpt lat="46.68262" lon="5.62638">
        <ele>510.7</ele>
        <time>2022-05-12T09:29:58Z</time>
      </trkpt>
      <trkpt lat="46.68257" lon="5.62636">
        <ele>510.6</ele>
        <time>2022-05-12T09:30:03Z</time>
      </trkpt>
      <trkpt lat="46.68254" lon="5.62631">
        <ele>510.2</ele>
        <time>2022-05-12T09:30:09Z</time>
      </trkpt>
      <trkpt lat="46.68249" lon="5.6263">
        <ele>510.1</ele>
        <time>2022-05-12T09:30:14Z</time>
      </trkpt>
      <trkpt lat="46.68245" lon="5.62627">
        <ele>509.8</ele>
        <time>2022-05-12T09:30:19Z</time>
      </trkpt>
      <trkpt lat="46.68239" lon="5.62625">
        <ele>509.4</ele>
        <time>2022-05-12T09:30:24Z</time>
      </trkpt>
      <trkpt lat="46.68235" lon="5.62623">
        <ele>509.2</ele>
        <time>2022-05-12T09:30:28Z</time>
      </trkpt>
      <trkpt lat="46.6823" lon="5.62623">
        <ele>509</ele>
        <time>2022-05-12T09:30:32Z</time>
      </trkpt>
      <trkpt lat="46.68225" lon="5.62621">
        <ele>508.3</ele>
        <time>2022-05-12T09:30:37Z</time>
      </trkpt>
      <trkpt lat="46.6822" lon="5.62618">
        <ele>507.3</ele>
        <time>2022-05-12T09:30:42Z</time>
      </trkpt>
      <trkpt lat="46.68216" lon="5.62615">
        <ele>506.6</ele>
        <time>2022-05-12T09:30:46Z</time>
      </trkpt>
      <trkpt lat="46.68212" lon="5.6261">
        <ele>506.2</ele>
        <time>2022-05-12T09:30:50Z</time>
      </trkpt>
      <trkpt lat="46.68208" lon="5.62605">
        <ele>506.2</ele>
        <time>2022-05-12T09:30:54Z</time>
      </trkpt>
      <trkpt lat="46.68203" lon="5.626">
        <ele>506.5</ele>
        <time>2022-05-12T09:30:58Z</time>
      </trkpt>
      <trkpt lat="46.68199" lon="5.62596">
        <ele>507.1</ele>
        <time>2022-05-12T09:31:02Z</time>
      </trkpt>
      <trkpt lat="46.68194" lon="5.62594">
        <ele>507.9</ele>
        <time>2022-05-12T09:31:06Z</time>
      </trkpt>
      <trkpt lat="46.6819" lon="5.6259">
        <ele>508.7</ele>
        <time>2022-05-12T09:31:11Z</time>
      </trkpt>
      <trkpt lat="46.68186" lon="5.62586">
        <ele>509.1</ele>
        <time>2022-05-12T09:31:15Z</time>
      </trkpt>
      <trkpt lat="46.68181" lon="5.62583">
        <ele>509.4</ele>
        <time>2022-05-12T09:31:19Z</time>
      </trkpt>
      <trkpt lat="46.68176" lon="5.6258">
        <ele>509.7</ele>
        <time>2022-05-12T09:31:23Z</time>
      </trkpt>
      <trkpt lat="46.68172" lon="5.62575">
        <ele>509.9</ele>
        <time>2022-05-12T09:31:27Z</time>
      </trkpt>
      <trkpt lat="46.68168" lon="5.62572">
        <ele>511</ele>
        <time>2022-05-12T09:31:32Z</time>
      </trkpt>
      <trkpt lat="46.68165" lon="5.62567">
        <ele>511.9</ele>
        <time>2022-05-12T09:31:36Z</time>
      </trkpt>
      <trkpt lat="46.68162" lon="5.62562">
        <ele>513.1</ele>
        <time>2022-05-12T09:31:41Z</time>
      </trkpt>
      <trkpt lat="46.68158" lon="5.62556">
        <ele>513.9</ele>
        <time>2022-05-12T09:31:47Z</time>
      </trkpt>
      <trkpt lat="46.68154" lon="5.62551">
        <ele>514.7</ele>
        <time>2022-05-12T09:31:52Z</time>
      </trkpt>
      <trkpt lat="46.6815" lon="5.62547">
        <ele>515.5</ele>
        <time>2022-05-12T09:31:57Z</time>
      </trkpt>
      <trkpt lat="46.68146" lon="5.62543">
        <ele>515.8</ele>
        <time>2022-05-12T09:32:01Z</time>
      </trkpt>
      <trkpt lat="46.68141" lon="5.62539">
        <ele>516.3</ele>
        <time>2022-05-12T09:32:06Z</time>
      </trkpt>
      <trkpt lat="46.68137" lon="5.62535">
        <ele>516.5</ele>
        <time>2022-05-12T09:32:13Z</time>
      </trkpt>
      <trkpt lat="46.68133" lon="5.62534">
        <ele>516.8</ele>
        <time>2022-05-12T09:32:20Z</time>
      </trkpt>
      <trkpt lat="46.68128" lon="5.6253">
        <ele>517.1</ele>
        <time>2022-05-12T09:32:25Z</time>
      </trkpt>
      <trkpt lat="46.68124" lon="5.62528">
        <ele>517.3</ele>
        <time>2022-05-12T09:32:28Z</time>
      </trkpt>
      <trkpt lat="46.68119" lon="5.62525">
        <ele>517.3</ele>
        <time>2022-05-12T09:32:32Z</time>
      </trkpt>
      <trkpt lat="46.68115" lon="5.62521">
        <ele>516.8</ele>
        <time>2022-05-12T09:32:36Z</time>
      </trkpt>
      <trkpt lat="46.6811" lon="5.62521">
        <ele>515.8</ele>
        <time>2022-05-12T09:32:42Z</time>
      </trkpt>
      <trkpt lat="46.68105" lon="5.6252">
        <ele>514.5</ele>
        <time>2022-05-12T09:32:48Z</time>
      </trkpt>
      <trkpt lat="46.681" lon="5.62518">
        <ele>512.9</ele>
        <time>2022-05-12T09:32:54Z</time>
      </trkpt>
      <trkpt lat="46.68094" lon="5.62518">
        <ele>511.8</ele>
        <time>2022-05-12T09:32:59Z</time>
      </trkpt>
      <trkpt lat="46.68089" lon="5.62517">
        <ele>512.1</ele>
        <time>2022-05-12T09:33:02Z</time>
      </trkpt>
      <trkpt lat="46.68084" lon="5.62517">
        <ele>512.7</ele>
        <time>2022-05-12T09:33:05Z</time>
      </trkpt>
      <trkpt lat="46.68079" lon="5.62517">
        <ele>513.7</ele>
        <time>2022-05-12T09:33:09Z</time>
      </trkpt>
      <trkpt lat="46.68074" lon="5.62516">
        <ele>514.1</ele>
        <time>2022-05-12T09:33:13Z</time>
      </trkpt>
      <trkpt lat="46.68069" lon="5.62514">
        <ele>514.5</ele>
        <time>2022-05-12T09:33:18Z</time>
      </trkpt>
      <trkpt lat="46.68066" lon="5.62508">
        <ele>514.8</ele>
        <time>2022-05-12T09:33:22Z</time>
      </trkpt>
      <trkpt lat="46.68064" lon="5.62501">
        <ele>514.9</ele>
        <time>2022-05-12T09:33:27Z</time>
      </trkpt>
      <trkpt lat="46.68059" lon="5.62497">
        <ele>515.2</ele>
        <time>2022-05-12T09:33:32Z</time>
      </trkpt>
      <trkpt lat="46.68054" lon="5.62495">
        <ele>516.1</ele>
        <time>2022-05-12T09:33:38Z</time>
      </trkpt>
      <trkpt lat="46.6805" lon="5.62491">
        <ele>517</ele>
        <time>2022-05-12T09:33:43Z</time>
      </trkpt>
      <trkpt lat="46.68044" lon="5.62487">
        <ele>517.8</ele>
        <time>2022-05-12T09:33:47Z</time>
      </trkpt>
      <trkpt lat="46.6804" lon="5.62483">
        <ele>518.6</ele>
        <time>2022-05-12T09:33:52Z</time>
      </trkpt>
      <trkpt lat="46.68036" lon="5.62479">
        <ele>519.6</ele>
        <time>2022-05-12T09:33:59Z</time>
      </trkpt>
      <trkpt lat="46.68031" lon="5.62476">
        <ele>520</ele>
        <time>2022-05-12T09:34:03Z</time>
      </trkpt>
      <trkpt lat="46.68025" lon="5.62473">
        <ele>520.2</ele>
        <time>2022-05-12T09:34:07Z</time>
      </trkpt>
      <trkpt lat="46.68021" lon="5.62471">
        <ele>520.3</ele>
        <time>2022-05-12T09:34:10Z</time>
      </trkpt>
      <trkpt lat="46.68016" lon="5.6247">
        <ele>520.4</ele>
        <time>2022-05-12T09:34:14Z</time>
      </trkpt>
      <trkpt lat="46.68011" lon="5.62468">
        <ele>520.6</ele>
        <time>2022-05-12T09:34:18Z</time>
      </trkpt>
      <trkpt lat="46.68006" lon="5.62466">
        <ele>521.1</ele>
        <time>2022-05-12T09:34:22Z</time>
      </trkpt>
      <trkpt lat="46.68002" lon="5.62464">
        <ele>521.9</ele>
        <time>2022-05-12T09:34:27Z</time>
      </trkpt>
      <trkpt lat="46.67999" lon="5.62459">
        <ele>522.7</ele>
        <time>2022-05-12T09:34:31Z</time>
      </trkpt>
      <trkpt lat="46.67994" lon="5.62455">
        <ele>523.7</ele>
        <time>2022-05-12T09:34:35Z</time>
      </trkpt>
      <trkpt lat="46.67989" lon="5.62453">
        <ele>524.6</ele>
        <time>2022-05-12T09:34:39Z</time>
      </trkpt>
      <trkpt lat="46.67984" lon="5.62452">
        <ele>525.3</ele>
        <time>2022-05-12T09:34:43Z</time>
      </trkpt>
      <trkpt lat="46.6798" lon="5.62448">
        <ele>524.6</ele>
        <time>2022-05-12T09:34:49Z</time>
      </trkpt>
      <trkpt lat="46.67975" lon="5.62448">
        <ele>523.6</ele>
        <time>2022-05-12T09:34:57Z</time>
      </trkpt>
      <trkpt lat="46.6797" lon="5.62448">
        <ele>523.4</ele>
        <time>2022-05-12T09:35:07Z</time>
      </trkpt>
      <trkpt lat="46.67965" lon="5.62449">
        <ele>524.8</ele>
        <time>2022-05-12T09:35:14Z</time>
      </trkpt>
      <trkpt lat="46.67961" lon="5.62446">
        <ele>525.9</ele>
        <time>2022-05-12T09:35:20Z</time>
      </trkpt>
      <trkpt lat="46.67958" lon="5.62441">
        <ele>526.7</ele>
        <time>2022-05-12T09:35:26Z</time>
      </trkpt>
      <trkpt lat="46.67955" lon="5.62435">
        <ele>527.8</ele>
        <time>2022-05-12T09:35:32Z</time>
      </trkpt>
      <trkpt lat="46.67951" lon="5.6243">
        <ele>528.5</ele>
        <time>2022-05-12T09:35:39Z</time>
      </trkpt>
      <trkpt lat="46.67947" lon="5.62426">
        <ele>528.3</ele>
        <time>2022-05-12T09:35:46Z</time>
      </trkpt>
      <trkpt lat="46.67943" lon="5.62422">
        <ele>527.5</ele>
        <time>2022-05-12T09:35:51Z</time>
      </trkpt>
      <trkpt lat="46.67938" lon="5.62423">
        <ele>525.8</ele>
        <time>2022-05-12T09:35:58Z</time>
      </trkpt>
      <trkpt lat="46.67934" lon="5.62421">
        <ele>522.4</ele>
        <time>2022-05-12T09:36:06Z</time>
      </trkpt>
      <trkpt lat="46.6793" lon="5.62418">
        <ele>519.5</ele>
        <time>2022-05-12T09:36:14Z</time>
      </trkpt>
      <trkpt lat="46.67925" lon="5.62415">
        <ele>517.3</ele>
        <time>2022-05-12T09:36:30Z</time>
      </trkpt>
      <trkpt lat="46.67921" lon="5.62418">
        <ele>516.7</ele>
        <time>2022-05-12T09:36:35Z</time>
      </trkpt>
      <trkpt lat="46.67916" lon="5.62416">
        <ele>515.8</ele>
        <time>2022-05-12T09:36:39Z</time>
      </trkpt>
      <trkpt lat="46.67912" lon="5.62412">
        <ele>514.3</ele>
        <time>2022-05-12T09:36:45Z</time>
      </trkpt>
      <trkpt lat="46.67907" lon="5.62414">
        <ele>513.3</ele>
        <time>2022-05-12T09:36:49Z</time>
      </trkpt>
      <trkpt lat="46.67902" lon="5.62416">
        <ele>512</ele>
        <time>2022-05-12T09:36:54Z</time>
      </trkpt>
      <trkpt lat="46.67897" lon="5.62415">
        <ele>510.9</ele>
        <time>2022-05-12T09:37:01Z</time>
      </trkpt>
      <trkpt lat="46.67892" lon="5.62415">
        <ele>510.4</ele>
        <time>2022-05-12T09:37:06Z</time>
      </trkpt>
      <trkpt lat="46.67887" lon="5.62415">
        <ele>510.2</ele>
        <time>2022-05-12T09:37:09Z</time>
      </trkpt>
      <trkpt lat="46.67882" lon="5.62411">
        <ele>509.9</ele>
        <time>2022-05-12T09:37:15Z</time>
      </trkpt>
      <trkpt lat="46.67878" lon="5.62406">
        <ele>509.4</ele>
        <time>2022-05-12T09:37:20Z</time>
      </trkpt>
      <trkpt lat="46.67875" lon="5.62401">
        <ele>508.6</ele>
        <time>2022-05-12T09:37:24Z</time>
      </trkpt>
      <trkpt lat="46.67872" lon="5.62394">
        <ele>507.9</ele>
        <time>2022-05-12T09:37:28Z</time>
      </trkpt>
      <trkpt lat="46.67868" lon="5.6239">
        <ele>506.9</ele>
        <time>2022-05-12T09:37:32Z</time>
      </trkpt>
      <trkpt lat="46.67865" lon="5.62384">
        <ele>505.9</ele>
        <time>2022-05-12T09:37:37Z</time>
      </trkpt>
      <trkpt lat="46.67865" lon="5.62377">
        <ele>504.6</ele>
        <time>2022-05-12T09:37:43Z</time>
      </trkpt>
      <trkpt lat="46.6786" lon="5.62372">
        <ele>503</ele>
        <time>2022-05-12T09:37:49Z</time>
      </trkpt>
      <trkpt lat="46.67857" lon="5.62368">
        <ele>502.1</ele>
        <time>2022-05-12T09:37:53Z</time>
      </trkpt>
      <trkpt lat="46.67853" lon="5.62362">
        <ele>500.9</ele>
        <time>2022-05-12T09:37:59Z</time>
      </trkpt>
      <trkpt lat="46.67849" lon="5.62359">
        <ele>500.1</ele>
        <time>2022-05-12T09:38:03Z</time>
      </trkpt>
      <trkpt lat="46.67844" lon="5.62356">
        <ele>499.2</ele>
        <time>2022-05-12T09:38:08Z</time>
      </trkpt>
      <trkpt lat="46.67839" lon="5.62354">
        <ele>498.6</ele>
        <time>2022-05-12T09:38:13Z</time>
      </trkpt>
      <trkpt lat="46.67834" lon="5.62353">
        <ele>498.1</ele>
        <time>2022-05-12T09:38:18Z</time>
      </trkpt>
      <trkpt lat="46.6783" lon="5.62351">
        <ele>497.7</ele>
        <time>2022-05-12T09:38:23Z</time>
      </trkpt>
      <trkpt lat="46.67825" lon="5.62346">
        <ele>497.5</ele>
        <time>2022-05-12T09:38:27Z</time>
      </trkpt>
      <trkpt lat="46.67821" lon="5.62341">
        <ele>497.4</ele>
        <time>2022-05-12T09:38:31Z</time>
      </trkpt>
      <trkpt lat="46.67816" lon="5.62337">
        <ele>497.6</ele>
        <time>2022-05-12T09:38:35Z</time>
      </trkpt>
      <trkpt lat="46.67812" lon="5.62333">
        <ele>497.7</ele>
        <time>2022-05-12T09:38:38Z</time>
      </trkpt>
      <trkpt lat="46.67808" lon="5.62328">
        <ele>497.7</ele>
        <time>2022-05-12T09:38:42Z</time>
      </trkpt>
      <trkpt lat="46.67804" lon="5.62325">
        <ele>498.2</ele>
        <time>2022-05-12T09:38:46Z</time>
      </trkpt>
      <trkpt lat="46.678" lon="5.62321">
        <ele>498.7</ele>
        <time>2022-05-12T09:38:50Z</time>
      </trkpt>
      <trkpt lat="46.67796" lon="5.62317">
        <ele>498.9</ele>
        <time>2022-05-12T09:38:54Z</time>
      </trkpt>
      <trkpt lat="46.67791" lon="5.62313">
        <ele>499.2</ele>
        <time>2022-05-12T09:38:58Z</time>
      </trkpt>
      <trkpt lat="46.67787" lon="5.62309">
        <ele>499.5</ele>
        <time>2022-05-12T09:39:01Z</time>
      </trkpt>
      <trkpt lat="46.67783" lon="5.62305">
        <ele>499.7</ele>
        <time>2022-05-12T09:39:04Z</time>
      </trkpt>
      <trkpt lat="46.67779" lon="5.62301">
        <ele>500</ele>
        <time>2022-05-12T09:39:08Z</time>
      </trkpt>
      <trkpt lat="46.67775" lon="5.62297">
        <ele>500.4</ele>
        <time>2022-05-12T09:39:12Z</time>
      </trkpt>
      <trkpt lat="46.67772" lon="5.62292">
        <ele>500.9</ele>
        <time>2022-05-12T09:39:16Z</time>
      </trkpt>
      <trkpt lat="46.67769" lon="5.62286">
        <ele>501.1</ele>
        <time>2022-05-12T09:39:20Z</time>
      </trkpt>
      <trkpt lat="46.67766" lon="5.62281">
        <ele>501.3</ele>
        <time>2022-05-12T09:39:24Z</time>
      </trkpt>
      <trkpt lat="46.67763" lon="5.62274">
        <ele>501.8</ele>
        <time>2022-05-12T09:39:29Z</time>
      </trkpt>
      <trkpt lat="46.67759" lon="5.62271">
        <ele>502.4</ele>
        <time>2022-05-12T09:39:33Z</time>
      </trkpt>
      <trkpt lat="46.67756" lon="5.62265">
        <ele>503.1</ele>
        <time>2022-05-12T09:39:38Z</time>
      </trkpt>
      <trkpt lat="46.67753" lon="5.62259">
        <ele>503.7</ele>
        <time>2022-05-12T09:39:42Z</time>
      </trkpt>
      <trkpt lat="46.67748" lon="5.62257">
        <ele>503.9</ele>
        <time>2022-05-12T09:39:47Z</time>
      </trkpt>
      <trkpt lat="46.67744" lon="5.62259">
        <ele>504.5</ele>
        <time>2022-05-12T09:39:51Z</time>
      </trkpt>
      <trkpt lat="46.67739" lon="5.62259">
        <ele>505.3</ele>
        <time>2022-05-12T09:39:56Z</time>
      </trkpt>
      <trkpt lat="46.67734" lon="5.62257">
        <ele>506.3</ele>
        <time>2022-05-12T09:40:10Z</time>
      </trkpt>
      <trkpt lat="46.67729" lon="5.62256">
        <ele>506.1</ele>
        <time>2022-05-12T09:40:17Z</time>
      </trkpt>
      <trkpt lat="46.67724" lon="5.62256">
        <ele>505.9</ele>
        <time>2022-05-12T09:40:23Z</time>
      </trkpt>
      <trkpt lat="46.67719" lon="5.62255">
        <ele>505.7</ele>
        <time>2022-05-12T09:40:29Z</time>
      </trkpt>
      <trkpt lat="46.67714" lon="5.62255">
        <ele>505.1</ele>
        <time>2022-05-12T09:40:34Z</time>
      </trkpt>
      <trkpt lat="46.6771" lon="5.62256">
        <ele>504.4</ele>
        <time>2022-05-12T09:40:39Z</time>
      </trkpt>
      <trkpt lat="46.67704" lon="5.62257">
        <ele>503.6</ele>
        <time>2022-05-12T09:40:44Z</time>
      </trkpt>
      <trkpt lat="46.67699" lon="5.62257">
        <ele>502.8</ele>
        <time>2022-05-12T09:40:49Z</time>
      </trkpt>
      <trkpt lat="46.67694" lon="5.62255">
        <ele>502.1</ele>
        <time>2022-05-12T09:40:54Z</time>
      </trkpt>
      <trkpt lat="46.67689" lon="5.62251">
        <ele>501.5</ele>
        <time>2022-05-12T09:40:59Z</time>
      </trkpt>
      <trkpt lat="46.67685" lon="5.62246">
        <ele>501.2</ele>
        <time>2022-05-12T09:41:03Z</time>
      </trkpt>
      <trkpt lat="46.67681" lon="5.62243">
        <ele>500.9</ele>
        <time>2022-05-12T09:41:07Z</time>
      </trkpt>
      <trkpt lat="46.67676" lon="5.62239">
        <ele>500.6</ele>
        <time>2022-05-12T09:41:12Z</time>
      </trkpt>
      <trkpt lat="46.67671" lon="5.62237">
        <ele>500.1</ele>
        <time>2022-05-12T09:41:16Z</time>
      </trkpt>
      <trkpt lat="46.67666" lon="5.62233">
        <ele>499.7</ele>
        <time>2022-05-12T09:41:21Z</time>
      </trkpt>
      <trkpt lat="46.67663" lon="5.62228">
        <ele>499.4</ele>
        <time>2022-05-12T09:41:26Z</time>
      </trkpt>
      <trkpt lat="46.6766" lon="5.62222">
        <ele>499.1</ele>
        <time>2022-05-12T09:41:33Z</time>
      </trkpt>
      <trkpt lat="46.67656" lon="5.62218">
        <ele>499.2</ele>
        <time>2022-05-12T09:41:38Z</time>
      </trkpt>
      <trkpt lat="46.67653" lon="5.62211">
        <ele>499.8</ele>
        <time>2022-05-12T09:41:43Z</time>
      </trkpt>
      <trkpt lat="46.6765" lon="5.62206">
        <ele>500.1</ele>
        <time>2022-05-12T09:41:48Z</time>
      </trkpt>
      <trkpt lat="46.67646" lon="5.62202">
        <ele>500.4</ele>
        <time>2022-05-12T09:41:53Z</time>
      </trkpt>
      <trkpt lat="46.67641" lon="5.62197">
        <ele>500.4</ele>
        <time>2022-05-12T09:41:58Z</time>
      </trkpt>
      <trkpt lat="46.67637" lon="5.62192">
        <ele>500.8</ele>
        <time>2022-05-12T09:42:04Z</time>
      </trkpt>
      <trkpt lat="46.67633" lon="5.62189">
        <ele>501.2</ele>
        <time>2022-05-12T09:42:10Z</time>
      </trkpt>
      <trkpt lat="46.67629" lon="5.62185">
        <ele>501.3</ele>
        <time>2022-05-12T09:42:15Z</time>
      </trkpt>
      <trkpt lat="46.67625" lon="5.62181">
        <ele>501.2</ele>
        <time>2022-05-12T09:42:20Z</time>
      </trkpt>
      <trkpt lat="46.67621" lon="5.62175">
        <ele>501.3</ele>
        <time>2022-05-12T09:42:25Z</time>
      </trkpt>
      <trkpt lat="46.67618" lon="5.62169">
        <ele>501.1</ele>
        <time>2022-05-12T09:42:31Z</time>
      </trkpt>
      <trkpt lat="46.67617" lon="5.62162">
        <ele>501.5</ele>
        <time>2022-05-12T09:42:35Z</time>
      </trkpt>
      <trkpt lat="46.67618" lon="5.62154">
        <ele>501.9</ele>
        <time>2022-05-12T09:42:39Z</time>
      </trkpt>
      <trkpt lat="46.67615" lon="5.62148">
        <ele>501.7</ele>
        <time>2022-05-12T09:42:44Z</time>
      </trkpt>
      <trkpt lat="46.67614" lon="5.62141">
        <ele>501.9</ele>
        <time>2022-05-12T09:42:50Z</time>
      </trkpt>
      <trkpt lat="46.67612" lon="5.62135">
        <ele>503.5</ele>
        <time>2022-05-12T09:42:58Z</time>
      </trkpt>
      <trkpt lat="46.67606" lon="5.62134">
        <ele>504.3</ele>
        <time>2022-05-12T09:43:04Z</time>
      </trkpt>
      <trkpt lat="46.67611" lon="5.62132">
        <ele>506.7</ele>
        <time>2022-05-12T09:43:25Z</time>
      </trkpt>
      <trkpt lat="46.67615" lon="5.62129">
        <ele>507.3</ele>
        <time>2022-05-12T09:43:42Z</time>
      </trkpt>
      <trkpt lat="46.67619" lon="5.62124">
        <ele>507.2</ele>
        <time>2022-05-12T09:43:46Z</time>
      </trkpt>
      <trkpt lat="46.67626" lon="5.62121">
        <ele>508.1</ele>
        <time>2022-05-12T09:43:49Z</time>
      </trkpt>
      <trkpt lat="46.67627" lon="5.62115">
        <ele>509</ele>
        <time>2022-05-12T09:43:54Z</time>
      </trkpt>
      <trkpt lat="46.67622" lon="5.62111">
        <ele>509.7</ele>
        <time>2022-05-12T09:43:57Z</time>
      </trkpt>
      <trkpt lat="46.67619" lon="5.62104">
        <ele>510.7</ele>
        <time>2022-05-12T09:44:00Z</time>
      </trkpt>
      <trkpt lat="46.67619" lon="5.62095">
        <ele>511.3</ele>
        <time>2022-05-12T09:44:03Z</time>
      </trkpt>
      <trkpt lat="46.67619" lon="5.62087">
        <ele>511.4</ele>
        <time>2022-05-12T09:44:06Z</time>
      </trkpt>
      <trkpt lat="46.6762" lon="5.62078">
        <ele>511.9</ele>
        <time>2022-05-12T09:44:10Z</time>
      </trkpt>
      <trkpt lat="46.67621" lon="5.62071">
        <ele>513.1</ele>
        <time>2022-05-12T09:44:15Z</time>
      </trkpt>
      <trkpt lat="46.67622" lon="5.62063">
        <ele>514.2</ele>
        <time>2022-05-12T09:44:20Z</time>
      </trkpt>
      <trkpt lat="46.67623" lon="5.62056">
        <ele>515.5</ele>
        <time>2022-05-12T09:44:24Z</time>
      </trkpt>
      <trkpt lat="46.67624" lon="5.62049">
        <ele>517.5</ele>
        <time>2022-05-12T09:44:29Z</time>
      </trkpt>
      <trkpt lat="46.67624" lon="5.62043">
        <ele>518.7</ele>
        <time>2022-05-12T09:44:34Z</time>
      </trkpt>
      <trkpt lat="46.67624" lon="5.62035">
        <ele>519.3</ele>
        <time>2022-05-12T09:44:40Z</time>
      </trkpt>
      <trkpt lat="46.67624" lon="5.62028">
        <ele>519.6</ele>
        <time>2022-05-12T09:44:43Z</time>
      </trkpt>
      <trkpt lat="46.67622" lon="5.6202">
        <ele>519.9</ele>
        <time>2022-05-12T09:44:46Z</time>
      </trkpt>
      <trkpt lat="46.67622" lon="5.62012">
        <ele>520.2</ele>
        <time>2022-05-12T09:44:50Z</time>
      </trkpt>
      <trkpt lat="46.67623" lon="5.62004">
        <ele>520.5</ele>
        <time>2022-05-12T09:44:54Z</time>
      </trkpt>
      <trkpt lat="46.67623" lon="5.61997">
        <ele>520.6</ele>
        <time>2022-05-12T09:44:57Z</time>
      </trkpt>
      <trkpt lat="46.67623" lon="5.6199">
        <ele>521</ele>
        <time>2022-05-12T09:45:00Z</time>
      </trkpt>
      <trkpt lat="46.67621" lon="5.61982">
        <ele>521.1</ele>
        <time>2022-05-12T09:45:03Z</time>
      </trkpt>
      <trkpt lat="46.67619" lon="5.61974">
        <ele>521.2</ele>
        <time>2022-05-12T09:45:06Z</time>
      </trkpt>
      <trkpt lat="46.67618" lon="5.61968">
        <ele>521.1</ele>
        <time>2022-05-12T09:45:09Z</time>
      </trkpt>
      <trkpt lat="46.67614" lon="5.61962">
        <ele>521</ele>
        <time>2022-05-12T09:45:13Z</time>
      </trkpt>
      <trkpt lat="46.67612" lon="5.61956">
        <ele>521.4</ele>
        <time>2022-05-12T09:45:17Z</time>
      </trkpt>
      <trkpt lat="46.67611" lon="5.61948">
        <ele>522.7</ele>
        <time>2022-05-12T09:45:23Z</time>
      </trkpt>
      <trkpt lat="46.67609" lon="5.61941">
        <ele>523.7</ele>
        <time>2022-05-12T09:45:28Z</time>
      </trkpt>
      <trkpt lat="46.67606" lon="5.61936">
        <ele>524.7</ele>
        <time>2022-05-12T09:45:32Z</time>
      </trkpt>
      <trkpt lat="46.67602" lon="5.6193">
        <ele>525.6</ele>
        <time>2022-05-12T09:45:37Z</time>
      </trkpt>
      <trkpt lat="46.67599" lon="5.61924">
        <ele>526.6</ele>
        <time>2022-05-12T09:45:41Z</time>
      </trkpt>
      <trkpt lat="46.67595" lon="5.61917">
        <ele>527.7</ele>
        <time>2022-05-12T09:45:45Z</time>
      </trkpt>
      <trkpt lat="46.67591" lon="5.61913">
        <ele>528.6</ele>
        <time>2022-05-12T09:45:48Z</time>
      </trkpt>
      <trkpt lat="46.67587" lon="5.61907">
        <ele>529.7</ele>
        <time>2022-05-12T09:45:52Z</time>
      </trkpt>
      <trkpt lat="46.67584" lon="5.61901">
        <ele>531</ele>
        <time>2022-05-12T09:45:58Z</time>
      </trkpt>
      <trkpt lat="46.67581" lon="5.61895">
        <ele>531.6</ele>
        <time>2022-05-12T09:46:02Z</time>
      </trkpt>
      <trkpt lat="46.67579" lon="5.61888">
        <ele>532.3</ele>
        <time>2022-05-12T09:46:07Z</time>
      </trkpt>
      <trkpt lat="46.67577" lon="5.61881">
        <ele>532.8</ele>
        <time>2022-05-12T09:46:12Z</time>
      </trkpt>
      <trkpt lat="46.67577" lon="5.61874">
        <ele>533.6</ele>
        <time>2022-05-12T09:46:20Z</time>
      </trkpt>
      <trkpt lat="46.67574" lon="5.61867">
        <ele>534.3</ele>
        <time>2022-05-12T09:46:25Z</time>
      </trkpt>
      <trkpt lat="46.67571" lon="5.61861">
        <ele>534.9</ele>
        <time>2022-05-12T09:46:29Z</time>
      </trkpt>
      <trkpt lat="46.67568" lon="5.61855">
        <ele>536.1</ele>
        <time>2022-05-12T09:46:35Z</time>
      </trkpt>
      <trkpt lat="46.67565" lon="5.6185">
        <ele>537.2</ele>
        <time>2022-05-12T09:46:39Z</time>
      </trkpt>
      <trkpt lat="46.67562" lon="5.61845">
        <ele>538.2</ele>
        <time>2022-05-12T09:46:44Z</time>
      </trkpt>
      <trkpt lat="46.67559" lon="5.61838">
        <ele>538.4</ele>
        <time>2022-05-12T09:46:48Z</time>
      </trkpt>
      <trkpt lat="46.67554" lon="5.61833">
        <ele>538.2</ele>
        <time>2022-05-12T09:46:52Z</time>
      </trkpt>
      <trkpt lat="46.67551" lon="5.61828">
        <ele>538</ele>
        <time>2022-05-12T09:46:55Z</time>
      </trkpt>
      <trkpt lat="46.67548" lon="5.61822">
        <ele>537.6</ele>
        <time>2022-05-12T09:46:58Z</time>
      </trkpt>
      <trkpt lat="46.67544" lon="5.61817">
        <ele>536.9</ele>
        <time>2022-05-12T09:47:02Z</time>
      </trkpt>
      <trkpt lat="46.67542" lon="5.61811">
        <ele>536.2</ele>
        <time>2022-05-12T09:47:06Z</time>
      </trkpt>
      <trkpt lat="46.67539" lon="5.61805">
        <ele>535.4</ele>
        <time>2022-05-12T09:47:10Z</time>
      </trkpt>
      <trkpt lat="46.67537" lon="5.61798">
        <ele>535.1</ele>
        <time>2022-05-12T09:47:14Z</time>
      </trkpt>
      <trkpt lat="46.67533" lon="5.61794">
        <ele>535</ele>
        <time>2022-05-12T09:47:17Z</time>
      </trkpt>
      <trkpt lat="46.67531" lon="5.61786">
        <ele>534.7</ele>
        <time>2022-05-12T09:47:22Z</time>
      </trkpt>
      <trkpt lat="46.6753" lon="5.6178">
        <ele>534.4</ele>
        <time>2022-05-12T09:47:26Z</time>
      </trkpt>
      <trkpt lat="46.67527" lon="5.61772">
        <ele>534.3</ele>
        <time>2022-05-12T09:47:31Z</time>
      </trkpt>
      <trkpt lat="46.67525" lon="5.61766">
        <ele>534.5</ele>
        <time>2022-05-12T09:47:35Z</time>
      </trkpt>
      <trkpt lat="46.67521" lon="5.6176">
        <ele>534.6</ele>
        <time>2022-05-12T09:47:40Z</time>
      </trkpt>
      <trkpt lat="46.67518" lon="5.61755">
        <ele>534.6</ele>
        <time>2022-05-12T09:47:43Z</time>
      </trkpt>
      <trkpt lat="46.67515" lon="5.61749">
        <ele>534.4</ele>
        <time>2022-05-12T09:47:47Z</time>
      </trkpt>
      <trkpt lat="46.67512" lon="5.61743">
        <ele>534.2</ele>
        <time>2022-05-12T09:47:52Z</time>
      </trkpt>
      <trkpt lat="46.67508" lon="5.61738">
        <ele>533.6</ele>
        <time>2022-05-12T09:47:57Z</time>
      </trkpt>
      <trkpt lat="46.67505" lon="5.61733">
        <ele>532.6</ele>
        <time>2022-05-12T09:48:03Z</time>
      </trkpt>
      <trkpt lat="46.67504" lon="5.61726">
        <ele>532.3</ele>
        <time>2022-05-12T09:48:09Z</time>
      </trkpt>
      <trkpt lat="46.67499" lon="5.61723">
        <ele>532.3</ele>
        <time>2022-05-12T09:48:13Z</time>
      </trkpt>
      <trkpt lat="46.67494" lon="5.6172">
        <ele>532.4</ele>
        <time>2022-05-12T09:48:17Z</time>
      </trkpt>
      <trkpt lat="46.67491" lon="5.61715">
        <ele>532.3</ele>
        <time>2022-05-12T09:48:22Z</time>
      </trkpt>
      <trkpt lat="46.6749" lon="5.61708">
        <ele>532.1</ele>
        <time>2022-05-12T09:48:26Z</time>
      </trkpt>
      <trkpt lat="46.67489" lon="5.617">
        <ele>532</ele>
        <time>2022-05-12T09:48:30Z</time>
      </trkpt>
      <trkpt lat="46.67487" lon="5.61693">
        <ele>532</ele>
        <time>2022-05-12T09:48:35Z</time>
      </trkpt>
      <trkpt lat="46.67488" lon="5.61686">
        <ele>532.1</ele>
        <time>2022-05-12T09:48:40Z</time>
      </trkpt>
      <trkpt lat="46.67488" lon="5.61677">
        <ele>531.7</ele>
        <time>2022-05-12T09:48:44Z</time>
      </trkpt>
      <trkpt lat="46.67484" lon="5.61672">
        <ele>531.1</ele>
        <time>2022-05-12T09:48:48Z</time>
      </trkpt>
      <trkpt lat="46.67482" lon="5.61666">
        <ele>530.3</ele>
        <time>2022-05-12T09:48:54Z</time>
      </trkpt>
      <trkpt lat="46.6748" lon="5.61659">
        <ele>529.6</ele>
        <time>2022-05-12T09:49:00Z</time>
      </trkpt>
      <trkpt lat="46.67477" lon="5.61653">
        <ele>529.4</ele>
        <time>2022-05-12T09:49:06Z</time>
      </trkpt>
      <trkpt lat="46.67473" lon="5.61648">
        <ele>529.3</ele>
        <time>2022-05-12T09:49:10Z</time>
      </trkpt>
      <trkpt lat="46.67469" lon="5.61643">
        <ele>529.1</ele>
        <time>2022-05-12T09:49:13Z</time>
      </trkpt>
      <trkpt lat="46.67465" lon="5.61639">
        <ele>529.2</ele>
        <time>2022-05-12T09:49:17Z</time>
      </trkpt>
      <trkpt lat="46.67461" lon="5.61635">
        <ele>529.5</ele>
        <time>2022-05-12T09:49:21Z</time>
      </trkpt>
      <trkpt lat="46.67459" lon="5.61628">
        <ele>530.1</ele>
        <time>2022-05-12T09:49:26Z</time>
      </trkpt>
      <trkpt lat="46.67455" lon="5.61626">
        <ele>530.3</ele>
        <time>2022-05-12T09:49:31Z</time>
      </trkpt>
      <trkpt lat="46.67453" lon="5.6162">
        <ele>530</ele>
        <time>2022-05-12T09:49:35Z</time>
      </trkpt>
      <trkpt lat="46.67451" lon="5.61614">
        <ele>529.8</ele>
        <time>2022-05-12T09:49:39Z</time>
      </trkpt>
      <trkpt lat="46.67447" lon="5.61608">
        <ele>528.9</ele>
        <time>2022-05-12T09:49:43Z</time>
      </trkpt>
      <trkpt lat="46.67443" lon="5.61605">
        <ele>527.7</ele>
        <time>2022-05-12T09:49:47Z</time>
      </trkpt>
      <trkpt lat="46.67438" lon="5.61602">
        <ele>527</ele>
        <time>2022-05-12T09:49:52Z</time>
      </trkpt>
      <trkpt lat="46.67435" lon="5.61597">
        <ele>526.8</ele>
        <time>2022-05-12T09:49:57Z</time>
      </trkpt>
      <trkpt lat="46.6743" lon="5.61594">
        <ele>526.6</ele>
        <time>2022-05-12T09:50:02Z</time>
      </trkpt>
      <trkpt lat="46.67426" lon="5.61592">
        <ele>525.6</ele>
        <time>2022-05-12T09:50:07Z</time>
      </trkpt>
      <trkpt lat="46.67423" lon="5.61587">
        <ele>524.9</ele>
        <time>2022-05-12T09:50:12Z</time>
      </trkpt>
      <trkpt lat="46.67421" lon="5.6158">
        <ele>523</ele>
        <time>2022-05-12T09:50:19Z</time>
      </trkpt>
      <trkpt lat="46.67418" lon="5.61574">
        <ele>521.3</ele>
        <time>2022-05-12T09:50:24Z</time>
      </trkpt>
      <trkpt lat="46.67415" lon="5.61569">
        <ele>519.3</ele>
        <time>2022-05-12T09:50:29Z</time>
      </trkpt>
      <trkpt lat="46.6741" lon="5.61566">
        <ele>517.2</ele>
        <time>2022-05-12T09:50:34Z</time>
      </trkpt>
      <trkpt lat="46.67405" lon="5.61561">
        <ele>515.5</ele>
        <time>2022-05-12T09:50:39Z</time>
      </trkpt>
      <trkpt lat="46.67401" lon="5.61558">
        <ele>514.5</ele>
        <time>2022-05-12T09:50:45Z</time>
      </trkpt>
      <trkpt lat="46.67402" lon="5.61551">
        <ele>514.2</ele>
        <time>2022-05-12T09:51:11Z</time>
      </trkpt>
      <trkpt lat="46.67397" lon="5.61549">
        <ele>513.5</ele>
        <time>2022-05-12T09:51:27Z</time>
      </trkpt>
      <trkpt lat="46.67394" lon="5.61555">
        <ele>513.2</ele>
        <time>2022-05-12T09:51:33Z</time>
      </trkpt>
      <trkpt lat="46.67391" lon="5.61562">
        <ele>512.4</ele>
        <time>2022-05-12T09:51:38Z</time>
      </trkpt>
      <trkpt lat="46.67387" lon="5.61566">
        <ele>511.6</ele>
        <time>2022-05-12T09:51:43Z</time>
      </trkpt>
      <trkpt lat="46.67382" lon="5.61566">
        <ele>510.1</ele>
        <time>2022-05-12T09:51:47Z</time>
      </trkpt>
      <trkpt lat="46.67377" lon="5.61566">
        <ele>508.5</ele>
        <time>2022-05-12T09:51:51Z</time>
      </trkpt>
      <trkpt lat="46.67372" lon="5.61568">
        <ele>506.7</ele>
        <time>2022-05-12T09:51:58Z</time>
      </trkpt>
      <trkpt lat="46.67367" lon="5.61566">
        <ele>506.6</ele>
        <time>2022-05-12T09:52:03Z</time>
      </trkpt>
      <trkpt lat="46.67362" lon="5.61563">
        <ele>506.9</ele>
        <time>2022-05-12T09:52:07Z</time>
      </trkpt>
      <trkpt lat="46.67357" lon="5.61561">
        <ele>507.3</ele>
        <time>2022-05-12T09:52:11Z</time>
      </trkpt>
      <trkpt lat="46.67352" lon="5.6156">
        <ele>508.4</ele>
        <time>2022-05-12T09:52:18Z</time>
      </trkpt>
      <trkpt lat="46.67347" lon="5.61561">
        <ele>509.5</ele>
        <time>2022-05-12T09:52:25Z</time>
      </trkpt>
      <trkpt lat="46.67343" lon="5.61563">
        <ele>510</ele>
        <time>2022-05-12T09:52:29Z</time>
      </trkpt>
      <trkpt lat="46.67338" lon="5.61565">
        <ele>510.8</ele>
        <time>2022-05-12T09:52:33Z</time>
      </trkpt>
      <trkpt lat="46.67333" lon="5.61567">
        <ele>511.5</ele>
        <time>2022-05-12T09:52:38Z</time>
      </trkpt>
      <trkpt lat="46.67328" lon="5.61567">
        <ele>511.9</ele>
        <time>2022-05-12T09:52:43Z</time>
      </trkpt>
      <trkpt lat="46.67324" lon="5.61565">
        <ele>512.4</ele>
        <time>2022-05-12T09:52:47Z</time>
      </trkpt>
      <trkpt lat="46.67319" lon="5.61567">
        <ele>513.4</ele>
        <time>2022-05-12T09:52:54Z</time>
      </trkpt>
      <trkpt lat="46.67314" lon="5.61566">
        <ele>516</ele>
        <time>2022-05-12T09:53:02Z</time>
      </trkpt>
      <trkpt lat="46.67309" lon="5.61565">
        <ele>519</ele>
        <time>2022-05-12T09:53:09Z</time>
      </trkpt>
      <trkpt lat="46.67304" lon="5.61567">
        <ele>520.5</ele>
        <time>2022-05-12T09:53:13Z</time>
      </trkpt>
      <trkpt lat="46.67299" lon="5.61567">
        <ele>522.4</ele>
        <time>2022-05-12T09:53:19Z</time>
      </trkpt>
      <trkpt lat="46.67294" lon="5.61566">
        <ele>524.6</ele>
        <time>2022-05-12T09:53:26Z</time>
      </trkpt>
      <trkpt lat="46.6729" lon="5.61564">
        <ele>525.9</ele>
        <time>2022-05-12T09:53:31Z</time>
      </trkpt>
      <trkpt lat="46.67285" lon="5.61563">
        <ele>526.6</ele>
        <time>2022-05-12T09:53:35Z</time>
      </trkpt>
      <trkpt lat="46.6728" lon="5.61562">
        <ele>527.1</ele>
        <time>2022-05-12T09:53:39Z</time>
      </trkpt>
      <trkpt lat="46.67276" lon="5.6156">
        <ele>527.6</ele>
        <time>2022-05-12T09:53:43Z</time>
      </trkpt>
      <trkpt lat="46.67271" lon="5.61561">
        <ele>528</ele>
        <time>2022-05-12T09:53:48Z</time>
      </trkpt>
      <trkpt lat="46.67268" lon="5.61556">
        <ele>527.9</ele>
        <time>2022-05-12T09:53:56Z</time>
      </trkpt>
      <trkpt lat="46.67262" lon="5.61555">
        <ele>527.7</ele>
        <time>2022-05-12T09:54:02Z</time>
      </trkpt>
      <trkpt lat="46.67258" lon="5.61554">
        <ele>527.8</ele>
        <time>2022-05-12T09:54:06Z</time>
      </trkpt>
      <trkpt lat="46.67252" lon="5.61551">
        <ele>528.3</ele>
        <time>2022-05-12T09:54:11Z</time>
      </trkpt>
      <trkpt lat="46.67247" lon="5.6155">
        <ele>528.7</ele>
        <time>2022-05-12T09:54:16Z</time>
      </trkpt>
      <trkpt lat="46.67242" lon="5.61549">
        <ele>529.2</ele>
        <time>2022-05-12T09:54:21Z</time>
      </trkpt>
      <trkpt lat="46.67237" lon="5.61551">
        <ele>529.5</ele>
        <time>2022-05-12T09:54:26Z</time>
      </trkpt>
      <trkpt lat="46.67232" lon="5.61553">
        <ele>530.1</ele>
        <time>2022-05-12T09:54:30Z</time>
      </trkpt>
      <trkpt lat="46.67227" lon="5.61551">
        <ele>531.1</ele>
        <time>2022-05-12T09:54:35Z</time>
      </trkpt>
      <trkpt lat="46.67223" lon="5.61549">
        <ele>532.2</ele>
        <time>2022-05-12T09:54:39Z</time>
      </trkpt>
      <trkpt lat="46.67218" lon="5.61546">
        <ele>533.2</ele>
        <time>2022-05-12T09:54:43Z</time>
      </trkpt>
      <trkpt lat="46.67214" lon="5.61544">
        <ele>534.5</ele>
        <time>2022-05-12T09:54:48Z</time>
      </trkpt>
      <trkpt lat="46.67209" lon="5.61545">
        <ele>534.9</ele>
        <time>2022-05-12T09:54:51Z</time>
      </trkpt>
      <trkpt lat="46.67205" lon="5.61548">
        <ele>534.8</ele>
        <time>2022-05-12T09:54:54Z</time>
      </trkpt>
      <trkpt lat="46.672" lon="5.61548">
        <ele>534.4</ele>
        <time>2022-05-12T09:54:59Z</time>
      </trkpt>
      <trkpt lat="46.67196" lon="5.61546">
        <ele>534.9</ele>
        <time>2022-05-12T09:55:09Z</time>
      </trkpt>
      <trkpt lat="46.67191" lon="5.61544">
        <ele>535.8</ele>
        <time>2022-05-12T09:55:16Z</time>
      </trkpt>
      <trkpt lat="46.67186" lon="5.61545">
        <ele>536.4</ele>
        <time>2022-05-12T09:55:23Z</time>
      </trkpt>
      <trkpt lat="46.67181" lon="5.61547">
        <ele>536.8</ele>
        <time>2022-05-12T09:55:30Z</time>
      </trkpt>
      <trkpt lat="46.67176" lon="5.61547">
        <ele>537.3</ele>
        <time>2022-05-12T09:55:34Z</time>
      </trkpt>
      <trkpt lat="46.67172" lon="5.61546">
        <ele>538</ele>
        <time>2022-05-12T09:55:39Z</time>
      </trkpt>
      <trkpt lat="46.67167" lon="5.61545">
        <ele>538.6</ele>
        <time>2022-05-12T09:55:48Z</time>
      </trkpt>
      <trkpt lat="46.67162" lon="5.61545">
        <ele>539</ele>
        <time>2022-05-12T09:55:53Z</time>
      </trkpt>
      <trkpt lat="46.67157" lon="5.61545">
        <ele>539.9</ele>
        <time>2022-05-12T09:56:00Z</time>
      </trkpt>
      <trkpt lat="46.67151" lon="5.61548">
        <ele>540.7</ele>
        <time>2022-05-12T09:56:04Z</time>
      </trkpt>
      <trkpt lat="46.67146" lon="5.61546">
        <ele>541.9</ele>
        <time>2022-05-12T09:56:11Z</time>
      </trkpt>
      <trkpt lat="46.67143" lon="5.6154">
        <ele>543.1</ele>
        <time>2022-05-12T09:56:17Z</time>
      </trkpt>
      <trkpt lat="46.67139" lon="5.61536">
        <ele>543.6</ele>
        <time>2022-05-12T09:56:21Z</time>
      </trkpt>
      <trkpt lat="46.67136" lon="5.6153">
        <ele>543.8</ele>
        <time>2022-05-12T09:56:24Z</time>
      </trkpt>
      <trkpt lat="46.67134" lon="5.61524">
        <ele>544.2</ele>
        <time>2022-05-12T09:56:27Z</time>
      </trkpt>
      <trkpt lat="46.67133" lon="5.61516">
        <ele>544.9</ele>
        <time>2022-05-12T09:56:32Z</time>
      </trkpt>
      <trkpt lat="46.6713" lon="5.61511">
        <ele>545.7</ele>
        <time>2022-05-12T09:56:38Z</time>
      </trkpt>
      <trkpt lat="46.67129" lon="5.61504">
        <ele>546.5</ele>
        <time>2022-05-12T09:56:44Z</time>
      </trkpt>
      <trkpt lat="46.67129" lon="5.61497">
        <ele>548.1</ele>
        <time>2022-05-12T09:56:51Z</time>
      </trkpt>
      <trkpt lat="46.67127" lon="5.6149">
        <ele>549</ele>
        <time>2022-05-12T09:56:59Z</time>
      </trkpt>
      <trkpt lat="46.67128" lon="5.61484">
        <ele>548.5</ele>
        <time>2022-05-12T09:57:28Z</time>
      </trkpt>
      <trkpt lat="46.67125" lon="5.61479">
        <ele>548.4</ele>
        <time>2022-05-12T09:57:32Z</time>
      </trkpt>
      <trkpt lat="46.67122" lon="5.61472">
        <ele>548.4</ele>
        <time>2022-05-12T09:57:37Z</time>
      </trkpt>
      <trkpt lat="46.67119" lon="5.61465">
        <ele>548.6</ele>
        <time>2022-05-12T09:57:44Z</time>
      </trkpt>
      <trkpt lat="46.67117" lon="5.6146">
        <ele>548.7</ele>
        <time>2022-05-12T09:57:48Z</time>
      </trkpt>
      <trkpt lat="46.67116" lon="5.61453">
        <ele>548.6</ele>
        <time>2022-05-12T09:57:55Z</time>
      </trkpt>
      <trkpt lat="46.67113" lon="5.61446">
        <ele>548.3</ele>
        <time>2022-05-12T09:58:01Z</time>
      </trkpt>
      <trkpt lat="46.67112" lon="5.61439">
        <ele>548.1</ele>
        <time>2022-05-12T09:58:14Z</time>
      </trkpt>
      <trkpt lat="46.67109" lon="5.61431">
        <ele>546.2</ele>
        <time>2022-05-12T09:58:19Z</time>
      </trkpt>
      <trkpt lat="46.67108" lon="5.61424">
        <ele>544.4</ele>
        <time>2022-05-12T09:58:24Z</time>
      </trkpt>
      <trkpt lat="46.67104" lon="5.61419">
        <ele>542.2</ele>
        <time>2022-05-12T09:58:29Z</time>
      </trkpt>
      <trkpt lat="46.671" lon="5.61413">
        <ele>541.5</ele>
        <time>2022-05-12T09:58:34Z</time>
      </trkpt>
      <trkpt lat="46.671" lon="5.61407">
        <ele>541.3</ele>
        <time>2022-05-12T09:58:39Z</time>
      </trkpt>
      <trkpt lat="46.67099" lon="5.614">
        <ele>541.8</ele>
        <time>2022-05-12T09:58:49Z</time>
      </trkpt>
      <trkpt lat="46.67096" lon="5.61395">
        <ele>541.9</ele>
        <time>2022-05-12T09:59:00Z</time>
      </trkpt>
      <trkpt lat="46.67093" lon="5.61389">
        <ele>541.7</ele>
        <time>2022-05-12T09:59:06Z</time>
      </trkpt>
      <trkpt lat="46.6709" lon="5.61384">
        <ele>541.9</ele>
        <time>2022-05-12T09:59:12Z</time>
      </trkpt>
      <trkpt lat="46.67088" lon="5.61377">
        <ele>542.2</ele>
        <time>2022-05-12T09:59:17Z</time>
      </trkpt>
      <trkpt lat="46.67085" lon="5.61371">
        <ele>542.3</ele>
        <time>2022-05-12T09:59:22Z</time>
      </trkpt>
      <trkpt lat="46.67084" lon="5.61364">
        <ele>542.6</ele>
        <time>2022-05-12T09:59:28Z</time>
      </trkpt>
      <trkpt lat="46.67082" lon="5.61358">
        <ele>542.8</ele>
        <time>2022-05-12T09:59:33Z</time>
      </trkpt>
      <trkpt lat="46.67078" lon="5.61353">
        <ele>542.7</ele>
        <time>2022-05-12T09:59:41Z</time>
      </trkpt>
      <trkpt lat="46.67075" lon="5.61346">
        <ele>542.2</ele>
        <time>2022-05-12T09:59:46Z</time>
      </trkpt>
      <trkpt lat="46.67072" lon="5.61341">
        <ele>542.1</ele>
        <time>2022-05-12T09:59:50Z</time>
      </trkpt>
      <trkpt lat="46.67069" lon="5.61333">
        <ele>542.2</ele>
        <time>2022-05-12T09:59:54Z</time>
      </trkpt>
      <trkpt lat="46.67067" lon="5.61326">
        <ele>542.7</ele>
        <time>2022-05-12T10:00:00Z</time>
      </trkpt>
      <trkpt lat="46.67065" lon="5.61319">
        <ele>543.4</ele>
        <time>2022-05-12T10:00:05Z</time>
      </trkpt>
      <trkpt lat="46.67061" lon="5.61314">
        <ele>544.1</ele>
        <time>2022-05-12T10:00:10Z</time>
      </trkpt>
      <trkpt lat="46.67058" lon="5.61309">
        <ele>544.5</ele>
        <time>2022-05-12T10:00:15Z</time>
      </trkpt>
      <trkpt lat="46.67057" lon="5.61302">
        <ele>545.1</ele>
        <time>2022-05-12T10:00:19Z</time>
      </trkpt>
      <trkpt lat="46.67056" lon="5.61296">
        <ele>545.6</ele>
        <time>2022-05-12T10:00:22Z</time>
      </trkpt>
      <trkpt lat="46.67052" lon="5.6129">
        <ele>546.9</ele>
        <time>2022-05-12T10:00:27Z</time>
      </trkpt>
      <trkpt lat="46.6705" lon="5.61284">
        <ele>549.7</ele>
        <time>2022-05-12T10:00:37Z</time>
      </trkpt>
      <trkpt lat="46.67047" lon="5.61277">
        <ele>550.8</ele>
        <time>2022-05-12T10:00:43Z</time>
      </trkpt>
      <trkpt lat="46.67045" lon="5.61272">
        <ele>551.4</ele>
        <time>2022-05-12T10:00:47Z</time>
      </trkpt>
      <trkpt lat="46.67042" lon="5.61266">
        <ele>552.2</ele>
        <time>2022-05-12T10:00:52Z</time>
      </trkpt>
      <trkpt lat="46.67041" lon="5.61258">
        <ele>552.5</ele>
        <time>2022-05-12T10:00:57Z</time>
      </trkpt>
      <trkpt lat="46.67036" lon="5.61254">
        <ele>552.6</ele>
        <time>2022-05-12T10:01:04Z</time>
      </trkpt>
      <trkpt lat="46.67032" lon="5.6125">
        <ele>552.2</ele>
        <time>2022-05-12T10:01:08Z</time>
      </trkpt>
      <trkpt lat="46.67029" lon="5.61245">
        <ele>551.7</ele>
        <time>2022-05-12T10:01:13Z</time>
      </trkpt>
      <trkpt lat="46.67027" lon="5.61238">
        <ele>551</ele>
        <time>2022-05-12T10:01:18Z</time>
      </trkpt>
      <trkpt lat="46.67025" lon="5.61232">
        <ele>550.5</ele>
        <time>2022-05-12T10:01:22Z</time>
      </trkpt>
      <trkpt lat="46.67024" lon="5.61224">
        <ele>550.4</ele>
        <time>2022-05-12T10:01:28Z</time>
      </trkpt>
      <trkpt lat="46.67022" lon="5.61217">
        <ele>550.7</ele>
        <time>2022-05-12T10:01:32Z</time>
      </trkpt>
      <trkpt lat="46.67019" lon="5.6121">
        <ele>551</ele>
        <time>2022-05-12T10:01:36Z</time>
      </trkpt>
      <trkpt lat="46.67016" lon="5.61203">
        <ele>551.7</ele>
        <time>2022-05-12T10:01:41Z</time>
      </trkpt>
      <trkpt lat="46.67013" lon="5.61198">
        <ele>552.5</ele>
        <time>2022-05-12T10:01:47Z</time>
      </trkpt>
      <trkpt lat="46.6701" lon="5.61189">
        <ele>553.6</ele>
        <time>2022-05-12T10:01:59Z</time>
      </trkpt>
      <trkpt lat="46.67007" lon="5.61182">
        <ele>553.8</ele>
        <time>2022-05-12T10:02:02Z</time>
      </trkpt>
      <trkpt lat="46.67004" lon="5.61177">
        <ele>554.1</ele>
        <time>2022-05-12T10:02:05Z</time>
      </trkpt>
      <trkpt lat="46.67" lon="5.61171">
        <ele>554.6</ele>
        <time>2022-05-12T10:02:08Z</time>
      </trkpt>
      <trkpt lat="46.66997" lon="5.61166">
        <ele>555.1</ele>
        <time>2022-05-12T10:02:11Z</time>
      </trkpt>
      <trkpt lat="46.66994" lon="5.6116">
        <ele>555.6</ele>
        <time>2022-05-12T10:02:15Z</time>
      </trkpt>
      <trkpt lat="46.6699" lon="5.61155">
        <ele>555.9</ele>
        <time>2022-05-12T10:02:22Z</time>
      </trkpt>
      <trkpt lat="46.66987" lon="5.61151">
        <ele>555.3</ele>
        <time>2022-05-12T10:02:29Z</time>
      </trkpt>
      <trkpt lat="46.66984" lon="5.61144">
        <ele>554.7</ele>
        <time>2022-05-12T10:02:34Z</time>
      </trkpt>
      <trkpt lat="46.66982" lon="5.61137">
        <ele>554.2</ele>
        <time>2022-05-12T10:02:39Z</time>
      </trkpt>
      <trkpt lat="46.6698" lon="5.61131">
        <ele>552.9</ele>
        <time>2022-05-12T10:02:45Z</time>
      </trkpt>
      <trkpt lat="46.66977" lon="5.61125">
        <ele>552.2</ele>
        <time>2022-05-12T10:02:48Z</time>
      </trkpt>
      <trkpt lat="46.66974" lon="5.6112">
        <ele>551.6</ele>
        <time>2022-05-12T10:02:51Z</time>
      </trkpt>
      <trkpt lat="46.66971" lon="5.61114">
        <ele>551</ele>
        <time>2022-05-12T10:02:56Z</time>
      </trkpt>
      <trkpt lat="46.66969" lon="5.61108">
        <ele>550.5</ele>
        <time>2022-05-12T10:03:01Z</time>
      </trkpt>
      <trkpt lat="46.66966" lon="5.61102">
        <ele>549.7</ele>
        <time>2022-05-12T10:03:07Z</time>
      </trkpt>
      <trkpt lat="46.66962" lon="5.61096">
        <ele>548.9</ele>
        <time>2022-05-12T10:03:12Z</time>
      </trkpt>
      <trkpt lat="46.66959" lon="5.6109">
        <ele>548.5</ele>
        <time>2022-05-12T10:03:18Z</time>
      </trkpt>
      <trkpt lat="46.66957" lon="5.61083">
        <ele>548.8</ele>
        <time>2022-05-12T10:03:23Z</time>
      </trkpt>
      <trkpt lat="46.66954" lon="5.61078">
        <ele>549.9</ele>
        <time>2022-05-12T10:03:30Z</time>
      </trkpt>
      <trkpt lat="46.6695" lon="5.61073">
        <ele>551.2</ele>
        <time>2022-05-12T10:03:36Z</time>
      </trkpt>
      <trkpt lat="46.66949" lon="5.61067">
        <ele>551.7</ele>
        <time>2022-05-12T10:03:43Z</time>
      </trkpt>
      <trkpt lat="46.66948" lon="5.6106">
        <ele>551.5</ele>
        <time>2022-05-12T10:03:49Z</time>
      </trkpt>
      <trkpt lat="46.66946" lon="5.61053">
        <ele>550.8</ele>
        <time>2022-05-12T10:03:58Z</time>
      </trkpt>
      <trkpt lat="46.66943" lon="5.61044">
        <ele>549.9</ele>
        <time>2022-05-12T10:04:08Z</time>
      </trkpt>
      <trkpt lat="46.6694" lon="5.61039">
        <ele>549.3</ele>
        <time>2022-05-12T10:04:11Z</time>
      </trkpt>
      <trkpt lat="46.66936" lon="5.61033">
        <ele>548.3</ele>
        <time>2022-05-12T10:04:16Z</time>
      </trkpt>
      <trkpt lat="46.66935" lon="5.61027">
        <ele>547.2</ele>
        <time>2022-05-12T10:04:20Z</time>
      </trkpt>
      <trkpt lat="46.66933" lon="5.61021">
        <ele>546.3</ele>
        <time>2022-05-12T10:04:24Z</time>
      </trkpt>
      <trkpt lat="46.66931" lon="5.61014">
        <ele>545.2</ele>
        <time>2022-05-12T10:04:29Z</time>
      </trkpt>
      <trkpt lat="46.66928" lon="5.61009">
        <ele>543.9</ele>
        <time>2022-05-12T10:04:34Z</time>
      </trkpt>
      <trkpt lat="46.66925" lon="5.61002">
        <ele>542.6</ele>
        <time>2022-05-12T10:04:41Z</time>
      </trkpt>
      <trkpt lat="46.66923" lon="5.60995">
        <ele>541.6</ele>
        <time>2022-05-12T10:04:45Z</time>
      </trkpt>
      <trkpt lat="46.6692" lon="5.60987">
        <ele>540.8</ele>
        <time>2022-05-12T10:04:49Z</time>
      </trkpt>
      <trkpt lat="46.66918" lon="5.60981">
        <ele>540.5</ele>
        <time>2022-05-12T10:04:53Z</time>
      </trkpt>
      <trkpt lat="46.66914" lon="5.60975">
        <ele>540.5</ele>
        <time>2022-05-12T10:04:57Z</time>
      </trkpt>
      <trkpt lat="46.66911" lon="5.60969">
        <ele>540.6</ele>
        <time>2022-05-12T10:05:00Z</time>
      </trkpt>
      <trkpt lat="46.66908" lon="5.60963">
        <ele>540.6</ele>
        <time>2022-05-12T10:05:03Z</time>
      </trkpt>
      <trkpt lat="46.66906" lon="5.60956">
        <ele>540.8</ele>
        <time>2022-05-12T10:05:07Z</time>
      </trkpt>
      <trkpt lat="46.66904" lon="5.60949">
        <ele>541.1</ele>
        <time>2022-05-12T10:05:11Z</time>
      </trkpt>
      <trkpt lat="46.66902" lon="5.60942">
        <ele>541.4</ele>
        <time>2022-05-12T10:05:16Z</time>
      </trkpt>
      <trkpt lat="46.66898" lon="5.60933">
        <ele>541.8</ele>
        <time>2022-05-12T10:05:27Z</time>
      </trkpt>
      <trkpt lat="46.66895" lon="5.60929">
        <ele>542.3</ele>
        <time>2022-05-12T10:05:31Z</time>
      </trkpt>
      <trkpt lat="46.66891" lon="5.60924">
        <ele>543.4</ele>
        <time>2022-05-12T10:05:37Z</time>
      </trkpt>
      <trkpt lat="46.6689" lon="5.60916">
        <ele>543.8</ele>
        <time>2022-05-12T10:05:44Z</time>
      </trkpt>
      <trkpt lat="46.66887" lon="5.60911">
        <ele>543.5</ele>
        <time>2022-05-12T10:05:51Z</time>
      </trkpt>
      <trkpt lat="46.66885" lon="5.60904">
        <ele>543</ele>
        <time>2022-05-12T10:05:56Z</time>
      </trkpt>
      <trkpt lat="46.66884" lon="5.60897">
        <ele>542.3</ele>
        <time>2022-05-12T10:06:00Z</time>
      </trkpt>
      <trkpt lat="46.66882" lon="5.60889">
        <ele>542.1</ele>
        <time>2022-05-12T10:06:05Z</time>
      </trkpt>
      <trkpt lat="46.66879" lon="5.60883">
        <ele>541.9</ele>
        <time>2022-05-12T10:06:09Z</time>
      </trkpt>
      <trkpt lat="46.66875" lon="5.60878">
        <ele>542.2</ele>
        <time>2022-05-12T10:06:16Z</time>
      </trkpt>
      <trkpt lat="46.66872" lon="5.60873">
        <ele>543</ele>
        <time>2022-05-12T10:06:22Z</time>
      </trkpt>
      <trkpt lat="46.66868" lon="5.60869">
        <ele>544.3</ele>
        <time>2022-05-12T10:06:29Z</time>
      </trkpt>
      <trkpt lat="46.66867" lon="5.60863">
        <ele>545.7</ele>
        <time>2022-05-12T10:06:35Z</time>
      </trkpt>
      <trkpt lat="46.66866" lon="5.60856">
        <ele>547.1</ele>
        <time>2022-05-12T10:06:40Z</time>
      </trkpt>
      <trkpt lat="46.66864" lon="5.6085">
        <ele>548.9</ele>
        <time>2022-05-12T10:06:47Z</time>
      </trkpt>
      <trkpt lat="46.66859" lon="5.60849">
        <ele>550</ele>
        <time>2022-05-12T10:06:54Z</time>
      </trkpt>
      <trkpt lat="46.66856" lon="5.60843">
        <ele>551.3</ele>
        <time>2022-05-12T10:07:03Z</time>
      </trkpt>
      <trkpt lat="46.66854" lon="5.60836">
        <ele>552.3</ele>
        <time>2022-05-12T10:07:10Z</time>
      </trkpt>
      <trkpt lat="46.66852" lon="5.6083">
        <ele>553.1</ele>
        <time>2022-05-12T10:07:15Z</time>
      </trkpt>
      <trkpt lat="46.66849" lon="5.60825">
        <ele>554.7</ele>
        <time>2022-05-12T10:07:20Z</time>
      </trkpt>
      <trkpt lat="46.66847" lon="5.60819">
        <ele>556.4</ele>
        <time>2022-05-12T10:07:24Z</time>
      </trkpt>
      <trkpt lat="46.66846" lon="5.60811">
        <ele>558.5</ele>
        <time>2022-05-12T10:07:31Z</time>
      </trkpt>
      <trkpt lat="46.66845" lon="5.60804">
        <ele>559.4</ele>
        <time>2022-05-12T10:07:36Z</time>
      </trkpt>
      <trkpt lat="46.66842" lon="5.60798">
        <ele>559.2</ele>
        <time>2022-05-12T10:07:42Z</time>
      </trkpt>
      <trkpt lat="46.66838" lon="5.60795">
        <ele>558.9</ele>
        <time>2022-05-12T10:07:48Z</time>
      </trkpt>
      <trkpt lat="46.66835" lon="5.6079">
        <ele>557.3</ele>
        <time>2022-05-12T10:07:56Z</time>
      </trkpt>
      <trkpt lat="46.66831" lon="5.60784">
        <ele>557.2</ele>
        <time>2022-05-12T10:08:00Z</time>
      </trkpt>
      <trkpt lat="46.66829" lon="5.60778">
        <ele>557.2</ele>
        <time>2022-05-12T10:08:04Z</time>
      </trkpt>
      <trkpt lat="46.66827" lon="5.60772">
        <ele>558.3</ele>
        <time>2022-05-12T10:08:11Z</time>
      </trkpt>
      <trkpt lat="46.66825" lon="5.60765">
        <ele>559.7</ele>
        <time>2022-05-12T10:08:16Z</time>
      </trkpt>
      <trkpt lat="46.66822" lon="5.6076">
        <ele>560.6</ele>
        <time>2022-05-12T10:08:21Z</time>
      </trkpt>
      <trkpt lat="46.6682" lon="5.60754">
        <ele>561.2</ele>
        <time>2022-05-12T10:08:25Z</time>
      </trkpt>
      <trkpt lat="46.66817" lon="5.60747">
        <ele>561.3</ele>
        <time>2022-05-12T10:08:30Z</time>
      </trkpt>
      <trkpt lat="46.66814" lon="5.60742">
        <ele>559.7</ele>
        <time>2022-05-12T10:08:38Z</time>
      </trkpt>
      <trkpt lat="46.66811" lon="5.60737">
        <ele>558.8</ele>
        <time>2022-05-12T10:08:44Z</time>
      </trkpt>
      <trkpt lat="46.6681" lon="5.6073">
        <ele>558.1</ele>
        <time>2022-05-12T10:08:49Z</time>
      </trkpt>
      <trkpt lat="46.66808" lon="5.60723">
        <ele>556.2</ele>
        <time>2022-05-12T10:08:55Z</time>
      </trkpt>
      <trkpt lat="46.66806" lon="5.60717">
        <ele>554.8</ele>
        <time>2022-05-12T10:09:00Z</time>
      </trkpt>
      <trkpt lat="46.66803" lon="5.60709">
        <ele>553.6</ele>
        <time>2022-05-12T10:09:05Z</time>
      </trkpt>
      <trkpt lat="46.668" lon="5.60704">
        <ele>551.7</ele>
        <time>2022-05-12T10:09:10Z</time>
      </trkpt>
      <trkpt lat="46.66797" lon="5.60699">
        <ele>550.5</ele>
        <time>2022-05-12T10:09:14Z</time>
      </trkpt>
      <trkpt lat="46.66792" lon="5.60695">
        <ele>549.4</ele>
        <time>2022-05-12T10:09:19Z</time>
      </trkpt>
      <trkpt lat="46.66789" lon="5.6069">
        <ele>549.1</ele>
        <time>2022-05-12T10:09:24Z</time>
      </trkpt>
      <trkpt lat="46.66787" lon="5.60683">
        <ele>548.9</ele>
        <time>2022-05-12T10:09:30Z</time>
      </trkpt>
      <trkpt lat="46.66786" lon="5.60677">
        <ele>548.7</ele>
        <time>2022-05-12T10:09:34Z</time>
      </trkpt>
      <trkpt lat="46.66785" lon="5.6067">
        <ele>548.2</ele>
        <time>2022-05-12T10:09:40Z</time>
      </trkpt>
      <trkpt lat="46.66783" lon="5.60663">
        <ele>547.9</ele>
        <time>2022-05-12T10:09:45Z</time>
      </trkpt>
      <trkpt lat="46.6678" lon="5.60656">
        <ele>547.1</ele>
        <time>2022-05-12T10:09:49Z</time>
      </trkpt>
      <trkpt lat="46.66777" lon="5.6065">
        <ele>546.7</ele>
        <time>2022-05-12T10:09:53Z</time>
      </trkpt>
      <trkpt lat="46.66773" lon="5.60644">
        <ele>547</ele>
        <time>2022-05-12T10:09:57Z</time>
      </trkpt>
      <trkpt lat="46.66769" lon="5.6064">
        <ele>547.9</ele>
        <time>2022-05-12T10:10:02Z</time>
      </trkpt>
      <trkpt lat="46.66765" lon="5.60635">
        <ele>549.3</ele>
        <time>2022-05-12T10:10:06Z</time>
      </trkpt>
      <trkpt lat="46.66762" lon="5.60629">
        <ele>551.3</ele>
        <time>2022-05-12T10:10:11Z</time>
      </trkpt>
      <trkpt lat="46.66761" lon="5.60622">
        <ele>553.2</ele>
        <time>2022-05-12T10:10:16Z</time>
      </trkpt>
      <trkpt lat="46.66758" lon="5.60616">
        <ele>555</ele>
        <time>2022-05-12T10:10:21Z</time>
      </trkpt>
      <trkpt lat="46.66755" lon="5.60612">
        <ele>556.3</ele>
        <time>2022-05-12T10:10:25Z</time>
      </trkpt>
      <trkpt lat="46.66753" lon="5.60606">
        <ele>558.2</ele>
        <time>2022-05-12T10:10:31Z</time>
      </trkpt>
      <trkpt lat="46.66749" lon="5.606">
        <ele>560.2</ele>
        <time>2022-05-12T10:10:40Z</time>
      </trkpt>
      <trkpt lat="46.66745" lon="5.60595">
        <ele>561.2</ele>
        <time>2022-05-12T10:10:46Z</time>
      </trkpt>
      <trkpt lat="46.66742" lon="5.60591">
        <ele>561.2</ele>
        <time>2022-05-12T10:10:50Z</time>
      </trkpt>
      <trkpt lat="46.6674" lon="5.60585">
        <ele>561.4</ele>
        <time>2022-05-12T10:10:54Z</time>
      </trkpt>
      <trkpt lat="46.66739" lon="5.60577">
        <ele>561.8</ele>
        <time>2022-05-12T10:10:58Z</time>
      </trkpt>
      <trkpt lat="46.66739" lon="5.60571">
        <ele>562.1</ele>
        <time>2022-05-12T10:11:02Z</time>
      </trkpt>
      <trkpt lat="46.66737" lon="5.60564">
        <ele>563</ele>
        <time>2022-05-12T10:11:08Z</time>
      </trkpt>
      <trkpt lat="46.66733" lon="5.6056">
        <ele>563.3</ele>
        <time>2022-05-12T10:11:15Z</time>
      </trkpt>
      <trkpt lat="46.66732" lon="5.60554">
        <ele>562.5</ele>
        <time>2022-05-12T10:11:26Z</time>
      </trkpt>
      <trkpt lat="46.6673" lon="5.60548">
        <ele>561.7</ele>
        <time>2022-05-12T10:11:29Z</time>
      </trkpt>
      <trkpt lat="46.66727" lon="5.60542">
        <ele>561</ele>
        <time>2022-05-12T10:11:32Z</time>
      </trkpt>
      <trkpt lat="46.66723" lon="5.60538">
        <ele>560.2</ele>
        <time>2022-05-12T10:11:36Z</time>
      </trkpt>
      <trkpt lat="46.66721" lon="5.60532">
        <ele>559.8</ele>
        <time>2022-05-12T10:11:42Z</time>
      </trkpt>
      <trkpt lat="46.66719" lon="5.60526">
        <ele>559</ele>
        <time>2022-05-12T10:11:47Z</time>
      </trkpt>
      <trkpt lat="46.66716" lon="5.6052">
        <ele>558.5</ele>
        <time>2022-05-12T10:11:51Z</time>
      </trkpt>
      <trkpt lat="46.66713" lon="5.60514">
        <ele>558.3</ele>
        <time>2022-05-12T10:11:55Z</time>
      </trkpt>
      <trkpt lat="46.6671" lon="5.60509">
        <ele>558.1</ele>
        <time>2022-05-12T10:11:59Z</time>
      </trkpt>
      <trkpt lat="46.66709" lon="5.60501">
        <ele>557.8</ele>
        <time>2022-05-12T10:12:04Z</time>
      </trkpt>
      <trkpt lat="46.66707" lon="5.60495">
        <ele>557.7</ele>
        <time>2022-05-12T10:12:08Z</time>
      </trkpt>
      <trkpt lat="46.66704" lon="5.6049">
        <ele>557.6</ele>
        <time>2022-05-12T10:12:12Z</time>
      </trkpt>
      <trkpt lat="46.66701" lon="5.60484">
        <ele>557.5</ele>
        <time>2022-05-12T10:12:18Z</time>
      </trkpt>
      <trkpt lat="46.66697" lon="5.60479">
        <ele>557.1</ele>
        <time>2022-05-12T10:12:24Z</time>
      </trkpt>
      <trkpt lat="46.66694" lon="5.60474">
        <ele>557.1</ele>
        <time>2022-05-12T10:12:28Z</time>
      </trkpt>
      <trkpt lat="46.66691" lon="5.60468">
        <ele>557.2</ele>
        <time>2022-05-12T10:12:34Z</time>
      </trkpt>
      <trkpt lat="46.66691" lon="5.60461">
        <ele>555.5</ele>
        <time>2022-05-12T10:12:44Z</time>
      </trkpt>
      <trkpt lat="46.6669" lon="5.60453">
        <ele>553.7</ele>
        <time>2022-05-12T10:12:53Z</time>
      </trkpt>
      <trkpt lat="46.66687" lon="5.60447">
        <ele>553</ele>
        <time>2022-05-12T10:12:56Z</time>
      </trkpt>
      <trkpt lat="46.66684" lon="5.60442">
        <ele>552.4</ele>
        <time>2022-05-12T10:12:59Z</time>
      </trkpt>
      <trkpt lat="46.66682" lon="5.60436">
        <ele>551.8</ele>
        <time>2022-05-12T10:13:03Z</time>
      </trkpt>
      <trkpt lat="46.66679" lon="5.6043">
        <ele>551.2</ele>
        <time>2022-05-12T10:13:08Z</time>
      </trkpt>
      <trkpt lat="46.66676" lon="5.60423">
        <ele>550.6</ele>
        <time>2022-05-12T10:13:13Z</time>
      </trkpt>
      <trkpt lat="46.66673" lon="5.60418">
        <ele>550.1</ele>
        <time>2022-05-12T10:13:20Z</time>
      </trkpt>
      <trkpt lat="46.66671" lon="5.60412">
        <ele>550.8</ele>
        <time>2022-05-12T10:13:28Z</time>
      </trkpt>
      <trkpt lat="46.66669" lon="5.60406">
        <ele>550.9</ele>
        <time>2022-05-12T10:13:32Z</time>
      </trkpt>
      <trkpt lat="46.66668" lon="5.604">
        <ele>550.4</ele>
        <time>2022-05-12T10:13:40Z</time>
      </trkpt>
      <trkpt lat="46.66664" lon="5.60394">
        <ele>549.8</ele>
        <time>2022-05-12T10:13:46Z</time>
      </trkpt>
      <trkpt lat="46.66661" lon="5.60388">
        <ele>549.7</ele>
        <time>2022-05-12T10:13:51Z</time>
      </trkpt>
      <trkpt lat="46.66659" lon="5.60382">
        <ele>549.6</ele>
        <time>2022-05-12T10:13:55Z</time>
      </trkpt>
      <trkpt lat="46.66654" lon="5.60378">
        <ele>549.9</ele>
        <time>2022-05-12T10:13:59Z</time>
      </trkpt>
      <trkpt lat="46.6665" lon="5.60374">
        <ele>550.3</ele>
        <time>2022-05-12T10:14:02Z</time>
      </trkpt>
      <trkpt lat="46.66646" lon="5.60368">
        <ele>550.7</ele>
        <time>2022-05-12T10:14:05Z</time>
      </trkpt>
      <trkpt lat="46.66644" lon="5.60361">
        <ele>551.1</ele>
        <time>2022-05-12T10:14:09Z</time>
      </trkpt>
      <trkpt lat="46.66642" lon="5.60354">
        <ele>551.4</ele>
        <time>2022-05-12T10:14:13Z</time>
      </trkpt>
      <trkpt lat="46.66639" lon="5.60347">
        <ele>550.7</ele>
        <time>2022-05-12T10:14:18Z</time>
      </trkpt>
      <trkpt lat="46.66638" lon="5.60341">
        <ele>550.4</ele>
        <time>2022-05-12T10:14:24Z</time>
      </trkpt>
      <trkpt lat="46.66636" lon="5.60334">
        <ele>550.2</ele>
        <time>2022-05-12T10:14:37Z</time>
      </trkpt>
      <trkpt lat="46.66633" lon="5.60329">
        <ele>550.1</ele>
        <time>2022-05-12T10:14:42Z</time>
      </trkpt>
      <trkpt lat="46.6663" lon="5.60323">
        <ele>550.1</ele>
        <time>2022-05-12T10:14:48Z</time>
      </trkpt>
      <trkpt lat="46.66628" lon="5.60317">
        <ele>550.1</ele>
        <time>2022-05-12T10:14:53Z</time>
      </trkpt>
      <trkpt lat="46.66625" lon="5.60311">
        <ele>550.4</ele>
        <time>2022-05-12T10:14:59Z</time>
      </trkpt>
      <trkpt lat="46.66622" lon="5.60306">
        <ele>551.3</ele>
        <time>2022-05-12T10:15:08Z</time>
      </trkpt>
      <trkpt lat="46.6662" lon="5.603">
        <ele>551.6</ele>
        <time>2022-05-12T10:15:14Z</time>
      </trkpt>
      <trkpt lat="46.66617" lon="5.60294">
        <ele>551.7</ele>
        <time>2022-05-12T10:15:17Z</time>
      </trkpt>
      <trkpt lat="46.66613" lon="5.60287">
        <ele>551.4</ele>
        <time>2022-05-12T10:15:20Z</time>
      </trkpt>
      <trkpt lat="46.6661" lon="5.60281">
        <ele>551.3</ele>
        <time>2022-05-12T10:15:24Z</time>
      </trkpt>
      <trkpt lat="46.66608" lon="5.60275">
        <ele>551.1</ele>
        <time>2022-05-12T10:15:29Z</time>
      </trkpt>
      <trkpt lat="46.66604" lon="5.60271">
        <ele>551.4</ele>
        <time>2022-05-12T10:15:35Z</time>
      </trkpt>
      <trkpt lat="46.666" lon="5.60266">
        <ele>552.4</ele>
        <time>2022-05-12T10:15:40Z</time>
      </trkpt>
      <trkpt lat="46.66597" lon="5.60259">
        <ele>553.2</ele>
        <time>2022-05-12T10:15:45Z</time>
      </trkpt>
      <trkpt lat="46.66596" lon="5.60252">
        <ele>553.3</ele>
        <time>2022-05-12T10:15:49Z</time>
      </trkpt>
      <trkpt lat="46.66593" lon="5.60245">
        <ele>553.1</ele>
        <time>2022-05-12T10:15:54Z</time>
      </trkpt>
      <trkpt lat="46.6659" lon="5.60239">
        <ele>553.3</ele>
        <time>2022-05-12T10:16:00Z</time>
      </trkpt>
      <trkpt lat="46.66588" lon="5.60233">
        <ele>553.6</ele>
        <time>2022-05-12T10:16:05Z</time>
      </trkpt>
      <trkpt lat="46.66586" lon="5.60227">
        <ele>554</ele>
        <time>2022-05-12T10:16:09Z</time>
      </trkpt>
      <trkpt lat="46.66583" lon="5.6022">
        <ele>554.4</ele>
        <time>2022-05-12T10:16:14Z</time>
      </trkpt>
      <trkpt lat="46.66582" lon="5.60214">
        <ele>555.1</ele>
        <time>2022-05-12T10:16:22Z</time>
      </trkpt>
      <trkpt lat="46.66586" lon="5.60217">
        <ele>552.2</ele>
        <time>2022-05-12T10:17:52Z</time>
      </trkpt>
      <trkpt lat="46.66582" lon="5.60212">
        <ele>550.6</ele>
        <time>2022-05-12T10:18:09Z</time>
      </trkpt>
      <trkpt lat="46.66584" lon="5.60218">
        <ele>549.6</ele>
        <time>2022-05-12T10:18:21Z</time>
      </trkpt>
      <trkpt lat="46.66583" lon="5.60225">
        <ele>550.4</ele>
        <time>2022-05-12T10:18:25Z</time>
      </trkpt>
      <trkpt lat="46.6658" lon="5.6023">
        <ele>551.9</ele>
        <time>2022-05-12T10:18:30Z</time>
      </trkpt>
      <trkpt lat="46.66575" lon="5.60232">
        <ele>553.9</ele>
        <time>2022-05-12T10:18:34Z</time>
      </trkpt>
      <trkpt lat="46.66569" lon="5.60235">
        <ele>556.5</ele>
        <time>2022-05-12T10:18:38Z</time>
      </trkpt>
      <trkpt lat="46.66565" lon="5.60238">
        <ele>558.4</ele>
        <time>2022-05-12T10:18:42Z</time>
      </trkpt>
      <trkpt lat="46.66561" lon="5.60243">
        <ele>561.2</ele>
        <time>2022-05-12T10:18:48Z</time>
      </trkpt>
      <trkpt lat="46.6656" lon="5.6025">
        <ele>563.3</ele>
        <time>2022-05-12T10:18:53Z</time>
      </trkpt>
      <trkpt lat="46.6656" lon="5.60257">
        <ele>564.1</ele>
        <time>2022-05-12T10:18:57Z</time>
      </trkpt>
      <trkpt lat="46.6656" lon="5.60264">
        <ele>564.2</ele>
        <time>2022-05-12T10:19:01Z</time>
      </trkpt>
      <trkpt lat="46.66562" lon="5.60272">
        <ele>564</ele>
        <time>2022-05-12T10:19:05Z</time>
      </trkpt>
      <trkpt lat="46.66563" lon="5.60278">
        <ele>563.8</ele>
        <time>2022-05-12T10:19:10Z</time>
      </trkpt>
      <trkpt lat="46.66564" lon="5.60285">
        <ele>563.7</ele>
        <time>2022-05-12T10:19:14Z</time>
      </trkpt>
      <trkpt lat="46.66565" lon="5.60292">
        <ele>563.9</ele>
        <time>2022-05-12T10:19:17Z</time>
      </trkpt>
      <trkpt lat="46.66564" lon="5.603">
        <ele>564.4</ele>
        <time>2022-05-12T10:19:22Z</time>
      </trkpt>
      <trkpt lat="46.66562" lon="5.60306">
        <ele>564.4</ele>
        <time>2022-05-12T10:19:26Z</time>
      </trkpt>
      <trkpt lat="46.6656" lon="5.60312">
        <ele>564.2</ele>
        <time>2022-05-12T10:19:30Z</time>
      </trkpt>
      <trkpt lat="46.66558" lon="5.60319">
        <ele>564.6</ele>
        <time>2022-05-12T10:19:35Z</time>
      </trkpt>
      <trkpt lat="46.66556" lon="5.60325">
        <ele>565.5</ele>
        <time>2022-05-12T10:19:39Z</time>
      </trkpt>
      <trkpt lat="46.66554" lon="5.60331">
        <ele>566.2</ele>
        <time>2022-05-12T10:19:44Z</time>
      </trkpt>
      <trkpt lat="46.66553" lon="5.60339">
        <ele>566.6</ele>
        <time>2022-05-12T10:19:49Z</time>
      </trkpt>
      <trkpt lat="46.66551" lon="5.60346">
        <ele>565.8</ele>
        <time>2022-05-12T10:19:55Z</time>
      </trkpt>
      <trkpt lat="46.66548" lon="5.60351">
        <ele>564.5</ele>
        <time>2022-05-12T10:20:00Z</time>
      </trkpt>
      <trkpt lat="46.66546" lon="5.60357">
        <ele>563.7</ele>
        <time>2022-05-12T10:20:04Z</time>
      </trkpt>
      <trkpt lat="46.66544" lon="5.60363">
        <ele>563.5</ele>
        <time>2022-05-12T10:20:08Z</time>
      </trkpt>
      <trkpt lat="46.66541" lon="5.60368">
        <ele>563.4</ele>
        <time>2022-05-12T10:20:12Z</time>
      </trkpt>
      <trkpt lat="46.66537" lon="5.60372">
        <ele>562.7</ele>
        <time>2022-05-12T10:20:17Z</time>
      </trkpt>
      <trkpt lat="46.66533" lon="5.60377">
        <ele>561.4</ele>
        <time>2022-05-12T10:20:22Z</time>
      </trkpt>
      <trkpt lat="46.6653" lon="5.60382">
        <ele>560.8</ele>
        <time>2022-05-12T10:20:25Z</time>
      </trkpt>
      <trkpt lat="46.66526" lon="5.60387">
        <ele>560.1</ele>
        <time>2022-05-12T10:20:29Z</time>
      </trkpt>
      <trkpt lat="46.66523" lon="5.60392">
        <ele>559.4</ele>
        <time>2022-05-12T10:20:33Z</time>
      </trkpt>
      <trkpt lat="46.6652" lon="5.60398">
        <ele>559</ele>
        <time>2022-05-12T10:20:38Z</time>
      </trkpt>
      <trkpt lat="46.66517" lon="5.60404">
        <ele>558.9</ele>
        <time>2022-05-12T10:20:42Z</time>
      </trkpt>
      <trkpt lat="46.66515" lon="5.6041">
        <ele>557.8</ele>
        <time>2022-05-12T10:20:47Z</time>
      </trkpt>
      <trkpt lat="46.66512" lon="5.60416">
        <ele>557</ele>
        <time>2022-05-12T10:20:52Z</time>
      </trkpt>
      <trkpt lat="46.6651" lon="5.60423">
        <ele>556.5</ele>
        <time>2022-05-12T10:20:57Z</time>
      </trkpt>
      <trkpt lat="46.66509" lon="5.60431">
        <ele>556.8</ele>
        <time>2022-05-12T10:21:01Z</time>
      </trkpt>
      <trkpt lat="46.66508" lon="5.60438">
        <ele>557.1</ele>
        <time>2022-05-12T10:21:05Z</time>
      </trkpt>
      <trkpt lat="46.66507" lon="5.60445">
        <ele>557.3</ele>
        <time>2022-05-12T10:21:10Z</time>
      </trkpt>
      <trkpt lat="46.66504" lon="5.60452">
        <ele>557.4</ele>
        <time>2022-05-12T10:21:15Z</time>
      </trkpt>
      <trkpt lat="46.66502" lon="5.60458">
        <ele>557.8</ele>
        <time>2022-05-12T10:21:20Z</time>
      </trkpt>
      <trkpt lat="46.66498" lon="5.60464">
        <ele>557.8</ele>
        <time>2022-05-12T10:21:25Z</time>
      </trkpt>
      <trkpt lat="46.66496" lon="5.60471">
        <ele>557.6</ele>
        <time>2022-05-12T10:21:30Z</time>
      </trkpt>
      <trkpt lat="46.66495" lon="5.60477">
        <ele>557.1</ele>
        <time>2022-05-12T10:21:34Z</time>
      </trkpt>
      <trkpt lat="46.66494" lon="5.60484">
        <ele>555.9</ele>
        <time>2022-05-12T10:21:39Z</time>
      </trkpt>
      <trkpt lat="46.66493" lon="5.60491">
        <ele>555.2</ele>
        <time>2022-05-12T10:21:43Z</time>
      </trkpt>
      <trkpt lat="46.66492" lon="5.60498">
        <ele>554.9</ele>
        <time>2022-05-12T10:21:47Z</time>
      </trkpt>
      <trkpt lat="46.66489" lon="5.60505">
        <ele>554.7</ele>
        <time>2022-05-12T10:21:52Z</time>
      </trkpt>
      <trkpt lat="46.66485" lon="5.6051">
        <ele>554.9</ele>
        <time>2022-05-12T10:21:57Z</time>
      </trkpt>
      <trkpt lat="46.66482" lon="5.60517">
        <ele>555.9</ele>
        <time>2022-05-12T10:22:04Z</time>
      </trkpt>
      <trkpt lat="46.6648" lon="5.60523">
        <ele>557</ele>
        <time>2022-05-12T10:22:08Z</time>
      </trkpt>
      <trkpt lat="46.66479" lon="5.6053">
        <ele>558</ele>
        <time>2022-05-12T10:22:12Z</time>
      </trkpt>
      <trkpt lat="46.66478" lon="5.60538">
        <ele>558.7</ele>
        <time>2022-05-12T10:22:16Z</time>
      </trkpt>
      <trkpt lat="46.66477" lon="5.60545">
        <ele>559</ele>
        <time>2022-05-12T10:22:21Z</time>
      </trkpt>
      <trkpt lat="46.66474" lon="5.60551">
        <ele>559.1</ele>
        <time>2022-05-12T10:22:27Z</time>
      </trkpt>
      <trkpt lat="46.66474" lon="5.60559">
        <ele>558.4</ele>
        <time>2022-05-12T10:22:32Z</time>
      </trkpt>
      <trkpt lat="46.66475" lon="5.60565">
        <ele>557.4</ele>
        <time>2022-05-12T10:22:35Z</time>
      </trkpt>
      <trkpt lat="46.66475" lon="5.60572">
        <ele>555.8</ele>
        <time>2022-05-12T10:22:40Z</time>
      </trkpt>
      <trkpt lat="46.66473" lon="5.6058">
        <ele>554.8</ele>
        <time>2022-05-12T10:22:46Z</time>
      </trkpt>
      <trkpt lat="46.66471" lon="5.60586">
        <ele>554.3</ele>
        <time>2022-05-12T10:22:50Z</time>
      </trkpt>
      <trkpt lat="46.66468" lon="5.60591">
        <ele>554.1</ele>
        <time>2022-05-12T10:22:54Z</time>
      </trkpt>
      <trkpt lat="46.66463" lon="5.60593">
        <ele>554.2</ele>
        <time>2022-05-12T10:22:58Z</time>
      </trkpt>
      <trkpt lat="46.66459" lon="5.60591">
        <ele>552.2</ele>
        <time>2022-05-12T10:23:04Z</time>
      </trkpt>
      <trkpt lat="46.66455" lon="5.60587">
        <ele>551.1</ele>
        <time>2022-05-12T10:23:08Z</time>
      </trkpt>
      <trkpt lat="46.66451" lon="5.60582">
        <ele>550.1</ele>
        <time>2022-05-12T10:23:12Z</time>
      </trkpt>
      <trkpt lat="46.66447" lon="5.60576">
        <ele>549.2</ele>
        <time>2022-05-12T10:23:16Z</time>
      </trkpt>
      <trkpt lat="46.66444" lon="5.60571">
        <ele>548.6</ele>
        <time>2022-05-12T10:23:20Z</time>
      </trkpt>
      <trkpt lat="46.6644" lon="5.60566">
        <ele>548.1</ele>
        <time>2022-05-12T10:23:25Z</time>
      </trkpt>
      <trkpt lat="46.66436" lon="5.60562">
        <ele>547.7</ele>
        <time>2022-05-12T10:23:29Z</time>
      </trkpt>
      <trkpt lat="46.66433" lon="5.60557">
        <ele>547.3</ele>
        <time>2022-05-12T10:23:34Z</time>
      </trkpt>
      <trkpt lat="46.66429" lon="5.60552">
        <ele>546.7</ele>
        <time>2022-05-12T10:23:40Z</time>
      </trkpt>
      <trkpt lat="46.66426" lon="5.60547">
        <ele>546.2</ele>
        <time>2022-05-12T10:23:43Z</time>
      </trkpt>
      <trkpt lat="46.66423" lon="5.6054">
        <ele>546.1</ele>
        <time>2022-05-12T10:23:47Z</time>
      </trkpt>
      <trkpt lat="46.66419" lon="5.60534">
        <ele>546.2</ele>
        <time>2022-05-12T10:23:51Z</time>
      </trkpt>
      <trkpt lat="46.66416" lon="5.6053">
        <ele>546.3</ele>
        <time>2022-05-12T10:23:55Z</time>
      </trkpt>
      <trkpt lat="46.66412" lon="5.60524">
        <ele>546.5</ele>
        <time>2022-05-12T10:24:00Z</time>
      </trkpt>
      <trkpt lat="46.66409" lon="5.60518">
        <ele>547</ele>
        <time>2022-05-12T10:24:05Z</time>
      </trkpt>
      <trkpt lat="46.66405" lon="5.60511">
        <ele>547.2</ele>
        <time>2022-05-12T10:24:10Z</time>
      </trkpt>
      <trkpt lat="46.66402" lon="5.60506">
        <ele>547.4</ele>
        <time>2022-05-12T10:24:15Z</time>
      </trkpt>
      <trkpt lat="46.66398" lon="5.60501">
        <ele>547.4</ele>
        <time>2022-05-12T10:24:20Z</time>
      </trkpt>
      <trkpt lat="46.66394" lon="5.60494">
        <ele>547.5</ele>
        <time>2022-05-12T10:24:25Z</time>
      </trkpt>
      <trkpt lat="46.66391" lon="5.60489">
        <ele>547.5</ele>
        <time>2022-05-12T10:24:29Z</time>
      </trkpt>
      <trkpt lat="46.66387" lon="5.60485">
        <ele>547.2</ele>
        <time>2022-05-12T10:24:33Z</time>
      </trkpt>
      <trkpt lat="46.66383" lon="5.6048">
        <ele>546.9</ele>
        <time>2022-05-12T10:24:37Z</time>
      </trkpt>
      <trkpt lat="46.6638" lon="5.60473">
        <ele>546.3</ele>
        <time>2022-05-12T10:24:41Z</time>
      </trkpt>
      <trkpt lat="46.66378" lon="5.60466">
        <ele>546</ele>
        <time>2022-05-12T10:24:45Z</time>
      </trkpt>
      <trkpt lat="46.66375" lon="5.6046">
        <ele>545.9</ele>
        <time>2022-05-12T10:24:50Z</time>
      </trkpt>
      <trkpt lat="46.66372" lon="5.60454">
        <ele>545.8</ele>
        <time>2022-05-12T10:24:54Z</time>
      </trkpt>
      <trkpt lat="46.66371" lon="5.60448">
        <ele>545.3</ele>
        <time>2022-05-12T10:24:58Z</time>
      </trkpt>
      <trkpt lat="46.66368" lon="5.60441">
        <ele>545</ele>
        <time>2022-05-12T10:25:03Z</time>
      </trkpt>
      <trkpt lat="46.66365" lon="5.60436">
        <ele>544.3</ele>
        <time>2022-05-12T10:25:06Z</time>
      </trkpt>
      <trkpt lat="46.66362" lon="5.60429">
        <ele>544</ele>
        <time>2022-05-12T10:25:10Z</time>
      </trkpt>
      <trkpt lat="46.66359" lon="5.60423">
        <ele>543.8</ele>
        <time>2022-05-12T10:25:14Z</time>
      </trkpt>
      <trkpt lat="46.66356" lon="5.60417">
        <ele>543.9</ele>
        <time>2022-05-12T10:25:18Z</time>
      </trkpt>
      <trkpt lat="46.66354" lon="5.6041">
        <ele>544.7</ele>
        <time>2022-05-12T10:25:23Z</time>
      </trkpt>
      <trkpt lat="46.66351" lon="5.60403">
        <ele>544.9</ele>
        <time>2022-05-12T10:25:28Z</time>
      </trkpt>
      <trkpt lat="46.66347" lon="5.60398">
        <ele>544.5</ele>
        <time>2022-05-12T10:25:32Z</time>
      </trkpt>
      <trkpt lat="46.66343" lon="5.60394">
        <ele>544.6</ele>
        <time>2022-05-12T10:25:36Z</time>
      </trkpt>
      <trkpt lat="46.66341" lon="5.60387">
        <ele>544.8</ele>
        <time>2022-05-12T10:25:40Z</time>
      </trkpt>
      <trkpt lat="46.66337" lon="5.60381">
        <ele>545</ele>
        <time>2022-05-12T10:25:45Z</time>
      </trkpt>
      <trkpt lat="46.66334" lon="5.60375">
        <ele>545.5</ele>
        <time>2022-05-12T10:25:50Z</time>
      </trkpt>
      <trkpt lat="46.66331" lon="5.60368">
        <ele>545.9</ele>
        <time>2022-05-12T10:25:55Z</time>
      </trkpt>
      <trkpt lat="46.66328" lon="5.60362">
        <ele>545.5</ele>
        <time>2022-05-12T10:25:59Z</time>
      </trkpt>
      <trkpt lat="46.66325" lon="5.60357">
        <ele>544.9</ele>
        <time>2022-05-12T10:26:03Z</time>
      </trkpt>
      <trkpt lat="46.66321" lon="5.60352">
        <ele>544</ele>
        <time>2022-05-12T10:26:08Z</time>
      </trkpt>
      <trkpt lat="46.66318" lon="5.60346">
        <ele>543.9</ele>
        <time>2022-05-12T10:26:13Z</time>
      </trkpt>
      <trkpt lat="46.66314" lon="5.60342">
        <ele>544</ele>
        <time>2022-05-12T10:26:17Z</time>
      </trkpt>
      <trkpt lat="46.66309" lon="5.60337">
        <ele>544.2</ele>
        <time>2022-05-12T10:26:21Z</time>
      </trkpt>
      <trkpt lat="46.66305" lon="5.60333">
        <ele>544.1</ele>
        <time>2022-05-12T10:26:25Z</time>
      </trkpt>
      <trkpt lat="46.66301" lon="5.60328">
        <ele>544.5</ele>
        <time>2022-05-12T10:26:31Z</time>
      </trkpt>
      <trkpt lat="46.66298" lon="5.60323">
        <ele>545.1</ele>
        <time>2022-05-12T10:26:36Z</time>
      </trkpt>
      <trkpt lat="46.66294" lon="5.60319">
        <ele>545.6</ele>
        <time>2022-05-12T10:26:40Z</time>
      </trkpt>
      <trkpt lat="46.6629" lon="5.60313">
        <ele>545.9</ele>
        <time>2022-05-12T10:26:44Z</time>
      </trkpt>
      <trkpt lat="46.66287" lon="5.60308">
        <ele>545.9</ele>
        <time>2022-05-12T10:26:47Z</time>
      </trkpt>
      <trkpt lat="46.66283" lon="5.60302">
        <ele>546</ele>
        <time>2022-05-12T10:26:51Z</time>
      </trkpt>
      <trkpt lat="46.6628" lon="5.60297">
        <ele>546.2</ele>
        <time>2022-05-12T10:26:55Z</time>
      </trkpt>
      <trkpt lat="46.66277" lon="5.6029">
        <ele>546.1</ele>
        <time>2022-05-12T10:27:00Z</time>
      </trkpt>
      <trkpt lat="46.66274" lon="5.60284">
        <ele>545.7</ele>
        <time>2022-05-12T10:27:04Z</time>
      </trkpt>
      <trkpt lat="46.66272" lon="5.60278">
        <ele>545.3</ele>
        <time>2022-05-12T10:27:09Z</time>
      </trkpt>
      <trkpt lat="46.6627" lon="5.60272">
        <ele>545.4</ele>
        <time>2022-05-12T10:27:14Z</time>
      </trkpt>
      <trkpt lat="46.66267" lon="5.60266">
        <ele>545.9</ele>
        <time>2022-05-12T10:27:21Z</time>
      </trkpt>
      <trkpt lat="46.66263" lon="5.60263">
        <ele>546.7</ele>
        <time>2022-05-12T10:27:27Z</time>
      </trkpt>
      <trkpt lat="46.66259" lon="5.60258">
        <ele>547.6</ele>
        <time>2022-05-12T10:27:33Z</time>
      </trkpt>
      <trkpt lat="46.66255" lon="5.60256">
        <ele>548.4</ele>
        <time>2022-05-12T10:27:40Z</time>
      </trkpt>
      <trkpt lat="46.66249" lon="5.60253">
        <ele>548.4</ele>
        <time>2022-05-12T10:27:45Z</time>
      </trkpt>
      <trkpt lat="46.66245" lon="5.60251">
        <ele>548.3</ele>
        <time>2022-05-12T10:27:50Z</time>
      </trkpt>
      <trkpt lat="46.66241" lon="5.60248">
        <ele>548.1</ele>
        <time>2022-05-12T10:27:55Z</time>
      </trkpt>
      <trkpt lat="46.66236" lon="5.60245">
        <ele>547.9</ele>
        <time>2022-05-12T10:27:59Z</time>
      </trkpt>
      <trkpt lat="46.66231" lon="5.60243">
        <ele>547.7</ele>
        <time>2022-05-12T10:28:04Z</time>
      </trkpt>
      <trkpt lat="46.66226" lon="5.60242">
        <ele>547.4</ele>
        <time>2022-05-12T10:28:10Z</time>
      </trkpt>
      <trkpt lat="46.66223" lon="5.60237">
        <ele>546.4</ele>
        <time>2022-05-12T10:28:18Z</time>
      </trkpt>
      <trkpt lat="46.66221" lon="5.6023">
        <ele>545.1</ele>
        <time>2022-05-12T10:28:28Z</time>
      </trkpt>
      <trkpt lat="46.66217" lon="5.60225">
        <ele>543.4</ele>
        <time>2022-05-12T10:28:42Z</time>
      </trkpt>
      <trkpt lat="46.66213" lon="5.6022">
        <ele>542.9</ele>
        <time>2022-05-12T10:28:45Z</time>
      </trkpt>
      <trkpt lat="46.66208" lon="5.60215">
        <ele>542.3</ele>
        <time>2022-05-12T10:28:48Z</time>
      </trkpt>
      <trkpt lat="46.66203" lon="5.60211">
        <ele>541.6</ele>
        <time>2022-05-12T10:28:51Z</time>
      </trkpt>
      <trkpt lat="46.66199" lon="5.60207">
        <ele>540.8</ele>
        <time>2022-05-12T10:28:54Z</time>
      </trkpt>
      <trkpt lat="46.66195" lon="5.60202">
        <ele>539.8</ele>
        <time>2022-05-12T10:29:02Z</time>
      </trkpt>
      <trkpt lat="46.66191" lon="5.60194">
        <ele>540.5</ele>
        <time>2022-05-12T10:29:28Z</time>
      </trkpt>
      <trkpt lat="46.66188" lon="5.60187">
        <ele>540.2</ele>
        <time>2022-05-12T10:29:31Z</time>
      </trkpt>
      <trkpt lat="46.66185" lon="5.60181">
        <ele>539.7</ele>
        <time>2022-05-12T10:29:35Z</time>
      </trkpt>
      <trkpt lat="46.6618" lon="5.60173">
        <ele>539.2</ele>
        <time>2022-05-12T10:29:38Z</time>
      </trkpt>
      <trkpt lat="46.66176" lon="5.60166">
        <ele>538.8</ele>
        <time>2022-05-12T10:29:41Z</time>
      </trkpt>
      <trkpt lat="46.66173" lon="5.6016">
        <ele>538.3</ele>
        <time>2022-05-12T10:29:45Z</time>
      </trkpt>
      <trkpt lat="46.66173" lon="5.60152">
        <ele>537.7</ele>
        <time>2022-05-12T10:29:50Z</time>
      </trkpt>
      <trkpt lat="46.66175" lon="5.60145">
        <ele>536.6</ele>
        <time>2022-05-12T10:29:55Z</time>
      </trkpt>
      <trkpt lat="46.66173" lon="5.60138">
        <ele>535.1</ele>
        <time>2022-05-12T10:30:03Z</time>
      </trkpt>
      <trkpt lat="46.66169" lon="5.60135">
        <ele>535.1</ele>
        <time>2022-05-12T10:30:07Z</time>
      </trkpt>
      <trkpt lat="46.66164" lon="5.60135">
        <ele>535.4</ele>
        <time>2022-05-12T10:30:12Z</time>
      </trkpt>
      <trkpt lat="46.6616" lon="5.60137">
        <ele>535.7</ele>
        <time>2022-05-12T10:30:18Z</time>
      </trkpt>
      <trkpt lat="46.66156" lon="5.60133">
        <ele>535.4</ele>
        <time>2022-05-12T10:30:26Z</time>
      </trkpt>
      <trkpt lat="46.6615" lon="5.60133">
        <ele>534.3</ele>
        <time>2022-05-12T10:30:31Z</time>
      </trkpt>
      <trkpt lat="46.66145" lon="5.60134">
        <ele>533.4</ele>
        <time>2022-05-12T10:30:35Z</time>
      </trkpt>
      <trkpt lat="46.66141" lon="5.60137">
        <ele>532.9</ele>
        <time>2022-05-12T10:30:44Z</time>
      </trkpt>
      <trkpt lat="46.66135" lon="5.60137">
        <ele>533.1</ele>
        <time>2022-05-12T10:30:49Z</time>
      </trkpt>
      <trkpt lat="46.66131" lon="5.60135">
        <ele>533.2</ele>
        <time>2022-05-12T10:30:53Z</time>
      </trkpt>
      <trkpt lat="46.66126" lon="5.60137">
        <ele>533.3</ele>
        <time>2022-05-12T10:31:02Z</time>
      </trkpt>
      <trkpt lat="46.6612" lon="5.60134">
        <ele>533.8</ele>
        <time>2022-05-12T10:31:08Z</time>
      </trkpt>
      <trkpt lat="46.66115" lon="5.60133">
        <ele>534.3</ele>
        <time>2022-05-12T10:31:11Z</time>
      </trkpt>
      <trkpt lat="46.66109" lon="5.60131">
        <ele>534.9</ele>
        <time>2022-05-12T10:31:15Z</time>
      </trkpt>
      <trkpt lat="46.66107" lon="5.60137">
        <ele>537.4</ele>
        <time>2022-05-12T10:31:25Z</time>
      </trkpt>
      <trkpt lat="46.66102" lon="5.60137">
        <ele>537.6</ele>
        <time>2022-05-12T10:31:31Z</time>
      </trkpt>
      <trkpt lat="46.66096" lon="5.60137">
        <ele>537</ele>
        <time>2022-05-12T10:31:35Z</time>
      </trkpt>
      <trkpt lat="46.66091" lon="5.60138">
        <ele>536</ele>
        <time>2022-05-12T10:31:39Z</time>
      </trkpt>
      <trkpt lat="46.66087" lon="5.60139">
        <ele>534.4</ele>
        <time>2022-05-12T10:31:44Z</time>
      </trkpt>
      <trkpt lat="46.66082" lon="5.60141">
        <ele>533</ele>
        <time>2022-05-12T10:31:49Z</time>
      </trkpt>
      <trkpt lat="46.66077" lon="5.60145">
        <ele>531.4</ele>
        <time>2022-05-12T10:31:56Z</time>
      </trkpt>
      <trkpt lat="46.66073" lon="5.60149">
        <ele>530.4</ele>
        <time>2022-05-12T10:32:00Z</time>
      </trkpt>
      <trkpt lat="46.66069" lon="5.60151">
        <ele>529.5</ele>
        <time>2022-05-12T10:32:05Z</time>
      </trkpt>
      <trkpt lat="46.66065" lon="5.60155">
        <ele>527.7</ele>
        <time>2022-05-12T10:32:13Z</time>
      </trkpt>
      <trkpt lat="46.66061" lon="5.60159">
        <ele>526.1</ele>
        <time>2022-05-12T10:32:18Z</time>
      </trkpt>
      <trkpt lat="46.66056" lon="5.60164">
        <ele>525.2</ele>
        <time>2022-05-12T10:32:22Z</time>
      </trkpt>
      <trkpt lat="46.66052" lon="5.60166">
        <ele>524.2</ele>
        <time>2022-05-12T10:32:26Z</time>
      </trkpt>
      <trkpt lat="46.66048" lon="5.60171">
        <ele>523.1</ele>
        <time>2022-05-12T10:32:31Z</time>
      </trkpt>
      <trkpt lat="46.66044" lon="5.60175">
        <ele>522.7</ele>
        <time>2022-05-12T10:32:36Z</time>
      </trkpt>
      <trkpt lat="46.66038" lon="5.60173">
        <ele>522.5</ele>
        <time>2022-05-12T10:32:40Z</time>
      </trkpt>
      <trkpt lat="46.66033" lon="5.60173">
        <ele>522.6</ele>
        <time>2022-05-12T10:32:45Z</time>
      </trkpt>
      <trkpt lat="46.66031" lon="5.60179">
        <ele>523</ele>
        <time>2022-05-12T10:32:52Z</time>
      </trkpt>
      <trkpt lat="46.66025" lon="5.60179">
        <ele>521.5</ele>
        <time>2022-05-12T10:32:59Z</time>
      </trkpt>
      <trkpt lat="46.66021" lon="5.60181">
        <ele>518.6</ele>
        <time>2022-05-12T10:33:05Z</time>
      </trkpt>
      <trkpt lat="46.66017" lon="5.60186">
        <ele>516.2</ele>
        <time>2022-05-12T10:33:11Z</time>
      </trkpt>
      <trkpt lat="46.66012" lon="5.60186">
        <ele>514</ele>
        <time>2022-05-12T10:33:18Z</time>
      </trkpt>
      <trkpt lat="46.66009" lon="5.60192">
        <ele>506.8</ele>
        <time>2022-05-12T10:33:39Z</time>
      </trkpt>
      <trkpt lat="46.66005" lon="5.60196">
        <ele>506.4</ele>
        <time>2022-05-12T10:33:46Z</time>
      </trkpt>
      <trkpt lat="46.66001" lon="5.60201">
        <ele>506.1</ele>
        <time>2022-05-12T10:33:52Z</time>
      </trkpt>
      <trkpt lat="46.66" lon="5.60207">
        <ele>506.2</ele>
        <time>2022-05-12T10:34:00Z</time>
      </trkpt>
      <trkpt lat="46.66002" lon="5.60213">
        <ele>506.6</ele>
        <time>2022-05-12T10:34:08Z</time>
      </trkpt>
      <trkpt lat="46.66003" lon="5.6022">
        <ele>506.5</ele>
        <time>2022-05-12T10:34:15Z</time>
      </trkpt>
      <trkpt lat="46.66" lon="5.60225">
        <ele>506.9</ele>
        <time>2022-05-12T10:34:21Z</time>
      </trkpt>
      <trkpt lat="46.66" lon="5.60232">
        <ele>506.6</ele>
        <time>2022-05-12T10:34:28Z</time>
      </trkpt>
      <trkpt lat="46.66002" lon="5.60239">
        <ele>505.9</ele>
        <time>2022-05-12T10:34:32Z</time>
      </trkpt>
      <trkpt lat="46.66004" lon="5.60246">
        <ele>505.2</ele>
        <time>2022-05-12T10:34:36Z</time>
      </trkpt>
      <trkpt lat="46.66005" lon="5.60253">
        <ele>504.3</ele>
        <time>2022-05-12T10:34:41Z</time>
      </trkpt>
      <trkpt lat="46.66007" lon="5.6026">
        <ele>503.9</ele>
        <time>2022-05-12T10:34:47Z</time>
      </trkpt>
      <trkpt lat="46.66003" lon="5.60263">
        <ele>503.9</ele>
        <time>2022-05-12T10:35:00Z</time>
      </trkpt>
      <trkpt lat="46.65998" lon="5.60261">
        <ele>504.1</ele>
        <time>2022-05-12T10:35:06Z</time>
      </trkpt>
      <trkpt lat="46.65994" lon="5.60257">
        <ele>503.5</ele>
        <time>2022-05-12T10:35:12Z</time>
      </trkpt>
      <trkpt lat="46.65992" lon="5.6025">
        <ele>503.3</ele>
        <time>2022-05-12T10:35:19Z</time>
      </trkpt>
      <trkpt lat="46.6599" lon="5.60242">
        <ele>502.1</ele>
        <time>2022-05-12T10:35:25Z</time>
      </trkpt>
      <trkpt lat="46.65987" lon="5.60236">
        <ele>501.4</ele>
        <time>2022-05-12T10:35:29Z</time>
      </trkpt>
      <trkpt lat="46.65985" lon="5.60229">
        <ele>500.6</ele>
        <time>2022-05-12T10:35:34Z</time>
      </trkpt>
      <trkpt lat="46.65988" lon="5.60224">
        <ele>499.3</ele>
        <time>2022-05-12T10:35:46Z</time>
      </trkpt>
      <trkpt lat="46.65986" lon="5.60217">
        <ele>498.8</ele>
        <time>2022-05-12T10:35:58Z</time>
      </trkpt>
      <trkpt lat="46.65986" lon="5.60209">
        <ele>498.6</ele>
        <time>2022-05-12T10:36:03Z</time>
      </trkpt>
      <trkpt lat="46.65989" lon="5.60204">
        <ele>496.7</ele>
        <time>2022-05-12T10:36:17Z</time>
      </trkpt>
      <trkpt lat="46.65992" lon="5.60199">
        <ele>496.4</ele>
        <time>2022-05-12T10:36:27Z</time>
      </trkpt>
      <trkpt lat="46.65999" lon="5.60202">
        <ele>496.3</ele>
        <time>2022-05-12T10:36:30Z</time>
      </trkpt>
      <trkpt lat="46.66003" lon="5.602">
        <ele>496.3</ele>
        <time>2022-05-12T10:36:34Z</time>
      </trkpt>
      <trkpt lat="46.65996" lon="5.60181">
        <ele>497.8</ele>
        <time>2022-05-12T10:37:05Z</time>
      </trkpt>
      <trkpt lat="46.65992" lon="5.60176">
        <ele>501.4</ele>
        <time>2022-05-12T10:37:39Z</time>
      </trkpt>
      <trkpt lat="46.65997" lon="5.60179">
        <ele>501.1</ele>
        <time>2022-05-12T10:38:18Z</time>
      </trkpt>
      <trkpt lat="46.66" lon="5.60174">
        <ele>501</ele>
        <time>2022-05-12T10:38:31Z</time>
      </trkpt>
      <trkpt lat="46.66004" lon="5.60178">
        <ele>502</ele>
        <time>2022-05-12T10:38:49Z</time>
      </trkpt>
      <trkpt lat="46.65997" lon="5.60175">
        <ele>500</ele>
        <time>2022-05-12T10:39:15Z</time>
      </trkpt>
      <trkpt lat="46.65993" lon="5.60177">
        <ele>501</ele>
        <time>2022-05-12T10:39:21Z</time>
      </trkpt>
      <trkpt lat="46.65997" lon="5.60177">
        <ele>506.8</ele>
        <time>2022-05-12T10:40:01Z</time>
      </trkpt>
      <trkpt lat="46.66001" lon="5.60174">
        <ele>507.3</ele>
        <time>2022-05-12T10:40:33Z</time>
      </trkpt>
      <trkpt lat="46.65998" lon="5.60165">
        <ele>507.1</ele>
        <time>2022-05-12T10:40:37Z</time>
      </trkpt>
      <trkpt lat="46.66003" lon="5.60169">
        <ele>506.6</ele>
        <time>2022-05-12T10:40:48Z</time>
      </trkpt>
      <trkpt lat="46.66006" lon="5.60174">
        <ele>506.6</ele>
        <time>2022-05-12T10:40:51Z</time>
      </trkpt>
      <trkpt lat="46.66004" lon="5.60182">
        <ele>505.6</ele>
        <time>2022-05-12T10:41:19Z</time>
      </trkpt>
      <trkpt lat="46.66003" lon="5.60175">
        <ele>505.9</ele>
        <time>2022-05-12T10:41:27Z</time>
      </trkpt>
      <trkpt lat="46.66" lon="5.60171">
        <ele>505.5</ele>
        <time>2022-05-12T10:41:34Z</time>
      </trkpt>
      <trkpt lat="46.65999" lon="5.60178">
        <ele>496.8</ele>
        <time>2022-05-12T10:42:36Z</time>
      </trkpt>
      <trkpt lat="46.65996" lon="5.60174">
        <ele>496.6</ele>
        <time>2022-05-12T10:43:09Z</time>
      </trkpt>
      <trkpt lat="46.65999" lon="5.60178">
        <ele>499.4</ele>
        <time>2022-05-12T10:44:25Z</time>
      </trkpt>
      <trkpt lat="46.66001" lon="5.60184">
        <ele>499.7</ele>
        <time>2022-05-12T11:00:17Z</time>
      </trkpt>
      <trkpt lat="46.66022" lon="5.60194">
        <ele>485.4</ele>
        <time>2022-05-12T11:37:38Z</time>
      </trkpt>
      <trkpt lat="46.66041" lon="5.60205">
        <ele>463.1</ele>
        <time>2022-05-12T11:37:40Z</time>
      </trkpt>
      <trkpt lat="46.66047" lon="5.60217">
        <ele>446.5</ele>
        <time>2022-05-12T11:37:42Z</time>
      </trkpt>
      <trkpt lat="46.66051" lon="5.60225">
        <ele>435.8</ele>
        <time>2022-05-12T11:37:44Z</time>
      </trkpt>
      <trkpt lat="46.66047" lon="5.60221">
        <ele>430.6</ele>
        <time>2022-05-12T11:37:48Z</time>
      </trkpt>
      <trkpt lat="46.66017" lon="5.60196">
        <ele>453.5</ele>
        <time>2022-05-12T11:37:51Z</time>
      </trkpt>
      <trkpt lat="46.66007" lon="5.6019">
        <ele>467</ele>
        <time>2022-05-12T11:37:54Z</time>
      </trkpt>
      <trkpt lat="46.66003" lon="5.60186">
        <ele>487.8</ele>
        <time>2022-05-12T11:38:02Z</time>
      </trkpt>
      <trkpt lat="46.66" lon="5.60181">
        <ele>501.6</ele>
        <time>2022-05-12T11:39:06Z</time>
      </trkpt>
      <trkpt lat="46.65994" lon="5.60177">
        <ele>497.9</ele>
        <time>2022-05-12T11:41:15Z</time>
      </trkpt>
      <trkpt lat="46.65995" lon="5.60184">
        <ele>498.1</ele>
        <time>2022-05-12T11:41:30Z</time>
      </trkpt>
      <trkpt lat="46.65996" lon="5.60191">
        <ele>498.8</ele>
        <time>2022-05-12T11:41:48Z</time>
      </trkpt>
      <trkpt lat="46.65991" lon="5.60194">
        <ele>497.3</ele>
        <time>2022-05-12T11:42:14Z</time>
      </trkpt>
      <trkpt lat="46.65991" lon="5.60202">
        <ele>496.4</ele>
        <time>2022-05-12T11:42:20Z</time>
      </trkpt>
      <trkpt lat="46.6599" lon="5.60209">
        <ele>496.8</ele>
        <time>2022-05-12T11:42:23Z</time>
      </trkpt>
      <trkpt lat="46.6599" lon="5.60216">
        <ele>497.1</ele>
        <time>2022-05-12T11:42:29Z</time>
      </trkpt>
      <trkpt lat="46.6599" lon="5.60224">
        <ele>498.2</ele>
        <time>2022-05-12T11:42:41Z</time>
      </trkpt>
      <trkpt lat="46.6599" lon="5.6023">
        <ele>498.8</ele>
        <time>2022-05-12T11:42:45Z</time>
      </trkpt>
      <trkpt lat="46.65991" lon="5.60238">
        <ele>499.4</ele>
        <time>2022-05-12T11:42:50Z</time>
      </trkpt>
      <trkpt lat="46.65992" lon="5.60244">
        <ele>499.9</ele>
        <time>2022-05-12T11:42:55Z</time>
      </trkpt>
      <trkpt lat="46.65995" lon="5.60251">
        <ele>500</ele>
        <time>2022-05-12T11:43:01Z</time>
      </trkpt>
      <trkpt lat="46.65995" lon="5.60258">
        <ele>500.6</ele>
        <time>2022-05-12T11:43:09Z</time>
      </trkpt>
      <trkpt lat="46.65997" lon="5.60264">
        <ele>502.1</ele>
        <time>2022-05-12T11:43:18Z</time>
      </trkpt>
      <trkpt lat="46.65999" lon="5.60271">
        <ele>502.4</ele>
        <time>2022-05-12T11:43:25Z</time>
      </trkpt>
      <trkpt lat="46.65999" lon="5.60263">
        <ele>502.1</ele>
        <time>2022-05-12T11:43:30Z</time>
      </trkpt>
      <trkpt lat="46.65998" lon="5.60256">
        <ele>502.3</ele>
        <time>2022-05-12T11:43:35Z</time>
      </trkpt>
      <trkpt lat="46.66" lon="5.60249">
        <ele>503.4</ele>
        <time>2022-05-12T11:43:43Z</time>
      </trkpt>
      <trkpt lat="46.65999" lon="5.60242">
        <ele>503.9</ele>
        <time>2022-05-12T11:43:49Z</time>
      </trkpt>
      <trkpt lat="46.65998" lon="5.60234">
        <ele>504.2</ele>
        <time>2022-05-12T11:43:54Z</time>
      </trkpt>
      <trkpt lat="46.65998" lon="5.60227">
        <ele>505</ele>
        <time>2022-05-12T11:44:01Z</time>
      </trkpt>
      <trkpt lat="46.65999" lon="5.6022">
        <ele>506.3</ele>
        <time>2022-05-12T11:44:07Z</time>
      </trkpt>
      <trkpt lat="46.66001" lon="5.60213">
        <ele>507.7</ele>
        <time>2022-05-12T11:44:15Z</time>
      </trkpt>
      <trkpt lat="46.66003" lon="5.60208">
        <ele>508.9</ele>
        <time>2022-05-12T11:44:21Z</time>
      </trkpt>
      <trkpt lat="46.66008" lon="5.60205">
        <ele>509.2</ele>
        <time>2022-05-12T11:44:27Z</time>
      </trkpt>
      <trkpt lat="46.66012" lon="5.60202">
        <ele>509.3</ele>
        <time>2022-05-12T11:44:35Z</time>
      </trkpt>
      <trkpt lat="46.66015" lon="5.60196">
        <ele>509.3</ele>
        <time>2022-05-12T11:44:41Z</time>
      </trkpt>
      <trkpt lat="46.66018" lon="5.60191">
        <ele>509.6</ele>
        <time>2022-05-12T11:44:46Z</time>
      </trkpt>
      <trkpt lat="46.66023" lon="5.60189">
        <ele>509.1</ele>
        <time>2022-05-12T11:44:51Z</time>
      </trkpt>
      <trkpt lat="46.66027" lon="5.6019">
        <ele>508.3</ele>
        <time>2022-05-12T11:44:56Z</time>
      </trkpt>
      <trkpt lat="46.66032" lon="5.60187">
        <ele>507.5</ele>
        <time>2022-05-12T11:45:02Z</time>
      </trkpt>
      <trkpt lat="46.66037" lon="5.60184">
        <ele>507</ele>
        <time>2022-05-12T11:45:09Z</time>
      </trkpt>
      <trkpt lat="46.66042" lon="5.6018">
        <ele>506.8</ele>
        <time>2022-05-12T11:45:15Z</time>
      </trkpt>
      <trkpt lat="46.66046" lon="5.60178">
        <ele>506.5</ele>
        <time>2022-05-12T11:45:21Z</time>
      </trkpt>
      <trkpt lat="46.66051" lon="5.60177">
        <ele>506.3</ele>
        <time>2022-05-12T11:45:27Z</time>
      </trkpt>
      <trkpt lat="46.66054" lon="5.60172">
        <ele>506.9</ele>
        <time>2022-05-12T11:45:33Z</time>
      </trkpt>
      <trkpt lat="46.66058" lon="5.60168">
        <ele>507.9</ele>
        <time>2022-05-12T11:45:39Z</time>
      </trkpt>
      <trkpt lat="46.66062" lon="5.60167">
        <ele>508.9</ele>
        <time>2022-05-12T11:45:46Z</time>
      </trkpt>
      <trkpt lat="46.66067" lon="5.60165">
        <ele>509.4</ele>
        <time>2022-05-12T11:45:53Z</time>
      </trkpt>
      <trkpt lat="46.66072" lon="5.60162">
        <ele>509.2</ele>
        <time>2022-05-12T11:46:01Z</time>
      </trkpt>
      <trkpt lat="46.66076" lon="5.60159">
        <ele>508.6</ele>
        <time>2022-05-12T11:46:10Z</time>
      </trkpt>
      <trkpt lat="46.6608" lon="5.60154">
        <ele>508.2</ele>
        <time>2022-05-12T11:46:16Z</time>
      </trkpt>
      <trkpt lat="46.66085" lon="5.60154">
        <ele>508.1</ele>
        <time>2022-05-12T11:46:22Z</time>
      </trkpt>
      <trkpt lat="46.6609" lon="5.60152">
        <ele>508.9</ele>
        <time>2022-05-12T11:46:35Z</time>
      </trkpt>
      <trkpt lat="46.66094" lon="5.60148">
        <ele>510.1</ele>
        <time>2022-05-12T11:46:41Z</time>
      </trkpt>
      <trkpt lat="46.66099" lon="5.60146">
        <ele>512</ele>
        <time>2022-05-12T11:46:48Z</time>
      </trkpt>
      <trkpt lat="46.66103" lon="5.60145">
        <ele>512.8</ele>
        <time>2022-05-12T11:46:52Z</time>
      </trkpt>
      <trkpt lat="46.66107" lon="5.60141">
        <ele>514.3</ele>
        <time>2022-05-12T11:46:59Z</time>
      </trkpt>
      <trkpt lat="46.66112" lon="5.60138">
        <ele>515.9</ele>
        <time>2022-05-12T11:47:07Z</time>
      </trkpt>
      <trkpt lat="46.66116" lon="5.60142">
        <ele>516.4</ele>
        <time>2022-05-12T11:47:14Z</time>
      </trkpt>
      <trkpt lat="46.66121" lon="5.60141">
        <ele>516.5</ele>
        <time>2022-05-12T11:47:21Z</time>
      </trkpt>
      <trkpt lat="46.66125" lon="5.60139">
        <ele>517.8</ele>
        <time>2022-05-12T11:47:33Z</time>
      </trkpt>
      <trkpt lat="46.6613" lon="5.6014">
        <ele>518.7</ele>
        <time>2022-05-12T11:47:43Z</time>
      </trkpt>
      <trkpt lat="46.66134" lon="5.60142">
        <ele>518.7</ele>
        <time>2022-05-12T11:47:47Z</time>
      </trkpt>
      <trkpt lat="46.66139" lon="5.60142">
        <ele>518.5</ele>
        <time>2022-05-12T11:47:54Z</time>
      </trkpt>
      <trkpt lat="46.66144" lon="5.60143">
        <ele>518.4</ele>
        <time>2022-05-12T11:48:02Z</time>
      </trkpt>
      <trkpt lat="46.66149" lon="5.60142">
        <ele>518.5</ele>
        <time>2022-05-12T11:48:07Z</time>
      </trkpt>
      <trkpt lat="46.66154" lon="5.60141">
        <ele>518.6</ele>
        <time>2022-05-12T11:48:11Z</time>
      </trkpt>
      <trkpt lat="46.66159" lon="5.60141">
        <ele>519</ele>
        <time>2022-05-12T11:48:18Z</time>
      </trkpt>
      <trkpt lat="46.66164" lon="5.60142">
        <ele>519.3</ele>
        <time>2022-05-12T11:48:21Z</time>
      </trkpt>
      <trkpt lat="46.66169" lon="5.60143">
        <ele>519.6</ele>
        <time>2022-05-12T11:48:25Z</time>
      </trkpt>
      <trkpt lat="46.66173" lon="5.60147">
        <ele>520.1</ele>
        <time>2022-05-12T11:48:31Z</time>
      </trkpt>
      <trkpt lat="46.66177" lon="5.60149">
        <ele>520.8</ele>
        <time>2022-05-12T11:48:39Z</time>
      </trkpt>
      <trkpt lat="46.6618" lon="5.60154">
        <ele>521.5</ele>
        <time>2022-05-12T11:48:45Z</time>
      </trkpt>
      <trkpt lat="46.66181" lon="5.60161">
        <ele>522.2</ele>
        <time>2022-05-12T11:48:51Z</time>
      </trkpt>
      <trkpt lat="46.66181" lon="5.60168">
        <ele>523.2</ele>
        <time>2022-05-12T11:48:58Z</time>
      </trkpt>
      <trkpt lat="46.6618" lon="5.60174">
        <ele>524.6</ele>
        <time>2022-05-12T11:49:06Z</time>
      </trkpt>
      <trkpt lat="46.66182" lon="5.60181">
        <ele>526.1</ele>
        <time>2022-05-12T11:49:30Z</time>
      </trkpt>
      <trkpt lat="46.66185" lon="5.60187">
        <ele>528</ele>
        <time>2022-05-12T11:49:45Z</time>
      </trkpt>
      <trkpt lat="46.66188" lon="5.60191">
        <ele>530.7</ele>
        <time>2022-05-12T11:49:59Z</time>
      </trkpt>
      <trkpt lat="46.66193" lon="5.60196">
        <ele>530.5</ele>
        <time>2022-05-12T11:50:03Z</time>
      </trkpt>
      <trkpt lat="46.66195" lon="5.60201">
        <ele>530.6</ele>
        <time>2022-05-12T11:50:10Z</time>
      </trkpt>
      <trkpt lat="46.66199" lon="5.60207">
        <ele>532</ele>
        <time>2022-05-12T11:50:27Z</time>
      </trkpt>
      <trkpt lat="46.66203" lon="5.60211">
        <ele>532.8</ele>
        <time>2022-05-12T11:50:34Z</time>
      </trkpt>
      <trkpt lat="46.66207" lon="5.60212">
        <ele>533.6</ele>
        <time>2022-05-12T11:50:41Z</time>
      </trkpt>
      <trkpt lat="46.66212" lon="5.60214">
        <ele>533.6</ele>
        <time>2022-05-12T11:50:46Z</time>
      </trkpt>
      <trkpt lat="46.66215" lon="5.60219">
        <ele>533.1</ele>
        <time>2022-05-12T11:50:54Z</time>
      </trkpt>
      <trkpt lat="46.66218" lon="5.60224">
        <ele>532.8</ele>
        <time>2022-05-12T11:51:03Z</time>
      </trkpt>
      <trkpt lat="46.66222" lon="5.60229">
        <ele>533.5</ele>
        <time>2022-05-12T11:51:13Z</time>
      </trkpt>
      <trkpt lat="46.66225" lon="5.60235">
        <ele>534.3</ele>
        <time>2022-05-12T11:51:22Z</time>
      </trkpt>
      <trkpt lat="46.66228" lon="5.60241">
        <ele>535.4</ele>
        <time>2022-05-12T11:51:28Z</time>
      </trkpt>
      <trkpt lat="46.66232" lon="5.60245">
        <ele>536</ele>
        <time>2022-05-12T11:51:32Z</time>
      </trkpt>
      <trkpt lat="46.66231" lon="5.60252">
        <ele>538</ele>
        <time>2022-05-12T11:51:45Z</time>
      </trkpt>
      <trkpt lat="46.66235" lon="5.60247">
        <ele>540.4</ele>
        <time>2022-05-12T11:52:10Z</time>
      </trkpt>
      <trkpt lat="46.6624" lon="5.60247">
        <ele>543.3</ele>
        <time>2022-05-12T11:52:28Z</time>
      </trkpt>
      <trkpt lat="46.66244" lon="5.60252">
        <ele>543.8</ele>
        <time>2022-05-12T11:52:33Z</time>
      </trkpt>
      <trkpt lat="46.66248" lon="5.60256">
        <ele>544.1</ele>
        <time>2022-05-12T11:52:45Z</time>
      </trkpt>
      <trkpt lat="46.66252" lon="5.60261">
        <ele>544.3</ele>
        <time>2022-05-12T11:52:52Z</time>
      </trkpt>
      <trkpt lat="46.66256" lon="5.60265">
        <ele>544.4</ele>
        <time>2022-05-12T11:52:58Z</time>
      </trkpt>
      <trkpt lat="46.66261" lon="5.60266">
        <ele>544.6</ele>
        <time>2022-05-12T11:53:04Z</time>
      </trkpt>
      <trkpt lat="46.66265" lon="5.60268">
        <ele>544.6</ele>
        <time>2022-05-12T11:53:10Z</time>
      </trkpt>
      <trkpt lat="46.66268" lon="5.60274">
        <ele>544.9</ele>
        <time>2022-05-12T11:53:18Z</time>
      </trkpt>
      <trkpt lat="46.66271" lon="5.6028">
        <ele>545.3</ele>
        <time>2022-05-12T11:53:24Z</time>
      </trkpt>
      <trkpt lat="46.66274" lon="5.60285">
        <ele>545.7</ele>
        <time>2022-05-12T11:53:29Z</time>
      </trkpt>
      <trkpt lat="46.66278" lon="5.6029">
        <ele>546.2</ele>
        <time>2022-05-12T11:53:34Z</time>
      </trkpt>
      <trkpt lat="46.6628" lon="5.60295">
        <ele>547.1</ele>
        <time>2022-05-12T11:53:40Z</time>
      </trkpt>
      <trkpt lat="46.66283" lon="5.60302">
        <ele>548.8</ele>
        <time>2022-05-12T11:53:54Z</time>
      </trkpt>
      <trkpt lat="46.66285" lon="5.60308">
        <ele>549.1</ele>
        <time>2022-05-12T11:53:59Z</time>
      </trkpt>
      <trkpt lat="46.66289" lon="5.60313">
        <ele>549.5</ele>
        <time>2022-05-12T11:54:04Z</time>
      </trkpt>
      <trkpt lat="46.66293" lon="5.60317">
        <ele>549.7</ele>
        <time>2022-05-12T11:54:08Z</time>
      </trkpt>
      <trkpt lat="46.66297" lon="5.60323">
        <ele>549.4</ele>
        <time>2022-05-12T11:54:14Z</time>
      </trkpt>
      <trkpt lat="46.66299" lon="5.60329">
        <ele>548.3</ele>
        <time>2022-05-12T11:54:20Z</time>
      </trkpt>
      <trkpt lat="46.66302" lon="5.60336">
        <ele>547.9</ele>
        <time>2022-05-12T11:54:26Z</time>
      </trkpt>
      <trkpt lat="46.66304" lon="5.60342">
        <ele>547.6</ele>
        <time>2022-05-12T11:54:31Z</time>
      </trkpt>
      <trkpt lat="46.66308" lon="5.60346">
        <ele>547.7</ele>
        <time>2022-05-12T11:54:36Z</time>
      </trkpt>
      <trkpt lat="46.66313" lon="5.6035">
        <ele>547.6</ele>
        <time>2022-05-12T11:54:41Z</time>
      </trkpt>
      <trkpt lat="46.66317" lon="5.60355">
        <ele>547.4</ele>
        <time>2022-05-12T11:54:46Z</time>
      </trkpt>
      <trkpt lat="46.66319" lon="5.6036">
        <ele>547.1</ele>
        <time>2022-05-12T11:54:51Z</time>
      </trkpt>
      <trkpt lat="46.66323" lon="5.60364">
        <ele>547.1</ele>
        <time>2022-05-12T11:54:56Z</time>
      </trkpt>
      <trkpt lat="46.66326" lon="5.6037">
        <ele>547.5</ele>
        <time>2022-05-12T11:55:01Z</time>
      </trkpt>
      <trkpt lat="46.66329" lon="5.60375">
        <ele>547.8</ele>
        <time>2022-05-12T11:55:05Z</time>
      </trkpt>
      <trkpt lat="46.66333" lon="5.6038">
        <ele>548.2</ele>
        <time>2022-05-12T11:55:10Z</time>
      </trkpt>
      <trkpt lat="46.66337" lon="5.60385">
        <ele>548.6</ele>
        <time>2022-05-12T11:55:15Z</time>
      </trkpt>
      <trkpt lat="46.66341" lon="5.60391">
        <ele>548.8</ele>
        <time>2022-05-12T11:55:20Z</time>
      </trkpt>
      <trkpt lat="46.66344" lon="5.60397">
        <ele>549</ele>
        <time>2022-05-12T11:55:25Z</time>
      </trkpt>
      <trkpt lat="46.66346" lon="5.60403">
        <ele>548.9</ele>
        <time>2022-05-12T11:55:30Z</time>
      </trkpt>
      <trkpt lat="46.66349" lon="5.60408">
        <ele>548.6</ele>
        <time>2022-05-12T11:55:35Z</time>
      </trkpt>
      <trkpt lat="46.66351" lon="5.60415">
        <ele>548.2</ele>
        <time>2022-05-12T11:55:40Z</time>
      </trkpt>
      <trkpt lat="46.66353" lon="5.60422">
        <ele>547.5</ele>
        <time>2022-05-12T11:55:46Z</time>
      </trkpt>
      <trkpt lat="46.66355" lon="5.60428">
        <ele>547.2</ele>
        <time>2022-05-12T11:55:51Z</time>
      </trkpt>
      <trkpt lat="46.66358" lon="5.60435">
        <ele>547</ele>
        <time>2022-05-12T11:55:55Z</time>
      </trkpt>
      <trkpt lat="46.66361" lon="5.60441">
        <ele>547</ele>
        <time>2022-05-12T11:55:59Z</time>
      </trkpt>
      <trkpt lat="46.66363" lon="5.60447">
        <ele>546.9</ele>
        <time>2022-05-12T11:56:03Z</time>
      </trkpt>
      <trkpt lat="46.66366" lon="5.60454">
        <ele>546.9</ele>
        <time>2022-05-12T11:56:07Z</time>
      </trkpt>
      <trkpt lat="46.66368" lon="5.60459">
        <ele>546.9</ele>
        <time>2022-05-12T11:56:11Z</time>
      </trkpt>
      <trkpt lat="46.66371" lon="5.60465">
        <ele>546.8</ele>
        <time>2022-05-12T11:56:15Z</time>
      </trkpt>
      <trkpt lat="46.66374" lon="5.60471">
        <ele>546.9</ele>
        <time>2022-05-12T11:56:20Z</time>
      </trkpt>
      <trkpt lat="46.66377" lon="5.60476">
        <ele>546.9</ele>
        <time>2022-05-12T11:56:25Z</time>
      </trkpt>
      <trkpt lat="46.66379" lon="5.60482">
        <ele>547</ele>
        <time>2022-05-12T11:56:29Z</time>
      </trkpt>
      <trkpt lat="46.66382" lon="5.60488">
        <ele>546.9</ele>
        <time>2022-05-12T11:56:34Z</time>
      </trkpt>
      <trkpt lat="46.66386" lon="5.60492">
        <ele>546.8</ele>
        <time>2022-05-12T11:56:39Z</time>
      </trkpt>
      <trkpt lat="46.66389" lon="5.60497">
        <ele>547</ele>
        <time>2022-05-12T11:56:44Z</time>
      </trkpt>
      <trkpt lat="46.66394" lon="5.60502">
        <ele>547</ele>
        <time>2022-05-12T11:56:50Z</time>
      </trkpt>
      <trkpt lat="46.66397" lon="5.60507">
        <ele>547.1</ele>
        <time>2022-05-12T11:56:54Z</time>
      </trkpt>
      <trkpt lat="46.664" lon="5.60512">
        <ele>547.3</ele>
        <time>2022-05-12T11:56:58Z</time>
      </trkpt>
      <trkpt lat="46.66403" lon="5.60517">
        <ele>547.7</ele>
        <time>2022-05-12T11:57:02Z</time>
      </trkpt>
      <trkpt lat="46.66407" lon="5.6052">
        <ele>548.3</ele>
        <time>2022-05-12T11:57:06Z</time>
      </trkpt>
      <trkpt lat="46.66411" lon="5.60525">
        <ele>549.1</ele>
        <time>2022-05-12T11:57:11Z</time>
      </trkpt>
      <trkpt lat="46.66414" lon="5.60531">
        <ele>549.4</ele>
        <time>2022-05-12T11:57:16Z</time>
      </trkpt>
      <trkpt lat="46.66418" lon="5.60535">
        <ele>549.4</ele>
        <time>2022-05-12T11:57:21Z</time>
      </trkpt>
      <trkpt lat="46.6642" lon="5.60542">
        <ele>549.6</ele>
        <time>2022-05-12T11:57:26Z</time>
      </trkpt>
      <trkpt lat="46.66424" lon="5.60546">
        <ele>549.9</ele>
        <time>2022-05-12T11:57:30Z</time>
      </trkpt>
      <trkpt lat="46.66427" lon="5.60551">
        <ele>550.4</ele>
        <time>2022-05-12T11:57:35Z</time>
      </trkpt>
      <trkpt lat="46.6643" lon="5.60557">
        <ele>551</ele>
        <time>2022-05-12T11:57:39Z</time>
      </trkpt>
      <trkpt lat="46.66433" lon="5.60563">
        <ele>551.7</ele>
        <time>2022-05-12T11:57:43Z</time>
      </trkpt>
      <trkpt lat="46.66437" lon="5.60569">
        <ele>552.2</ele>
        <time>2022-05-12T11:57:48Z</time>
      </trkpt>
      <trkpt lat="46.6644" lon="5.60574">
        <ele>552.5</ele>
        <time>2022-05-12T11:57:53Z</time>
      </trkpt>
      <trkpt lat="46.66444" lon="5.60578">
        <ele>552.2</ele>
        <time>2022-05-12T11:57:57Z</time>
      </trkpt>
      <trkpt lat="46.66448" lon="5.60582">
        <ele>551</ele>
        <time>2022-05-12T11:58:02Z</time>
      </trkpt>
      <trkpt lat="46.66452" lon="5.60586">
        <ele>550</ele>
        <time>2022-05-12T11:58:07Z</time>
      </trkpt>
      <trkpt lat="46.66456" lon="5.60592">
        <ele>549.1</ele>
        <time>2022-05-12T11:58:13Z</time>
      </trkpt>
      <trkpt lat="46.6646" lon="5.60596">
        <ele>548.8</ele>
        <time>2022-05-12T11:58:18Z</time>
      </trkpt>
      <trkpt lat="46.66463" lon="5.60601">
        <ele>549.1</ele>
        <time>2022-05-12T11:58:25Z</time>
      </trkpt>
      <trkpt lat="46.66465" lon="5.60608">
        <ele>549.6</ele>
        <time>2022-05-12T11:58:31Z</time>
      </trkpt>
      <trkpt lat="46.66467" lon="5.60614">
        <ele>549.9</ele>
        <time>2022-05-12T11:58:37Z</time>
      </trkpt>
      <trkpt lat="46.66467" lon="5.60622">
        <ele>550</ele>
        <time>2022-05-12T11:58:45Z</time>
      </trkpt>
      <trkpt lat="46.66469" lon="5.60629">
        <ele>549.2</ele>
        <time>2022-05-12T11:58:51Z</time>
      </trkpt>
      <trkpt lat="46.6647" lon="5.60636">
        <ele>548.1</ele>
        <time>2022-05-12T11:58:57Z</time>
      </trkpt>
      <trkpt lat="46.66474" lon="5.60642">
        <ele>547.3</ele>
        <time>2022-05-12T11:59:02Z</time>
      </trkpt>
      <trkpt lat="46.66477" lon="5.60647">
        <ele>546.5</ele>
        <time>2022-05-12T11:59:07Z</time>
      </trkpt>
      <trkpt lat="46.66479" lon="5.60654">
        <ele>546</ele>
        <time>2022-05-12T11:59:12Z</time>
      </trkpt>
      <trkpt lat="46.66481" lon="5.6066">
        <ele>545.4</ele>
        <time>2022-05-12T11:59:17Z</time>
      </trkpt>
      <trkpt lat="46.66484" lon="5.60666">
        <ele>544.6</ele>
        <time>2022-05-12T11:59:22Z</time>
      </trkpt>
      <trkpt lat="46.66486" lon="5.60672">
        <ele>543.7</ele>
        <time>2022-05-12T11:59:27Z</time>
      </trkpt>
      <trkpt lat="46.66488" lon="5.60679">
        <ele>543.3</ele>
        <time>2022-05-12T11:59:32Z</time>
      </trkpt>
      <trkpt lat="46.6649" lon="5.60686">
        <ele>542.7</ele>
        <time>2022-05-12T11:59:37Z</time>
      </trkpt>
      <trkpt lat="46.66492" lon="5.60693">
        <ele>542.3</ele>
        <time>2022-05-12T11:59:42Z</time>
      </trkpt>
      <trkpt lat="46.66494" lon="5.607">
        <ele>542.2</ele>
        <time>2022-05-12T11:59:47Z</time>
      </trkpt>
      <trkpt lat="46.66497" lon="5.60706">
        <ele>542.2</ele>
        <time>2022-05-12T11:59:52Z</time>
      </trkpt>
      <trkpt lat="46.66499" lon="5.60713">
        <ele>542.6</ele>
        <time>2022-05-12T11:59:57Z</time>
      </trkpt>
      <trkpt lat="46.66501" lon="5.60721">
        <ele>542.8</ele>
        <time>2022-05-12T12:00:02Z</time>
      </trkpt>
      <trkpt lat="46.66502" lon="5.60728">
        <ele>542.7</ele>
        <time>2022-05-12T12:00:07Z</time>
      </trkpt>
      <trkpt lat="46.66504" lon="5.60734">
        <ele>542.1</ele>
        <time>2022-05-12T12:00:11Z</time>
      </trkpt>
      <trkpt lat="46.66507" lon="5.60741">
        <ele>541.8</ele>
        <time>2022-05-12T12:00:16Z</time>
      </trkpt>
      <trkpt lat="46.6651" lon="5.60747">
        <ele>541.4</ele>
        <time>2022-05-12T12:00:21Z</time>
      </trkpt>
      <trkpt lat="46.66512" lon="5.60754">
        <ele>541.3</ele>
        <time>2022-05-12T12:00:26Z</time>
      </trkpt>
      <trkpt lat="46.66513" lon="5.60761">
        <ele>541.2</ele>
        <time>2022-05-12T12:00:32Z</time>
      </trkpt>
      <trkpt lat="46.66514" lon="5.60768">
        <ele>540.7</ele>
        <time>2022-05-12T12:00:37Z</time>
      </trkpt>
      <trkpt lat="46.66513" lon="5.60775">
        <ele>540.2</ele>
        <time>2022-05-12T12:00:41Z</time>
      </trkpt>
      <trkpt lat="46.66515" lon="5.60782">
        <ele>539.7</ele>
        <time>2022-05-12T12:00:47Z</time>
      </trkpt>
      <trkpt lat="46.66518" lon="5.60787">
        <ele>540</ele>
        <time>2022-05-12T12:00:51Z</time>
      </trkpt>
      <trkpt lat="46.6652" lon="5.60793">
        <ele>540.5</ele>
        <time>2022-05-12T12:00:55Z</time>
      </trkpt>
      <trkpt lat="46.66522" lon="5.60799">
        <ele>540.8</ele>
        <time>2022-05-12T12:00:59Z</time>
      </trkpt>
      <trkpt lat="46.66524" lon="5.60805">
        <ele>541.1</ele>
        <time>2022-05-12T12:01:03Z</time>
      </trkpt>
      <trkpt lat="46.66526" lon="5.60812">
        <ele>541.7</ele>
        <time>2022-05-12T12:01:08Z</time>
      </trkpt>
      <trkpt lat="46.66527" lon="5.60819">
        <ele>541.7</ele>
        <time>2022-05-12T12:01:13Z</time>
      </trkpt>
      <trkpt lat="46.66528" lon="5.60827">
        <ele>541.5</ele>
        <time>2022-05-12T12:01:18Z</time>
      </trkpt>
      <trkpt lat="46.66528" lon="5.60833">
        <ele>541.4</ele>
        <time>2022-05-12T12:01:23Z</time>
      </trkpt>
      <trkpt lat="46.66529" lon="5.6084">
        <ele>541.6</ele>
        <time>2022-05-12T12:01:27Z</time>
      </trkpt>
      <trkpt lat="46.66529" lon="5.60847">
        <ele>542.2</ele>
        <time>2022-05-12T12:01:31Z</time>
      </trkpt>
      <trkpt lat="46.66531" lon="5.60854">
        <ele>543</ele>
        <time>2022-05-12T12:01:36Z</time>
      </trkpt>
      <trkpt lat="46.66532" lon="5.60861">
        <ele>543.9</ele>
        <time>2022-05-12T12:01:41Z</time>
      </trkpt>
      <trkpt lat="46.66533" lon="5.60868">
        <ele>544.3</ele>
        <time>2022-05-12T12:01:46Z</time>
      </trkpt>
      <trkpt lat="46.66534" lon="5.60875">
        <ele>544.9</ele>
        <time>2022-05-12T12:01:51Z</time>
      </trkpt>
      <trkpt lat="46.66535" lon="5.60882">
        <ele>545.1</ele>
        <time>2022-05-12T12:01:56Z</time>
      </trkpt>
      <trkpt lat="46.66536" lon="5.60889">
        <ele>544.7</ele>
        <time>2022-05-12T12:02:00Z</time>
      </trkpt>
      <trkpt lat="46.66538" lon="5.60896">
        <ele>544</ele>
        <time>2022-05-12T12:02:04Z</time>
      </trkpt>
      <trkpt lat="46.66541" lon="5.60903">
        <ele>543.4</ele>
        <time>2022-05-12T12:02:09Z</time>
      </trkpt>
      <trkpt lat="46.66542" lon="5.6091">
        <ele>543.3</ele>
        <time>2022-05-12T12:02:13Z</time>
      </trkpt>
      <trkpt lat="46.66543" lon="5.60917">
        <ele>543.4</ele>
        <time>2022-05-12T12:02:17Z</time>
      </trkpt>
      <trkpt lat="46.66544" lon="5.60924">
        <ele>543.7</ele>
        <time>2022-05-12T12:02:22Z</time>
      </trkpt>
      <trkpt lat="46.66544" lon="5.60931">
        <ele>543.9</ele>
        <time>2022-05-12T12:02:26Z</time>
      </trkpt>
      <trkpt lat="46.66545" lon="5.60938">
        <ele>543.9</ele>
        <time>2022-05-12T12:02:30Z</time>
      </trkpt>
      <trkpt lat="46.66547" lon="5.60944">
        <ele>543.8</ele>
        <time>2022-05-12T12:02:34Z</time>
      </trkpt>
      <trkpt lat="46.66549" lon="5.60952">
        <ele>543.7</ele>
        <time>2022-05-12T12:02:39Z</time>
      </trkpt>
      <trkpt lat="46.6655" lon="5.60959">
        <ele>543.6</ele>
        <time>2022-05-12T12:02:44Z</time>
      </trkpt>
      <trkpt lat="46.6655" lon="5.60966">
        <ele>543.3</ele>
        <time>2022-05-12T12:02:49Z</time>
      </trkpt>
      <trkpt lat="46.66551" lon="5.60973">
        <ele>543.4</ele>
        <time>2022-05-12T12:02:54Z</time>
      </trkpt>
      <trkpt lat="46.66554" lon="5.60978">
        <ele>542</ele>
        <time>2022-05-12T12:03:40Z</time>
      </trkpt>
      <trkpt lat="46.66559" lon="5.60983">
        <ele>539.9</ele>
        <time>2022-05-12T12:03:44Z</time>
      </trkpt>
      <trkpt lat="46.66562" lon="5.60988">
        <ele>538.4</ele>
        <time>2022-05-12T12:03:47Z</time>
      </trkpt>
      <trkpt lat="46.66565" lon="5.60994">
        <ele>536.7</ele>
        <time>2022-05-12T12:03:51Z</time>
      </trkpt>
      <trkpt lat="46.66568" lon="5.61">
        <ele>535.5</ele>
        <time>2022-05-12T12:03:55Z</time>
      </trkpt>
      <trkpt lat="46.66572" lon="5.61005">
        <ele>534.5</ele>
        <time>2022-05-12T12:04:00Z</time>
      </trkpt>
      <trkpt lat="46.66576" lon="5.61011">
        <ele>534.2</ele>
        <time>2022-05-12T12:04:04Z</time>
      </trkpt>
      <trkpt lat="46.66578" lon="5.61017">
        <ele>534</ele>
        <time>2022-05-12T12:04:08Z</time>
      </trkpt>
      <trkpt lat="46.6658" lon="5.61024">
        <ele>533.6</ele>
        <time>2022-05-12T12:04:12Z</time>
      </trkpt>
      <trkpt lat="46.66582" lon="5.61032">
        <ele>533.6</ele>
        <time>2022-05-12T12:04:16Z</time>
      </trkpt>
      <trkpt lat="46.66585" lon="5.6104">
        <ele>533.4</ele>
        <time>2022-05-12T12:04:20Z</time>
      </trkpt>
      <trkpt lat="46.66585" lon="5.61048">
        <ele>533.1</ele>
        <time>2022-05-12T12:04:24Z</time>
      </trkpt>
      <trkpt lat="46.66585" lon="5.61055">
        <ele>532.8</ele>
        <time>2022-05-12T12:04:28Z</time>
      </trkpt>
      <trkpt lat="46.66586" lon="5.61063">
        <ele>532.5</ele>
        <time>2022-05-12T12:04:32Z</time>
      </trkpt>
      <trkpt lat="46.66586" lon="5.6107">
        <ele>532.1</ele>
        <time>2022-05-12T12:04:37Z</time>
      </trkpt>
      <trkpt lat="46.66583" lon="5.61077">
        <ele>532</ele>
        <time>2022-05-12T12:04:41Z</time>
      </trkpt>
      <trkpt lat="46.66582" lon="5.61085">
        <ele>532.3</ele>
        <time>2022-05-12T12:04:44Z</time>
      </trkpt>
      <trkpt lat="46.66582" lon="5.61093">
        <ele>532.7</ele>
        <time>2022-05-12T12:04:47Z</time>
      </trkpt>
      <trkpt lat="46.66581" lon="5.61101">
        <ele>533.4</ele>
        <time>2022-05-12T12:04:50Z</time>
      </trkpt>
      <trkpt lat="46.6658" lon="5.61109">
        <ele>534.3</ele>
        <time>2022-05-12T12:04:54Z</time>
      </trkpt>
      <trkpt lat="46.6658" lon="5.61115">
        <ele>535.2</ele>
        <time>2022-05-12T12:04:58Z</time>
      </trkpt>
      <trkpt lat="46.66579" lon="5.61122">
        <ele>536</ele>
        <time>2022-05-12T12:05:02Z</time>
      </trkpt>
      <trkpt lat="46.66576" lon="5.6113">
        <ele>536.9</ele>
        <time>2022-05-12T12:05:06Z</time>
      </trkpt>
      <trkpt lat="46.66574" lon="5.61137">
        <ele>537.7</ele>
        <time>2022-05-12T12:05:10Z</time>
      </trkpt>
      <trkpt lat="46.66572" lon="5.61144">
        <ele>538.6</ele>
        <time>2022-05-12T12:05:15Z</time>
      </trkpt>
      <trkpt lat="46.66571" lon="5.61152">
        <ele>539.2</ele>
        <time>2022-05-12T12:05:19Z</time>
      </trkpt>
      <trkpt lat="46.66568" lon="5.61158">
        <ele>539.3</ele>
        <time>2022-05-12T12:05:22Z</time>
      </trkpt>
      <trkpt lat="46.66565" lon="5.61164">
        <ele>539.3</ele>
        <time>2022-05-12T12:05:26Z</time>
      </trkpt>
      <trkpt lat="46.66562" lon="5.61169">
        <ele>539.3</ele>
        <time>2022-05-12T12:05:30Z</time>
      </trkpt>
      <trkpt lat="46.66558" lon="5.61173">
        <ele>539.2</ele>
        <time>2022-05-12T12:05:34Z</time>
      </trkpt>
      <trkpt lat="46.66554" lon="5.61179">
        <ele>538.9</ele>
        <time>2022-05-12T12:05:39Z</time>
      </trkpt>
      <trkpt lat="46.66551" lon="5.61184">
        <ele>538.8</ele>
        <time>2022-05-12T12:05:42Z</time>
      </trkpt>
      <trkpt lat="46.66547" lon="5.61189">
        <ele>538.8</ele>
        <time>2022-05-12T12:05:46Z</time>
      </trkpt>
      <trkpt lat="46.66544" lon="5.61196">
        <ele>539.2</ele>
        <time>2022-05-12T12:05:50Z</time>
      </trkpt>
      <trkpt lat="46.66543" lon="5.61203">
        <ele>539.7</ele>
        <time>2022-05-12T12:05:53Z</time>
      </trkpt>
      <trkpt lat="46.6654" lon="5.6121">
        <ele>540.2</ele>
        <time>2022-05-12T12:05:56Z</time>
      </trkpt>
      <trkpt lat="46.66538" lon="5.61216">
        <ele>540.4</ele>
        <time>2022-05-12T12:06:00Z</time>
      </trkpt>
      <trkpt lat="46.66535" lon="5.61222">
        <ele>540.5</ele>
        <time>2022-05-12T12:06:04Z</time>
      </trkpt>
      <trkpt lat="46.66532" lon="5.61228">
        <ele>540.3</ele>
        <time>2022-05-12T12:06:09Z</time>
      </trkpt>
      <trkpt lat="46.6653" lon="5.61235">
        <ele>540.1</ele>
        <time>2022-05-12T12:06:13Z</time>
      </trkpt>
      <trkpt lat="46.66531" lon="5.61242">
        <ele>540</ele>
        <time>2022-05-12T12:06:16Z</time>
      </trkpt>
      <trkpt lat="46.66531" lon="5.6125">
        <ele>540.3</ele>
        <time>2022-05-12T12:06:20Z</time>
      </trkpt>
      <trkpt lat="46.6653" lon="5.61258">
        <ele>541.1</ele>
        <time>2022-05-12T12:06:24Z</time>
      </trkpt>
      <trkpt lat="46.66528" lon="5.61266">
        <ele>542.2</ele>
        <time>2022-05-12T12:06:28Z</time>
      </trkpt>
      <trkpt lat="46.66525" lon="5.61273">
        <ele>543.1</ele>
        <time>2022-05-12T12:06:31Z</time>
      </trkpt>
      <trkpt lat="46.66522" lon="5.6128">
        <ele>544.2</ele>
        <time>2022-05-12T12:06:35Z</time>
      </trkpt>
      <trkpt lat="46.66519" lon="5.61285">
        <ele>545.2</ele>
        <time>2022-05-12T12:06:39Z</time>
      </trkpt>
      <trkpt lat="46.66517" lon="5.61292">
        <ele>545.5</ele>
        <time>2022-05-12T12:06:44Z</time>
      </trkpt>
      <trkpt lat="46.66517" lon="5.613">
        <ele>545.8</ele>
        <time>2022-05-12T12:06:49Z</time>
      </trkpt>
      <trkpt lat="46.66516" lon="5.61307">
        <ele>546.2</ele>
        <time>2022-05-12T12:06:53Z</time>
      </trkpt>
      <trkpt lat="46.66514" lon="5.61313">
        <ele>546.6</ele>
        <time>2022-05-12T12:06:57Z</time>
      </trkpt>
      <trkpt lat="46.66512" lon="5.6132">
        <ele>547</ele>
        <time>2022-05-12T12:07:02Z</time>
      </trkpt>
      <trkpt lat="46.6651" lon="5.61327">
        <ele>547.2</ele>
        <time>2022-05-12T12:07:08Z</time>
      </trkpt>
      <trkpt lat="46.66508" lon="5.61333">
        <ele>547.2</ele>
        <time>2022-05-12T12:07:12Z</time>
      </trkpt>
      <trkpt lat="46.66505" lon="5.61339">
        <ele>547.4</ele>
        <time>2022-05-12T12:07:17Z</time>
      </trkpt>
      <trkpt lat="46.66501" lon="5.61345">
        <ele>548</ele>
        <time>2022-05-12T12:07:22Z</time>
      </trkpt>
      <trkpt lat="46.66498" lon="5.61351">
        <ele>548.8</ele>
        <time>2022-05-12T12:07:26Z</time>
      </trkpt>
      <trkpt lat="46.66496" lon="5.61356">
        <ele>549.5</ele>
        <time>2022-05-12T12:07:30Z</time>
      </trkpt>
      <trkpt lat="46.66494" lon="5.61363">
        <ele>550</ele>
        <time>2022-05-12T12:07:34Z</time>
      </trkpt>
      <trkpt lat="46.66493" lon="5.61369">
        <ele>550.3</ele>
        <time>2022-05-12T12:07:38Z</time>
      </trkpt>
      <trkpt lat="46.66492" lon="5.61377">
        <ele>550.7</ele>
        <time>2022-05-12T12:07:42Z</time>
      </trkpt>
      <trkpt lat="46.6649" lon="5.61384">
        <ele>550.9</ele>
        <time>2022-05-12T12:07:47Z</time>
      </trkpt>
      <trkpt lat="46.66488" lon="5.61391">
        <ele>551</ele>
        <time>2022-05-12T12:07:51Z</time>
      </trkpt>
      <trkpt lat="46.66487" lon="5.61399">
        <ele>551.1</ele>
        <time>2022-05-12T12:07:55Z</time>
      </trkpt>
      <trkpt lat="46.66486" lon="5.61406">
        <ele>550.9</ele>
        <time>2022-05-12T12:07:59Z</time>
      </trkpt>
      <trkpt lat="46.66485" lon="5.61412">
        <ele>550.5</ele>
        <time>2022-05-12T12:08:03Z</time>
      </trkpt>
      <trkpt lat="46.66483" lon="5.61419">
        <ele>549.9</ele>
        <time>2022-05-12T12:08:08Z</time>
      </trkpt>
      <trkpt lat="46.66481" lon="5.61426">
        <ele>549.3</ele>
        <time>2022-05-12T12:08:12Z</time>
      </trkpt>
      <trkpt lat="46.66481" lon="5.61433">
        <ele>548.5</ele>
        <time>2022-05-12T12:08:17Z</time>
      </trkpt>
      <trkpt lat="46.6648" lon="5.6144">
        <ele>547.7</ele>
        <time>2022-05-12T12:08:21Z</time>
      </trkpt>
      <trkpt lat="46.66478" lon="5.61445">
        <ele>546.8</ele>
        <time>2022-05-12T12:08:26Z</time>
      </trkpt>
      <trkpt lat="46.66476" lon="5.61451">
        <ele>546</ele>
        <time>2022-05-12T12:08:31Z</time>
      </trkpt>
      <trkpt lat="46.66475" lon="5.61458">
        <ele>545.6</ele>
        <time>2022-05-12T12:08:35Z</time>
      </trkpt>
      <trkpt lat="46.66475" lon="5.61465">
        <ele>545.7</ele>
        <time>2022-05-12T12:08:38Z</time>
      </trkpt>
      <trkpt lat="46.66473" lon="5.61472">
        <ele>545.9</ele>
        <time>2022-05-12T12:08:42Z</time>
      </trkpt>
      <trkpt lat="46.66471" lon="5.61478">
        <ele>545.8</ele>
        <time>2022-05-12T12:08:46Z</time>
      </trkpt>
      <trkpt lat="46.6647" lon="5.61485">
        <ele>546</ele>
        <time>2022-05-12T12:08:51Z</time>
      </trkpt>
      <trkpt lat="46.66468" lon="5.61492">
        <ele>546.1</ele>
        <time>2022-05-12T12:08:56Z</time>
      </trkpt>
      <trkpt lat="46.66467" lon="5.61499">
        <ele>546.2</ele>
        <time>2022-05-12T12:09:01Z</time>
      </trkpt>
      <trkpt lat="46.66468" lon="5.61507">
        <ele>545.6</ele>
        <time>2022-05-12T12:09:06Z</time>
      </trkpt>
      <trkpt lat="46.66469" lon="5.61514">
        <ele>544.6</ele>
        <time>2022-05-12T12:09:11Z</time>
      </trkpt>
      <trkpt lat="46.66469" lon="5.61522">
        <ele>543.3</ele>
        <time>2022-05-12T12:09:16Z</time>
      </trkpt>
      <trkpt lat="46.66468" lon="5.61529">
        <ele>542.3</ele>
        <time>2022-05-12T12:09:21Z</time>
      </trkpt>
      <trkpt lat="46.66467" lon="5.61536">
        <ele>541.5</ele>
        <time>2022-05-12T12:09:25Z</time>
      </trkpt>
      <trkpt lat="46.66467" lon="5.61543">
        <ele>540.9</ele>
        <time>2022-05-12T12:09:30Z</time>
      </trkpt>
      <trkpt lat="46.66469" lon="5.6155">
        <ele>540.6</ele>
        <time>2022-05-12T12:09:35Z</time>
      </trkpt>
      <trkpt lat="46.66471" lon="5.61558">
        <ele>540.3</ele>
        <time>2022-05-12T12:09:40Z</time>
      </trkpt>
      <trkpt lat="46.66473" lon="5.61565">
        <ele>540.3</ele>
        <time>2022-05-12T12:09:44Z</time>
      </trkpt>
      <trkpt lat="46.66474" lon="5.61573">
        <ele>540.3</ele>
        <time>2022-05-12T12:09:49Z</time>
      </trkpt>
      <trkpt lat="46.66475" lon="5.61579">
        <ele>540.4</ele>
        <time>2022-05-12T12:09:53Z</time>
      </trkpt>
      <trkpt lat="46.66475" lon="5.61585">
        <ele>540.5</ele>
        <time>2022-05-12T12:09:57Z</time>
      </trkpt>
      <trkpt lat="46.66474" lon="5.61592">
        <ele>540.5</ele>
        <time>2022-05-12T12:10:01Z</time>
      </trkpt>
      <trkpt lat="46.66475" lon="5.61599">
        <ele>540.6</ele>
        <time>2022-05-12T12:10:05Z</time>
      </trkpt>
      <trkpt lat="46.66478" lon="5.61604">
        <ele>540.5</ele>
        <time>2022-05-12T12:10:10Z</time>
      </trkpt>
      <trkpt lat="46.66484" lon="5.61602">
        <ele>540.3</ele>
        <time>2022-05-12T12:10:19Z</time>
      </trkpt>
      <trkpt lat="46.66488" lon="5.61598">
        <ele>540.4</ele>
        <time>2022-05-12T12:10:23Z</time>
      </trkpt>
      <trkpt lat="46.66493" lon="5.61598">
        <ele>539.9</ele>
        <time>2022-05-12T12:10:27Z</time>
      </trkpt>
      <trkpt lat="46.66497" lon="5.61597">
        <ele>539.2</ele>
        <time>2022-05-12T12:10:31Z</time>
      </trkpt>
      <trkpt lat="46.66502" lon="5.61595">
        <ele>538.1</ele>
        <time>2022-05-12T12:10:36Z</time>
      </trkpt>
      <trkpt lat="46.66506" lon="5.6159">
        <ele>537.4</ele>
        <time>2022-05-12T12:10:41Z</time>
      </trkpt>
      <trkpt lat="46.66509" lon="5.61584">
        <ele>537.1</ele>
        <time>2022-05-12T12:10:46Z</time>
      </trkpt>
      <trkpt lat="46.66512" lon="5.61579">
        <ele>537.1</ele>
        <time>2022-05-12T12:10:50Z</time>
      </trkpt>
      <trkpt lat="46.66516" lon="5.61574">
        <ele>537.4</ele>
        <time>2022-05-12T12:10:54Z</time>
      </trkpt>
      <trkpt lat="46.66521" lon="5.6157">
        <ele>537.9</ele>
        <time>2022-05-12T12:10:59Z</time>
      </trkpt>
      <trkpt lat="46.66525" lon="5.61567">
        <ele>538.4</ele>
        <time>2022-05-12T12:11:03Z</time>
      </trkpt>
      <trkpt lat="46.66529" lon="5.61565">
        <ele>539.4</ele>
        <time>2022-05-12T12:11:08Z</time>
      </trkpt>
      <trkpt lat="46.66534" lon="5.61565">
        <ele>541.2</ele>
        <time>2022-05-12T12:11:15Z</time>
      </trkpt>
      <trkpt lat="46.66538" lon="5.61561">
        <ele>542.8</ele>
        <time>2022-05-12T12:11:21Z</time>
      </trkpt>
      <trkpt lat="46.66542" lon="5.61558">
        <ele>543.6</ele>
        <time>2022-05-12T12:11:27Z</time>
      </trkpt>
      <trkpt lat="46.66547" lon="5.61556">
        <ele>544</ele>
        <time>2022-05-12T12:11:31Z</time>
      </trkpt>
      <trkpt lat="46.66552" lon="5.61554">
        <ele>544.9</ele>
        <time>2022-05-12T12:11:35Z</time>
      </trkpt>
      <trkpt lat="46.66557" lon="5.61552">
        <ele>546.3</ele>
        <time>2022-05-12T12:11:41Z</time>
      </trkpt>
      <trkpt lat="46.66562" lon="5.6155">
        <ele>548.2</ele>
        <time>2022-05-12T12:11:46Z</time>
      </trkpt>
      <trkpt lat="46.66567" lon="5.61547">
        <ele>550</ele>
        <time>2022-05-12T12:11:50Z</time>
      </trkpt>
      <trkpt lat="46.66571" lon="5.61545">
        <ele>551.5</ele>
        <time>2022-05-12T12:11:54Z</time>
      </trkpt>
      <trkpt lat="46.66576" lon="5.61542">
        <ele>552.7</ele>
        <time>2022-05-12T12:11:58Z</time>
      </trkpt>
      <trkpt lat="46.66581" lon="5.61541">
        <ele>553.8</ele>
        <time>2022-05-12T12:12:02Z</time>
      </trkpt>
      <trkpt lat="46.66586" lon="5.61539">
        <ele>555.6</ele>
        <time>2022-05-12T12:12:07Z</time>
      </trkpt>
      <trkpt lat="46.6659" lon="5.61537">
        <ele>558.1</ele>
        <time>2022-05-12T12:12:14Z</time>
      </trkpt>
      <trkpt lat="46.66595" lon="5.61537">
        <ele>560</ele>
        <time>2022-05-12T12:12:20Z</time>
      </trkpt>
      <trkpt lat="46.666" lon="5.61536">
        <ele>560.7</ele>
        <time>2022-05-12T12:12:26Z</time>
      </trkpt>
      <trkpt lat="46.66605" lon="5.61536">
        <ele>560.9</ele>
        <time>2022-05-12T12:12:30Z</time>
      </trkpt>
      <trkpt lat="46.66608" lon="5.61531">
        <ele>560.8</ele>
        <time>2022-05-12T12:12:38Z</time>
      </trkpt>
      <trkpt lat="46.66613" lon="5.61528">
        <ele>560.6</ele>
        <time>2022-05-12T12:12:42Z</time>
      </trkpt>
      <trkpt lat="46.66617" lon="5.61524">
        <ele>560.4</ele>
        <time>2022-05-12T12:12:47Z</time>
      </trkpt>
      <trkpt lat="46.66621" lon="5.61523">
        <ele>559.4</ele>
        <time>2022-05-12T12:12:53Z</time>
      </trkpt>
      <trkpt lat="46.66627" lon="5.61523">
        <ele>556.3</ele>
        <time>2022-05-12T12:13:02Z</time>
      </trkpt>
      <trkpt lat="46.66632" lon="5.61521">
        <ele>554.6</ele>
        <time>2022-05-12T12:13:06Z</time>
      </trkpt>
      <trkpt lat="46.66637" lon="5.61517">
        <ele>553.3</ele>
        <time>2022-05-12T12:13:11Z</time>
      </trkpt>
      <trkpt lat="46.66642" lon="5.61514">
        <ele>552.8</ele>
        <time>2022-05-12T12:13:16Z</time>
      </trkpt>
      <trkpt lat="46.66647" lon="5.61514">
        <ele>552.9</ele>
        <time>2022-05-12T12:13:23Z</time>
      </trkpt>
      <trkpt lat="46.66652" lon="5.6151">
        <ele>551</ele>
        <time>2022-05-12T12:13:38Z</time>
      </trkpt>
      <trkpt lat="46.66656" lon="5.61507">
        <ele>550.5</ele>
        <time>2022-05-12T12:13:41Z</time>
      </trkpt>
      <trkpt lat="46.66661" lon="5.61502">
        <ele>549.8</ele>
        <time>2022-05-12T12:13:46Z</time>
      </trkpt>
      <trkpt lat="46.66665" lon="5.61499">
        <ele>549.6</ele>
        <time>2022-05-12T12:13:49Z</time>
      </trkpt>
      <trkpt lat="46.66669" lon="5.61495">
        <ele>549.5</ele>
        <time>2022-05-12T12:13:55Z</time>
      </trkpt>
      <trkpt lat="46.66674" lon="5.61493">
        <ele>549.8</ele>
        <time>2022-05-12T12:14:00Z</time>
      </trkpt>
      <trkpt lat="46.66679" lon="5.6149">
        <ele>550.5</ele>
        <time>2022-05-12T12:14:04Z</time>
      </trkpt>
      <trkpt lat="46.66684" lon="5.61486">
        <ele>551.5</ele>
        <time>2022-05-12T12:14:08Z</time>
      </trkpt>
      <trkpt lat="46.66688" lon="5.61483">
        <ele>553</ele>
        <time>2022-05-12T12:14:13Z</time>
      </trkpt>
      <trkpt lat="46.6669" lon="5.61476">
        <ele>554.2</ele>
        <time>2022-05-12T12:14:23Z</time>
      </trkpt>
      <trkpt lat="46.66694" lon="5.6147">
        <ele>554.1</ele>
        <time>2022-05-12T12:14:27Z</time>
      </trkpt>
      <trkpt lat="46.66699" lon="5.61465">
        <ele>554</ele>
        <time>2022-05-12T12:14:31Z</time>
      </trkpt>
      <trkpt lat="46.66703" lon="5.61462">
        <ele>553.8</ele>
        <time>2022-05-12T12:14:35Z</time>
      </trkpt>
      <trkpt lat="46.66708" lon="5.61459">
        <ele>554</ele>
        <time>2022-05-12T12:14:40Z</time>
      </trkpt>
      <trkpt lat="46.66713" lon="5.61457">
        <ele>554.5</ele>
        <time>2022-05-12T12:14:44Z</time>
      </trkpt>
      <trkpt lat="46.66717" lon="5.61453">
        <ele>555.2</ele>
        <time>2022-05-12T12:14:51Z</time>
      </trkpt>
      <trkpt lat="46.66721" lon="5.61447">
        <ele>555.3</ele>
        <time>2022-05-12T12:14:58Z</time>
      </trkpt>
      <trkpt lat="46.66726" lon="5.61446">
        <ele>555.4</ele>
        <time>2022-05-12T12:15:02Z</time>
      </trkpt>
      <trkpt lat="46.66731" lon="5.61446">
        <ele>555.5</ele>
        <time>2022-05-12T12:15:07Z</time>
      </trkpt>
      <trkpt lat="46.66735" lon="5.61442">
        <ele>556.6</ele>
        <time>2022-05-12T12:15:16Z</time>
      </trkpt>
      <trkpt lat="46.66737" lon="5.61436">
        <ele>555.7</ele>
        <time>2022-05-12T12:15:23Z</time>
      </trkpt>
      <trkpt lat="46.66741" lon="5.61432">
        <ele>554.9</ele>
        <time>2022-05-12T12:15:29Z</time>
      </trkpt>
      <trkpt lat="46.66745" lon="5.61428">
        <ele>554.1</ele>
        <time>2022-05-12T12:15:35Z</time>
      </trkpt>
      <trkpt lat="46.66749" lon="5.61423">
        <ele>553.9</ele>
        <time>2022-05-12T12:15:39Z</time>
      </trkpt>
      <trkpt lat="46.66753" lon="5.61418">
        <ele>553.8</ele>
        <time>2022-05-12T12:15:43Z</time>
      </trkpt>
      <trkpt lat="46.66757" lon="5.61412">
        <ele>553.6</ele>
        <time>2022-05-12T12:15:49Z</time>
      </trkpt>
      <trkpt lat="46.66761" lon="5.6141">
        <ele>553.6</ele>
        <time>2022-05-12T12:15:52Z</time>
      </trkpt>
      <trkpt lat="46.66766" lon="5.61406">
        <ele>553.7</ele>
        <time>2022-05-12T12:15:55Z</time>
      </trkpt>
      <trkpt lat="46.66772" lon="5.61403">
        <ele>554.1</ele>
        <time>2022-05-12T12:15:59Z</time>
      </trkpt>
      <trkpt lat="46.66776" lon="5.61399">
        <ele>554.7</ele>
        <time>2022-05-12T12:16:03Z</time>
      </trkpt>
      <trkpt lat="46.6678" lon="5.61396">
        <ele>554.6</ele>
        <time>2022-05-12T12:16:08Z</time>
      </trkpt>
      <trkpt lat="46.66784" lon="5.61392">
        <ele>554.7</ele>
        <time>2022-05-12T12:16:13Z</time>
      </trkpt>
      <trkpt lat="46.66787" lon="5.61387">
        <ele>555.5</ele>
        <time>2022-05-12T12:16:17Z</time>
      </trkpt>
      <trkpt lat="46.66791" lon="5.6138">
        <ele>557</ele>
        <time>2022-05-12T12:16:21Z</time>
      </trkpt>
      <trkpt lat="46.66794" lon="5.61376">
        <ele>559</ele>
        <time>2022-05-12T12:16:25Z</time>
      </trkpt>
      <trkpt lat="46.66798" lon="5.61373">
        <ele>561.7</ele>
        <time>2022-05-12T12:16:33Z</time>
      </trkpt>
      <trkpt lat="46.66803" lon="5.61368">
        <ele>562.1</ele>
        <time>2022-05-12T12:16:38Z</time>
      </trkpt>
      <trkpt lat="46.66807" lon="5.61366">
        <ele>560.3</ele>
        <time>2022-05-12T12:16:49Z</time>
      </trkpt>
      <trkpt lat="46.66812" lon="5.61361">
        <ele>560.2</ele>
        <time>2022-05-12T12:16:54Z</time>
      </trkpt>
      <trkpt lat="46.66816" lon="5.61357">
        <ele>560.2</ele>
        <time>2022-05-12T12:16:57Z</time>
      </trkpt>
      <trkpt lat="46.66821" lon="5.61352">
        <ele>560.3</ele>
        <time>2022-05-12T12:17:01Z</time>
      </trkpt>
      <trkpt lat="46.66824" lon="5.61347">
        <ele>560.6</ele>
        <time>2022-05-12T12:17:04Z</time>
      </trkpt>
      <trkpt lat="46.66827" lon="5.6134">
        <ele>561.6</ele>
        <time>2022-05-12T12:17:08Z</time>
      </trkpt>
      <trkpt lat="46.6683" lon="5.61334">
        <ele>563.1</ele>
        <time>2022-05-12T12:17:13Z</time>
      </trkpt>
      <trkpt lat="46.66834" lon="5.6133">
        <ele>564.6</ele>
        <time>2022-05-12T12:17:18Z</time>
      </trkpt>
      <trkpt lat="46.66839" lon="5.61326">
        <ele>565.8</ele>
        <time>2022-05-12T12:17:23Z</time>
      </trkpt>
      <trkpt lat="46.66843" lon="5.61323">
        <ele>566.5</ele>
        <time>2022-05-12T12:17:27Z</time>
      </trkpt>
      <trkpt lat="46.66847" lon="5.61319">
        <ele>567.4</ele>
        <time>2022-05-12T12:17:32Z</time>
      </trkpt>
      <trkpt lat="46.66851" lon="5.61316">
        <ele>568.1</ele>
        <time>2022-05-12T12:17:38Z</time>
      </trkpt>
      <trkpt lat="46.66855" lon="5.61313">
        <ele>568.6</ele>
        <time>2022-05-12T12:17:44Z</time>
      </trkpt>
      <trkpt lat="46.66859" lon="5.61309">
        <ele>569.1</ele>
        <time>2022-05-12T12:17:48Z</time>
      </trkpt>
      <trkpt lat="46.66862" lon="5.61303">
        <ele>569.8</ele>
        <time>2022-05-12T12:17:53Z</time>
      </trkpt>
      <trkpt lat="46.66867" lon="5.61296">
        <ele>570.2</ele>
        <time>2022-05-12T12:18:03Z</time>
      </trkpt>
      <trkpt lat="46.66871" lon="5.61292">
        <ele>570.2</ele>
        <time>2022-05-12T12:18:06Z</time>
      </trkpt>
      <trkpt lat="46.66876" lon="5.61291">
        <ele>569.8</ele>
        <time>2022-05-12T12:18:11Z</time>
      </trkpt>
      <trkpt lat="46.66881" lon="5.61287">
        <ele>568.9</ele>
        <time>2022-05-12T12:18:17Z</time>
      </trkpt>
      <trkpt lat="46.66884" lon="5.61283">
        <ele>566.9</ele>
        <time>2022-05-12T12:18:23Z</time>
      </trkpt>
      <trkpt lat="46.66888" lon="5.61277">
        <ele>565</ele>
        <time>2022-05-12T12:18:29Z</time>
      </trkpt>
      <trkpt lat="46.66892" lon="5.61274">
        <ele>563.8</ele>
        <time>2022-05-12T12:18:35Z</time>
      </trkpt>
      <trkpt lat="46.66896" lon="5.61269">
        <ele>562.7</ele>
        <time>2022-05-12T12:18:41Z</time>
      </trkpt>
      <trkpt lat="46.669" lon="5.61265">
        <ele>562.5</ele>
        <time>2022-05-12T12:18:45Z</time>
      </trkpt>
      <trkpt lat="46.66904" lon="5.61261">
        <ele>562.5</ele>
        <time>2022-05-12T12:18:49Z</time>
      </trkpt>
      <trkpt lat="46.66909" lon="5.61259">
        <ele>562.9</ele>
        <time>2022-05-12T12:18:54Z</time>
      </trkpt>
      <trkpt lat="46.66914" lon="5.61257">
        <ele>563.3</ele>
        <time>2022-05-12T12:18:58Z</time>
      </trkpt>
      <trkpt lat="46.66918" lon="5.61253">
        <ele>563.8</ele>
        <time>2022-05-12T12:19:02Z</time>
      </trkpt>
      <trkpt lat="46.66922" lon="5.61248">
        <ele>564.3</ele>
        <time>2022-05-12T12:19:06Z</time>
      </trkpt>
      <trkpt lat="46.66926" lon="5.61244">
        <ele>565.2</ele>
        <time>2022-05-12T12:19:11Z</time>
      </trkpt>
      <trkpt lat="46.6693" lon="5.6124">
        <ele>565.3</ele>
        <time>2022-05-12T12:19:15Z</time>
      </trkpt>
      <trkpt lat="46.66934" lon="5.61237">
        <ele>564.8</ele>
        <time>2022-05-12T12:19:19Z</time>
      </trkpt>
      <trkpt lat="46.66939" lon="5.61234">
        <ele>563.7</ele>
        <time>2022-05-12T12:19:25Z</time>
      </trkpt>
      <trkpt lat="46.66943" lon="5.61231">
        <ele>563.2</ele>
        <time>2022-05-12T12:19:32Z</time>
      </trkpt>
      <trkpt lat="46.66947" lon="5.61227">
        <ele>563.2</ele>
        <time>2022-05-12T12:19:36Z</time>
      </trkpt>
      <trkpt lat="46.66952" lon="5.61224">
        <ele>563</ele>
        <time>2022-05-12T12:19:41Z</time>
      </trkpt>
      <trkpt lat="46.66956" lon="5.6122">
        <ele>563.2</ele>
        <time>2022-05-12T12:19:44Z</time>
      </trkpt>
      <trkpt lat="46.6696" lon="5.61216">
        <ele>563.7</ele>
        <time>2022-05-12T12:19:47Z</time>
      </trkpt>
      <trkpt lat="46.66964" lon="5.61211">
        <ele>564.4</ele>
        <time>2022-05-12T12:19:50Z</time>
      </trkpt>
      <trkpt lat="46.66967" lon="5.61207">
        <ele>565.6</ele>
        <time>2022-05-12T12:19:57Z</time>
      </trkpt>
      <trkpt lat="46.66971" lon="5.61201">
        <ele>566</ele>
        <time>2022-05-12T12:20:07Z</time>
      </trkpt>
      <trkpt lat="46.66976" lon="5.61196">
        <ele>566.2</ele>
        <time>2022-05-12T12:20:12Z</time>
      </trkpt>
      <trkpt lat="46.6698" lon="5.61193">
        <ele>566.5</ele>
        <time>2022-05-12T12:20:17Z</time>
      </trkpt>
      <trkpt lat="46.66985" lon="5.61188">
        <ele>566.5</ele>
        <time>2022-05-12T12:20:23Z</time>
      </trkpt>
      <trkpt lat="46.66989" lon="5.61185">
        <ele>566.3</ele>
        <time>2022-05-12T12:20:27Z</time>
      </trkpt>
      <trkpt lat="46.66992" lon="5.61181">
        <ele>566</ele>
        <time>2022-05-12T12:20:35Z</time>
      </trkpt>
      <trkpt lat="46.66997" lon="5.6118">
        <ele>566</ele>
        <time>2022-05-12T12:20:40Z</time>
      </trkpt>
      <trkpt lat="46.67003" lon="5.61182">
        <ele>565.9</ele>
        <time>2022-05-12T12:20:44Z</time>
      </trkpt>
      <trkpt lat="46.67007" lon="5.61187">
        <ele>565.8</ele>
        <time>2022-05-12T12:20:49Z</time>
      </trkpt>
      <trkpt lat="46.67009" lon="5.61193">
        <ele>565.4</ele>
        <time>2022-05-12T12:20:53Z</time>
      </trkpt>
      <trkpt lat="46.6701" lon="5.612">
        <ele>564.9</ele>
        <time>2022-05-12T12:20:57Z</time>
      </trkpt>
      <trkpt lat="46.67013" lon="5.61206">
        <ele>564.1</ele>
        <time>2022-05-12T12:21:01Z</time>
      </trkpt>
      <trkpt lat="46.67015" lon="5.61212">
        <ele>563</ele>
        <time>2022-05-12T12:21:05Z</time>
      </trkpt>
      <trkpt lat="46.67018" lon="5.61217">
        <ele>562.3</ele>
        <time>2022-05-12T12:21:09Z</time>
      </trkpt>
      <trkpt lat="46.67023" lon="5.61221">
        <ele>561.7</ele>
        <time>2022-05-12T12:21:13Z</time>
      </trkpt>
      <trkpt lat="46.67027" lon="5.61226">
        <ele>560.6</ele>
        <time>2022-05-12T12:21:17Z</time>
      </trkpt>
      <trkpt lat="46.6703" lon="5.61232">
        <ele>558.9</ele>
        <time>2022-05-12T12:21:23Z</time>
      </trkpt>
      <trkpt lat="46.67033" lon="5.61238">
        <ele>556.8</ele>
        <time>2022-05-12T12:21:29Z</time>
      </trkpt>
      <trkpt lat="46.67035" lon="5.61245">
        <ele>555.3</ele>
        <time>2022-05-12T12:21:35Z</time>
      </trkpt>
      <trkpt lat="46.67036" lon="5.61253">
        <ele>554.2</ele>
        <time>2022-05-12T12:21:40Z</time>
      </trkpt>
      <trkpt lat="46.67036" lon="5.6126">
        <ele>552.9</ele>
        <time>2022-05-12T12:21:45Z</time>
      </trkpt>
      <trkpt lat="46.6704" lon="5.61265">
        <ele>552</ele>
        <time>2022-05-12T12:21:50Z</time>
      </trkpt>
      <trkpt lat="46.67044" lon="5.6127">
        <ele>552.4</ele>
        <time>2022-05-12T12:21:54Z</time>
      </trkpt>
      <trkpt lat="46.67048" lon="5.61275">
        <ele>553.1</ele>
        <time>2022-05-12T12:21:58Z</time>
      </trkpt>
      <trkpt lat="46.67052" lon="5.6128">
        <ele>554.5</ele>
        <time>2022-05-12T12:22:02Z</time>
      </trkpt>
      <trkpt lat="46.67055" lon="5.61286">
        <ele>556.5</ele>
        <time>2022-05-12T12:22:07Z</time>
      </trkpt>
      <trkpt lat="46.67058" lon="5.61293">
        <ele>558.3</ele>
        <time>2022-05-12T12:22:12Z</time>
      </trkpt>
      <trkpt lat="46.67061" lon="5.61299">
        <ele>559.4</ele>
        <time>2022-05-12T12:22:17Z</time>
      </trkpt>
      <trkpt lat="46.67062" lon="5.61305">
        <ele>560.6</ele>
        <time>2022-05-12T12:22:22Z</time>
      </trkpt>
      <trkpt lat="46.67064" lon="5.61312">
        <ele>561.6</ele>
        <time>2022-05-12T12:22:28Z</time>
      </trkpt>
      <trkpt lat="46.67065" lon="5.61318">
        <ele>561.9</ele>
        <time>2022-05-12T12:22:33Z</time>
      </trkpt>
      <trkpt lat="46.67067" lon="5.61325">
        <ele>562.2</ele>
        <time>2022-05-12T12:22:38Z</time>
      </trkpt>
      <trkpt lat="46.67069" lon="5.61332">
        <ele>562.6</ele>
        <time>2022-05-12T12:22:44Z</time>
      </trkpt>
      <trkpt lat="46.67071" lon="5.61338">
        <ele>561.9</ele>
        <time>2022-05-12T12:22:50Z</time>
      </trkpt>
      <trkpt lat="46.67072" lon="5.61346">
        <ele>561.3</ele>
        <time>2022-05-12T12:22:56Z</time>
      </trkpt>
      <trkpt lat="46.67074" lon="5.61351">
        <ele>561.8</ele>
        <time>2022-05-12T12:23:02Z</time>
      </trkpt>
      <trkpt lat="46.67077" lon="5.61357">
        <ele>562.3</ele>
        <time>2022-05-12T12:23:09Z</time>
      </trkpt>
      <trkpt lat="46.67077" lon="5.61364">
        <ele>562.5</ele>
        <time>2022-05-12T12:23:14Z</time>
      </trkpt>
      <trkpt lat="46.6708" lon="5.6137">
        <ele>562.2</ele>
        <time>2022-05-12T12:23:18Z</time>
      </trkpt>
      <trkpt lat="46.67083" lon="5.61376">
        <ele>561.5</ele>
        <time>2022-05-12T12:23:22Z</time>
      </trkpt>
      <trkpt lat="46.67085" lon="5.61382">
        <ele>561.1</ele>
        <time>2022-05-12T12:23:26Z</time>
      </trkpt>
      <trkpt lat="46.67088" lon="5.61388">
        <ele>560.9</ele>
        <time>2022-05-12T12:23:29Z</time>
      </trkpt>
      <trkpt lat="46.6709" lon="5.61394">
        <ele>560.5</ele>
        <time>2022-05-12T12:23:33Z</time>
      </trkpt>
      <trkpt lat="46.67093" lon="5.614">
        <ele>559.8</ele>
        <time>2022-05-12T12:23:37Z</time>
      </trkpt>
      <trkpt lat="46.67095" lon="5.61406">
        <ele>558.8</ele>
        <time>2022-05-12T12:23:42Z</time>
      </trkpt>
      <trkpt lat="46.67098" lon="5.61412">
        <ele>557.8</ele>
        <time>2022-05-12T12:23:47Z</time>
      </trkpt>
      <trkpt lat="46.67102" lon="5.61417">
        <ele>557</ele>
        <time>2022-05-12T12:23:51Z</time>
      </trkpt>
      <trkpt lat="46.67105" lon="5.61422">
        <ele>556.4</ele>
        <time>2022-05-12T12:23:55Z</time>
      </trkpt>
      <trkpt lat="46.67108" lon="5.61427">
        <ele>556</ele>
        <time>2022-05-12T12:24:01Z</time>
      </trkpt>
      <trkpt lat="46.67111" lon="5.61433">
        <ele>555.2</ele>
        <time>2022-05-12T12:24:07Z</time>
      </trkpt>
      <trkpt lat="46.67115" lon="5.61437">
        <ele>554.3</ele>
        <time>2022-05-12T12:24:11Z</time>
      </trkpt>
      <trkpt lat="46.67117" lon="5.61443">
        <ele>553.6</ele>
        <time>2022-05-12T12:24:15Z</time>
      </trkpt>
      <trkpt lat="46.67118" lon="5.6145">
        <ele>552.8</ele>
        <time>2022-05-12T12:24:20Z</time>
      </trkpt>
      <trkpt lat="46.6712" lon="5.61458">
        <ele>552.1</ele>
        <time>2022-05-12T12:24:25Z</time>
      </trkpt>
      <trkpt lat="46.67122" lon="5.61463">
        <ele>551.9</ele>
        <time>2022-05-12T12:24:29Z</time>
      </trkpt>
      <trkpt lat="46.67125" lon="5.61469">
        <ele>552</ele>
        <time>2022-05-12T12:24:34Z</time>
      </trkpt>
      <trkpt lat="46.67125" lon="5.61477">
        <ele>551.4</ele>
        <time>2022-05-12T12:24:39Z</time>
      </trkpt>
      <trkpt lat="46.67126" lon="5.61484">
        <ele>550.2</ele>
        <time>2022-05-12T12:24:45Z</time>
      </trkpt>
      <trkpt lat="46.67129" lon="5.6149">
        <ele>549.5</ele>
        <time>2022-05-12T12:24:51Z</time>
      </trkpt>
      <trkpt lat="46.67131" lon="5.61495">
        <ele>548.7</ele>
        <time>2022-05-12T12:24:59Z</time>
      </trkpt>
      <trkpt lat="46.67131" lon="5.61503">
        <ele>547.9</ele>
        <time>2022-05-12T12:25:05Z</time>
      </trkpt>
      <trkpt lat="46.6713" lon="5.6151">
        <ele>547.6</ele>
        <time>2022-05-12T12:25:10Z</time>
      </trkpt>
      <trkpt lat="46.67131" lon="5.61516">
        <ele>547.1</ele>
        <time>2022-05-12T12:25:15Z</time>
      </trkpt>
      <trkpt lat="46.67133" lon="5.61523">
        <ele>546.3</ele>
        <time>2022-05-12T12:25:21Z</time>
      </trkpt>
      <trkpt lat="46.67134" lon="5.6153">
        <ele>545.6</ele>
        <time>2022-05-12T12:25:26Z</time>
      </trkpt>
      <trkpt lat="46.67135" lon="5.61536">
        <ele>544.8</ele>
        <time>2022-05-12T12:25:31Z</time>
      </trkpt>
      <trkpt lat="46.67137" lon="5.61543">
        <ele>544</ele>
        <time>2022-05-12T12:25:37Z</time>
      </trkpt>
      <trkpt lat="46.6714" lon="5.61549">
        <ele>542.6</ele>
        <time>2022-05-12T12:25:43Z</time>
      </trkpt>
      <trkpt lat="46.67144" lon="5.61549">
        <ele>540</ele>
        <time>2022-05-12T12:25:52Z</time>
      </trkpt>
      <trkpt lat="46.67149" lon="5.61548">
        <ele>536.8</ele>
        <time>2022-05-12T12:26:06Z</time>
      </trkpt>
      <trkpt lat="46.67154" lon="5.61547">
        <ele>535.5</ele>
        <time>2022-05-12T12:26:09Z</time>
      </trkpt>
      <trkpt lat="46.67159" lon="5.61546">
        <ele>534.2</ele>
        <time>2022-05-12T12:26:12Z</time>
      </trkpt>
      <trkpt lat="46.67164" lon="5.61547">
        <ele>533.3</ele>
        <time>2022-05-12T12:26:16Z</time>
      </trkpt>
      <trkpt lat="46.67169" lon="5.61548">
        <ele>533</ele>
        <time>2022-05-12T12:26:24Z</time>
      </trkpt>
      <trkpt lat="46.67175" lon="5.61547">
        <ele>532.9</ele>
        <time>2022-05-12T12:26:32Z</time>
      </trkpt>
      <trkpt lat="46.6718" lon="5.61546">
        <ele>532.6</ele>
        <time>2022-05-12T12:26:35Z</time>
      </trkpt>
      <trkpt lat="46.67185" lon="5.61545">
        <ele>532.2</ele>
        <time>2022-05-12T12:26:38Z</time>
      </trkpt>
      <trkpt lat="46.6719" lon="5.61544">
        <ele>531.5</ele>
        <time>2022-05-12T12:26:42Z</time>
      </trkpt>
      <trkpt lat="46.67195" lon="5.61545">
        <ele>530.9</ele>
        <time>2022-05-12T12:26:47Z</time>
      </trkpt>
      <trkpt lat="46.67199" lon="5.61548">
        <ele>530.6</ele>
        <time>2022-05-12T12:26:52Z</time>
      </trkpt>
      <trkpt lat="46.67204" lon="5.6155">
        <ele>530.4</ele>
        <time>2022-05-12T12:26:59Z</time>
      </trkpt>
      <trkpt lat="46.67209" lon="5.61552">
        <ele>530.6</ele>
        <time>2022-05-12T12:27:06Z</time>
      </trkpt>
      <trkpt lat="46.67213" lon="5.6155">
        <ele>531</ele>
        <time>2022-05-12T12:27:13Z</time>
      </trkpt>
      <trkpt lat="46.67218" lon="5.61547">
        <ele>531.4</ele>
        <time>2022-05-12T12:27:21Z</time>
      </trkpt>
      <trkpt lat="46.67222" lon="5.61549">
        <ele>532.2</ele>
        <time>2022-05-12T12:27:27Z</time>
      </trkpt>
      <trkpt lat="46.67227" lon="5.61551">
        <ele>532.8</ele>
        <time>2022-05-12T12:27:34Z</time>
      </trkpt>
      <trkpt lat="46.67232" lon="5.61552">
        <ele>532.7</ele>
        <time>2022-05-12T12:27:40Z</time>
      </trkpt>
      <trkpt lat="46.67237" lon="5.6155">
        <ele>532.8</ele>
        <time>2022-05-12T12:27:49Z</time>
      </trkpt>
      <trkpt lat="46.67243" lon="5.61547">
        <ele>533</ele>
        <time>2022-05-12T12:28:00Z</time>
      </trkpt>
      <trkpt lat="46.67248" lon="5.61546">
        <ele>533.1</ele>
        <time>2022-05-12T12:28:03Z</time>
      </trkpt>
      <trkpt lat="46.67253" lon="5.61546">
        <ele>533.2</ele>
        <time>2022-05-12T12:28:07Z</time>
      </trkpt>
      <trkpt lat="46.67257" lon="5.61547">
        <ele>533.5</ele>
        <time>2022-05-12T12:28:14Z</time>
      </trkpt>
      <trkpt lat="46.67262" lon="5.61549">
        <ele>533</ele>
        <time>2022-05-12T12:28:21Z</time>
      </trkpt>
      <trkpt lat="46.67268" lon="5.61552">
        <ele>532.2</ele>
        <time>2022-05-12T12:28:25Z</time>
      </trkpt>
      <trkpt lat="46.67273" lon="5.61552">
        <ele>531.5</ele>
        <time>2022-05-12T12:28:29Z</time>
      </trkpt>
      <trkpt lat="46.67279" lon="5.61553">
        <ele>530.7</ele>
        <time>2022-05-12T12:28:33Z</time>
      </trkpt>
      <trkpt lat="46.67283" lon="5.61555">
        <ele>529.6</ele>
        <time>2022-05-12T12:28:39Z</time>
      </trkpt>
      <trkpt lat="46.67288" lon="5.61558">
        <ele>528.5</ele>
        <time>2022-05-12T12:28:47Z</time>
      </trkpt>
      <trkpt lat="46.67294" lon="5.61559">
        <ele>528.4</ele>
        <time>2022-05-12T12:29:01Z</time>
      </trkpt>
      <trkpt lat="46.67301" lon="5.6156">
        <ele>529.1</ele>
        <time>2022-05-12T12:29:04Z</time>
      </trkpt>
      <trkpt lat="46.67306" lon="5.6156">
        <ele>529.4</ele>
        <time>2022-05-12T12:29:07Z</time>
      </trkpt>
      <trkpt lat="46.6731" lon="5.6156">
        <ele>529.5</ele>
        <time>2022-05-12T12:29:11Z</time>
      </trkpt>
      <trkpt lat="46.67315" lon="5.61563">
        <ele>529.1</ele>
        <time>2022-05-12T12:29:18Z</time>
      </trkpt>
      <trkpt lat="46.67321" lon="5.61562">
        <ele>529.4</ele>
        <time>2022-05-12T12:29:21Z</time>
      </trkpt>
      <trkpt lat="46.67326" lon="5.61561">
        <ele>530</ele>
        <time>2022-05-12T12:29:24Z</time>
      </trkpt>
      <trkpt lat="46.67332" lon="5.6156">
        <ele>530.6</ele>
        <time>2022-05-12T12:29:27Z</time>
      </trkpt>
      <trkpt lat="46.67337" lon="5.61558">
        <ele>531.4</ele>
        <time>2022-05-12T12:29:30Z</time>
      </trkpt>
      <trkpt lat="46.67342" lon="5.61559">
        <ele>532.5</ele>
        <time>2022-05-12T12:29:36Z</time>
      </trkpt>
      <trkpt lat="46.67347" lon="5.6156">
        <ele>533.3</ele>
        <time>2022-05-12T12:29:42Z</time>
      </trkpt>
      <trkpt lat="46.67352" lon="5.61559">
        <ele>534.2</ele>
        <time>2022-05-12T12:29:46Z</time>
      </trkpt>
      <trkpt lat="46.67356" lon="5.61559">
        <ele>534.7</ele>
        <time>2022-05-12T12:29:51Z</time>
      </trkpt>
      <trkpt lat="46.67362" lon="5.6156">
        <ele>534.6</ele>
        <time>2022-05-12T12:29:56Z</time>
      </trkpt>
      <trkpt lat="46.67367" lon="5.61557">
        <ele>534.6</ele>
        <time>2022-05-12T12:30:00Z</time>
      </trkpt>
      <trkpt lat="46.67372" lon="5.61556">
        <ele>534.5</ele>
        <time>2022-05-12T12:30:04Z</time>
      </trkpt>
      <trkpt lat="46.67376" lon="5.61553">
        <ele>534.7</ele>
        <time>2022-05-12T12:30:08Z</time>
      </trkpt>
      <trkpt lat="46.6738" lon="5.61548">
        <ele>535.4</ele>
        <time>2022-05-12T12:30:12Z</time>
      </trkpt>
      <trkpt lat="46.67384" lon="5.61544">
        <ele>536.2</ele>
        <time>2022-05-12T12:30:16Z</time>
      </trkpt>
      <trkpt lat="46.67388" lon="5.6154">
        <ele>537</ele>
        <time>2022-05-12T12:30:19Z</time>
      </trkpt>
      <trkpt lat="46.67393" lon="5.61537">
        <ele>538</ele>
        <time>2022-05-12T12:30:24Z</time>
      </trkpt>
      <trkpt lat="46.67397" lon="5.61539">
        <ele>539.3</ele>
        <time>2022-05-12T12:30:29Z</time>
      </trkpt>
      <trkpt lat="46.67402" lon="5.61542">
        <ele>540.8</ele>
        <time>2022-05-12T12:30:34Z</time>
      </trkpt>
      <trkpt lat="46.67406" lon="5.61547">
        <ele>541.9</ele>
        <time>2022-05-12T12:30:39Z</time>
      </trkpt>
      <trkpt lat="46.67408" lon="5.61553">
        <ele>543.4</ele>
        <time>2022-05-12T12:30:46Z</time>
      </trkpt>
      <trkpt lat="46.67411" lon="5.61559">
        <ele>544.5</ele>
        <time>2022-05-12T12:30:51Z</time>
      </trkpt>
      <trkpt lat="46.67414" lon="5.61565">
        <ele>545.5</ele>
        <time>2022-05-12T12:30:56Z</time>
      </trkpt>
      <trkpt lat="46.67416" lon="5.61571">
        <ele>546.4</ele>
        <time>2022-05-12T12:31:01Z</time>
      </trkpt>
      <trkpt lat="46.6742" lon="5.61574">
        <ele>546.8</ele>
        <time>2022-05-12T12:31:08Z</time>
      </trkpt>
      <trkpt lat="46.67425" lon="5.61577">
        <ele>545.4</ele>
        <time>2022-05-12T12:31:21Z</time>
      </trkpt>
      <trkpt lat="46.67427" lon="5.61583">
        <ele>544.4</ele>
        <time>2022-05-12T12:31:25Z</time>
      </trkpt>
      <trkpt lat="46.67431" lon="5.61587">
        <ele>543.4</ele>
        <time>2022-05-12T12:31:29Z</time>
      </trkpt>
      <trkpt lat="46.67436" lon="5.6159">
        <ele>542.3</ele>
        <time>2022-05-12T12:31:33Z</time>
      </trkpt>
      <trkpt lat="46.67441" lon="5.61592">
        <ele>541.3</ele>
        <time>2022-05-12T12:31:37Z</time>
      </trkpt>
      <trkpt lat="46.67446" lon="5.61595">
        <ele>540.3</ele>
        <time>2022-05-12T12:31:42Z</time>
      </trkpt>
      <trkpt lat="46.67451" lon="5.61596">
        <ele>539.4</ele>
        <time>2022-05-12T12:31:48Z</time>
      </trkpt>
      <trkpt lat="46.67455" lon="5.616">
        <ele>539.2</ele>
        <time>2022-05-12T12:31:52Z</time>
      </trkpt>
      <trkpt lat="46.67459" lon="5.61605">
        <ele>539.5</ele>
        <time>2022-05-12T12:31:57Z</time>
      </trkpt>
      <trkpt lat="46.67461" lon="5.61612">
        <ele>540.1</ele>
        <time>2022-05-12T12:32:01Z</time>
      </trkpt>
      <trkpt lat="46.67463" lon="5.61619">
        <ele>540.7</ele>
        <time>2022-05-12T12:32:05Z</time>
      </trkpt>
      <trkpt lat="46.67466" lon="5.61624">
        <ele>540.5</ele>
        <time>2022-05-12T12:32:10Z</time>
      </trkpt>
      <trkpt lat="46.67468" lon="5.61631">
        <ele>540.3</ele>
        <time>2022-05-12T12:32:14Z</time>
      </trkpt>
      <trkpt lat="46.67469" lon="5.61637">
        <ele>540.2</ele>
        <time>2022-05-12T12:32:18Z</time>
      </trkpt>
      <trkpt lat="46.67471" lon="5.61645">
        <ele>539.7</ele>
        <time>2022-05-12T12:32:23Z</time>
      </trkpt>
      <trkpt lat="46.67475" lon="5.61649">
        <ele>539.3</ele>
        <time>2022-05-12T12:32:27Z</time>
      </trkpt>
      <trkpt lat="46.67479" lon="5.61652">
        <ele>538.4</ele>
        <time>2022-05-12T12:32:31Z</time>
      </trkpt>
      <trkpt lat="46.67484" lon="5.61654">
        <ele>537.5</ele>
        <time>2022-05-12T12:32:36Z</time>
      </trkpt>
      <trkpt lat="46.67487" lon="5.61661">
        <ele>538.2</ele>
        <time>2022-05-12T12:32:41Z</time>
      </trkpt>
      <trkpt lat="46.6749" lon="5.61666">
        <ele>539.5</ele>
        <time>2022-05-12T12:32:45Z</time>
      </trkpt>
      <trkpt lat="46.67492" lon="5.61672">
        <ele>541</ele>
        <time>2022-05-12T12:32:49Z</time>
      </trkpt>
      <trkpt lat="46.67495" lon="5.61677">
        <ele>542</ele>
        <time>2022-05-12T12:32:53Z</time>
      </trkpt>
      <trkpt lat="46.67497" lon="5.61685">
        <ele>542.4</ele>
        <time>2022-05-12T12:32:58Z</time>
      </trkpt>
      <trkpt lat="46.67497" lon="5.61692">
        <ele>543</ele>
        <time>2022-05-12T12:33:03Z</time>
      </trkpt>
      <trkpt lat="46.67497" lon="5.617">
        <ele>544</ele>
        <time>2022-05-12T12:33:08Z</time>
      </trkpt>
      <trkpt lat="46.67499" lon="5.61706">
        <ele>544.8</ele>
        <time>2022-05-12T12:33:13Z</time>
      </trkpt>
      <trkpt lat="46.67502" lon="5.61713">
        <ele>545.2</ele>
        <time>2022-05-12T12:33:18Z</time>
      </trkpt>
      <trkpt lat="46.67504" lon="5.6172">
        <ele>545.2</ele>
        <time>2022-05-12T12:33:23Z</time>
      </trkpt>
      <trkpt lat="46.67507" lon="5.61726">
        <ele>545.3</ele>
        <time>2022-05-12T12:33:29Z</time>
      </trkpt>
      <trkpt lat="46.6751" lon="5.61731">
        <ele>545.6</ele>
        <time>2022-05-12T12:33:35Z</time>
      </trkpt>
      <trkpt lat="46.67515" lon="5.61735">
        <ele>546</ele>
        <time>2022-05-12T12:33:40Z</time>
      </trkpt>
      <trkpt lat="46.67518" lon="5.6174">
        <ele>546.6</ele>
        <time>2022-05-12T12:33:44Z</time>
      </trkpt>
      <trkpt lat="46.6752" lon="5.61746">
        <ele>546.7</ele>
        <time>2022-05-12T12:33:48Z</time>
      </trkpt>
      <trkpt lat="46.67521" lon="5.61754">
        <ele>546.4</ele>
        <time>2022-05-12T12:33:54Z</time>
      </trkpt>
      <trkpt lat="46.67524" lon="5.6176">
        <ele>545.5</ele>
        <time>2022-05-12T12:33:59Z</time>
      </trkpt>
      <trkpt lat="46.67526" lon="5.61766">
        <ele>544.9</ele>
        <time>2022-05-12T12:34:03Z</time>
      </trkpt>
      <trkpt lat="46.67529" lon="5.61772">
        <ele>544.2</ele>
        <time>2022-05-12T12:34:08Z</time>
      </trkpt>
      <trkpt lat="46.67532" lon="5.61777">
        <ele>543.9</ele>
        <time>2022-05-12T12:34:12Z</time>
      </trkpt>
      <trkpt lat="46.67535" lon="5.61784">
        <ele>544.1</ele>
        <time>2022-05-12T12:34:16Z</time>
      </trkpt>
      <trkpt lat="46.67537" lon="5.61791">
        <ele>544.4</ele>
        <time>2022-05-12T12:34:19Z</time>
      </trkpt>
      <trkpt lat="46.67538" lon="5.61797">
        <ele>545</ele>
        <time>2022-05-12T12:34:22Z</time>
      </trkpt>
      <trkpt lat="46.67541" lon="5.61804">
        <ele>545.7</ele>
        <time>2022-05-12T12:34:26Z</time>
      </trkpt>
      <trkpt lat="46.67543" lon="5.61811">
        <ele>546.5</ele>
        <time>2022-05-12T12:34:30Z</time>
      </trkpt>
      <trkpt lat="46.67547" lon="5.61816">
        <ele>546.9</ele>
        <time>2022-05-12T12:34:34Z</time>
      </trkpt>
      <trkpt lat="46.67552" lon="5.61819">
        <ele>547.3</ele>
        <time>2022-05-12T12:34:38Z</time>
      </trkpt>
      <trkpt lat="46.67555" lon="5.61823">
        <ele>547.5</ele>
        <time>2022-05-12T12:34:43Z</time>
      </trkpt>
      <trkpt lat="46.67559" lon="5.61829">
        <ele>547.6</ele>
        <time>2022-05-12T12:34:48Z</time>
      </trkpt>
      <trkpt lat="46.67562" lon="5.61835">
        <ele>547.3</ele>
        <time>2022-05-12T12:34:52Z</time>
      </trkpt>
      <trkpt lat="46.67563" lon="5.61842">
        <ele>546.3</ele>
        <time>2022-05-12T12:34:57Z</time>
      </trkpt>
      <trkpt lat="46.67565" lon="5.61849">
        <ele>545.3</ele>
        <time>2022-05-12T12:35:02Z</time>
      </trkpt>
      <trkpt lat="46.67567" lon="5.61855">
        <ele>544.2</ele>
        <time>2022-05-12T12:35:08Z</time>
      </trkpt>
      <trkpt lat="46.6757" lon="5.6186">
        <ele>543.5</ele>
        <time>2022-05-12T12:35:14Z</time>
      </trkpt>
      <trkpt lat="46.67573" lon="5.61864">
        <ele>543.2</ele>
        <time>2022-05-12T12:35:19Z</time>
      </trkpt>
      <trkpt lat="46.67576" lon="5.6187">
        <ele>543.1</ele>
        <time>2022-05-12T12:35:24Z</time>
      </trkpt>
      <trkpt lat="46.67579" lon="5.61876">
        <ele>542.6</ele>
        <time>2022-05-12T12:35:30Z</time>
      </trkpt>
      <trkpt lat="46.67581" lon="5.61882">
        <ele>542.2</ele>
        <time>2022-05-12T12:35:35Z</time>
      </trkpt>
      <trkpt lat="46.67583" lon="5.61889">
        <ele>541.8</ele>
        <time>2022-05-12T12:35:40Z</time>
      </trkpt>
      <trkpt lat="46.67586" lon="5.61896">
        <ele>541.5</ele>
        <time>2022-05-12T12:35:45Z</time>
      </trkpt>
      <trkpt lat="46.67588" lon="5.61902">
        <ele>541.7</ele>
        <time>2022-05-12T12:35:49Z</time>
      </trkpt>
      <trkpt lat="46.67592" lon="5.61908">
        <ele>542</ele>
        <time>2022-05-12T12:35:53Z</time>
      </trkpt>
      <trkpt lat="46.67595" lon="5.61913">
        <ele>542.2</ele>
        <time>2022-05-12T12:35:57Z</time>
      </trkpt>
      <trkpt lat="46.67599" lon="5.61919">
        <ele>542.3</ele>
        <time>2022-05-12T12:36:02Z</time>
      </trkpt>
      <trkpt lat="46.67602" lon="5.61925">
        <ele>542.6</ele>
        <time>2022-05-12T12:36:07Z</time>
      </trkpt>
      <trkpt lat="46.67605" lon="5.61931">
        <ele>543.3</ele>
        <time>2022-05-12T12:36:13Z</time>
      </trkpt>
      <trkpt lat="46.67607" lon="5.61937">
        <ele>543.8</ele>
        <time>2022-05-12T12:36:17Z</time>
      </trkpt>
      <trkpt lat="46.67608" lon="5.61944">
        <ele>543.6</ele>
        <time>2022-05-12T12:36:21Z</time>
      </trkpt>
      <trkpt lat="46.67609" lon="5.61951">
        <ele>543.1</ele>
        <time>2022-05-12T12:36:26Z</time>
      </trkpt>
      <trkpt lat="46.67611" lon="5.61957">
        <ele>542.6</ele>
        <time>2022-05-12T12:36:32Z</time>
      </trkpt>
      <trkpt lat="46.67613" lon="5.61965">
        <ele>542.2</ele>
        <time>2022-05-12T12:36:38Z</time>
      </trkpt>
      <trkpt lat="46.67614" lon="5.61973">
        <ele>541.9</ele>
        <time>2022-05-12T12:36:42Z</time>
      </trkpt>
      <trkpt lat="46.67615" lon="5.61981">
        <ele>541.6</ele>
        <time>2022-05-12T12:36:47Z</time>
      </trkpt>
      <trkpt lat="46.67617" lon="5.61988">
        <ele>541.8</ele>
        <time>2022-05-12T12:36:51Z</time>
      </trkpt>
      <trkpt lat="46.6762" lon="5.61994">
        <ele>541.6</ele>
        <time>2022-05-12T12:36:55Z</time>
      </trkpt>
      <trkpt lat="46.67622" lon="5.62001">
        <ele>540.9</ele>
        <time>2022-05-12T12:36:59Z</time>
      </trkpt>
      <trkpt lat="46.67622" lon="5.62009">
        <ele>539.5</ele>
        <time>2022-05-12T12:37:04Z</time>
      </trkpt>
      <trkpt lat="46.67621" lon="5.62017">
        <ele>538.5</ele>
        <time>2022-05-12T12:37:09Z</time>
      </trkpt>
      <trkpt lat="46.67622" lon="5.62024">
        <ele>537.6</ele>
        <time>2022-05-12T12:37:15Z</time>
      </trkpt>
      <trkpt lat="46.67622" lon="5.62032">
        <ele>537.2</ele>
        <time>2022-05-12T12:37:20Z</time>
      </trkpt>
      <trkpt lat="46.67622" lon="5.62039">
        <ele>537.1</ele>
        <time>2022-05-12T12:37:24Z</time>
      </trkpt>
      <trkpt lat="46.67622" lon="5.62046">
        <ele>537.7</ele>
        <time>2022-05-12T12:37:30Z</time>
      </trkpt>
      <trkpt lat="46.67622" lon="5.62053">
        <ele>538.6</ele>
        <time>2022-05-12T12:37:35Z</time>
      </trkpt>
      <trkpt lat="46.67622" lon="5.6206">
        <ele>540.2</ele>
        <time>2022-05-12T12:37:40Z</time>
      </trkpt>
      <trkpt lat="46.67621" lon="5.62068">
        <ele>541.5</ele>
        <time>2022-05-12T12:37:45Z</time>
      </trkpt>
      <trkpt lat="46.67621" lon="5.62075">
        <ele>542.2</ele>
        <time>2022-05-12T12:37:49Z</time>
      </trkpt>
      <trkpt lat="46.67622" lon="5.62082">
        <ele>542.8</ele>
        <time>2022-05-12T12:37:53Z</time>
      </trkpt>
      <trkpt lat="46.67621" lon="5.62089">
        <ele>543.4</ele>
        <time>2022-05-12T12:37:57Z</time>
      </trkpt>
      <trkpt lat="46.67618" lon="5.62095">
        <ele>544.1</ele>
        <time>2022-05-12T12:38:02Z</time>
      </trkpt>
      <trkpt lat="46.67617" lon="5.62101">
        <ele>544.5</ele>
        <time>2022-05-12T12:38:07Z</time>
      </trkpt>
      <trkpt lat="46.67615" lon="5.62107">
        <ele>544.6</ele>
        <time>2022-05-12T12:38:11Z</time>
      </trkpt>
      <trkpt lat="46.67612" lon="5.62114">
        <ele>544.6</ele>
        <time>2022-05-12T12:38:16Z</time>
      </trkpt>
      <trkpt lat="46.67609" lon="5.62119">
        <ele>544.8</ele>
        <time>2022-05-12T12:38:20Z</time>
      </trkpt>
      <trkpt lat="46.67608" lon="5.62126">
        <ele>545.2</ele>
        <time>2022-05-12T12:38:25Z</time>
      </trkpt>
      <trkpt lat="46.67606" lon="5.62132">
        <ele>545.9</ele>
        <time>2022-05-12T12:38:30Z</time>
      </trkpt>
      <trkpt lat="46.67607" lon="5.6214">
        <ele>545.7</ele>
        <time>2022-05-12T12:38:36Z</time>
      </trkpt>
      <trkpt lat="46.67606" lon="5.62146">
        <ele>545.3</ele>
        <time>2022-05-12T12:38:39Z</time>
      </trkpt>
      <trkpt lat="46.67607" lon="5.62154">
        <ele>543.4</ele>
        <time>2022-05-12T12:38:44Z</time>
      </trkpt>
      <trkpt lat="46.67606" lon="5.62161">
        <ele>542</ele>
        <time>2022-05-12T12:38:48Z</time>
      </trkpt>
      <trkpt lat="46.67606" lon="5.62167">
        <ele>541.8</ele>
        <time>2022-05-12T12:38:51Z</time>
      </trkpt>
      <trkpt lat="46.67608" lon="5.62174">
        <ele>541.3</ele>
        <time>2022-05-12T12:38:55Z</time>
      </trkpt>
      <trkpt lat="46.6761" lon="5.6218">
        <ele>540</ele>
        <time>2022-05-12T12:39:00Z</time>
      </trkpt>
      <trkpt lat="46.67613" lon="5.62185">
        <ele>539</ele>
        <time>2022-05-12T12:39:04Z</time>
      </trkpt>
      <trkpt lat="46.67618" lon="5.62189">
        <ele>538</ele>
        <time>2022-05-12T12:39:09Z</time>
      </trkpt>
      <trkpt lat="46.67622" lon="5.62193">
        <ele>537</ele>
        <time>2022-05-12T12:39:15Z</time>
      </trkpt>
      <trkpt lat="46.67627" lon="5.62196">
        <ele>536.3</ele>
        <time>2022-05-12T12:39:20Z</time>
      </trkpt>
      <trkpt lat="46.67631" lon="5.62201">
        <ele>535.4</ele>
        <time>2022-05-12T12:39:25Z</time>
      </trkpt>
      <trkpt lat="46.67635" lon="5.62206">
        <ele>534.7</ele>
        <time>2022-05-12T12:39:30Z</time>
      </trkpt>
      <trkpt lat="46.6764" lon="5.62209">
        <ele>534.6</ele>
        <time>2022-05-12T12:39:35Z</time>
      </trkpt>
      <trkpt lat="46.67644" lon="5.62214">
        <ele>533.8</ele>
        <time>2022-05-12T12:39:42Z</time>
      </trkpt>
      <trkpt lat="46.67648" lon="5.62218">
        <ele>532.7</ele>
        <time>2022-05-12T12:39:48Z</time>
      </trkpt>
      <trkpt lat="46.67652" lon="5.62223">
        <ele>531.9</ele>
        <time>2022-05-12T12:39:53Z</time>
      </trkpt>
      <trkpt lat="46.67656" lon="5.62229">
        <ele>530.6</ele>
        <time>2022-05-12T12:39:58Z</time>
      </trkpt>
      <trkpt lat="46.67659" lon="5.62235">
        <ele>530</ele>
        <time>2022-05-12T12:40:03Z</time>
      </trkpt>
      <trkpt lat="46.67664" lon="5.6224">
        <ele>530.3</ele>
        <time>2022-05-12T12:40:08Z</time>
      </trkpt>
      <trkpt lat="46.67667" lon="5.62244">
        <ele>530.4</ele>
        <time>2022-05-12T12:40:14Z</time>
      </trkpt>
      <trkpt lat="46.67671" lon="5.62248">
        <ele>530.5</ele>
        <time>2022-05-12T12:40:19Z</time>
      </trkpt>
      <trkpt lat="46.67676" lon="5.62252">
        <ele>530.6</ele>
        <time>2022-05-12T12:40:24Z</time>
      </trkpt>
      <trkpt lat="46.67681" lon="5.62254">
        <ele>530.8</ele>
        <time>2022-05-12T12:40:29Z</time>
      </trkpt>
      <trkpt lat="46.67685" lon="5.62257">
        <ele>530.7</ele>
        <time>2022-05-12T12:40:34Z</time>
      </trkpt>
      <trkpt lat="46.6769" lon="5.62259">
        <ele>531.1</ele>
        <time>2022-05-12T12:40:40Z</time>
      </trkpt>
      <trkpt lat="46.67695" lon="5.62261">
        <ele>531.5</ele>
        <time>2022-05-12T12:40:44Z</time>
      </trkpt>
      <trkpt lat="46.677" lon="5.62261">
        <ele>531.9</ele>
        <time>2022-05-12T12:40:50Z</time>
      </trkpt>
      <trkpt lat="46.67706" lon="5.6226">
        <ele>531.7</ele>
        <time>2022-05-12T12:40:56Z</time>
      </trkpt>
      <trkpt lat="46.67711" lon="5.6226">
        <ele>531.3</ele>
        <time>2022-05-12T12:40:59Z</time>
      </trkpt>
      <trkpt lat="46.67716" lon="5.62258">
        <ele>531</ele>
        <time>2022-05-12T12:41:02Z</time>
      </trkpt>
      <trkpt lat="46.67721" lon="5.62258">
        <ele>530.8</ele>
        <time>2022-05-12T12:41:06Z</time>
      </trkpt>
      <trkpt lat="46.67726" lon="5.62259">
        <ele>530.7</ele>
        <time>2022-05-12T12:41:11Z</time>
      </trkpt>
      <trkpt lat="46.67731" lon="5.62259">
        <ele>530.6</ele>
        <time>2022-05-12T12:41:16Z</time>
      </trkpt>
      <trkpt lat="46.67735" lon="5.62262">
        <ele>530.5</ele>
        <time>2022-05-12T12:41:21Z</time>
      </trkpt>
      <trkpt lat="46.6774" lon="5.62262">
        <ele>530.7</ele>
        <time>2022-05-12T12:41:26Z</time>
      </trkpt>
      <trkpt lat="46.6774" lon="5.62255">
        <ele>531.8</ele>
        <time>2022-05-12T12:41:43Z</time>
      </trkpt>
      <trkpt lat="46.67735" lon="5.62254">
        <ele>532.8</ele>
        <time>2022-05-12T12:41:52Z</time>
      </trkpt>
      <trkpt lat="46.67738" lon="5.6226">
        <ele>534.5</ele>
        <time>2022-05-12T12:43:42Z</time>
      </trkpt>
      <trkpt lat="46.67743" lon="5.62262">
        <ele>532.9</ele>
        <time>2022-05-12T12:43:47Z</time>
      </trkpt>
      <trkpt lat="46.67748" lon="5.62265">
        <ele>531.2</ele>
        <time>2022-05-12T12:43:52Z</time>
      </trkpt>
      <trkpt lat="46.67753" lon="5.62268">
        <ele>529.8</ele>
        <time>2022-05-12T12:43:56Z</time>
      </trkpt>
      <trkpt lat="46.67757" lon="5.62273">
        <ele>527.5</ele>
        <time>2022-05-12T12:44:03Z</time>
      </trkpt>
      <trkpt lat="46.6776" lon="5.62278">
        <ele>526.6</ele>
        <time>2022-05-12T12:44:08Z</time>
      </trkpt>
      <trkpt lat="46.67764" lon="5.62283">
        <ele>525.7</ele>
        <time>2022-05-12T12:44:13Z</time>
      </trkpt>
      <trkpt lat="46.67767" lon="5.62288">
        <ele>525.3</ele>
        <time>2022-05-12T12:44:18Z</time>
      </trkpt>
      <trkpt lat="46.67771" lon="5.62293">
        <ele>525</ele>
        <time>2022-05-12T12:44:23Z</time>
      </trkpt>
      <trkpt lat="46.67775" lon="5.62296">
        <ele>525</ele>
        <time>2022-05-12T12:44:27Z</time>
      </trkpt>
      <trkpt lat="46.67779" lon="5.623">
        <ele>525.1</ele>
        <time>2022-05-12T12:44:31Z</time>
      </trkpt>
      <trkpt lat="46.67783" lon="5.62305">
        <ele>525.3</ele>
        <time>2022-05-12T12:44:36Z</time>
      </trkpt>
      <trkpt lat="46.67786" lon="5.6231">
        <ele>525.7</ele>
        <time>2022-05-12T12:44:40Z</time>
      </trkpt>
      <trkpt lat="46.6779" lon="5.62315">
        <ele>525.9</ele>
        <time>2022-05-12T12:44:44Z</time>
      </trkpt>
      <trkpt lat="46.67795" lon="5.62319">
        <ele>525.9</ele>
        <time>2022-05-12T12:44:50Z</time>
      </trkpt>
      <trkpt lat="46.67799" lon="5.62321">
        <ele>526</ele>
        <time>2022-05-12T12:44:53Z</time>
      </trkpt>
      <trkpt lat="46.67804" lon="5.62325">
        <ele>525.8</ele>
        <time>2022-05-12T12:44:58Z</time>
      </trkpt>
      <trkpt lat="46.67808" lon="5.62328">
        <ele>525.4</ele>
        <time>2022-05-12T12:45:02Z</time>
      </trkpt>
      <trkpt lat="46.67813" lon="5.6233">
        <ele>524.9</ele>
        <time>2022-05-12T12:45:07Z</time>
      </trkpt>
      <trkpt lat="46.67817" lon="5.62334">
        <ele>524.8</ele>
        <time>2022-05-12T12:45:12Z</time>
      </trkpt>
      <trkpt lat="46.67821" lon="5.62337">
        <ele>525.1</ele>
        <time>2022-05-12T12:45:18Z</time>
      </trkpt>
      <trkpt lat="46.67825" lon="5.62341">
        <ele>525.5</ele>
        <time>2022-05-12T12:45:23Z</time>
      </trkpt>
      <trkpt lat="46.67828" lon="5.62347">
        <ele>525.7</ele>
        <time>2022-05-12T12:45:27Z</time>
      </trkpt>
      <trkpt lat="46.67831" lon="5.62352">
        <ele>525.8</ele>
        <time>2022-05-12T12:45:31Z</time>
      </trkpt>
      <trkpt lat="46.67836" lon="5.62355">
        <ele>525.7</ele>
        <time>2022-05-12T12:45:35Z</time>
      </trkpt>
      <trkpt lat="46.67839" lon="5.6236">
        <ele>526</ele>
        <time>2022-05-12T12:45:39Z</time>
      </trkpt>
      <trkpt lat="46.67842" lon="5.62365">
        <ele>527</ele>
        <time>2022-05-12T12:45:45Z</time>
      </trkpt>
      <trkpt lat="46.67846" lon="5.62369">
        <ele>527.9</ele>
        <time>2022-05-12T12:45:49Z</time>
      </trkpt>
      <trkpt lat="46.67849" lon="5.62374">
        <ele>528.8</ele>
        <time>2022-05-12T12:45:53Z</time>
      </trkpt>
      <trkpt lat="46.67853" lon="5.62379">
        <ele>529.6</ele>
        <time>2022-05-12T12:45:58Z</time>
      </trkpt>
      <trkpt lat="46.67858" lon="5.62384">
        <ele>530.1</ele>
        <time>2022-05-12T12:46:02Z</time>
      </trkpt>
      <trkpt lat="46.6786" lon="5.6239">
        <ele>530.9</ele>
        <time>2022-05-12T12:46:07Z</time>
      </trkpt>
      <trkpt lat="46.67864" lon="5.62394">
        <ele>531.2</ele>
        <time>2022-05-12T12:46:13Z</time>
      </trkpt>
      <trkpt lat="46.67867" lon="5.624">
        <ele>531.4</ele>
        <time>2022-05-12T12:46:19Z</time>
      </trkpt>
      <trkpt lat="46.6787" lon="5.62407">
        <ele>531.6</ele>
        <time>2022-05-12T12:46:24Z</time>
      </trkpt>
      <trkpt lat="46.67873" lon="5.62414">
        <ele>531.7</ele>
        <time>2022-05-12T12:46:29Z</time>
      </trkpt>
      <trkpt lat="46.67877" lon="5.62418">
        <ele>532</ele>
        <time>2022-05-12T12:46:33Z</time>
      </trkpt>
      <trkpt lat="46.67881" lon="5.62422">
        <ele>532.8</ele>
        <time>2022-05-12T12:46:38Z</time>
      </trkpt>
      <trkpt lat="46.67885" lon="5.62426">
        <ele>533.4</ele>
        <time>2022-05-12T12:46:43Z</time>
      </trkpt>
      <trkpt lat="46.67891" lon="5.62428">
        <ele>534.4</ele>
        <time>2022-05-12T12:46:48Z</time>
      </trkpt>
      <trkpt lat="46.67895" lon="5.62428">
        <ele>534.7</ele>
        <time>2022-05-12T12:46:52Z</time>
      </trkpt>
      <trkpt lat="46.679" lon="5.6243">
        <ele>535.5</ele>
        <time>2022-05-12T12:46:57Z</time>
      </trkpt>
      <trkpt lat="46.67906" lon="5.62431">
        <ele>536.8</ele>
        <time>2022-05-12T12:47:02Z</time>
      </trkpt>
      <trkpt lat="46.67911" lon="5.62431">
        <ele>538.2</ele>
        <time>2022-05-12T12:47:07Z</time>
      </trkpt>
      <trkpt lat="46.67916" lon="5.62431">
        <ele>539.5</ele>
        <time>2022-05-12T12:47:11Z</time>
      </trkpt>
      <trkpt lat="46.67921" lon="5.62432">
        <ele>541.1</ele>
        <time>2022-05-12T12:47:16Z</time>
      </trkpt>
      <trkpt lat="46.67925" lon="5.62432">
        <ele>542.4</ele>
        <time>2022-05-12T12:47:22Z</time>
      </trkpt>
      <trkpt lat="46.6793" lon="5.62431">
        <ele>543.6</ele>
        <time>2022-05-12T12:47:28Z</time>
      </trkpt>
      <trkpt lat="46.67926" lon="5.62429">
        <ele>543.5</ele>
        <time>2022-05-12T12:48:44Z</time>
      </trkpt>
      <trkpt lat="46.67928" lon="5.62424">
        <ele>539.9</ele>
        <time>2022-05-12T12:49:04Z</time>
      </trkpt>
      <trkpt lat="46.67933" lon="5.6242">
        <ele>535.8</ele>
        <time>2022-05-12T12:49:22Z</time>
      </trkpt>
      <trkpt lat="46.6793" lon="5.62426">
        <ele>535.4</ele>
        <time>2022-05-12T12:49:39Z</time>
      </trkpt>
      <trkpt lat="46.67929" lon="5.62433">
        <ele>536.1</ele>
        <time>2022-05-12T12:49:43Z</time>
      </trkpt>
      <trkpt lat="46.67925" lon="5.62438">
        <ele>540.8</ele>
        <time>2022-05-12T12:50:39Z</time>
      </trkpt>
      <trkpt lat="46.67924" lon="5.6243">
        <ele>539.1</ele>
        <time>2022-05-12T12:51:22Z</time>
      </trkpt>
      <trkpt lat="46.67926" lon="5.62424">
        <ele>538.3</ele>
        <time>2022-05-12T12:51:28Z</time>
      </trkpt>
      <trkpt lat="46.6793" lon="5.62424">
        <ele>538</ele>
        <time>2022-05-12T12:51:34Z</time>
      </trkpt>
      <trkpt lat="46.67935" lon="5.62427">
        <ele>537.9</ele>
        <time>2022-05-12T12:51:40Z</time>
      </trkpt>
      <trkpt lat="46.67939" lon="5.62429">
        <ele>538.1</ele>
        <time>2022-05-12T12:51:45Z</time>
      </trkpt>
      <trkpt lat="46.67944" lon="5.62435">
        <ele>538.5</ele>
        <time>2022-05-12T12:51:50Z</time>
      </trkpt>
      <trkpt lat="46.67947" lon="5.6244">
        <ele>538.7</ele>
        <time>2022-05-12T12:51:55Z</time>
      </trkpt>
      <trkpt lat="46.6795" lon="5.62446">
        <ele>539.7</ele>
        <time>2022-05-12T12:52:15Z</time>
      </trkpt>
      <trkpt lat="46.67953" lon="5.62453">
        <ele>540.4</ele>
        <time>2022-05-12T12:52:21Z</time>
      </trkpt>
      <trkpt lat="46.67954" lon="5.6246">
        <ele>541</ele>
        <time>2022-05-12T12:52:25Z</time>
      </trkpt>
      <trkpt lat="46.67955" lon="5.62466">
        <ele>540.9</ele>
        <time>2022-05-12T12:52:34Z</time>
      </trkpt>
      <trkpt lat="46.67953" lon="5.62473">
        <ele>541.2</ele>
        <time>2022-05-12T12:52:40Z</time>
      </trkpt>
      <trkpt lat="46.6795" lon="5.62478">
        <ele>541.3</ele>
        <time>2022-05-12T12:52:48Z</time>
      </trkpt>
      <trkpt lat="46.67946" lon="5.62482">
        <ele>541.1</ele>
        <time>2022-05-12T12:52:54Z</time>
      </trkpt>
      <trkpt lat="46.67943" lon="5.62489">
        <ele>541</ele>
        <time>2022-05-12T12:52:59Z</time>
      </trkpt>
      <trkpt lat="46.6794" lon="5.62495">
        <ele>540.9</ele>
        <time>2022-05-12T12:53:03Z</time>
      </trkpt>
      <trkpt lat="46.67937" lon="5.62502">
        <ele>540.6</ele>
        <time>2022-05-12T12:53:08Z</time>
      </trkpt>
      <trkpt lat="46.67935" lon="5.62508">
        <ele>540.5</ele>
        <time>2022-05-12T12:53:12Z</time>
      </trkpt>
      <trkpt lat="46.67932" lon="5.62514">
        <ele>540.7</ele>
        <time>2022-05-12T12:53:17Z</time>
      </trkpt>
      <trkpt lat="46.6793" lon="5.62521">
        <ele>540.2</ele>
        <time>2022-05-12T12:53:23Z</time>
      </trkpt>
      <trkpt lat="46.67926" lon="5.62526">
        <ele>539.9</ele>
        <time>2022-05-12T12:53:28Z</time>
      </trkpt>
      <trkpt lat="46.67924" lon="5.62531">
        <ele>539.6</ele>
        <time>2022-05-12T12:53:34Z</time>
      </trkpt>
      <trkpt lat="46.67921" lon="5.62537">
        <ele>539.6</ele>
        <time>2022-05-12T12:53:39Z</time>
      </trkpt>
      <trkpt lat="46.67918" lon="5.62543">
        <ele>539.4</ele>
        <time>2022-05-12T12:53:43Z</time>
      </trkpt>
      <trkpt lat="46.67915" lon="5.62549">
        <ele>539.1</ele>
        <time>2022-05-12T12:53:48Z</time>
      </trkpt>
      <trkpt lat="46.67913" lon="5.62555">
        <ele>538.5</ele>
        <time>2022-05-12T12:53:52Z</time>
      </trkpt>
      <trkpt lat="46.6791" lon="5.62561">
        <ele>537.8</ele>
        <time>2022-05-12T12:53:57Z</time>
      </trkpt>
      <trkpt lat="46.67907" lon="5.62566">
        <ele>537.4</ele>
        <time>2022-05-12T12:54:01Z</time>
      </trkpt>
      <trkpt lat="46.67903" lon="5.62571">
        <ele>537.4</ele>
        <time>2022-05-12T12:54:07Z</time>
      </trkpt>
      <trkpt lat="46.67899" lon="5.62577">
        <ele>537</ele>
        <time>2022-05-12T12:54:12Z</time>
      </trkpt>
      <trkpt lat="46.67896" lon="5.62582">
        <ele>536.6</ele>
        <time>2022-05-12T12:54:16Z</time>
      </trkpt>
      <trkpt lat="46.67893" lon="5.62588">
        <ele>536.2</ele>
        <time>2022-05-12T12:54:20Z</time>
      </trkpt>
      <trkpt lat="46.67891" lon="5.62595">
        <ele>536.3</ele>
        <time>2022-05-12T12:54:24Z</time>
      </trkpt>
      <trkpt lat="46.67889" lon="5.62602">
        <ele>537</ele>
        <time>2022-05-12T12:54:29Z</time>
      </trkpt>
      <trkpt lat="46.67886" lon="5.62608">
        <ele>537.2</ele>
        <time>2022-05-12T12:54:34Z</time>
      </trkpt>
      <trkpt lat="46.67882" lon="5.62612">
        <ele>537</ele>
        <time>2022-05-12T12:54:38Z</time>
      </trkpt>
      <trkpt lat="46.67878" lon="5.62616">
        <ele>536.6</ele>
        <time>2022-05-12T12:54:42Z</time>
      </trkpt>
      <trkpt lat="46.67874" lon="5.62621">
        <ele>536</ele>
        <time>2022-05-12T12:54:47Z</time>
      </trkpt>
      <trkpt lat="46.67871" lon="5.62627">
        <ele>535.6</ele>
        <time>2022-05-12T12:54:51Z</time>
      </trkpt>
      <trkpt lat="46.67867" lon="5.62633">
        <ele>535.5</ele>
        <time>2022-05-12T12:54:57Z</time>
      </trkpt>
      <trkpt lat="46.67864" lon="5.62639">
        <ele>536</ele>
        <time>2022-05-12T12:55:01Z</time>
      </trkpt>
      <trkpt lat="46.67861" lon="5.62646">
        <ele>536.5</ele>
        <time>2022-05-12T12:55:05Z</time>
      </trkpt>
      <trkpt lat="46.67858" lon="5.62652">
        <ele>536.9</ele>
        <time>2022-05-12T12:55:10Z</time>
      </trkpt>
      <trkpt lat="46.67855" lon="5.62659">
        <ele>536.9</ele>
        <time>2022-05-12T12:55:14Z</time>
      </trkpt>
      <trkpt lat="46.67852" lon="5.62666">
        <ele>536.7</ele>
        <time>2022-05-12T12:55:19Z</time>
      </trkpt>
      <trkpt lat="46.67849" lon="5.62672">
        <ele>536.1</ele>
        <time>2022-05-12T12:55:24Z</time>
      </trkpt>
      <trkpt lat="46.67846" lon="5.62677">
        <ele>535.3</ele>
        <time>2022-05-12T12:55:29Z</time>
      </trkpt>
      <trkpt lat="46.67842" lon="5.62682">
        <ele>534</ele>
        <time>2022-05-12T12:55:35Z</time>
      </trkpt>
      <trkpt lat="46.6784" lon="5.62688">
        <ele>533.3</ele>
        <time>2022-05-12T12:55:41Z</time>
      </trkpt>
      <trkpt lat="46.67836" lon="5.62692">
        <ele>532.8</ele>
        <time>2022-05-12T12:55:46Z</time>
      </trkpt>
      <trkpt lat="46.6783" lon="5.62692">
        <ele>532.3</ele>
        <time>2022-05-12T12:55:50Z</time>
      </trkpt>
      <trkpt lat="46.67825" lon="5.62692">
        <ele>532.6</ele>
        <time>2022-05-12T12:55:54Z</time>
      </trkpt>
      <trkpt lat="46.67821" lon="5.62698">
        <ele>533.3</ele>
        <time>2022-05-12T12:55:59Z</time>
      </trkpt>
      <trkpt lat="46.67819" lon="5.62704">
        <ele>534.3</ele>
        <time>2022-05-12T12:56:03Z</time>
      </trkpt>
      <trkpt lat="46.67817" lon="5.6271">
        <ele>535.4</ele>
        <time>2022-05-12T12:56:07Z</time>
      </trkpt>
      <trkpt lat="46.67814" lon="5.62716">
        <ele>536.6</ele>
        <time>2022-05-12T12:56:13Z</time>
      </trkpt>
      <trkpt lat="46.67811" lon="5.62721">
        <ele>537.7</ele>
        <time>2022-05-12T12:56:17Z</time>
      </trkpt>
      <trkpt lat="46.67807" lon="5.62726">
        <ele>538.8</ele>
        <time>2022-05-12T12:56:22Z</time>
      </trkpt>
      <trkpt lat="46.67805" lon="5.62733">
        <ele>539.3</ele>
        <time>2022-05-12T12:56:27Z</time>
      </trkpt>
      <trkpt lat="46.67803" lon="5.62739">
        <ele>539.5</ele>
        <time>2022-05-12T12:56:31Z</time>
      </trkpt>
      <trkpt lat="46.678" lon="5.62745">
        <ele>539.4</ele>
        <time>2022-05-12T12:56:35Z</time>
      </trkpt>
      <trkpt lat="46.67797" lon="5.62751">
        <ele>539.2</ele>
        <time>2022-05-12T12:56:39Z</time>
      </trkpt>
      <trkpt lat="46.67794" lon="5.62757">
        <ele>539.1</ele>
        <time>2022-05-12T12:56:43Z</time>
      </trkpt>
      <trkpt lat="46.67791" lon="5.62763">
        <ele>539</ele>
        <time>2022-05-12T12:56:47Z</time>
      </trkpt>
      <trkpt lat="46.67787" lon="5.62767">
        <ele>539.3</ele>
        <time>2022-05-12T12:56:51Z</time>
      </trkpt>
      <trkpt lat="46.67784" lon="5.62773">
        <ele>540.2</ele>
        <time>2022-05-12T12:56:56Z</time>
      </trkpt>
      <trkpt lat="46.67781" lon="5.62779">
        <ele>540.7</ele>
        <time>2022-05-12T12:57:00Z</time>
      </trkpt>
      <trkpt lat="46.67778" lon="5.62786">
        <ele>541.3</ele>
        <time>2022-05-12T12:57:04Z</time>
      </trkpt>
      <trkpt lat="46.67775" lon="5.62791">
        <ele>541.5</ele>
        <time>2022-05-12T12:57:08Z</time>
      </trkpt>
      <trkpt lat="46.67772" lon="5.62796">
        <ele>541.5</ele>
        <time>2022-05-12T12:57:12Z</time>
      </trkpt>
      <trkpt lat="46.67769" lon="5.62802">
        <ele>541.2</ele>
        <time>2022-05-12T12:57:17Z</time>
      </trkpt>
      <trkpt lat="46.67766" lon="5.62807">
        <ele>540.4</ele>
        <time>2022-05-12T12:57:22Z</time>
      </trkpt>
      <trkpt lat="46.67763" lon="5.62813">
        <ele>539.4</ele>
        <time>2022-05-12T12:57:28Z</time>
      </trkpt>
      <trkpt lat="46.6776" lon="5.62818">
        <ele>538.9</ele>
        <time>2022-05-12T12:57:33Z</time>
      </trkpt>
      <trkpt lat="46.67756" lon="5.62824">
        <ele>538.1</ele>
        <time>2022-05-12T12:57:38Z</time>
      </trkpt>
      <trkpt lat="46.67753" lon="5.62829">
        <ele>536.9</ele>
        <time>2022-05-12T12:57:44Z</time>
      </trkpt>
      <trkpt lat="46.67752" lon="5.62837">
        <ele>535.4</ele>
        <time>2022-05-12T12:57:50Z</time>
      </trkpt>
      <trkpt lat="46.67751" lon="5.62844">
        <ele>534.5</ele>
        <time>2022-05-12T12:57:54Z</time>
      </trkpt>
      <trkpt lat="46.67749" lon="5.62852">
        <ele>533.9</ele>
        <time>2022-05-12T12:57:58Z</time>
      </trkpt>
      <trkpt lat="46.67749" lon="5.62858">
        <ele>534</ele>
        <time>2022-05-12T12:58:02Z</time>
      </trkpt>
      <trkpt lat="46.67748" lon="5.62865">
        <ele>534.6</ele>
        <time>2022-05-12T12:58:07Z</time>
      </trkpt>
      <trkpt lat="46.67748" lon="5.62873">
        <ele>535.1</ele>
        <time>2022-05-12T12:58:11Z</time>
      </trkpt>
      <trkpt lat="46.67747" lon="5.6288">
        <ele>536</ele>
        <time>2022-05-12T12:58:15Z</time>
      </trkpt>
      <trkpt lat="46.67748" lon="5.62886">
        <ele>536.4</ele>
        <time>2022-05-12T12:58:19Z</time>
      </trkpt>
      <trkpt lat="46.67747" lon="5.62893">
        <ele>536.3</ele>
        <time>2022-05-12T12:58:23Z</time>
      </trkpt>
      <trkpt lat="46.67747" lon="5.629">
        <ele>536.2</ele>
        <time>2022-05-12T12:58:27Z</time>
      </trkpt>
      <trkpt lat="46.67748" lon="5.62906">
        <ele>535.8</ele>
        <time>2022-05-12T12:58:32Z</time>
      </trkpt>
      <trkpt lat="46.67748" lon="5.62914">
        <ele>535.5</ele>
        <time>2022-05-12T12:58:37Z</time>
      </trkpt>
      <trkpt lat="46.67748" lon="5.62921">
        <ele>535.5</ele>
        <time>2022-05-12T12:58:42Z</time>
      </trkpt>
      <trkpt lat="46.67749" lon="5.62929">
        <ele>536</ele>
        <time>2022-05-12T12:58:49Z</time>
      </trkpt>
      <trkpt lat="46.6775" lon="5.62936">
        <ele>536.1</ele>
        <time>2022-05-12T12:58:54Z</time>
      </trkpt>
      <trkpt lat="46.6775" lon="5.62942">
        <ele>535.6</ele>
        <time>2022-05-12T12:58:59Z</time>
      </trkpt>
      <trkpt lat="46.67751" lon="5.6295">
        <ele>534.7</ele>
        <time>2022-05-12T12:59:04Z</time>
      </trkpt>
      <trkpt lat="46.67753" lon="5.62958">
        <ele>533.4</ele>
        <time>2022-05-12T12:59:09Z</time>
      </trkpt>
      <trkpt lat="46.67754" lon="5.62965">
        <ele>533</ele>
        <time>2022-05-12T12:59:13Z</time>
      </trkpt>
      <trkpt lat="46.67756" lon="5.62972">
        <ele>533</ele>
        <time>2022-05-12T12:59:17Z</time>
      </trkpt>
      <trkpt lat="46.67758" lon="5.62978">
        <ele>533.4</ele>
        <time>2022-05-12T12:59:21Z</time>
      </trkpt>
      <trkpt lat="46.67761" lon="5.62985">
        <ele>534</ele>
        <time>2022-05-12T12:59:26Z</time>
      </trkpt>
      <trkpt lat="46.67764" lon="5.6299">
        <ele>534.8</ele>
        <time>2022-05-12T12:59:32Z</time>
      </trkpt>
      <trkpt lat="46.67766" lon="5.62997">
        <ele>535.3</ele>
        <time>2022-05-12T12:59:38Z</time>
      </trkpt>
      <trkpt lat="46.67769" lon="5.63004">
        <ele>535.3</ele>
        <time>2022-05-12T12:59:42Z</time>
      </trkpt>
      <trkpt lat="46.67772" lon="5.6301">
        <ele>535.3</ele>
        <time>2022-05-12T12:59:46Z</time>
      </trkpt>
      <trkpt lat="46.67775" lon="5.63014">
        <ele>535.3</ele>
        <time>2022-05-12T12:59:50Z</time>
      </trkpt>
      <trkpt lat="46.6778" lon="5.63018">
        <ele>535.2</ele>
        <time>2022-05-12T12:59:54Z</time>
      </trkpt>
      <trkpt lat="46.67784" lon="5.63021">
        <ele>535.7</ele>
        <time>2022-05-12T12:59:59Z</time>
      </trkpt>
      <trkpt lat="46.67788" lon="5.63026">
        <ele>536.6</ele>
        <time>2022-05-12T13:00:04Z</time>
      </trkpt>
      <trkpt lat="46.67792" lon="5.63032">
        <ele>537.5</ele>
        <time>2022-05-12T13:00:09Z</time>
      </trkpt>
      <trkpt lat="46.67796" lon="5.63037">
        <ele>537.6</ele>
        <time>2022-05-12T13:00:13Z</time>
      </trkpt>
      <trkpt lat="46.678" lon="5.63041">
        <ele>537.4</ele>
        <time>2022-05-12T13:00:17Z</time>
      </trkpt>
      <trkpt lat="46.67802" lon="5.63047">
        <ele>536.7</ele>
        <time>2022-05-12T13:00:23Z</time>
      </trkpt>
      <trkpt lat="46.67804" lon="5.63054">
        <ele>535.3</ele>
        <time>2022-05-12T13:00:27Z</time>
      </trkpt>
      <trkpt lat="46.67807" lon="5.63059">
        <ele>534.4</ele>
        <time>2022-05-12T13:00:31Z</time>
      </trkpt>
      <trkpt lat="46.67812" lon="5.63061">
        <ele>533.2</ele>
        <time>2022-05-12T13:00:36Z</time>
      </trkpt>
      <trkpt lat="46.67816" lon="5.63065">
        <ele>532.4</ele>
        <time>2022-05-12T13:00:41Z</time>
      </trkpt>
      <trkpt lat="46.67821" lon="5.63066">
        <ele>532</ele>
        <time>2022-05-12T13:00:45Z</time>
      </trkpt>
      <trkpt lat="46.67825" lon="5.63069">
        <ele>532</ele>
        <time>2022-05-12T13:00:49Z</time>
      </trkpt>
      <trkpt lat="46.67829" lon="5.63073">
        <ele>531.9</ele>
        <time>2022-05-12T13:00:54Z</time>
      </trkpt>
      <trkpt lat="46.67833" lon="5.63077">
        <ele>532</ele>
        <time>2022-05-12T13:00:59Z</time>
      </trkpt>
      <trkpt lat="46.67838" lon="5.63081">
        <ele>532</ele>
        <time>2022-05-12T13:01:03Z</time>
      </trkpt>
      <trkpt lat="46.67841" lon="5.63086">
        <ele>531.8</ele>
        <time>2022-05-12T13:01:08Z</time>
      </trkpt>
      <trkpt lat="46.67844" lon="5.63092">
        <ele>531.3</ele>
        <time>2022-05-12T13:01:13Z</time>
      </trkpt>
      <trkpt lat="46.67848" lon="5.63094">
        <ele>531.1</ele>
        <time>2022-05-12T13:01:17Z</time>
      </trkpt>
      <trkpt lat="46.67853" lon="5.63098">
        <ele>530.7</ele>
        <time>2022-05-12T13:01:22Z</time>
      </trkpt>
      <trkpt lat="46.67856" lon="5.63104">
        <ele>530.5</ele>
        <time>2022-05-12T13:01:26Z</time>
      </trkpt>
      <trkpt lat="46.6786" lon="5.63109">
        <ele>530.1</ele>
        <time>2022-05-12T13:01:31Z</time>
      </trkpt>
      <trkpt lat="46.67865" lon="5.63114">
        <ele>529.3</ele>
        <time>2022-05-12T13:01:36Z</time>
      </trkpt>
      <trkpt lat="46.67869" lon="5.63118">
        <ele>528.4</ele>
        <time>2022-05-12T13:01:41Z</time>
      </trkpt>
      <trkpt lat="46.67872" lon="5.63122">
        <ele>527.4</ele>
        <time>2022-05-12T13:01:46Z</time>
      </trkpt>
      <trkpt lat="46.67875" lon="5.63127">
        <ele>526.4</ele>
        <time>2022-05-12T13:01:51Z</time>
      </trkpt>
      <trkpt lat="46.67879" lon="5.6313">
        <ele>526.4</ele>
        <time>2022-05-12T13:01:56Z</time>
      </trkpt>
      <trkpt lat="46.67883" lon="5.63135">
        <ele>527</ele>
        <time>2022-05-12T13:02:01Z</time>
      </trkpt>
      <trkpt lat="46.67888" lon="5.6314">
        <ele>527.4</ele>
        <time>2022-05-12T13:02:05Z</time>
      </trkpt>
      <trkpt lat="46.67892" lon="5.63145">
        <ele>527.6</ele>
        <time>2022-05-12T13:02:09Z</time>
      </trkpt>
      <trkpt lat="46.67895" lon="5.63151">
        <ele>527.9</ele>
        <time>2022-05-12T13:02:14Z</time>
      </trkpt>
      <trkpt lat="46.67898" lon="5.63156">
        <ele>528.8</ele>
        <time>2022-05-12T13:02:20Z</time>
      </trkpt>
      <trkpt lat="46.67901" lon="5.63163">
        <ele>529.6</ele>
        <time>2022-05-12T13:02:25Z</time>
      </trkpt>
      <trkpt lat="46.67903" lon="5.63169">
        <ele>530.1</ele>
        <time>2022-05-12T13:02:29Z</time>
      </trkpt>
      <trkpt lat="46.67905" lon="5.63175">
        <ele>530.4</ele>
        <time>2022-05-12T13:02:33Z</time>
      </trkpt>
      <trkpt lat="46.67907" lon="5.63182">
        <ele>530.2</ele>
        <time>2022-05-12T13:02:38Z</time>
      </trkpt>
      <trkpt lat="46.6791" lon="5.63188">
        <ele>530.3</ele>
        <time>2022-05-12T13:02:43Z</time>
      </trkpt>
      <trkpt lat="46.67913" lon="5.63194">
        <ele>530.6</ele>
        <time>2022-05-12T13:02:48Z</time>
      </trkpt>
      <trkpt lat="46.67916" lon="5.63201">
        <ele>531</ele>
        <time>2022-05-12T13:02:53Z</time>
      </trkpt>
      <trkpt lat="46.67918" lon="5.63207">
        <ele>531.2</ele>
        <time>2022-05-12T13:02:57Z</time>
      </trkpt>
      <trkpt lat="46.6792" lon="5.63214">
        <ele>531.2</ele>
        <time>2022-05-12T13:03:02Z</time>
      </trkpt>
      <trkpt lat="46.67921" lon="5.63222">
        <ele>531</ele>
        <time>2022-05-12T13:03:07Z</time>
      </trkpt>
      <trkpt lat="46.67924" lon="5.63227">
        <ele>530.8</ele>
        <time>2022-05-12T13:03:12Z</time>
      </trkpt>
      <trkpt lat="46.67928" lon="5.63232">
        <ele>530.7</ele>
        <time>2022-05-12T13:03:16Z</time>
      </trkpt>
      <trkpt lat="46.6793" lon="5.63237">
        <ele>530.9</ele>
        <time>2022-05-12T13:03:20Z</time>
      </trkpt>
      <trkpt lat="46.67931" lon="5.63244">
        <ele>531.8</ele>
        <time>2022-05-12T13:03:26Z</time>
      </trkpt>
      <trkpt lat="46.67934" lon="5.63251">
        <ele>532.1</ele>
        <time>2022-05-12T13:03:33Z</time>
      </trkpt>
      <trkpt lat="46.67935" lon="5.63258">
        <ele>531.4</ele>
        <time>2022-05-12T13:03:39Z</time>
      </trkpt>
      <trkpt lat="46.67937" lon="5.63265">
        <ele>531.7</ele>
        <time>2022-05-12T13:03:43Z</time>
      </trkpt>
      <trkpt lat="46.6794" lon="5.6327">
        <ele>531.3</ele>
        <time>2022-05-12T13:03:47Z</time>
      </trkpt>
      <trkpt lat="46.67943" lon="5.63275">
        <ele>529.8</ele>
        <time>2022-05-12T13:03:53Z</time>
      </trkpt>
      <trkpt lat="46.67944" lon="5.63282">
        <ele>528.6</ele>
        <time>2022-05-12T13:03:58Z</time>
      </trkpt>
      <trkpt lat="46.67945" lon="5.63289">
        <ele>528</ele>
        <time>2022-05-12T13:04:02Z</time>
      </trkpt>
      <trkpt lat="46.67947" lon="5.63296">
        <ele>528.1</ele>
        <time>2022-05-12T13:04:07Z</time>
      </trkpt>
      <trkpt lat="46.6795" lon="5.63302">
        <ele>527.9</ele>
        <time>2022-05-12T13:04:13Z</time>
      </trkpt>
      <trkpt lat="46.67954" lon="5.63308">
        <ele>527.6</ele>
        <time>2022-05-12T13:04:19Z</time>
      </trkpt>
      <trkpt lat="46.67956" lon="5.63313">
        <ele>526.7</ele>
        <time>2022-05-12T13:04:25Z</time>
      </trkpt>
      <trkpt lat="46.67958" lon="5.63321">
        <ele>526</ele>
        <time>2022-05-12T13:04:30Z</time>
      </trkpt>
      <trkpt lat="46.6796" lon="5.63328">
        <ele>525.8</ele>
        <time>2022-05-12T13:04:34Z</time>
      </trkpt>
      <trkpt lat="46.67962" lon="5.63336">
        <ele>525.5</ele>
        <time>2022-05-12T13:04:39Z</time>
      </trkpt>
      <trkpt lat="46.67964" lon="5.63343">
        <ele>524.7</ele>
        <time>2022-05-12T13:04:46Z</time>
      </trkpt>
      <trkpt lat="46.67965" lon="5.63349">
        <ele>524.3</ele>
        <time>2022-05-12T13:04:51Z</time>
      </trkpt>
      <trkpt lat="46.67966" lon="5.63356">
        <ele>524.3</ele>
        <time>2022-05-12T13:04:56Z</time>
      </trkpt>
      <trkpt lat="46.67967" lon="5.63363">
        <ele>524.5</ele>
        <time>2022-05-12T13:05:01Z</time>
      </trkpt>
      <trkpt lat="46.67967" lon="5.63371">
        <ele>524.6</ele>
        <time>2022-05-12T13:05:06Z</time>
      </trkpt>
      <trkpt lat="46.67966" lon="5.63379">
        <ele>524.4</ele>
        <time>2022-05-12T13:05:11Z</time>
      </trkpt>
      <trkpt lat="46.67968" lon="5.63386">
        <ele>524.3</ele>
        <time>2022-05-12T13:05:16Z</time>
      </trkpt>
      <trkpt lat="46.67971" lon="5.63391">
        <ele>524.4</ele>
        <time>2022-05-12T13:05:21Z</time>
      </trkpt>
      <trkpt lat="46.67974" lon="5.63398">
        <ele>525</ele>
        <time>2022-05-12T13:05:26Z</time>
      </trkpt>
      <trkpt lat="46.67974" lon="5.63404">
        <ele>525.5</ele>
        <time>2022-05-12T13:05:31Z</time>
      </trkpt>
      <trkpt lat="46.67976" lon="5.63412">
        <ele>526.1</ele>
        <time>2022-05-12T13:05:36Z</time>
      </trkpt>
      <trkpt lat="46.67977" lon="5.63418">
        <ele>526.6</ele>
        <time>2022-05-12T13:05:40Z</time>
      </trkpt>
      <trkpt lat="46.67977" lon="5.63425">
        <ele>527.2</ele>
        <time>2022-05-12T13:05:45Z</time>
      </trkpt>
      <trkpt lat="46.67975" lon="5.63432">
        <ele>527.5</ele>
        <time>2022-05-12T13:05:49Z</time>
      </trkpt>
      <trkpt lat="46.67975" lon="5.63439">
        <ele>527.9</ele>
        <time>2022-05-12T13:05:53Z</time>
      </trkpt>
      <trkpt lat="46.67976" lon="5.63446">
        <ele>528.8</ele>
        <time>2022-05-12T13:05:58Z</time>
      </trkpt>
      <trkpt lat="46.67977" lon="5.63453">
        <ele>529.3</ele>
        <time>2022-05-12T13:06:02Z</time>
      </trkpt>
      <trkpt lat="46.67976" lon="5.6346">
        <ele>529.1</ele>
        <time>2022-05-12T13:06:08Z</time>
      </trkpt>
      <trkpt lat="46.67977" lon="5.63467">
        <ele>528.2</ele>
        <time>2022-05-12T13:06:15Z</time>
      </trkpt>
      <trkpt lat="46.67981" lon="5.63469">
        <ele>529.8</ele>
        <time>2022-05-12T13:06:38Z</time>
      </trkpt>
      <trkpt lat="46.67981" lon="5.63477">
        <ele>524.2</ele>
        <time>2022-05-12T13:07:16Z</time>
      </trkpt>
      <trkpt lat="46.67982" lon="5.63483">
        <ele>522.7</ele>
        <time>2022-05-12T13:07:21Z</time>
      </trkpt>
      <trkpt lat="46.67983" lon="5.6349">
        <ele>522</ele>
        <time>2022-05-12T13:07:26Z</time>
      </trkpt>
      <trkpt lat="46.67983" lon="5.63497">
        <ele>522</ele>
        <time>2022-05-12T13:07:32Z</time>
      </trkpt>
      <trkpt lat="46.67986" lon="5.63504">
        <ele>522</ele>
        <time>2022-05-12T13:07:39Z</time>
      </trkpt>
      <trkpt lat="46.67987" lon="5.63511">
        <ele>522.2</ele>
        <time>2022-05-12T13:07:44Z</time>
      </trkpt>
      <trkpt lat="46.67988" lon="5.63518">
        <ele>522.4</ele>
        <time>2022-05-12T13:07:50Z</time>
      </trkpt>
      <trkpt lat="46.67989" lon="5.63525">
        <ele>521.6</ele>
        <time>2022-05-12T13:07:57Z</time>
      </trkpt>
      <trkpt lat="46.67991" lon="5.63532">
        <ele>519.8</ele>
        <time>2022-05-12T13:08:03Z</time>
      </trkpt>
      <trkpt lat="46.67991" lon="5.63539">
        <ele>518.4</ele>
        <time>2022-05-12T13:08:09Z</time>
      </trkpt>
      <trkpt lat="46.67992" lon="5.63546">
        <ele>517.6</ele>
        <time>2022-05-12T13:08:15Z</time>
      </trkpt>
      <trkpt lat="46.67993" lon="5.63553">
        <ele>517.2</ele>
        <time>2022-05-12T13:08:20Z</time>
      </trkpt>
      <trkpt lat="46.67993" lon="5.63561">
        <ele>517.6</ele>
        <time>2022-05-12T13:08:25Z</time>
      </trkpt>
      <trkpt lat="46.67996" lon="5.63568">
        <ele>517.7</ele>
        <time>2022-05-12T13:08:31Z</time>
      </trkpt>
      <trkpt lat="46.67997" lon="5.63575">
        <ele>517.5</ele>
        <time>2022-05-12T13:08:36Z</time>
      </trkpt>
      <trkpt lat="46.67998" lon="5.63582">
        <ele>517.2</ele>
        <time>2022-05-12T13:08:41Z</time>
      </trkpt>
      <trkpt lat="46.68" lon="5.63589">
        <ele>516.9</ele>
        <time>2022-05-12T13:08:46Z</time>
      </trkpt>
      <trkpt lat="46.68" lon="5.63596">
        <ele>516.4</ele>
        <time>2022-05-12T13:08:51Z</time>
      </trkpt>
      <trkpt lat="46.68002" lon="5.63603">
        <ele>514.9</ele>
        <time>2022-05-12T13:08:57Z</time>
      </trkpt>
      <trkpt lat="46.68003" lon="5.6361">
        <ele>513.2</ele>
        <time>2022-05-12T13:09:02Z</time>
      </trkpt>
      <trkpt lat="46.68005" lon="5.63617">
        <ele>511.8</ele>
        <time>2022-05-12T13:09:07Z</time>
      </trkpt>
      <trkpt lat="46.68007" lon="5.63623">
        <ele>510.4</ele>
        <time>2022-05-12T13:09:13Z</time>
      </trkpt>
      <trkpt lat="46.68009" lon="5.6363">
        <ele>509.6</ele>
        <time>2022-05-12T13:09:19Z</time>
      </trkpt>
      <trkpt lat="46.68011" lon="5.63637">
        <ele>509.5</ele>
        <time>2022-05-12T13:09:25Z</time>
      </trkpt>
      <trkpt lat="46.68014" lon="5.63644">
        <ele>509.3</ele>
        <time>2022-05-12T13:09:30Z</time>
      </trkpt>
      <trkpt lat="46.68016" lon="5.63649">
        <ele>509.5</ele>
        <time>2022-05-12T13:09:35Z</time>
      </trkpt>
      <trkpt lat="46.68019" lon="5.63655">
        <ele>509.6</ele>
        <time>2022-05-12T13:09:41Z</time>
      </trkpt>
      <trkpt lat="46.6802" lon="5.63662">
        <ele>509</ele>
        <time>2022-05-12T13:09:46Z</time>
      </trkpt>
      <trkpt lat="46.68021" lon="5.63669">
        <ele>508.4</ele>
        <time>2022-05-12T13:09:50Z</time>
      </trkpt>
      <trkpt lat="46.68023" lon="5.63676">
        <ele>507.7</ele>
        <time>2022-05-12T13:09:55Z</time>
      </trkpt>
      <trkpt lat="46.68025" lon="5.63683">
        <ele>507.1</ele>
        <time>2022-05-12T13:10:00Z</time>
      </trkpt>
      <trkpt lat="46.68025" lon="5.6369">
        <ele>506.8</ele>
        <time>2022-05-12T13:10:05Z</time>
      </trkpt>
      <trkpt lat="46.68025" lon="5.63697">
        <ele>507.4</ele>
        <time>2022-05-12T13:10:10Z</time>
      </trkpt>
      <trkpt lat="46.68026" lon="5.63703">
        <ele>507.9</ele>
        <time>2022-05-12T13:10:14Z</time>
      </trkpt>
      <trkpt lat="46.68026" lon="5.63711">
        <ele>507.9</ele>
        <time>2022-05-12T13:10:19Z</time>
      </trkpt>
      <trkpt lat="46.68027" lon="5.63718">
        <ele>507.9</ele>
        <time>2022-05-12T13:10:24Z</time>
      </trkpt>
      <trkpt lat="46.68027" lon="5.63725">
        <ele>508.3</ele>
        <time>2022-05-12T13:10:29Z</time>
      </trkpt>
      <trkpt lat="46.68027" lon="5.63732">
        <ele>508.5</ele>
        <time>2022-05-12T13:10:34Z</time>
      </trkpt>
      <trkpt lat="46.68027" lon="5.63739">
        <ele>508.5</ele>
        <time>2022-05-12T13:10:39Z</time>
      </trkpt>
      <trkpt lat="46.68026" lon="5.63747">
        <ele>508.3</ele>
        <time>2022-05-12T13:10:44Z</time>
      </trkpt>
      <trkpt lat="46.68025" lon="5.63754">
        <ele>508</ele>
        <time>2022-05-12T13:10:49Z</time>
      </trkpt>
      <trkpt lat="46.68024" lon="5.63761">
        <ele>507.3</ele>
        <time>2022-05-12T13:10:54Z</time>
      </trkpt>
      <trkpt lat="46.68023" lon="5.63768">
        <ele>507.1</ele>
        <time>2022-05-12T13:11:00Z</time>
      </trkpt>
      <trkpt lat="46.68023" lon="5.63775">
        <ele>507</ele>
        <time>2022-05-12T13:11:06Z</time>
      </trkpt>
      <trkpt lat="46.68022" lon="5.63782">
        <ele>506.9</ele>
        <time>2022-05-12T13:11:12Z</time>
      </trkpt>
      <trkpt lat="46.68023" lon="5.63789">
        <ele>507</ele>
        <time>2022-05-12T13:11:17Z</time>
      </trkpt>
      <trkpt lat="46.68022" lon="5.63797">
        <ele>507.1</ele>
        <time>2022-05-12T13:11:22Z</time>
      </trkpt>
      <trkpt lat="46.6802" lon="5.63803">
        <ele>507.3</ele>
        <time>2022-05-12T13:11:27Z</time>
      </trkpt>
      <trkpt lat="46.68019" lon="5.63811">
        <ele>508.2</ele>
        <time>2022-05-12T13:11:32Z</time>
      </trkpt>
      <trkpt lat="46.68019" lon="5.63818">
        <ele>508.6</ele>
        <time>2022-05-12T13:11:36Z</time>
      </trkpt>
      <trkpt lat="46.68017" lon="5.63826">
        <ele>508.8</ele>
        <time>2022-05-12T13:11:41Z</time>
      </trkpt>
      <trkpt lat="46.68016" lon="5.63834">
        <ele>508.9</ele>
        <time>2022-05-12T13:11:46Z</time>
      </trkpt>
      <trkpt lat="46.68016" lon="5.63841">
        <ele>508.9</ele>
        <time>2022-05-12T13:11:50Z</time>
      </trkpt>
      <trkpt lat="46.68016" lon="5.63847">
        <ele>509.1</ele>
        <time>2022-05-12T13:11:54Z</time>
      </trkpt>
      <trkpt lat="46.68017" lon="5.63855">
        <ele>509.2</ele>
        <time>2022-05-12T13:11:59Z</time>
      </trkpt>
      <trkpt lat="46.68019" lon="5.63862">
        <ele>508.7</ele>
        <time>2022-05-12T13:12:03Z</time>
      </trkpt>
      <trkpt lat="46.6802" lon="5.63869">
        <ele>508.2</ele>
        <time>2022-05-12T13:12:08Z</time>
      </trkpt>
      <trkpt lat="46.68023" lon="5.63875">
        <ele>507.6</ele>
        <time>2022-05-12T13:12:13Z</time>
      </trkpt>
      <trkpt lat="46.68024" lon="5.63882">
        <ele>507.1</ele>
        <time>2022-05-12T13:12:20Z</time>
      </trkpt>
      <trkpt lat="46.68028" lon="5.63887">
        <ele>506.9</ele>
        <time>2022-05-12T13:12:25Z</time>
      </trkpt>
      <trkpt lat="46.68031" lon="5.63892">
        <ele>506.8</ele>
        <time>2022-05-12T13:12:29Z</time>
      </trkpt>
      <trkpt lat="46.68034" lon="5.63898">
        <ele>506.2</ele>
        <time>2022-05-12T13:12:35Z</time>
      </trkpt>
      <trkpt lat="46.68039" lon="5.63901">
        <ele>505.5</ele>
        <time>2022-05-12T13:12:40Z</time>
      </trkpt>
      <trkpt lat="46.68042" lon="5.63907">
        <ele>505.6</ele>
        <time>2022-05-12T13:12:46Z</time>
      </trkpt>
      <trkpt lat="46.68046" lon="5.63913">
        <ele>505.5</ele>
        <time>2022-05-12T13:12:51Z</time>
      </trkpt>
      <trkpt lat="46.68049" lon="5.6392">
        <ele>505.7</ele>
        <time>2022-05-12T13:12:57Z</time>
      </trkpt>
      <trkpt lat="46.68052" lon="5.63926">
        <ele>506.2</ele>
        <time>2022-05-12T13:13:03Z</time>
      </trkpt>
      <trkpt lat="46.68054" lon="5.63932">
        <ele>506.9</ele>
        <time>2022-05-12T13:13:08Z</time>
      </trkpt>
      <trkpt lat="46.68056" lon="5.63939">
        <ele>508</ele>
        <time>2022-05-12T13:13:13Z</time>
      </trkpt>
      <trkpt lat="46.68058" lon="5.63946">
        <ele>509.3</ele>
        <time>2022-05-12T13:13:18Z</time>
      </trkpt>
      <trkpt lat="46.68059" lon="5.63952">
        <ele>510.4</ele>
        <time>2022-05-12T13:13:24Z</time>
      </trkpt>
      <trkpt lat="46.6806" lon="5.6396">
        <ele>511</ele>
        <time>2022-05-12T13:13:29Z</time>
      </trkpt>
      <trkpt lat="46.68062" lon="5.63967">
        <ele>511.4</ele>
        <time>2022-05-12T13:13:34Z</time>
      </trkpt>
      <trkpt lat="46.68064" lon="5.63974">
        <ele>511.3</ele>
        <time>2022-05-12T13:13:39Z</time>
      </trkpt>
      <trkpt lat="46.68065" lon="5.63981">
        <ele>511.4</ele>
        <time>2022-05-12T13:13:44Z</time>
      </trkpt>
      <trkpt lat="46.68066" lon="5.63987">
        <ele>511.6</ele>
        <time>2022-05-12T13:13:49Z</time>
      </trkpt>
      <trkpt lat="46.68068" lon="5.63993">
        <ele>511.5</ele>
        <time>2022-05-12T13:13:54Z</time>
      </trkpt>
      <trkpt lat="46.68069" lon="5.64">
        <ele>511.8</ele>
        <time>2022-05-12T13:14:00Z</time>
      </trkpt>
      <trkpt lat="46.6807" lon="5.64008">
        <ele>512.7</ele>
        <time>2022-05-12T13:14:07Z</time>
      </trkpt>
      <trkpt lat="46.68071" lon="5.64015">
        <ele>513.2</ele>
        <time>2022-05-12T13:14:12Z</time>
      </trkpt>
      <trkpt lat="46.68072" lon="5.64022">
        <ele>513.3</ele>
        <time>2022-05-12T13:14:17Z</time>
      </trkpt>
      <trkpt lat="46.68074" lon="5.64029">
        <ele>513.2</ele>
        <time>2022-05-12T13:14:21Z</time>
      </trkpt>
      <trkpt lat="46.68075" lon="5.64036">
        <ele>513.3</ele>
        <time>2022-05-12T13:14:25Z</time>
      </trkpt>
      <trkpt lat="46.68077" lon="5.64042">
        <ele>513.4</ele>
        <time>2022-05-12T13:14:29Z</time>
      </trkpt>
      <trkpt lat="46.68079" lon="5.64048">
        <ele>513.8</ele>
        <time>2022-05-12T13:14:34Z</time>
      </trkpt>
      <trkpt lat="46.6808" lon="5.64055">
        <ele>514.2</ele>
        <time>2022-05-12T13:14:39Z</time>
      </trkpt>
      <trkpt lat="46.6808" lon="5.64062">
        <ele>514</ele>
        <time>2022-05-12T13:14:44Z</time>
      </trkpt>
      <trkpt lat="46.6808" lon="5.64069">
        <ele>513.4</ele>
        <time>2022-05-12T13:14:49Z</time>
      </trkpt>
      <trkpt lat="46.6808" lon="5.64077">
        <ele>513.2</ele>
        <time>2022-05-12T13:14:54Z</time>
      </trkpt>
      <trkpt lat="46.68081" lon="5.64083">
        <ele>513.3</ele>
        <time>2022-05-12T13:14:59Z</time>
      </trkpt>
      <trkpt lat="46.68081" lon="5.6409">
        <ele>513.4</ele>
        <time>2022-05-12T13:15:04Z</time>
      </trkpt>
      <trkpt lat="46.68084" lon="5.64097">
        <ele>513</ele>
        <time>2022-05-12T13:15:09Z</time>
      </trkpt>
      <trkpt lat="46.68085" lon="5.64103">
        <ele>512.8</ele>
        <time>2022-05-12T13:15:14Z</time>
      </trkpt>
      <trkpt lat="46.68086" lon="5.6411">
        <ele>512.7</ele>
        <time>2022-05-12T13:15:20Z</time>
      </trkpt>
      <trkpt lat="46.68087" lon="5.64117">
        <ele>512.6</ele>
        <time>2022-05-12T13:15:26Z</time>
      </trkpt>
      <trkpt lat="46.68089" lon="5.64124">
        <ele>511.8</ele>
        <time>2022-05-12T13:15:31Z</time>
      </trkpt>
      <trkpt lat="46.6809" lon="5.64131">
        <ele>510.9</ele>
        <time>2022-05-12T13:15:36Z</time>
      </trkpt>
      <trkpt lat="46.68091" lon="5.64138">
        <ele>510.6</ele>
        <time>2022-05-12T13:15:41Z</time>
      </trkpt>
      <trkpt lat="46.68093" lon="5.64144">
        <ele>510.2</ele>
        <time>2022-05-12T13:15:46Z</time>
      </trkpt>
      <trkpt lat="46.68096" lon="5.64151">
        <ele>509.6</ele>
        <time>2022-05-12T13:15:51Z</time>
      </trkpt>
      <trkpt lat="46.68098" lon="5.64158">
        <ele>509.7</ele>
        <time>2022-05-12T13:15:56Z</time>
      </trkpt>
      <trkpt lat="46.681" lon="5.64164">
        <ele>510.1</ele>
        <time>2022-05-12T13:16:01Z</time>
      </trkpt>
      <trkpt lat="46.68102" lon="5.64172">
        <ele>510.1</ele>
        <time>2022-05-12T13:16:06Z</time>
      </trkpt>
      <trkpt lat="46.68105" lon="5.64177">
        <ele>510.3</ele>
        <time>2022-05-12T13:16:10Z</time>
      </trkpt>
      <trkpt lat="46.68106" lon="5.64184">
        <ele>510.4</ele>
        <time>2022-05-12T13:16:15Z</time>
      </trkpt>
      <trkpt lat="46.68106" lon="5.64191">
        <ele>509.9</ele>
        <time>2022-05-12T13:16:20Z</time>
      </trkpt>
      <trkpt lat="46.68106" lon="5.64198">
        <ele>509.2</ele>
        <time>2022-05-12T13:16:25Z</time>
      </trkpt>
      <trkpt lat="46.68108" lon="5.64205">
        <ele>508.3</ele>
        <time>2022-05-12T13:16:30Z</time>
      </trkpt>
      <trkpt lat="46.6811" lon="5.64212">
        <ele>507.6</ele>
        <time>2022-05-12T13:16:34Z</time>
      </trkpt>
      <trkpt lat="46.68112" lon="5.64218">
        <ele>507.1</ele>
        <time>2022-05-12T13:16:38Z</time>
      </trkpt>
      <trkpt lat="46.68113" lon="5.64225">
        <ele>506.7</ele>
        <time>2022-05-12T13:16:42Z</time>
      </trkpt>
      <trkpt lat="46.68114" lon="5.64231">
        <ele>506.8</ele>
        <time>2022-05-12T13:16:46Z</time>
      </trkpt>
      <trkpt lat="46.68117" lon="5.64239">
        <ele>507.3</ele>
        <time>2022-05-12T13:16:51Z</time>
      </trkpt>
      <trkpt lat="46.68119" lon="5.64245">
        <ele>508.1</ele>
        <time>2022-05-12T13:16:56Z</time>
      </trkpt>
      <trkpt lat="46.68122" lon="5.64251">
        <ele>508.6</ele>
        <time>2022-05-12T13:17:01Z</time>
      </trkpt>
      <trkpt lat="46.68125" lon="5.64257">
        <ele>508.2</ele>
        <time>2022-05-12T13:17:05Z</time>
      </trkpt>
      <trkpt lat="46.68128" lon="5.64262">
        <ele>507.6</ele>
        <time>2022-05-12T13:17:10Z</time>
      </trkpt>
      <trkpt lat="46.68132" lon="5.64267">
        <ele>507.2</ele>
        <time>2022-05-12T13:17:14Z</time>
      </trkpt>
      <trkpt lat="46.68135" lon="5.64274">
        <ele>507.1</ele>
        <time>2022-05-12T13:17:19Z</time>
      </trkpt>
      <trkpt lat="46.68138" lon="5.64279">
        <ele>507.2</ele>
        <time>2022-05-12T13:17:24Z</time>
      </trkpt>
      <trkpt lat="46.68142" lon="5.64285">
        <ele>507.6</ele>
        <time>2022-05-12T13:17:29Z</time>
      </trkpt>
      <trkpt lat="46.68144" lon="5.6429">
        <ele>507.8</ele>
        <time>2022-05-12T13:17:33Z</time>
      </trkpt>
      <trkpt lat="46.68148" lon="5.64295">
        <ele>508.3</ele>
        <time>2022-05-12T13:17:37Z</time>
      </trkpt>
      <trkpt lat="46.68151" lon="5.643">
        <ele>509.3</ele>
        <time>2022-05-12T13:17:41Z</time>
      </trkpt>
      <trkpt lat="46.68154" lon="5.64305">
        <ele>510.2</ele>
        <time>2022-05-12T13:17:46Z</time>
      </trkpt>
      <trkpt lat="46.68159" lon="5.64311">
        <ele>510.7</ele>
        <time>2022-05-12T13:17:51Z</time>
      </trkpt>
      <trkpt lat="46.68163" lon="5.64316">
        <ele>510.6</ele>
        <time>2022-05-12T13:17:55Z</time>
      </trkpt>
      <trkpt lat="46.68166" lon="5.64321">
        <ele>510.4</ele>
        <time>2022-05-12T13:17:59Z</time>
      </trkpt>
      <trkpt lat="46.68169" lon="5.64327">
        <ele>509.9</ele>
        <time>2022-05-12T13:18:03Z</time>
      </trkpt>
      <trkpt lat="46.68173" lon="5.64331">
        <ele>508.9</ele>
        <time>2022-05-12T13:18:08Z</time>
      </trkpt>
      <trkpt lat="46.68177" lon="5.64336">
        <ele>508</ele>
        <time>2022-05-12T13:18:13Z</time>
      </trkpt>
      <trkpt lat="46.68181" lon="5.64342">
        <ele>506.6</ele>
        <time>2022-05-12T13:18:18Z</time>
      </trkpt>
      <trkpt lat="46.68185" lon="5.64346">
        <ele>505.9</ele>
        <time>2022-05-12T13:18:22Z</time>
      </trkpt>
      <trkpt lat="46.6819" lon="5.64351">
        <ele>505.3</ele>
        <time>2022-05-12T13:18:26Z</time>
      </trkpt>
      <trkpt lat="46.68193" lon="5.64356">
        <ele>505.1</ele>
        <time>2022-05-12T13:18:30Z</time>
      </trkpt>
      <trkpt lat="46.68197" lon="5.64362">
        <ele>506</ele>
        <time>2022-05-12T13:18:35Z</time>
      </trkpt>
      <trkpt lat="46.68199" lon="5.64368">
        <ele>506.9</ele>
        <time>2022-05-12T13:18:39Z</time>
      </trkpt>
      <trkpt lat="46.68203" lon="5.64375">
        <ele>507.6</ele>
        <time>2022-05-12T13:18:44Z</time>
      </trkpt>
      <trkpt lat="46.68206" lon="5.64381">
        <ele>507.8</ele>
        <time>2022-05-12T13:18:49Z</time>
      </trkpt>
      <trkpt lat="46.6821" lon="5.64386">
        <ele>508.1</ele>
        <time>2022-05-12T13:18:54Z</time>
      </trkpt>
      <trkpt lat="46.68213" lon="5.64391">
        <ele>507.8</ele>
        <time>2022-05-12T13:18:59Z</time>
      </trkpt>
      <trkpt lat="46.68216" lon="5.64396">
        <ele>506.9</ele>
        <time>2022-05-12T13:19:04Z</time>
      </trkpt>
      <trkpt lat="46.6822" lon="5.64401">
        <ele>506.2</ele>
        <time>2022-05-12T13:19:08Z</time>
      </trkpt>
      <trkpt lat="46.68225" lon="5.64406">
        <ele>505.6</ele>
        <time>2022-05-12T13:19:12Z</time>
      </trkpt>
      <trkpt lat="46.68229" lon="5.64411">
        <ele>505.8</ele>
        <time>2022-05-12T13:19:17Z</time>
      </trkpt>
      <trkpt lat="46.68232" lon="5.64416">
        <ele>506.3</ele>
        <time>2022-05-12T13:19:21Z</time>
      </trkpt>
      <trkpt lat="46.68235" lon="5.64421">
        <ele>507.2</ele>
        <time>2022-05-12T13:19:26Z</time>
      </trkpt>
      <trkpt lat="46.68239" lon="5.64425">
        <ele>507.3</ele>
        <time>2022-05-12T13:19:31Z</time>
      </trkpt>
      <trkpt lat="46.68243" lon="5.6443">
        <ele>506.7</ele>
        <time>2022-05-12T13:19:35Z</time>
      </trkpt>
      <trkpt lat="46.68247" lon="5.64435">
        <ele>505.9</ele>
        <time>2022-05-12T13:19:40Z</time>
      </trkpt>
      <trkpt lat="46.68251" lon="5.6444">
        <ele>505.3</ele>
        <time>2022-05-12T13:19:45Z</time>
      </trkpt>
      <trkpt lat="46.68255" lon="5.64446">
        <ele>505.1</ele>
        <time>2022-05-12T13:19:50Z</time>
      </trkpt>
      <trkpt lat="46.68259" lon="5.6445">
        <ele>505</ele>
        <time>2022-05-12T13:19:55Z</time>
      </trkpt>
      <trkpt lat="46.68263" lon="5.64456">
        <ele>504.6</ele>
        <time>2022-05-12T13:20:00Z</time>
      </trkpt>
      <trkpt lat="46.68266" lon="5.64462">
        <ele>504.2</ele>
        <time>2022-05-12T13:20:05Z</time>
      </trkpt>
      <trkpt lat="46.6827" lon="5.64466">
        <ele>504.2</ele>
        <time>2022-05-12T13:20:09Z</time>
      </trkpt>
      <trkpt lat="46.68273" lon="5.64472">
        <ele>504.8</ele>
        <time>2022-05-12T13:20:13Z</time>
      </trkpt>
      <trkpt lat="46.68276" lon="5.64478">
        <ele>505.6</ele>
        <time>2022-05-12T13:20:17Z</time>
      </trkpt>
      <trkpt lat="46.68279" lon="5.64483">
        <ele>506.4</ele>
        <time>2022-05-12T13:20:21Z</time>
      </trkpt>
      <trkpt lat="46.68282" lon="5.64489">
        <ele>507.2</ele>
        <time>2022-05-12T13:20:25Z</time>
      </trkpt>
      <trkpt lat="46.68285" lon="5.64493">
        <ele>507.6</ele>
        <time>2022-05-12T13:20:29Z</time>
      </trkpt>
      <trkpt lat="46.68289" lon="5.64498">
        <ele>507.3</ele>
        <time>2022-05-12T13:20:33Z</time>
      </trkpt>
      <trkpt lat="46.68293" lon="5.64502">
        <ele>506.2</ele>
        <time>2022-05-12T13:20:38Z</time>
      </trkpt>
      <trkpt lat="46.68295" lon="5.64508">
        <ele>505.3</ele>
        <time>2022-05-12T13:20:43Z</time>
      </trkpt>
      <trkpt lat="46.68298" lon="5.64514">
        <ele>505</ele>
        <time>2022-05-12T13:20:47Z</time>
      </trkpt>
      <trkpt lat="46.68301" lon="5.6452">
        <ele>505.4</ele>
        <time>2022-05-12T13:20:52Z</time>
      </trkpt>
      <trkpt lat="46.68304" lon="5.64526">
        <ele>505.9</ele>
        <time>2022-05-12T13:20:56Z</time>
      </trkpt>
      <trkpt lat="46.68308" lon="5.64532">
        <ele>506.2</ele>
        <time>2022-05-12T13:21:01Z</time>
      </trkpt>
      <trkpt lat="46.68311" lon="5.64537">
        <ele>505.8</ele>
        <time>2022-05-12T13:21:08Z</time>
      </trkpt>
      <trkpt lat="46.68314" lon="5.64544">
        <ele>504.7</ele>
        <time>2022-05-12T13:21:13Z</time>
      </trkpt>
      <trkpt lat="46.68317" lon="5.64549">
        <ele>504.4</ele>
        <time>2022-05-12T13:21:18Z</time>
      </trkpt>
      <trkpt lat="46.68321" lon="5.64555">
        <ele>504.6</ele>
        <time>2022-05-12T13:21:23Z</time>
      </trkpt>
      <trkpt lat="46.68325" lon="5.6456">
        <ele>504.6</ele>
        <time>2022-05-12T13:21:27Z</time>
      </trkpt>
      <trkpt lat="46.68329" lon="5.64565">
        <ele>504.6</ele>
        <time>2022-05-12T13:21:32Z</time>
      </trkpt>
      <trkpt lat="46.68332" lon="5.6457">
        <ele>505</ele>
        <time>2022-05-12T13:21:36Z</time>
      </trkpt>
      <trkpt lat="46.68336" lon="5.64575">
        <ele>505.2</ele>
        <time>2022-05-12T13:21:41Z</time>
      </trkpt>
      <trkpt lat="46.68339" lon="5.6458">
        <ele>505</ele>
        <time>2022-05-12T13:21:46Z</time>
      </trkpt>
      <trkpt lat="46.68343" lon="5.64586">
        <ele>504.9</ele>
        <time>2022-05-12T13:21:51Z</time>
      </trkpt>
      <trkpt lat="46.68346" lon="5.64591">
        <ele>504.5</ele>
        <time>2022-05-12T13:21:55Z</time>
      </trkpt>
      <trkpt lat="46.68349" lon="5.64597">
        <ele>503.6</ele>
        <time>2022-05-12T13:22:00Z</time>
      </trkpt>
      <trkpt lat="46.68353" lon="5.64603">
        <ele>503.1</ele>
        <time>2022-05-12T13:22:06Z</time>
      </trkpt>
      <trkpt lat="46.68356" lon="5.64608">
        <ele>502.8</ele>
        <time>2022-05-12T13:22:10Z</time>
      </trkpt>
      <trkpt lat="46.68359" lon="5.64614">
        <ele>503</ele>
        <time>2022-05-12T13:22:15Z</time>
      </trkpt>
      <trkpt lat="46.68363" lon="5.64619">
        <ele>503.6</ele>
        <time>2022-05-12T13:22:20Z</time>
      </trkpt>
      <trkpt lat="46.68366" lon="5.64624">
        <ele>504.1</ele>
        <time>2022-05-12T13:22:25Z</time>
      </trkpt>
      <trkpt lat="46.68369" lon="5.6463">
        <ele>504.4</ele>
        <time>2022-05-12T13:22:30Z</time>
      </trkpt>
      <trkpt lat="46.68371" lon="5.64637">
        <ele>504.6</ele>
        <time>2022-05-12T13:22:35Z</time>
      </trkpt>
      <trkpt lat="46.68373" lon="5.64643">
        <ele>504.8</ele>
        <time>2022-05-12T13:22:40Z</time>
      </trkpt>
      <trkpt lat="46.68376" lon="5.64649">
        <ele>505.3</ele>
        <time>2022-05-12T13:22:45Z</time>
      </trkpt>
      <trkpt lat="46.68377" lon="5.64655">
        <ele>505.4</ele>
        <time>2022-05-12T13:22:49Z</time>
      </trkpt>
      <trkpt lat="46.68378" lon="5.64662">
        <ele>505.8</ele>
        <time>2022-05-12T13:22:53Z</time>
      </trkpt>
      <trkpt lat="46.68378" lon="5.64668">
        <ele>506.4</ele>
        <time>2022-05-12T13:22:58Z</time>
      </trkpt>
      <trkpt lat="46.68378" lon="5.64675">
        <ele>507.2</ele>
        <time>2022-05-12T13:23:03Z</time>
      </trkpt>
      <trkpt lat="46.68379" lon="5.64682">
        <ele>508.3</ele>
        <time>2022-05-12T13:23:08Z</time>
      </trkpt>
      <trkpt lat="46.6838" lon="5.64689">
        <ele>509</ele>
        <time>2022-05-12T13:23:13Z</time>
      </trkpt>
      <trkpt lat="46.6838" lon="5.64696">
        <ele>509.8</ele>
        <time>2022-05-12T13:23:18Z</time>
      </trkpt>
      <trkpt lat="46.6838" lon="5.64703">
        <ele>510.7</ele>
        <time>2022-05-12T13:23:22Z</time>
      </trkpt>
      <trkpt lat="46.6838" lon="5.6471">
        <ele>511.7</ele>
        <time>2022-05-12T13:23:26Z</time>
      </trkpt>
      <trkpt lat="46.68379" lon="5.64717">
        <ele>512.8</ele>
        <time>2022-05-12T13:23:30Z</time>
      </trkpt>
      <trkpt lat="46.68379" lon="5.64724">
        <ele>514.8</ele>
        <time>2022-05-12T13:23:37Z</time>
      </trkpt>
      <trkpt lat="46.68377" lon="5.64731">
        <ele>516.2</ele>
        <time>2022-05-12T13:23:44Z</time>
      </trkpt>
      <trkpt lat="46.68378" lon="5.64737">
        <ele>516.7</ele>
        <time>2022-05-12T13:23:50Z</time>
      </trkpt>
      <trkpt lat="46.68377" lon="5.64744">
        <ele>516.9</ele>
        <time>2022-05-12T13:23:55Z</time>
      </trkpt>
      <trkpt lat="46.68378" lon="5.64752">
        <ele>516.6</ele>
        <time>2022-05-12T13:24:01Z</time>
      </trkpt>
      <trkpt lat="46.68378" lon="5.64759">
        <ele>516.2</ele>
        <time>2022-05-12T13:24:05Z</time>
      </trkpt>
      <trkpt lat="46.68377" lon="5.64766">
        <ele>516</ele>
        <time>2022-05-12T13:24:10Z</time>
      </trkpt>
      <trkpt lat="46.68376" lon="5.64774">
        <ele>516.3</ele>
        <time>2022-05-12T13:24:16Z</time>
      </trkpt>
      <trkpt lat="46.68375" lon="5.6478">
        <ele>516.9</ele>
        <time>2022-05-12T13:24:21Z</time>
      </trkpt>
      <trkpt lat="46.68376" lon="5.64787">
        <ele>517.7</ele>
        <time>2022-05-12T13:24:27Z</time>
      </trkpt>
      <trkpt lat="46.68374" lon="5.64794">
        <ele>518.6</ele>
        <time>2022-05-12T13:24:32Z</time>
      </trkpt>
      <trkpt lat="46.68373" lon="5.64801">
        <ele>519.2</ele>
        <time>2022-05-12T13:24:37Z</time>
      </trkpt>
      <trkpt lat="46.68372" lon="5.64807">
        <ele>519.1</ele>
        <time>2022-05-12T13:24:43Z</time>
      </trkpt>
      <trkpt lat="46.68372" lon="5.64816">
        <ele>518.5</ele>
        <time>2022-05-12T13:24:48Z</time>
      </trkpt>
      <trkpt lat="46.68372" lon="5.64823">
        <ele>518.3</ele>
        <time>2022-05-12T13:24:53Z</time>
      </trkpt>
      <trkpt lat="46.68371" lon="5.6483">
        <ele>518.7</ele>
        <time>2022-05-12T13:24:58Z</time>
      </trkpt>
      <trkpt lat="46.68368" lon="5.64836">
        <ele>519</ele>
        <time>2022-05-12T13:25:03Z</time>
      </trkpt>
      <trkpt lat="46.68367" lon="5.64843">
        <ele>519.2</ele>
        <time>2022-05-12T13:25:08Z</time>
      </trkpt>
      <trkpt lat="46.68366" lon="5.64849">
        <ele>519.5</ele>
        <time>2022-05-12T13:25:12Z</time>
      </trkpt>
      <trkpt lat="46.68365" lon="5.64857">
        <ele>519.5</ele>
        <time>2022-05-12T13:25:17Z</time>
      </trkpt>
      <trkpt lat="46.68364" lon="5.64864">
        <ele>519.1</ele>
        <time>2022-05-12T13:25:22Z</time>
      </trkpt>
      <trkpt lat="46.68361" lon="5.6487">
        <ele>519.3</ele>
        <time>2022-05-12T13:25:28Z</time>
      </trkpt>
      <trkpt lat="46.6836" lon="5.64877">
        <ele>519.6</ele>
        <time>2022-05-12T13:25:33Z</time>
      </trkpt>
      <trkpt lat="46.68359" lon="5.64885">
        <ele>520.7</ele>
        <time>2022-05-12T13:25:39Z</time>
      </trkpt>
      <trkpt lat="46.68358" lon="5.64893">
        <ele>522.7</ele>
        <time>2022-05-12T13:25:45Z</time>
      </trkpt>
      <trkpt lat="46.68357" lon="5.649">
        <ele>524.5</ele>
        <time>2022-05-12T13:25:50Z</time>
      </trkpt>
      <trkpt lat="46.68355" lon="5.64907">
        <ele>526</ele>
        <time>2022-05-12T13:25:55Z</time>
      </trkpt>
      <trkpt lat="46.68354" lon="5.64915">
        <ele>525.9</ele>
        <time>2022-05-12T13:26:02Z</time>
      </trkpt>
      <trkpt lat="46.68354" lon="5.64922">
        <ele>525.5</ele>
        <time>2022-05-12T13:26:07Z</time>
      </trkpt>
      <trkpt lat="46.68353" lon="5.64929">
        <ele>525.5</ele>
        <time>2022-05-12T13:26:13Z</time>
      </trkpt>
      <trkpt lat="46.68352" lon="5.64936">
        <ele>525.6</ele>
        <time>2022-05-12T13:26:18Z</time>
      </trkpt>
      <trkpt lat="46.68352" lon="5.64943">
        <ele>525.6</ele>
        <time>2022-05-12T13:26:22Z</time>
      </trkpt>
      <trkpt lat="46.68351" lon="5.6495">
        <ele>525.3</ele>
        <time>2022-05-12T13:26:26Z</time>
      </trkpt>
      <trkpt lat="46.6835" lon="5.64958">
        <ele>524.8</ele>
        <time>2022-05-12T13:26:30Z</time>
      </trkpt>
      <trkpt lat="46.6835" lon="5.64965">
        <ele>523.4</ele>
        <time>2022-05-12T13:26:36Z</time>
      </trkpt>
      <trkpt lat="46.68352" lon="5.64972">
        <ele>522</ele>
        <time>2022-05-12T13:26:41Z</time>
      </trkpt>
      <trkpt lat="46.68353" lon="5.6498">
        <ele>520.2</ele>
        <time>2022-05-12T13:26:47Z</time>
      </trkpt>
      <trkpt lat="46.68354" lon="5.64986">
        <ele>519.1</ele>
        <time>2022-05-12T13:26:51Z</time>
      </trkpt>
      <trkpt lat="46.68354" lon="5.64993">
        <ele>517.9</ele>
        <time>2022-05-12T13:26:56Z</time>
      </trkpt>
      <trkpt lat="46.68354" lon="5.65">
        <ele>517</ele>
        <time>2022-05-12T13:27:01Z</time>
      </trkpt>
      <trkpt lat="46.68356" lon="5.65007">
        <ele>515.9</ele>
        <time>2022-05-12T13:27:07Z</time>
      </trkpt>
      <trkpt lat="46.68358" lon="5.65014">
        <ele>514.8</ele>
        <time>2022-05-12T13:27:13Z</time>
      </trkpt>
      <trkpt lat="46.68359" lon="5.65022">
        <ele>514.3</ele>
        <time>2022-05-12T13:27:18Z</time>
      </trkpt>
      <trkpt lat="46.68359" lon="5.6503">
        <ele>514.4</ele>
        <time>2022-05-12T13:27:24Z</time>
      </trkpt>
      <trkpt lat="46.68361" lon="5.65035">
        <ele>514.7</ele>
        <time>2022-05-12T13:27:29Z</time>
      </trkpt>
      <trkpt lat="46.68362" lon="5.65043">
        <ele>514.8</ele>
        <time>2022-05-12T13:27:35Z</time>
      </trkpt>
      <trkpt lat="46.68362" lon="5.6505">
        <ele>514.8</ele>
        <time>2022-05-12T13:27:41Z</time>
      </trkpt>
      <trkpt lat="46.68362" lon="5.65057">
        <ele>514.9</ele>
        <time>2022-05-12T13:27:47Z</time>
      </trkpt>
      <trkpt lat="46.68362" lon="5.65065">
        <ele>514.8</ele>
        <time>2022-05-12T13:27:52Z</time>
      </trkpt>
      <trkpt lat="46.68361" lon="5.65072">
        <ele>515.2</ele>
        <time>2022-05-12T13:27:56Z</time>
      </trkpt>
      <trkpt lat="46.68362" lon="5.6508">
        <ele>515.8</ele>
        <time>2022-05-12T13:28:01Z</time>
      </trkpt>
      <trkpt lat="46.68363" lon="5.65087">
        <ele>516.6</ele>
        <time>2022-05-12T13:28:06Z</time>
      </trkpt>
      <trkpt lat="46.68363" lon="5.65095">
        <ele>517.3</ele>
        <time>2022-05-12T13:28:12Z</time>
      </trkpt>
      <trkpt lat="46.68364" lon="5.65102">
        <ele>517.8</ele>
        <time>2022-05-12T13:28:18Z</time>
      </trkpt>
      <trkpt lat="46.68365" lon="5.65109">
        <ele>517.6</ele>
        <time>2022-05-12T13:28:23Z</time>
      </trkpt>
      <trkpt lat="46.68366" lon="5.65116">
        <ele>517.5</ele>
        <time>2022-05-12T13:28:28Z</time>
      </trkpt>
      <trkpt lat="46.68368" lon="5.65123">
        <ele>517</ele>
        <time>2022-05-12T13:28:33Z</time>
      </trkpt>
      <trkpt lat="46.68368" lon="5.6513">
        <ele>516.3</ele>
        <time>2022-05-12T13:28:39Z</time>
      </trkpt>
      <trkpt lat="46.68369" lon="5.65137">
        <ele>516.1</ele>
        <time>2022-05-12T13:28:43Z</time>
      </trkpt>
      <trkpt lat="46.6837" lon="5.65144">
        <ele>516.2</ele>
        <time>2022-05-12T13:28:47Z</time>
      </trkpt>
      <trkpt lat="46.68372" lon="5.65151">
        <ele>516.4</ele>
        <time>2022-05-12T13:28:52Z</time>
      </trkpt>
      <trkpt lat="46.68373" lon="5.65159">
        <ele>515.6</ele>
        <time>2022-05-12T13:28:59Z</time>
      </trkpt>
      <trkpt lat="46.68374" lon="5.65166">
        <ele>514.9</ele>
        <time>2022-05-12T13:29:04Z</time>
      </trkpt>
      <trkpt lat="46.68375" lon="5.65174">
        <ele>515</ele>
        <time>2022-05-12T13:29:09Z</time>
      </trkpt>
      <trkpt lat="46.68376" lon="5.65181">
        <ele>515.1</ele>
        <time>2022-05-12T13:29:15Z</time>
      </trkpt>
      <trkpt lat="46.68378" lon="5.65188">
        <ele>514.6</ele>
        <time>2022-05-12T13:29:20Z</time>
      </trkpt>
      <trkpt lat="46.68379" lon="5.65195">
        <ele>514.4</ele>
        <time>2022-05-12T13:29:25Z</time>
      </trkpt>
      <trkpt lat="46.6838" lon="5.65202">
        <ele>514.1</ele>
        <time>2022-05-12T13:29:30Z</time>
      </trkpt>
      <trkpt lat="46.68381" lon="5.6521">
        <ele>514.1</ele>
        <time>2022-05-12T13:29:35Z</time>
      </trkpt>
      <trkpt lat="46.68382" lon="5.65217">
        <ele>514.4</ele>
        <time>2022-05-12T13:29:39Z</time>
      </trkpt>
      <trkpt lat="46.68383" lon="5.65223">
        <ele>514.8</ele>
        <time>2022-05-12T13:29:44Z</time>
      </trkpt>
      <trkpt lat="46.68383" lon="5.65231">
        <ele>514.6</ele>
        <time>2022-05-12T13:29:50Z</time>
      </trkpt>
      <trkpt lat="46.68385" lon="5.65237">
        <ele>514.2</ele>
        <time>2022-05-12T13:29:55Z</time>
      </trkpt>
      <trkpt lat="46.68386" lon="5.65244">
        <ele>513.8</ele>
        <time>2022-05-12T13:30:00Z</time>
      </trkpt>
      <trkpt lat="46.68386" lon="5.65251">
        <ele>513.6</ele>
        <time>2022-05-12T13:30:05Z</time>
      </trkpt>
      <trkpt lat="46.68385" lon="5.65258">
        <ele>514</ele>
        <time>2022-05-12T13:30:10Z</time>
      </trkpt>
      <trkpt lat="46.68385" lon="5.65266">
        <ele>514.2</ele>
        <time>2022-05-12T13:30:15Z</time>
      </trkpt>
      <trkpt lat="46.68386" lon="5.65274">
        <ele>514.3</ele>
        <time>2022-05-12T13:30:20Z</time>
      </trkpt>
      <trkpt lat="46.68386" lon="5.65282">
        <ele>514.9</ele>
        <time>2022-05-12T13:30:25Z</time>
      </trkpt>
      <trkpt lat="46.68387" lon="5.65288">
        <ele>515.5</ele>
        <time>2022-05-12T13:30:29Z</time>
      </trkpt>
      <trkpt lat="46.68387" lon="5.65296">
        <ele>516.9</ele>
        <time>2022-05-12T13:30:35Z</time>
      </trkpt>
      <trkpt lat="46.68389" lon="5.65303">
        <ele>517.2</ele>
        <time>2022-05-12T13:30:41Z</time>
      </trkpt>
      <trkpt lat="46.68388" lon="5.6531">
        <ele>516.8</ele>
        <time>2022-05-12T13:30:46Z</time>
      </trkpt>
      <trkpt lat="46.68388" lon="5.65317">
        <ele>516.2</ele>
        <time>2022-05-12T13:30:51Z</time>
      </trkpt>
      <trkpt lat="46.68388" lon="5.65325">
        <ele>515.8</ele>
        <time>2022-05-12T13:30:57Z</time>
      </trkpt>
      <trkpt lat="46.68388" lon="5.65333">
        <ele>515.9</ele>
        <time>2022-05-12T13:31:02Z</time>
      </trkpt>
      <trkpt lat="46.68386" lon="5.6534">
        <ele>515.8</ele>
        <time>2022-05-12T13:31:06Z</time>
      </trkpt>
      <trkpt lat="46.68386" lon="5.65346">
        <ele>515.5</ele>
        <time>2022-05-12T13:31:11Z</time>
      </trkpt>
      <trkpt lat="46.68385" lon="5.65353">
        <ele>515.2</ele>
        <time>2022-05-12T13:31:16Z</time>
      </trkpt>
      <trkpt lat="46.68384" lon="5.6536">
        <ele>515.5</ele>
        <time>2022-05-12T13:31:22Z</time>
      </trkpt>
      <trkpt lat="46.68384" lon="5.65367">
        <ele>515.3</ele>
        <time>2022-05-12T13:31:27Z</time>
      </trkpt>
      <trkpt lat="46.68383" lon="5.65374">
        <ele>515.1</ele>
        <time>2022-05-12T13:31:33Z</time>
      </trkpt>
      <trkpt lat="46.68382" lon="5.65382">
        <ele>514.7</ele>
        <time>2022-05-12T13:31:38Z</time>
      </trkpt>
      <trkpt lat="46.68381" lon="5.65389">
        <ele>513.3</ele>
        <time>2022-05-12T13:31:44Z</time>
      </trkpt>
      <trkpt lat="46.6838" lon="5.65395">
        <ele>512.2</ele>
        <time>2022-05-12T13:31:49Z</time>
      </trkpt>
      <trkpt lat="46.68379" lon="5.65403">
        <ele>511.4</ele>
        <time>2022-05-12T13:31:54Z</time>
      </trkpt>
      <trkpt lat="46.68378" lon="5.65409">
        <ele>511.1</ele>
        <time>2022-05-12T13:31:58Z</time>
      </trkpt>
      <trkpt lat="46.68376" lon="5.65416">
        <ele>511</ele>
        <time>2022-05-12T13:32:02Z</time>
      </trkpt>
      <trkpt lat="46.68375" lon="5.65422">
        <ele>512.1</ele>
        <time>2022-05-12T13:32:07Z</time>
      </trkpt>
      <trkpt lat="46.68374" lon="5.6543">
        <ele>512.9</ele>
        <time>2022-05-12T13:32:12Z</time>
      </trkpt>
      <trkpt lat="46.68374" lon="5.65438">
        <ele>513.3</ele>
        <time>2022-05-12T13:32:16Z</time>
      </trkpt>
      <trkpt lat="46.68375" lon="5.65445">
        <ele>513.7</ele>
        <time>2022-05-12T13:32:21Z</time>
      </trkpt>
      <trkpt lat="46.68375" lon="5.65452">
        <ele>513.6</ele>
        <time>2022-05-12T13:32:27Z</time>
      </trkpt>
      <trkpt lat="46.68375" lon="5.65459">
        <ele>513.2</ele>
        <time>2022-05-12T13:32:33Z</time>
      </trkpt>
      <trkpt lat="46.68376" lon="5.65466">
        <ele>512.5</ele>
        <time>2022-05-12T13:32:38Z</time>
      </trkpt>
      <trkpt lat="46.68377" lon="5.65473">
        <ele>511.8</ele>
        <time>2022-05-12T13:32:44Z</time>
      </trkpt>
      <trkpt lat="46.68378" lon="5.65481">
        <ele>511.3</ele>
        <time>2022-05-12T13:32:50Z</time>
      </trkpt>
      <trkpt lat="46.6838" lon="5.65487">
        <ele>510.8</ele>
        <time>2022-05-12T13:32:55Z</time>
      </trkpt>
      <trkpt lat="46.68382" lon="5.65494">
        <ele>510.3</ele>
        <time>2022-05-12T13:33:00Z</time>
      </trkpt>
      <trkpt lat="46.68384" lon="5.65501">
        <ele>509.4</ele>
        <time>2022-05-12T13:33:05Z</time>
      </trkpt>
      <trkpt lat="46.68384" lon="5.65508">
        <ele>508.6</ele>
        <time>2022-05-12T13:33:11Z</time>
      </trkpt>
      <trkpt lat="46.68387" lon="5.65514">
        <ele>508.2</ele>
        <time>2022-05-12T13:33:16Z</time>
      </trkpt>
      <trkpt lat="46.68389" lon="5.6552">
        <ele>507.7</ele>
        <time>2022-05-12T13:33:21Z</time>
      </trkpt>
      <trkpt lat="46.68391" lon="5.65527">
        <ele>507.8</ele>
        <time>2022-05-12T13:33:26Z</time>
      </trkpt>
      <trkpt lat="46.68394" lon="5.65533">
        <ele>507.8</ele>
        <time>2022-05-12T13:33:31Z</time>
      </trkpt>
      <trkpt lat="46.68396" lon="5.65538">
        <ele>508.1</ele>
        <time>2022-05-12T13:33:37Z</time>
      </trkpt>
      <trkpt lat="46.684" lon="5.65543">
        <ele>508.3</ele>
        <time>2022-05-12T13:33:42Z</time>
      </trkpt>
      <trkpt lat="46.68404" lon="5.65549">
        <ele>508.2</ele>
        <time>2022-05-12T13:33:47Z</time>
      </trkpt>
      <trkpt lat="46.68406" lon="5.65554">
        <ele>508.2</ele>
        <time>2022-05-12T13:33:52Z</time>
      </trkpt>
      <trkpt lat="46.68409" lon="5.6556">
        <ele>507.9</ele>
        <time>2022-05-12T13:33:57Z</time>
      </trkpt>
      <trkpt lat="46.68412" lon="5.65565">
        <ele>507.7</ele>
        <time>2022-05-12T13:34:02Z</time>
      </trkpt>
      <trkpt lat="46.68415" lon="5.65571">
        <ele>508</ele>
        <time>2022-05-12T13:34:07Z</time>
      </trkpt>
      <trkpt lat="46.68417" lon="5.65578">
        <ele>508.2</ele>
        <time>2022-05-12T13:34:12Z</time>
      </trkpt>
      <trkpt lat="46.6842" lon="5.65584">
        <ele>508.8</ele>
        <time>2022-05-12T13:34:17Z</time>
      </trkpt>
      <trkpt lat="46.68422" lon="5.65591">
        <ele>509.3</ele>
        <time>2022-05-12T13:34:22Z</time>
      </trkpt>
      <trkpt lat="46.68423" lon="5.65597">
        <ele>510.1</ele>
        <time>2022-05-12T13:34:28Z</time>
      </trkpt>
      <trkpt lat="46.68425" lon="5.65604">
        <ele>510</ele>
        <time>2022-05-12T13:34:33Z</time>
      </trkpt>
      <trkpt lat="46.68426" lon="5.65611">
        <ele>509.4</ele>
        <time>2022-05-12T13:34:38Z</time>
      </trkpt>
      <trkpt lat="46.68428" lon="5.65618">
        <ele>508.7</ele>
        <time>2022-05-12T13:34:43Z</time>
      </trkpt>
      <trkpt lat="46.6843" lon="5.65626">
        <ele>508.1</ele>
        <time>2022-05-12T13:34:48Z</time>
      </trkpt>
      <trkpt lat="46.68432" lon="5.65632">
        <ele>507.8</ele>
        <time>2022-05-12T13:34:53Z</time>
      </trkpt>
      <trkpt lat="46.68434" lon="5.65639">
        <ele>508.3</ele>
        <time>2022-05-12T13:34:58Z</time>
      </trkpt>
      <trkpt lat="46.68437" lon="5.65646">
        <ele>509.1</ele>
        <time>2022-05-12T13:35:04Z</time>
      </trkpt>
      <trkpt lat="46.6844" lon="5.65652">
        <ele>509</ele>
        <time>2022-05-12T13:35:09Z</time>
      </trkpt>
      <trkpt lat="46.68444" lon="5.65657">
        <ele>508.3</ele>
        <time>2022-05-12T13:35:15Z</time>
      </trkpt>
      <trkpt lat="46.68448" lon="5.6566">
        <ele>506.9</ele>
        <time>2022-05-12T13:35:21Z</time>
      </trkpt>
      <trkpt lat="46.68453" lon="5.65664">
        <ele>505.9</ele>
        <time>2022-05-12T13:35:27Z</time>
      </trkpt>
      <trkpt lat="46.68458" lon="5.65667">
        <ele>505.5</ele>
        <time>2022-05-12T13:35:32Z</time>
      </trkpt>
      <trkpt lat="46.68462" lon="5.6567">
        <ele>505</ele>
        <time>2022-05-12T13:35:37Z</time>
      </trkpt>
      <trkpt lat="46.68467" lon="5.65673">
        <ele>504.7</ele>
        <time>2022-05-12T13:35:42Z</time>
      </trkpt>
      <trkpt lat="46.68471" lon="5.65676">
        <ele>504.6</ele>
        <time>2022-05-12T13:35:47Z</time>
      </trkpt>
      <trkpt lat="46.68475" lon="5.65679">
        <ele>504.2</ele>
        <time>2022-05-12T13:35:54Z</time>
      </trkpt>
      <trkpt lat="46.6848" lon="5.65682">
        <ele>504.5</ele>
        <time>2022-05-12T13:36:00Z</time>
      </trkpt>
      <trkpt lat="46.68485" lon="5.65684">
        <ele>505</ele>
        <time>2022-05-12T13:36:06Z</time>
      </trkpt>
      <trkpt lat="46.68488" lon="5.65689">
        <ele>505</ele>
        <time>2022-05-12T13:36:12Z</time>
      </trkpt>
      <trkpt lat="46.68493" lon="5.6569">
        <ele>504.3</ele>
        <time>2022-05-12T13:36:17Z</time>
      </trkpt>
      <trkpt lat="46.68497" lon="5.65695">
        <ele>502.8</ele>
        <time>2022-05-12T13:36:24Z</time>
      </trkpt>
      <trkpt lat="46.68501" lon="5.65699">
        <ele>502</ele>
        <time>2022-05-12T13:36:29Z</time>
      </trkpt>
      <trkpt lat="46.68505" lon="5.65704">
        <ele>501.9</ele>
        <time>2022-05-12T13:36:35Z</time>
      </trkpt>
      <trkpt lat="46.6851" lon="5.65707">
        <ele>502.1</ele>
        <time>2022-05-12T13:36:42Z</time>
      </trkpt>
      <trkpt lat="46.68514" lon="5.65711">
        <ele>502.4</ele>
        <time>2022-05-12T13:36:48Z</time>
      </trkpt>
      <trkpt lat="46.68518" lon="5.65716">
        <ele>502.8</ele>
        <time>2022-05-12T13:36:53Z</time>
      </trkpt>
      <trkpt lat="46.68518" lon="5.65722">
        <ele>503.9</ele>
        <time>2022-05-12T13:36:59Z</time>
      </trkpt>
      <trkpt lat="46.68519" lon="5.65729">
        <ele>504.4</ele>
        <time>2022-05-12T13:37:05Z</time>
      </trkpt>
      <trkpt lat="46.68519" lon="5.65736">
        <ele>504.2</ele>
        <time>2022-05-12T13:37:10Z</time>
      </trkpt>
      <trkpt lat="46.68519" lon="5.65744">
        <ele>504.5</ele>
        <time>2022-05-12T13:37:15Z</time>
      </trkpt>
      <trkpt lat="46.6852" lon="5.6575">
        <ele>505.9</ele>
        <time>2022-05-12T13:37:20Z</time>
      </trkpt>
      <trkpt lat="46.68524" lon="5.65755">
        <ele>507.8</ele>
        <time>2022-05-12T13:37:30Z</time>
      </trkpt>
      <trkpt lat="46.68526" lon="5.65762">
        <ele>509.2</ele>
        <time>2022-05-12T13:37:38Z</time>
      </trkpt>
      <trkpt lat="46.68528" lon="5.65769">
        <ele>510.2</ele>
        <time>2022-05-12T13:37:43Z</time>
      </trkpt>
      <trkpt lat="46.68527" lon="5.65776">
        <ele>510.8</ele>
        <time>2022-05-12T13:37:48Z</time>
      </trkpt>
      <trkpt lat="46.68525" lon="5.65783">
        <ele>511.4</ele>
        <time>2022-05-12T13:37:53Z</time>
      </trkpt>
      <trkpt lat="46.68524" lon="5.6579">
        <ele>512.1</ele>
        <time>2022-05-12T13:38:01Z</time>
      </trkpt>
      <trkpt lat="46.68525" lon="5.65797">
        <ele>513.2</ele>
        <time>2022-05-12T13:38:07Z</time>
      </trkpt>
      <trkpt lat="46.68522" lon="5.65791">
        <ele>508.6</ele>
        <time>2022-05-12T13:38:35Z</time>
      </trkpt>
      <trkpt lat="46.68523" lon="5.65797">
        <ele>507.6</ele>
        <time>2022-05-12T13:38:44Z</time>
      </trkpt>
      <trkpt lat="46.68523" lon="5.65806">
        <ele>508.1</ele>
        <time>2022-05-12T13:38:49Z</time>
      </trkpt>
      <trkpt lat="46.68525" lon="5.65813">
        <ele>509</ele>
        <time>2022-05-12T13:38:54Z</time>
      </trkpt>
      <trkpt lat="46.68524" lon="5.6582">
        <ele>509.1</ele>
        <time>2022-05-12T13:38:59Z</time>
      </trkpt>
      <trkpt lat="46.68525" lon="5.65827">
        <ele>509.3</ele>
        <time>2022-05-12T13:39:05Z</time>
      </trkpt>
      <trkpt lat="46.68522" lon="5.65832">
        <ele>509.2</ele>
        <time>2022-05-12T13:39:11Z</time>
      </trkpt>
      <trkpt lat="46.68522" lon="5.65839">
        <ele>508</ele>
        <time>2022-05-12T13:39:18Z</time>
      </trkpt>
      <trkpt lat="46.68522" lon="5.65847">
        <ele>506.7</ele>
        <time>2022-05-12T13:39:24Z</time>
      </trkpt>
      <trkpt lat="46.68523" lon="5.65854">
        <ele>506.4</ele>
        <time>2022-05-12T13:39:29Z</time>
      </trkpt>
      <trkpt lat="46.68523" lon="5.65861">
        <ele>507.2</ele>
        <time>2022-05-12T13:39:37Z</time>
      </trkpt>
      <trkpt lat="46.68522" lon="5.65868">
        <ele>508.3</ele>
        <time>2022-05-12T13:39:43Z</time>
      </trkpt>
      <trkpt lat="46.68523" lon="5.65875">
        <ele>510.2</ele>
        <time>2022-05-12T13:39:50Z</time>
      </trkpt>
      <trkpt lat="46.68523" lon="5.65882">
        <ele>511.5</ele>
        <time>2022-05-12T13:39:56Z</time>
      </trkpt>
      <trkpt lat="46.68523" lon="5.65889">
        <ele>512.2</ele>
        <time>2022-05-12T13:40:02Z</time>
      </trkpt>
      <trkpt lat="46.68524" lon="5.65896">
        <ele>512.9</ele>
        <time>2022-05-12T13:40:06Z</time>
      </trkpt>
      <trkpt lat="46.68525" lon="5.65903">
        <ele>513.5</ele>
        <time>2022-05-12T13:40:10Z</time>
      </trkpt>
      <trkpt lat="46.68527" lon="5.6591">
        <ele>514.2</ele>
        <time>2022-05-12T13:40:16Z</time>
      </trkpt>
      <trkpt lat="46.68528" lon="5.65916">
        <ele>514.7</ele>
        <time>2022-05-12T13:40:23Z</time>
      </trkpt>
      <trkpt lat="46.68529" lon="5.65923">
        <ele>515.9</ele>
        <time>2022-05-12T13:40:32Z</time>
      </trkpt>
      <trkpt lat="46.68531" lon="5.65929">
        <ele>517</ele>
        <time>2022-05-12T13:40:40Z</time>
      </trkpt>
      <trkpt lat="46.68535" lon="5.65934">
        <ele>517.9</ele>
        <time>2022-05-12T13:40:50Z</time>
      </trkpt>
      <trkpt lat="46.68537" lon="5.6594">
        <ele>517.8</ele>
        <time>2022-05-12T13:40:56Z</time>
      </trkpt>
      <trkpt lat="46.68539" lon="5.65945">
        <ele>517.5</ele>
        <time>2022-05-12T13:41:01Z</time>
      </trkpt>
      <trkpt lat="46.68542" lon="5.6595">
        <ele>517</ele>
        <time>2022-05-12T13:41:06Z</time>
      </trkpt>
      <trkpt lat="46.68547" lon="5.65954">
        <ele>516.3</ele>
        <time>2022-05-12T13:41:12Z</time>
      </trkpt>
      <trkpt lat="46.68551" lon="5.65958">
        <ele>517</ele>
        <time>2022-05-12T13:41:17Z</time>
      </trkpt>
      <trkpt lat="46.68554" lon="5.65963">
        <ele>518.7</ele>
        <time>2022-05-12T13:41:22Z</time>
      </trkpt>
      <trkpt lat="46.68559" lon="5.65962">
        <ele>517.2</ele>
        <time>2022-05-12T13:41:30Z</time>
      </trkpt>
      <trkpt lat="46.68564" lon="5.65963">
        <ele>515.6</ele>
        <time>2022-05-12T13:41:36Z</time>
      </trkpt>
      <trkpt lat="46.68566" lon="5.65969">
        <ele>514.9</ele>
        <time>2022-05-12T13:41:44Z</time>
      </trkpt>
      <trkpt lat="46.68571" lon="5.65967">
        <ele>516.5</ele>
        <time>2022-05-12T13:41:58Z</time>
      </trkpt>
      <trkpt lat="46.68577" lon="5.65965">
        <ele>517.8</ele>
        <time>2022-05-12T13:42:03Z</time>
      </trkpt>
      <trkpt lat="46.68582" lon="5.65965">
        <ele>518.1</ele>
        <time>2022-05-12T13:42:12Z</time>
      </trkpt>
      <trkpt lat="46.68587" lon="5.65961">
        <ele>515.4</ele>
        <time>2022-05-12T13:42:19Z</time>
      </trkpt>
      <trkpt lat="46.6859" lon="5.65956">
        <ele>512.4</ele>
        <time>2022-05-12T13:42:26Z</time>
      </trkpt>
      <trkpt lat="46.68593" lon="5.6595">
        <ele>510.1</ele>
        <time>2022-05-12T13:42:31Z</time>
      </trkpt>
      <trkpt lat="46.68596" lon="5.65945">
        <ele>508.6</ele>
        <time>2022-05-12T13:42:35Z</time>
      </trkpt>
      <trkpt lat="46.686" lon="5.65941">
        <ele>506.8</ele>
        <time>2022-05-12T13:42:41Z</time>
      </trkpt>
      <trkpt lat="46.68605" lon="5.6594">
        <ele>506.1</ele>
        <time>2022-05-12T13:42:48Z</time>
      </trkpt>
      <trkpt lat="46.6861" lon="5.65937">
        <ele>506.5</ele>
        <time>2022-05-12T13:42:54Z</time>
      </trkpt>
      <trkpt lat="46.68615" lon="5.65934">
        <ele>506.9</ele>
        <time>2022-05-12T13:43:02Z</time>
      </trkpt>
      <trkpt lat="46.68619" lon="5.65933">
        <ele>508.3</ele>
        <time>2022-05-12T13:43:08Z</time>
      </trkpt>
      <trkpt lat="46.68624" lon="5.65931">
        <ele>509.8</ele>
        <time>2022-05-12T13:43:12Z</time>
      </trkpt>
      <trkpt lat="46.68627" lon="5.65927">
        <ele>511.5</ele>
        <time>2022-05-12T13:43:17Z</time>
      </trkpt>
      <trkpt lat="46.68629" lon="5.65919">
        <ele>511.2</ele>
        <time>2022-05-12T13:43:23Z</time>
      </trkpt>
      <trkpt lat="46.68632" lon="5.65914">
        <ele>510.3</ele>
        <time>2022-05-12T13:43:27Z</time>
      </trkpt>
      <trkpt lat="46.68635" lon="5.65909">
        <ele>510.1</ele>
        <time>2022-05-12T13:43:31Z</time>
      </trkpt>
      <trkpt lat="46.6864" lon="5.65906">
        <ele>509.6</ele>
        <time>2022-05-12T13:43:37Z</time>
      </trkpt>
      <trkpt lat="46.68645" lon="5.65905">
        <ele>509.1</ele>
        <time>2022-05-12T13:43:43Z</time>
      </trkpt>
      <trkpt lat="46.6865" lon="5.65902">
        <ele>508.5</ele>
        <time>2022-05-12T13:43:50Z</time>
      </trkpt>
      <trkpt lat="46.68654" lon="5.65899">
        <ele>507.7</ele>
        <time>2022-05-12T13:44:00Z</time>
      </trkpt>
      <trkpt lat="46.68659" lon="5.65898">
        <ele>506.8</ele>
        <time>2022-05-12T13:44:06Z</time>
      </trkpt>
      <trkpt lat="46.68662" lon="5.65895">
        <ele>506.2</ele>
        <time>2022-05-12T13:44:12Z</time>
      </trkpt>
      <trkpt lat="46.68667" lon="5.6589">
        <ele>506.6</ele>
        <time>2022-05-12T13:44:19Z</time>
      </trkpt>
      <trkpt lat="46.68671" lon="5.65888">
        <ele>507.6</ele>
        <time>2022-05-12T13:44:26Z</time>
      </trkpt>
      <trkpt lat="46.68675" lon="5.65882">
        <ele>508.8</ele>
        <time>2022-05-12T13:44:34Z</time>
      </trkpt>
      <trkpt lat="46.68678" lon="5.65877">
        <ele>509.1</ele>
        <time>2022-05-12T13:44:39Z</time>
      </trkpt>
      <trkpt lat="46.68682" lon="5.65873">
        <ele>508.9</ele>
        <time>2022-05-12T13:44:45Z</time>
      </trkpt>
      <trkpt lat="46.68687" lon="5.65871">
        <ele>508.5</ele>
        <time>2022-05-12T13:44:51Z</time>
      </trkpt>
      <trkpt lat="46.68691" lon="5.65871">
        <ele>508.2</ele>
        <time>2022-05-12T13:44:57Z</time>
      </trkpt>
      <trkpt lat="46.68696" lon="5.6587">
        <ele>507.8</ele>
        <time>2022-05-12T13:45:03Z</time>
      </trkpt>
      <trkpt lat="46.68701" lon="5.65867">
        <ele>507.1</ele>
        <time>2022-05-12T13:45:09Z</time>
      </trkpt>
      <trkpt lat="46.68706" lon="5.65866">
        <ele>506.6</ele>
        <time>2022-05-12T13:45:15Z</time>
      </trkpt>
      <trkpt lat="46.68709" lon="5.6586">
        <ele>506.3</ele>
        <time>2022-05-12T13:45:23Z</time>
      </trkpt>
      <trkpt lat="46.68713" lon="5.65855">
        <ele>506.4</ele>
        <time>2022-05-12T13:45:27Z</time>
      </trkpt>
      <trkpt lat="46.68718" lon="5.6585">
        <ele>506.5</ele>
        <time>2022-05-12T13:45:31Z</time>
      </trkpt>
      <trkpt lat="46.68722" lon="5.65848">
        <ele>507</ele>
        <time>2022-05-12T13:45:37Z</time>
      </trkpt>
      <trkpt lat="46.68727" lon="5.6585">
        <ele>507.9</ele>
        <time>2022-05-12T13:45:43Z</time>
      </trkpt>
      <trkpt lat="46.68732" lon="5.65846">
        <ele>510.3</ele>
        <time>2022-05-12T13:45:55Z</time>
      </trkpt>
      <trkpt lat="46.68737" lon="5.65846">
        <ele>511.2</ele>
        <time>2022-05-12T13:46:02Z</time>
      </trkpt>
      <trkpt lat="46.68742" lon="5.65844">
        <ele>511.4</ele>
        <time>2022-05-12T13:46:07Z</time>
      </trkpt>
      <trkpt lat="46.6874" lon="5.65855">
        <ele>512.1</ele>
        <time>2022-05-12T13:46:10Z</time>
      </trkpt>
      <trkpt lat="46.68744" lon="5.65859">
        <ele>512.4</ele>
        <time>2022-05-12T13:46:15Z</time>
      </trkpt>
      <trkpt lat="46.68749" lon="5.6586">
        <ele>512.4</ele>
        <time>2022-05-12T13:46:19Z</time>
      </trkpt>
      <trkpt lat="46.68753" lon="5.65862">
        <ele>512.5</ele>
        <time>2022-05-12T13:46:23Z</time>
      </trkpt>
      <trkpt lat="46.68758" lon="5.65863">
        <ele>512.4</ele>
        <time>2022-05-12T13:46:28Z</time>
      </trkpt>
      <trkpt lat="46.68762" lon="5.65865">
        <ele>512</ele>
        <time>2022-05-12T13:46:32Z</time>
      </trkpt>
      <trkpt lat="46.68767" lon="5.65868">
        <ele>511.1</ele>
        <time>2022-05-12T13:46:39Z</time>
      </trkpt>
      <trkpt lat="46.6877" lon="5.65873">
        <ele>509.5</ele>
        <time>2022-05-12T13:46:45Z</time>
      </trkpt>
      <trkpt lat="46.68772" lon="5.65879">
        <ele>508.5</ele>
        <time>2022-05-12T13:46:52Z</time>
      </trkpt>
      <trkpt lat="46.68777" lon="5.65881">
        <ele>508</ele>
        <time>2022-05-12T13:46:58Z</time>
      </trkpt>
      <trkpt lat="46.68782" lon="5.65882">
        <ele>507.3</ele>
        <time>2022-05-12T13:47:03Z</time>
      </trkpt>
      <trkpt lat="46.68786" lon="5.65886">
        <ele>507</ele>
        <time>2022-05-12T13:47:09Z</time>
      </trkpt>
      <trkpt lat="46.68791" lon="5.65891">
        <ele>506.7</ele>
        <time>2022-05-12T13:47:13Z</time>
      </trkpt>
      <trkpt lat="46.68796" lon="5.65894">
        <ele>506.1</ele>
        <time>2022-05-12T13:47:18Z</time>
      </trkpt>
      <trkpt lat="46.68801" lon="5.65893">
        <ele>504.9</ele>
        <time>2022-05-12T13:47:23Z</time>
      </trkpt>
      <trkpt lat="46.68801" lon="5.65886">
        <ele>503.9</ele>
        <time>2022-05-12T13:47:30Z</time>
      </trkpt>
      <trkpt lat="46.68801" lon="5.65879">
        <ele>503.7</ele>
        <time>2022-05-12T13:47:35Z</time>
      </trkpt>
      <trkpt lat="46.68805" lon="5.65875">
        <ele>504.1</ele>
        <time>2022-05-12T13:47:42Z</time>
      </trkpt>
      <trkpt lat="46.68809" lon="5.6587">
        <ele>504.4</ele>
        <time>2022-05-12T13:47:50Z</time>
      </trkpt>
      <trkpt lat="46.68808" lon="5.65863">
        <ele>504.2</ele>
        <time>2022-05-12T13:47:56Z</time>
      </trkpt>
      <trkpt lat="46.68812" lon="5.65859">
        <ele>504</ele>
        <time>2022-05-12T13:48:07Z</time>
      </trkpt>
      <trkpt lat="46.68817" lon="5.6586">
        <ele>504.2</ele>
        <time>2022-05-12T13:48:12Z</time>
      </trkpt>
      <trkpt lat="46.6882" lon="5.65866">
        <ele>504.7</ele>
        <time>2022-05-12T13:48:17Z</time>
      </trkpt>
      <trkpt lat="46.6882" lon="5.65873">
        <ele>506.5</ele>
        <time>2022-05-12T13:48:22Z</time>
      </trkpt>
      <trkpt lat="46.68822" lon="5.6588">
        <ele>509.1</ele>
        <time>2022-05-12T13:48:30Z</time>
      </trkpt>
      <trkpt lat="46.68823" lon="5.65887">
        <ele>510.3</ele>
        <time>2022-05-12T13:48:37Z</time>
      </trkpt>
      <trkpt lat="46.68826" lon="5.65892">
        <ele>511</ele>
        <time>2022-05-12T13:48:43Z</time>
      </trkpt>
      <trkpt lat="46.6883" lon="5.65894">
        <ele>510.8</ele>
        <time>2022-05-12T13:48:49Z</time>
      </trkpt>
      <trkpt lat="46.68834" lon="5.65889">
        <ele>509.9</ele>
        <time>2022-05-12T13:48:55Z</time>
      </trkpt>
      <trkpt lat="46.68836" lon="5.65882">
        <ele>508.4</ele>
        <time>2022-05-12T13:49:00Z</time>
      </trkpt>
      <trkpt lat="46.68837" lon="5.65875">
        <ele>507.3</ele>
        <time>2022-05-12T13:49:04Z</time>
      </trkpt>
      <trkpt lat="46.68837" lon="5.65868">
        <ele>505.8</ele>
        <time>2022-05-12T13:49:10Z</time>
      </trkpt>
      <trkpt lat="46.68842" lon="5.65867">
        <ele>504.2</ele>
        <time>2022-05-12T13:49:21Z</time>
      </trkpt>
    </trkseg>
  </trk>
</gpx>